<?xml version="1.0" encoding="UTF-8" standalone="no" ?>
<gpx xmlns="http://www.topografix.com/GPX/1/1" xmlns:xsi="http://www.w3.org/2001/XMLSchema-instance" xsi:schemaLocation="http://www.topografix.com/GPX/1/1 http://www.topografix.com/GPX/1/1/gpx.xsd" version="1.1" creator="VisuGPX - https://www.visugpx.com">
  <metadata>
    <name>Point fixe fixé à Fixey</name>
    <desc><![CDATA[Point fixe fixé à Fixey : très bon parcours.]]></desc>
  </metadata>
  <trk>
    <name><![CDATA[13/04/2013 8:05]]></name>
    <desc><![CDATA[]]></desc>
    <trkseg>
      <trkpt lat="47.25006" lon="4.96907">
        <ele>370.3</ele>
        <time>2013-04-13T06:05:57.524Z</time>
      </trkpt>
      <trkpt lat="47.24992" lon="4.96884">
        <ele>386.7</ele>
        <time>2013-04-13T06:05:58.524Z</time>
      </trkpt>
      <trkpt lat="47.24997" lon="4.96893">
        <ele>383.9</ele>
        <time>2013-04-13T06:05:59.000Z</time>
      </trkpt>
      <trkpt lat="47.24999" lon="4.96887">
        <ele>376.6</ele>
        <time>2013-04-13T06:07:48.000Z</time>
      </trkpt>
      <trkpt lat="47.25" lon="4.96886">
        <ele>376.6</ele>
        <time>2013-04-13T06:07:49.000Z</time>
      </trkpt>
      <trkpt lat="47.25001" lon="4.9688">
        <ele>376.7</ele>
        <time>2013-04-13T06:07:53.000Z</time>
      </trkpt>
      <trkpt lat="47.25001" lon="4.96879">
        <ele>377.3</ele>
        <time>2013-04-13T06:07:54.000Z</time>
      </trkpt>
      <trkpt lat="47.25002" lon="4.96874">
        <ele>375.9</ele>
        <time>2013-04-13T06:07:57.000Z</time>
      </trkpt>
      <trkpt lat="47.25002" lon="4.96872">
        <ele>376</ele>
        <time>2013-04-13T06:07:58.000Z</time>
      </trkpt>
      <trkpt lat="47.25003" lon="4.96866">
        <ele>375.2</ele>
        <time>2013-04-13T06:08:02.000Z</time>
      </trkpt>
      <trkpt lat="47.25003" lon="4.96865">
        <ele>375.3</ele>
        <time>2013-04-13T06:08:03.000Z</time>
      </trkpt>
      <trkpt lat="47.25003" lon="4.96859">
        <ele>376.9</ele>
        <time>2013-04-13T06:08:07.000Z</time>
      </trkpt>
      <trkpt lat="47.25003" lon="4.96857">
        <ele>376.3</ele>
        <time>2013-04-13T06:08:08.000Z</time>
      </trkpt>
      <trkpt lat="47.25004" lon="4.96852">
        <ele>376.5</ele>
        <time>2013-04-13T06:08:11.000Z</time>
      </trkpt>
      <trkpt lat="47.25004" lon="4.9685">
        <ele>376.8</ele>
        <time>2013-04-13T06:08:12.000Z</time>
      </trkpt>
      <trkpt lat="47.25005" lon="4.96845">
        <ele>379</ele>
        <time>2013-04-13T06:08:15.000Z</time>
      </trkpt>
      <trkpt lat="47.25005" lon="4.96843">
        <ele>378.8</ele>
        <time>2013-04-13T06:08:16.000Z</time>
      </trkpt>
      <trkpt lat="47.25005" lon="4.96838">
        <ele>378.5</ele>
        <time>2013-04-13T06:08:19.000Z</time>
      </trkpt>
      <trkpt lat="47.25005" lon="4.96836">
        <ele>379.3</ele>
        <time>2013-04-13T06:08:20.000Z</time>
      </trkpt>
      <trkpt lat="47.25005" lon="4.9683">
        <ele>379</ele>
        <time>2013-04-13T06:08:24.000Z</time>
      </trkpt>
      <trkpt lat="47.25005" lon="4.9683">
        <ele>380.5</ele>
        <time>2013-04-13T06:08:25.000Z</time>
      </trkpt>
      <trkpt lat="47.25004" lon="4.96824">
        <ele>379.9</ele>
        <time>2013-04-13T06:08:29.000Z</time>
      </trkpt>
      <trkpt lat="47.25003" lon="4.96822">
        <ele>380.5</ele>
        <time>2013-04-13T06:08:30.000Z</time>
      </trkpt>
      <trkpt lat="47.25001" lon="4.96817">
        <ele>382.5</ele>
        <time>2013-04-13T06:08:33.000Z</time>
      </trkpt>
      <trkpt lat="47.25001" lon="4.96815">
        <ele>382.3</ele>
        <time>2013-04-13T06:08:34.000Z</time>
      </trkpt>
      <trkpt lat="47.24997" lon="4.96812">
        <ele>385.3</ele>
        <time>2013-04-13T06:08:40.000Z</time>
      </trkpt>
      <trkpt lat="47.24996" lon="4.96811">
        <ele>385.9</ele>
        <time>2013-04-13T06:08:41.000Z</time>
      </trkpt>
      <trkpt lat="47.24993" lon="4.96809">
        <ele>385.5</ele>
        <time>2013-04-13T06:08:44.000Z</time>
      </trkpt>
      <trkpt lat="47.24992" lon="4.96807">
        <ele>385.2</ele>
        <time>2013-04-13T06:08:45.000Z</time>
      </trkpt>
      <trkpt lat="47.2499" lon="4.96804">
        <ele>386.5</ele>
        <time>2013-04-13T06:08:47.000Z</time>
      </trkpt>
      <trkpt lat="47.24989" lon="4.96802">
        <ele>387.3</ele>
        <time>2013-04-13T06:08:48.000Z</time>
      </trkpt>
      <trkpt lat="47.24988" lon="4.96797">
        <ele>387.7</ele>
        <time>2013-04-13T06:08:52.000Z</time>
      </trkpt>
      <trkpt lat="47.24987" lon="4.96795">
        <ele>387.7</ele>
        <time>2013-04-13T06:08:53.000Z</time>
      </trkpt>
      <trkpt lat="47.24985" lon="4.9679">
        <ele>387.7</ele>
        <time>2013-04-13T06:08:56.000Z</time>
      </trkpt>
      <trkpt lat="47.24984" lon="4.96789">
        <ele>387.5</ele>
        <time>2013-04-13T06:08:57.000Z</time>
      </trkpt>
      <trkpt lat="47.24981" lon="4.96784">
        <ele>385.6</ele>
        <time>2013-04-13T06:09:02.000Z</time>
      </trkpt>
      <trkpt lat="47.24981" lon="4.96783">
        <ele>386</ele>
        <time>2013-04-13T06:09:03.000Z</time>
      </trkpt>
      <trkpt lat="47.24978" lon="4.9678">
        <ele>386</ele>
        <time>2013-04-13T06:09:06.000Z</time>
      </trkpt>
      <trkpt lat="47.24977" lon="4.96779">
        <ele>385.5</ele>
        <time>2013-04-13T06:09:07.000Z</time>
      </trkpt>
      <trkpt lat="47.24974" lon="4.96774">
        <ele>384.3</ele>
        <time>2013-04-13T06:09:11.000Z</time>
      </trkpt>
      <trkpt lat="47.24973" lon="4.96773">
        <ele>384</ele>
        <time>2013-04-13T06:09:12.000Z</time>
      </trkpt>
      <trkpt lat="47.24972" lon="4.96769">
        <ele>384.9</ele>
        <time>2013-04-13T06:09:15.000Z</time>
      </trkpt>
      <trkpt lat="47.2497" lon="4.96767">
        <ele>382.9</ele>
        <time>2013-04-13T06:09:16.000Z</time>
      </trkpt>
      <trkpt lat="47.24969" lon="4.96762">
        <ele>380.7</ele>
        <time>2013-04-13T06:09:18.000Z</time>
      </trkpt>
      <trkpt lat="47.24968" lon="4.96759">
        <ele>377.5</ele>
        <time>2013-04-13T06:09:19.000Z</time>
      </trkpt>
      <trkpt lat="47.24968" lon="4.96753">
        <ele>376.6</ele>
        <time>2013-04-13T06:09:21.000Z</time>
      </trkpt>
      <trkpt lat="47.24968" lon="4.9675">
        <ele>378.8</ele>
        <time>2013-04-13T06:09:22.000Z</time>
      </trkpt>
      <trkpt lat="47.24966" lon="4.96745">
        <ele>378.9</ele>
        <time>2013-04-13T06:09:25.000Z</time>
      </trkpt>
      <trkpt lat="47.24966" lon="4.96744">
        <ele>379</ele>
        <time>2013-04-13T06:09:26.000Z</time>
      </trkpt>
      <trkpt lat="47.24964" lon="4.96738">
        <ele>377.9</ele>
        <time>2013-04-13T06:09:29.000Z</time>
      </trkpt>
      <trkpt lat="47.24964" lon="4.96736">
        <ele>377.7</ele>
        <time>2013-04-13T06:09:30.000Z</time>
      </trkpt>
      <trkpt lat="47.24961" lon="4.96731">
        <ele>381.2</ele>
        <time>2013-04-13T06:09:33.000Z</time>
      </trkpt>
      <trkpt lat="47.2496" lon="4.96729">
        <ele>381.3</ele>
        <time>2013-04-13T06:09:34.000Z</time>
      </trkpt>
      <trkpt lat="47.24959" lon="4.96723">
        <ele>378.4</ele>
        <time>2013-04-13T06:09:37.000Z</time>
      </trkpt>
      <trkpt lat="47.24959" lon="4.96722">
        <ele>378.2</ele>
        <time>2013-04-13T06:09:38.000Z</time>
      </trkpt>
      <trkpt lat="47.24958" lon="4.96716">
        <ele>378.6</ele>
        <time>2013-04-13T06:09:42.000Z</time>
      </trkpt>
      <trkpt lat="47.24958" lon="4.96715">
        <ele>378.8</ele>
        <time>2013-04-13T06:09:43.000Z</time>
      </trkpt>
      <trkpt lat="47.24956" lon="4.96709">
        <ele>380.1</ele>
        <time>2013-04-13T06:09:47.000Z</time>
      </trkpt>
      <trkpt lat="47.24955" lon="4.96707">
        <ele>379.7</ele>
        <time>2013-04-13T06:09:48.000Z</time>
      </trkpt>
      <trkpt lat="47.24954" lon="4.96701">
        <ele>380.8</ele>
        <time>2013-04-13T06:09:52.000Z</time>
      </trkpt>
      <trkpt lat="47.24954" lon="4.96699">
        <ele>380.7</ele>
        <time>2013-04-13T06:09:53.000Z</time>
      </trkpt>
      <trkpt lat="47.24953" lon="4.96693">
        <ele>381.3</ele>
        <time>2013-04-13T06:09:57.000Z</time>
      </trkpt>
      <trkpt lat="47.24953" lon="4.96691">
        <ele>381.2</ele>
        <time>2013-04-13T06:09:58.000Z</time>
      </trkpt>
      <trkpt lat="47.24952" lon="4.96686">
        <ele>382.1</ele>
        <time>2013-04-13T06:10:01.000Z</time>
      </trkpt>
      <trkpt lat="47.24952" lon="4.96684">
        <ele>382.7</ele>
        <time>2013-04-13T06:10:02.000Z</time>
      </trkpt>
      <trkpt lat="47.24951" lon="4.96679">
        <ele>383.3</ele>
        <time>2013-04-13T06:10:04.000Z</time>
      </trkpt>
      <trkpt lat="47.24951" lon="4.96676">
        <ele>383.6</ele>
        <time>2013-04-13T06:10:05.000Z</time>
      </trkpt>
      <trkpt lat="47.2495" lon="4.96671">
        <ele>382.6</ele>
        <time>2013-04-13T06:10:07.000Z</time>
      </trkpt>
      <trkpt lat="47.2495" lon="4.96668">
        <ele>382.7</ele>
        <time>2013-04-13T06:10:08.000Z</time>
      </trkpt>
      <trkpt lat="47.24949" lon="4.96663">
        <ele>383.5</ele>
        <time>2013-04-13T06:10:10.000Z</time>
      </trkpt>
      <trkpt lat="47.24948" lon="4.9666">
        <ele>383.7</ele>
        <time>2013-04-13T06:10:11.000Z</time>
      </trkpt>
      <trkpt lat="47.24947" lon="4.96656">
        <ele>384.3</ele>
        <time>2013-04-13T06:10:13.000Z</time>
      </trkpt>
      <trkpt lat="47.24947" lon="4.96654">
        <ele>384.9</ele>
        <time>2013-04-13T06:10:14.000Z</time>
      </trkpt>
      <trkpt lat="47.24946" lon="4.96649">
        <ele>385.5</ele>
        <time>2013-04-13T06:10:16.000Z</time>
      </trkpt>
      <trkpt lat="47.24945" lon="4.96647">
        <ele>385.3</ele>
        <time>2013-04-13T06:10:17.000Z</time>
      </trkpt>
      <trkpt lat="47.24943" lon="4.96641">
        <ele>385.7</ele>
        <time>2013-04-13T06:10:20.000Z</time>
      </trkpt>
      <trkpt lat="47.24942" lon="4.96639">
        <ele>385.1</ele>
        <time>2013-04-13T06:10:21.000Z</time>
      </trkpt>
      <trkpt lat="47.24939" lon="4.96636">
        <ele>386.2</ele>
        <time>2013-04-13T06:10:23.000Z</time>
      </trkpt>
      <trkpt lat="47.24938" lon="4.96634">
        <ele>386.8</ele>
        <time>2013-04-13T06:10:24.000Z</time>
      </trkpt>
      <trkpt lat="47.24936" lon="4.9663">
        <ele>387.4</ele>
        <time>2013-04-13T06:10:26.000Z</time>
      </trkpt>
      <trkpt lat="47.24935" lon="4.96629">
        <ele>387.8</ele>
        <time>2013-04-13T06:10:27.000Z</time>
      </trkpt>
      <trkpt lat="47.24931" lon="4.96625">
        <ele>389.7</ele>
        <time>2013-04-13T06:10:30.000Z</time>
      </trkpt>
      <trkpt lat="47.2493" lon="4.96625">
        <ele>389.4</ele>
        <time>2013-04-13T06:10:31.000Z</time>
      </trkpt>
      <trkpt lat="47.24927" lon="4.96622">
        <ele>391.1</ele>
        <time>2013-04-13T06:10:34.000Z</time>
      </trkpt>
      <trkpt lat="47.24926" lon="4.96622">
        <ele>391.2</ele>
        <time>2013-04-13T06:10:35.000Z</time>
      </trkpt>
      <trkpt lat="47.24922" lon="4.96618">
        <ele>391.6</ele>
        <time>2013-04-13T06:10:39.000Z</time>
      </trkpt>
      <trkpt lat="47.24921" lon="4.96617">
        <ele>391.8</ele>
        <time>2013-04-13T06:10:40.000Z</time>
      </trkpt>
      <trkpt lat="47.24917" lon="4.96614">
        <ele>392.3</ele>
        <time>2013-04-13T06:10:45.000Z</time>
      </trkpt>
      <trkpt lat="47.24916" lon="4.96614">
        <ele>392.8</ele>
        <time>2013-04-13T06:10:46.000Z</time>
      </trkpt>
      <trkpt lat="47.24913" lon="4.9661">
        <ele>393.4</ele>
        <time>2013-04-13T06:10:49.000Z</time>
      </trkpt>
      <trkpt lat="47.24912" lon="4.96609">
        <ele>394.4</ele>
        <time>2013-04-13T06:10:50.000Z</time>
      </trkpt>
      <trkpt lat="47.2491" lon="4.96605">
        <ele>395.1</ele>
        <time>2013-04-13T06:10:52.000Z</time>
      </trkpt>
      <trkpt lat="47.24909" lon="4.96603">
        <ele>395.1</ele>
        <time>2013-04-13T06:10:53.000Z</time>
      </trkpt>
      <trkpt lat="47.24907" lon="4.96599">
        <ele>394.6</ele>
        <time>2013-04-13T06:10:55.000Z</time>
      </trkpt>
      <trkpt lat="47.24906" lon="4.96597">
        <ele>395.2</ele>
        <time>2013-04-13T06:10:56.000Z</time>
      </trkpt>
      <trkpt lat="47.24906" lon="4.96591">
        <ele>396.5</ele>
        <time>2013-04-13T06:10:59.000Z</time>
      </trkpt>
      <trkpt lat="47.24907" lon="4.96589">
        <ele>396.7</ele>
        <time>2013-04-13T06:11:00.000Z</time>
      </trkpt>
      <trkpt lat="47.24906" lon="4.96585">
        <ele>396.7</ele>
        <time>2013-04-13T06:11:03.000Z</time>
      </trkpt>
      <trkpt lat="47.24906" lon="4.96583">
        <ele>396.2</ele>
        <time>2013-04-13T06:11:04.000Z</time>
      </trkpt>
      <trkpt lat="47.24904" lon="4.96577">
        <ele>398.1</ele>
        <time>2013-04-13T06:11:07.000Z</time>
      </trkpt>
      <trkpt lat="47.24904" lon="4.96576">
        <ele>398.3</ele>
        <time>2013-04-13T06:11:08.000Z</time>
      </trkpt>
      <trkpt lat="47.249" lon="4.96573">
        <ele>398.7</ele>
        <time>2013-04-13T06:11:19.000Z</time>
      </trkpt>
      <trkpt lat="47.24899" lon="4.9657">
        <ele>399.8</ele>
        <time>2013-04-13T06:11:20.000Z</time>
      </trkpt>
      <trkpt lat="47.24897" lon="4.96565">
        <ele>400.6</ele>
        <time>2013-04-13T06:11:22.000Z</time>
      </trkpt>
      <trkpt lat="47.24896" lon="4.96563">
        <ele>400.8</ele>
        <time>2013-04-13T06:11:23.000Z</time>
      </trkpt>
      <trkpt lat="47.24894" lon="4.96559">
        <ele>401.2</ele>
        <time>2013-04-13T06:11:25.000Z</time>
      </trkpt>
      <trkpt lat="47.24893" lon="4.96557">
        <ele>401.6</ele>
        <time>2013-04-13T06:11:26.000Z</time>
      </trkpt>
      <trkpt lat="47.24891" lon="4.96552">
        <ele>400.6</ele>
        <time>2013-04-13T06:11:29.000Z</time>
      </trkpt>
      <trkpt lat="47.2489" lon="4.9655">
        <ele>400.2</ele>
        <time>2013-04-13T06:11:30.000Z</time>
      </trkpt>
      <trkpt lat="47.24888" lon="4.96545">
        <ele>400.8</ele>
        <time>2013-04-13T06:11:32.000Z</time>
      </trkpt>
      <trkpt lat="47.24888" lon="4.96543">
        <ele>400.6</ele>
        <time>2013-04-13T06:11:33.000Z</time>
      </trkpt>
      <trkpt lat="47.24887" lon="4.96539">
        <ele>401.2</ele>
        <time>2013-04-13T06:11:35.000Z</time>
      </trkpt>
      <trkpt lat="47.24886" lon="4.96536">
        <ele>400.7</ele>
        <time>2013-04-13T06:11:36.000Z</time>
      </trkpt>
      <trkpt lat="47.24884" lon="4.96532">
        <ele>402.8</ele>
        <time>2013-04-13T06:11:38.000Z</time>
      </trkpt>
      <trkpt lat="47.24883" lon="4.96529">
        <ele>402.1</ele>
        <time>2013-04-13T06:11:39.000Z</time>
      </trkpt>
      <trkpt lat="47.24881" lon="4.96524">
        <ele>402.3</ele>
        <time>2013-04-13T06:11:41.000Z</time>
      </trkpt>
      <trkpt lat="47.2488" lon="4.96522">
        <ele>402.6</ele>
        <time>2013-04-13T06:11:42.000Z</time>
      </trkpt>
      <trkpt lat="47.24878" lon="4.96518">
        <ele>404.3</ele>
        <time>2013-04-13T06:11:44.000Z</time>
      </trkpt>
      <trkpt lat="47.24878" lon="4.96516">
        <ele>403.6</ele>
        <time>2013-04-13T06:11:45.000Z</time>
      </trkpt>
      <trkpt lat="47.24877" lon="4.96512">
        <ele>403.7</ele>
        <time>2013-04-13T06:11:47.000Z</time>
      </trkpt>
      <trkpt lat="47.24876" lon="4.96509">
        <ele>404.4</ele>
        <time>2013-04-13T06:11:48.000Z</time>
      </trkpt>
      <trkpt lat="47.24875" lon="4.96505">
        <ele>404.3</ele>
        <time>2013-04-13T06:11:50.000Z</time>
      </trkpt>
      <trkpt lat="47.24874" lon="4.96503">
        <ele>405.1</ele>
        <time>2013-04-13T06:11:51.000Z</time>
      </trkpt>
      <trkpt lat="47.24873" lon="4.96497">
        <ele>405.2</ele>
        <time>2013-04-13T06:11:54.000Z</time>
      </trkpt>
      <trkpt lat="47.24872" lon="4.96495">
        <ele>405.5</ele>
        <time>2013-04-13T06:11:55.000Z</time>
      </trkpt>
      <trkpt lat="47.24871" lon="4.96488">
        <ele>406.8</ele>
        <time>2013-04-13T06:11:59.000Z</time>
      </trkpt>
      <trkpt lat="47.24871" lon="4.96487">
        <ele>406.7</ele>
        <time>2013-04-13T06:12:00.000Z</time>
      </trkpt>
      <trkpt lat="47.2487" lon="4.96482">
        <ele>407.1</ele>
        <time>2013-04-13T06:12:03.000Z</time>
      </trkpt>
      <trkpt lat="47.2487" lon="4.9648">
        <ele>406.9</ele>
        <time>2013-04-13T06:12:04.000Z</time>
      </trkpt>
      <trkpt lat="47.24868" lon="4.96475">
        <ele>409.7</ele>
        <time>2013-04-13T06:12:07.000Z</time>
      </trkpt>
      <trkpt lat="47.24867" lon="4.96473">
        <ele>410.5</ele>
        <time>2013-04-13T06:12:08.000Z</time>
      </trkpt>
      <trkpt lat="47.24865" lon="4.96469">
        <ele>410.9</ele>
        <time>2013-04-13T06:12:10.000Z</time>
      </trkpt>
      <trkpt lat="47.24865" lon="4.96467">
        <ele>410.4</ele>
        <time>2013-04-13T06:12:11.000Z</time>
      </trkpt>
      <trkpt lat="47.24864" lon="4.96462">
        <ele>410.9</ele>
        <time>2013-04-13T06:12:13.000Z</time>
      </trkpt>
      <trkpt lat="47.24864" lon="4.9646">
        <ele>411.6</ele>
        <time>2013-04-13T06:12:14.000Z</time>
      </trkpt>
      <trkpt lat="47.24864" lon="4.96455">
        <ele>410.8</ele>
        <time>2013-04-13T06:12:16.000Z</time>
      </trkpt>
      <trkpt lat="47.24864" lon="4.96452">
        <ele>410.8</ele>
        <time>2013-04-13T06:12:17.000Z</time>
      </trkpt>
      <trkpt lat="47.24865" lon="4.96446">
        <ele>410.6</ele>
        <time>2013-04-13T06:12:20.000Z</time>
      </trkpt>
      <trkpt lat="47.24865" lon="4.96444">
        <ele>410.6</ele>
        <time>2013-04-13T06:12:21.000Z</time>
      </trkpt>
      <trkpt lat="47.24866" lon="4.96439">
        <ele>412.5</ele>
        <time>2013-04-13T06:12:24.000Z</time>
      </trkpt>
      <trkpt lat="47.24867" lon="4.96437">
        <ele>412.9</ele>
        <time>2013-04-13T06:12:25.000Z</time>
      </trkpt>
      <trkpt lat="47.24868" lon="4.96431">
        <ele>414.1</ele>
        <time>2013-04-13T06:12:29.000Z</time>
      </trkpt>
      <trkpt lat="47.24868" lon="4.96429">
        <ele>414.2</ele>
        <time>2013-04-13T06:12:30.000Z</time>
      </trkpt>
      <trkpt lat="47.24869" lon="4.96424">
        <ele>414.5</ele>
        <time>2013-04-13T06:12:33.000Z</time>
      </trkpt>
      <trkpt lat="47.24869" lon="4.96422">
        <ele>414.5</ele>
        <time>2013-04-13T06:12:34.000Z</time>
      </trkpt>
      <trkpt lat="47.2487" lon="4.96417">
        <ele>415.6</ele>
        <time>2013-04-13T06:12:36.000Z</time>
      </trkpt>
      <trkpt lat="47.2487" lon="4.96415">
        <ele>415.3</ele>
        <time>2013-04-13T06:12:37.000Z</time>
      </trkpt>
      <trkpt lat="47.24871" lon="4.96409">
        <ele>415.9</ele>
        <time>2013-04-13T06:12:40.000Z</time>
      </trkpt>
      <trkpt lat="47.24872" lon="4.96408">
        <ele>415.6</ele>
        <time>2013-04-13T06:12:41.000Z</time>
      </trkpt>
      <trkpt lat="47.24874" lon="4.96404">
        <ele>416.8</ele>
        <time>2013-04-13T06:12:44.000Z</time>
      </trkpt>
      <trkpt lat="47.24875" lon="4.96402">
        <ele>417.2</ele>
        <time>2013-04-13T06:12:45.000Z</time>
      </trkpt>
      <trkpt lat="47.24877" lon="4.96397">
        <ele>418.1</ele>
        <time>2013-04-13T06:12:48.000Z</time>
      </trkpt>
      <trkpt lat="47.24878" lon="4.96395">
        <ele>418.6</ele>
        <time>2013-04-13T06:12:49.000Z</time>
      </trkpt>
      <trkpt lat="47.24879" lon="4.96391">
        <ele>419.3</ele>
        <time>2013-04-13T06:12:52.000Z</time>
      </trkpt>
      <trkpt lat="47.2488" lon="4.96389">
        <ele>419.1</ele>
        <time>2013-04-13T06:12:53.000Z</time>
      </trkpt>
      <trkpt lat="47.24882" lon="4.96384">
        <ele>420.7</ele>
        <time>2013-04-13T06:12:59.000Z</time>
      </trkpt>
      <trkpt lat="47.24882" lon="4.96383">
        <ele>421.3</ele>
        <time>2013-04-13T06:13:00.000Z</time>
      </trkpt>
      <trkpt lat="47.24883" lon="4.96378">
        <ele>422.8</ele>
        <time>2013-04-13T06:13:04.000Z</time>
      </trkpt>
      <trkpt lat="47.24884" lon="4.96377">
        <ele>423.2</ele>
        <time>2013-04-13T06:13:05.000Z</time>
      </trkpt>
      <trkpt lat="47.24885" lon="4.96371">
        <ele>423.7</ele>
        <time>2013-04-13T06:14:44.000Z</time>
      </trkpt>
      <trkpt lat="47.24885" lon="4.96371">
        <ele>424.7</ele>
        <time>2013-04-13T06:14:45.000Z</time>
      </trkpt>
      <trkpt lat="47.24881" lon="4.9637">
        <ele>426.6</ele>
        <time>2013-04-13T06:14:50.000Z</time>
      </trkpt>
      <trkpt lat="47.24879" lon="4.96369">
        <ele>425.5</ele>
        <time>2013-04-13T06:14:51.000Z</time>
      </trkpt>
      <trkpt lat="47.24876" lon="4.96369">
        <ele>425.7</ele>
        <time>2013-04-13T06:14:53.000Z</time>
      </trkpt>
      <trkpt lat="47.24874" lon="4.96368">
        <ele>426.7</ele>
        <time>2013-04-13T06:14:54.000Z</time>
      </trkpt>
      <trkpt lat="47.24871" lon="4.96367">
        <ele>427.7</ele>
        <time>2013-04-13T06:14:56.000Z</time>
      </trkpt>
      <trkpt lat="47.2487" lon="4.96366">
        <ele>428.1</ele>
        <time>2013-04-13T06:14:57.000Z</time>
      </trkpt>
      <trkpt lat="47.24867" lon="4.96366">
        <ele>426.3</ele>
        <time>2013-04-13T06:14:59.000Z</time>
      </trkpt>
      <trkpt lat="47.24865" lon="4.96366">
        <ele>426.3</ele>
        <time>2013-04-13T06:15:00.000Z</time>
      </trkpt>
      <trkpt lat="47.24862" lon="4.96366">
        <ele>426.1</ele>
        <time>2013-04-13T06:15:02.000Z</time>
      </trkpt>
      <trkpt lat="47.2486" lon="4.96366">
        <ele>426</ele>
        <time>2013-04-13T06:15:03.000Z</time>
      </trkpt>
      <trkpt lat="47.24856" lon="4.96367">
        <ele>426.9</ele>
        <time>2013-04-13T06:15:06.000Z</time>
      </trkpt>
      <trkpt lat="47.24855" lon="4.96367">
        <ele>427.2</ele>
        <time>2013-04-13T06:15:07.000Z</time>
      </trkpt>
      <trkpt lat="47.24852" lon="4.96365">
        <ele>428.8</ele>
        <time>2013-04-13T06:15:09.000Z</time>
      </trkpt>
      <trkpt lat="47.2485" lon="4.96364">
        <ele>429.4</ele>
        <time>2013-04-13T06:15:10.000Z</time>
      </trkpt>
      <trkpt lat="47.24846" lon="4.96363">
        <ele>430.4</ele>
        <time>2013-04-13T06:15:12.000Z</time>
      </trkpt>
      <trkpt lat="47.24845" lon="4.96363">
        <ele>430.1</ele>
        <time>2013-04-13T06:15:13.000Z</time>
      </trkpt>
      <trkpt lat="47.24841" lon="4.96363">
        <ele>429.4</ele>
        <time>2013-04-13T06:15:15.000Z</time>
      </trkpt>
      <trkpt lat="47.24839" lon="4.96364">
        <ele>429.3</ele>
        <time>2013-04-13T06:15:16.000Z</time>
      </trkpt>
      <trkpt lat="47.24835" lon="4.96364">
        <ele>429.4</ele>
        <time>2013-04-13T06:15:18.000Z</time>
      </trkpt>
      <trkpt lat="47.24834" lon="4.96364">
        <ele>429.9</ele>
        <time>2013-04-13T06:15:19.000Z</time>
      </trkpt>
      <trkpt lat="47.2483" lon="4.96365">
        <ele>427.9</ele>
        <time>2013-04-13T06:15:22.000Z</time>
      </trkpt>
      <trkpt lat="47.24828" lon="4.96364">
        <ele>427.1</ele>
        <time>2013-04-13T06:15:23.000Z</time>
      </trkpt>
      <trkpt lat="47.24825" lon="4.96363">
        <ele>426.2</ele>
        <time>2013-04-13T06:15:26.000Z</time>
      </trkpt>
      <trkpt lat="47.24824" lon="4.96363">
        <ele>424.9</ele>
        <time>2013-04-13T06:15:27.000Z</time>
      </trkpt>
      <trkpt lat="47.2482" lon="4.96361">
        <ele>421.1</ele>
        <time>2013-04-13T06:15:30.000Z</time>
      </trkpt>
      <trkpt lat="47.24819" lon="4.9636">
        <ele>421.7</ele>
        <time>2013-04-13T06:15:31.000Z</time>
      </trkpt>
      <trkpt lat="47.24815" lon="4.96359">
        <ele>417.7</ele>
        <time>2013-04-13T06:15:36.000Z</time>
      </trkpt>
      <trkpt lat="47.24814" lon="4.96358">
        <ele>418</ele>
        <time>2013-04-13T06:15:37.000Z</time>
      </trkpt>
      <trkpt lat="47.24811" lon="4.96358">
        <ele>416.6</ele>
        <time>2013-04-13T06:15:39.000Z</time>
      </trkpt>
      <trkpt lat="47.24809" lon="4.96357">
        <ele>417.9</ele>
        <time>2013-04-13T06:15:40.000Z</time>
      </trkpt>
      <trkpt lat="47.24806" lon="4.96355">
        <ele>417.6</ele>
        <time>2013-04-13T06:15:42.000Z</time>
      </trkpt>
      <trkpt lat="47.24804" lon="4.96354">
        <ele>417.4</ele>
        <time>2013-04-13T06:15:43.000Z</time>
      </trkpt>
      <trkpt lat="47.248" lon="4.9635">
        <ele>417</ele>
        <time>2013-04-13T06:15:46.000Z</time>
      </trkpt>
      <trkpt lat="47.24799" lon="4.9635">
        <ele>416.7</ele>
        <time>2013-04-13T06:15:47.000Z</time>
      </trkpt>
      <trkpt lat="47.24796" lon="4.96349">
        <ele>416.6</ele>
        <time>2013-04-13T06:15:50.000Z</time>
      </trkpt>
      <trkpt lat="47.24794" lon="4.96349">
        <ele>418.7</ele>
        <time>2013-04-13T06:15:51.000Z</time>
      </trkpt>
      <trkpt lat="47.24792" lon="4.9635">
        <ele>419.4</ele>
        <time>2013-04-13T06:15:52.000Z</time>
      </trkpt>
      <trkpt lat="47.24788" lon="4.96349">
        <ele>418.9</ele>
        <time>2013-04-13T06:15:54.161Z</time>
      </trkpt>
      <trkpt lat="47.24785" lon="4.96346">
        <ele>418.8</ele>
        <time>2013-04-13T06:15:57.000Z</time>
      </trkpt>
      <trkpt lat="47.24784" lon="4.96346">
        <ele>419.3</ele>
        <time>2013-04-13T06:15:58.000Z</time>
      </trkpt>
      <trkpt lat="47.2478" lon="4.96345">
        <ele>419.3</ele>
        <time>2013-04-13T06:16:02.000Z</time>
      </trkpt>
      <trkpt lat="47.24779" lon="4.96344">
        <ele>419.6</ele>
        <time>2013-04-13T06:16:03.000Z</time>
      </trkpt>
      <trkpt lat="47.24777" lon="4.9634">
        <ele>419.3</ele>
        <time>2013-04-13T06:16:06.000Z</time>
      </trkpt>
      <trkpt lat="47.24776" lon="4.96337">
        <ele>418.4</ele>
        <time>2013-04-13T06:16:07.000Z</time>
      </trkpt>
      <trkpt lat="47.24774" lon="4.96333">
        <ele>417</ele>
        <time>2013-04-13T06:16:09.000Z</time>
      </trkpt>
      <trkpt lat="47.24772" lon="4.9633">
        <ele>416.3</ele>
        <time>2013-04-13T06:16:10.000Z</time>
      </trkpt>
      <trkpt lat="47.2477" lon="4.96325">
        <ele>416.6</ele>
        <time>2013-04-13T06:16:12.000Z</time>
      </trkpt>
      <trkpt lat="47.24769" lon="4.96322">
        <ele>416.6</ele>
        <time>2013-04-13T06:16:13.000Z</time>
      </trkpt>
      <trkpt lat="47.24767" lon="4.96317">
        <ele>417.1</ele>
        <time>2013-04-13T06:16:15.000Z</time>
      </trkpt>
      <trkpt lat="47.24766" lon="4.96315">
        <ele>414.2</ele>
        <time>2013-04-13T06:16:16.000Z</time>
      </trkpt>
      <trkpt lat="47.24763" lon="4.96309">
        <ele>414.5</ele>
        <time>2013-04-13T06:16:18.000Z</time>
      </trkpt>
      <trkpt lat="47.24762" lon="4.96307">
        <ele>414.7</ele>
        <time>2013-04-13T06:16:19.000Z</time>
      </trkpt>
      <trkpt lat="47.2476" lon="4.96302">
        <ele>414.9</ele>
        <time>2013-04-13T06:16:21.000Z</time>
      </trkpt>
      <trkpt lat="47.24759" lon="4.963">
        <ele>415.4</ele>
        <time>2013-04-13T06:16:22.000Z</time>
      </trkpt>
      <trkpt lat="47.24756" lon="4.96296">
        <ele>415</ele>
        <time>2013-04-13T06:16:25.000Z</time>
      </trkpt>
      <trkpt lat="47.24755" lon="4.96295">
        <ele>414.8</ele>
        <time>2013-04-13T06:16:26.000Z</time>
      </trkpt>
      <trkpt lat="47.24752" lon="4.9629">
        <ele>414.9</ele>
        <time>2013-04-13T06:16:30.000Z</time>
      </trkpt>
      <trkpt lat="47.24752" lon="4.96289">
        <ele>414.3</ele>
        <time>2013-04-13T06:16:31.000Z</time>
      </trkpt>
      <trkpt lat="47.2475" lon="4.96284">
        <ele>412.4</ele>
        <time>2013-04-13T06:16:35.000Z</time>
      </trkpt>
      <trkpt lat="47.24749" lon="4.96282">
        <ele>412.4</ele>
        <time>2013-04-13T06:16:36.000Z</time>
      </trkpt>
      <trkpt lat="47.24746" lon="4.96277">
        <ele>413.6</ele>
        <time>2013-04-13T06:16:39.000Z</time>
      </trkpt>
      <trkpt lat="47.24745" lon="4.96276">
        <ele>414.2</ele>
        <time>2013-04-13T06:16:40.000Z</time>
      </trkpt>
      <trkpt lat="47.24742" lon="4.96272">
        <ele>412.7</ele>
        <time>2013-04-13T06:16:45.000Z</time>
      </trkpt>
      <trkpt lat="47.24741" lon="4.96272">
        <ele>411.7</ele>
        <time>2013-04-13T06:16:46.000Z</time>
      </trkpt>
      <trkpt lat="47.24737" lon="4.96271">
        <ele>411.3</ele>
        <time>2013-04-13T06:16:50.000Z</time>
      </trkpt>
      <trkpt lat="47.24736" lon="4.9627">
        <ele>410.3</ele>
        <time>2013-04-13T06:16:51.000Z</time>
      </trkpt>
      <trkpt lat="47.24733" lon="4.96267">
        <ele>410.4</ele>
        <time>2013-04-13T06:16:55.000Z</time>
      </trkpt>
      <trkpt lat="47.24732" lon="4.96266">
        <ele>410.6</ele>
        <time>2013-04-13T06:16:56.000Z</time>
      </trkpt>
      <trkpt lat="47.24729" lon="4.96262">
        <ele>409.2</ele>
        <time>2013-04-13T06:17:03.000Z</time>
      </trkpt>
      <trkpt lat="47.24728" lon="4.96261">
        <ele>409.1</ele>
        <time>2013-04-13T06:17:04.000Z</time>
      </trkpt>
      <trkpt lat="47.24725" lon="4.96258">
        <ele>406</ele>
        <time>2013-04-13T06:17:21.000Z</time>
      </trkpt>
      <trkpt lat="47.24724" lon="4.96256">
        <ele>405.8</ele>
        <time>2013-04-13T06:17:22.000Z</time>
      </trkpt>
      <trkpt lat="47.24722" lon="4.96253">
        <ele>404.1</ele>
        <time>2013-04-13T06:17:24.000Z</time>
      </trkpt>
      <trkpt lat="47.24721" lon="4.96252">
        <ele>403.6</ele>
        <time>2013-04-13T06:17:25.000Z</time>
      </trkpt>
      <trkpt lat="47.24718" lon="4.96247">
        <ele>403.2</ele>
        <time>2013-04-13T06:17:28.000Z</time>
      </trkpt>
      <trkpt lat="47.24718" lon="4.96246">
        <ele>403.1</ele>
        <time>2013-04-13T06:17:29.000Z</time>
      </trkpt>
      <trkpt lat="47.24716" lon="4.96241">
        <ele>401.6</ele>
        <time>2013-04-13T06:17:31.000Z</time>
      </trkpt>
      <trkpt lat="47.24715" lon="4.9624">
        <ele>401.2</ele>
        <time>2013-04-13T06:17:32.000Z</time>
      </trkpt>
      <trkpt lat="47.24712" lon="4.96236">
        <ele>400.5</ele>
        <time>2013-04-13T06:17:42.000Z</time>
      </trkpt>
      <trkpt lat="47.24712" lon="4.96236">
        <ele>400.5</ele>
        <time>2013-04-13T06:17:43.000Z</time>
      </trkpt>
      <trkpt lat="47.24709" lon="4.96231">
        <ele>398.6</ele>
        <time>2013-04-13T06:17:48.000Z</time>
      </trkpt>
      <trkpt lat="47.24708" lon="4.9623">
        <ele>398.2</ele>
        <time>2013-04-13T06:17:49.000Z</time>
      </trkpt>
      <trkpt lat="47.24705" lon="4.96226">
        <ele>396.8</ele>
        <time>2013-04-13T06:17:53.000Z</time>
      </trkpt>
      <trkpt lat="47.24704" lon="4.96226">
        <ele>398.1</ele>
        <time>2013-04-13T06:17:54.000Z</time>
      </trkpt>
      <trkpt lat="47.247" lon="4.96225">
        <ele>397.5</ele>
        <time>2013-04-13T06:17:57.000Z</time>
      </trkpt>
      <trkpt lat="47.24698" lon="4.96224">
        <ele>397.1</ele>
        <time>2013-04-13T06:17:58.000Z</time>
      </trkpt>
      <trkpt lat="47.24695" lon="4.96221">
        <ele>396.8</ele>
        <time>2013-04-13T06:18:01.000Z</time>
      </trkpt>
      <trkpt lat="47.24694" lon="4.9622">
        <ele>396.2</ele>
        <time>2013-04-13T06:18:02.000Z</time>
      </trkpt>
      <trkpt lat="47.24692" lon="4.96216">
        <ele>395.4</ele>
        <time>2013-04-13T06:18:05.000Z</time>
      </trkpt>
      <trkpt lat="47.24691" lon="4.96215">
        <ele>395.4</ele>
        <time>2013-04-13T06:18:06.000Z</time>
      </trkpt>
      <trkpt lat="47.24688" lon="4.96211">
        <ele>396</ele>
        <time>2013-04-13T06:18:09.000Z</time>
      </trkpt>
      <trkpt lat="47.24688" lon="4.96209">
        <ele>396</ele>
        <time>2013-04-13T06:18:10.000Z</time>
      </trkpt>
      <trkpt lat="47.24685" lon="4.96205">
        <ele>394.7</ele>
        <time>2013-04-13T06:18:13.000Z</time>
      </trkpt>
      <trkpt lat="47.24685" lon="4.96203">
        <ele>394.8</ele>
        <time>2013-04-13T06:18:14.000Z</time>
      </trkpt>
      <trkpt lat="47.24683" lon="4.96198">
        <ele>393.9</ele>
        <time>2013-04-13T06:18:16.000Z</time>
      </trkpt>
      <trkpt lat="47.24682" lon="4.96196">
        <ele>393.6</ele>
        <time>2013-04-13T06:18:17.000Z</time>
      </trkpt>
      <trkpt lat="47.2468" lon="4.96192">
        <ele>392.3</ele>
        <time>2013-04-13T06:18:19.000Z</time>
      </trkpt>
      <trkpt lat="47.24679" lon="4.96189">
        <ele>392.7</ele>
        <time>2013-04-13T06:18:20.000Z</time>
      </trkpt>
      <trkpt lat="47.24679" lon="4.96184">
        <ele>392.6</ele>
        <time>2013-04-13T06:18:22.000Z</time>
      </trkpt>
      <trkpt lat="47.24679" lon="4.96182">
        <ele>393</ele>
        <time>2013-04-13T06:18:23.000Z</time>
      </trkpt>
      <trkpt lat="47.24678" lon="4.96176">
        <ele>391.7</ele>
        <time>2013-04-13T06:18:26.000Z</time>
      </trkpt>
      <trkpt lat="47.24678" lon="4.96174">
        <ele>391.7</ele>
        <time>2013-04-13T06:18:27.000Z</time>
      </trkpt>
      <trkpt lat="47.24677" lon="4.96168">
        <ele>391.9</ele>
        <time>2013-04-13T06:18:30.000Z</time>
      </trkpt>
      <trkpt lat="47.24677" lon="4.96166">
        <ele>392</ele>
        <time>2013-04-13T06:18:31.000Z</time>
      </trkpt>
      <trkpt lat="47.24675" lon="4.96161">
        <ele>392.7</ele>
        <time>2013-04-13T06:18:34.000Z</time>
      </trkpt>
      <trkpt lat="47.24674" lon="4.96159">
        <ele>392.6</ele>
        <time>2013-04-13T06:18:35.000Z</time>
      </trkpt>
      <trkpt lat="47.24672" lon="4.96153">
        <ele>392.8</ele>
        <time>2013-04-13T06:18:38.000Z</time>
      </trkpt>
      <trkpt lat="47.24672" lon="4.96152">
        <ele>392.7</ele>
        <time>2013-04-13T06:18:39.000Z</time>
      </trkpt>
      <trkpt lat="47.2467" lon="4.96146">
        <ele>393.4</ele>
        <time>2013-04-13T06:18:45.000Z</time>
      </trkpt>
      <trkpt lat="47.24669" lon="4.96146">
        <ele>393</ele>
        <time>2013-04-13T06:18:46.000Z</time>
      </trkpt>
      <trkpt lat="47.24665" lon="4.96148">
        <ele>393.2</ele>
        <time>2013-04-13T06:18:49.000Z</time>
      </trkpt>
      <trkpt lat="47.24663" lon="4.96148">
        <ele>392.4</ele>
        <time>2013-04-13T06:18:50.000Z</time>
      </trkpt>
      <trkpt lat="47.24659" lon="4.96149">
        <ele>393</ele>
        <time>2013-04-13T06:18:53.000Z</time>
      </trkpt>
      <trkpt lat="47.24658" lon="4.96148">
        <ele>392.9</ele>
        <time>2013-04-13T06:18:54.000Z</time>
      </trkpt>
      <trkpt lat="47.24654" lon="4.96147">
        <ele>392.8</ele>
        <time>2013-04-13T06:18:56.000Z</time>
      </trkpt>
      <trkpt lat="47.24653" lon="4.96146">
        <ele>393.5</ele>
        <time>2013-04-13T06:18:57.000Z</time>
      </trkpt>
      <trkpt lat="47.24649" lon="4.96143">
        <ele>394.6</ele>
        <time>2013-04-13T06:19:00.000Z</time>
      </trkpt>
      <trkpt lat="47.24648" lon="4.96143">
        <ele>393.7</ele>
        <time>2013-04-13T06:19:01.000Z</time>
      </trkpt>
      <trkpt lat="47.24645" lon="4.96142">
        <ele>392.1</ele>
        <time>2013-04-13T06:19:05.000Z</time>
      </trkpt>
      <trkpt lat="47.24644" lon="4.96143">
        <ele>392.5</ele>
        <time>2013-04-13T06:19:06.000Z</time>
      </trkpt>
      <trkpt lat="47.2464" lon="4.96143">
        <ele>393.6</ele>
        <time>2013-04-13T06:19:08.000Z</time>
      </trkpt>
      <trkpt lat="47.24638" lon="4.96143">
        <ele>394</ele>
        <time>2013-04-13T06:19:09.000Z</time>
      </trkpt>
      <trkpt lat="47.24634" lon="4.96147">
        <ele>393.6</ele>
        <time>2013-04-13T06:19:18.000Z</time>
      </trkpt>
      <trkpt lat="47.24634" lon="4.96147">
        <ele>393.4</ele>
        <time>2013-04-13T06:19:19.000Z</time>
      </trkpt>
      <trkpt lat="47.24633" lon="4.96142">
        <ele>393.5</ele>
        <time>2013-04-13T06:19:51.000Z</time>
      </trkpt>
      <trkpt lat="47.24634" lon="4.96139">
        <ele>394.1</ele>
        <time>2013-04-13T06:19:52.000Z</time>
      </trkpt>
      <trkpt lat="47.24635" lon="4.96135">
        <ele>395.9</ele>
        <time>2013-04-13T06:19:54.000Z</time>
      </trkpt>
      <trkpt lat="47.24636" lon="4.96133">
        <ele>397.1</ele>
        <time>2013-04-13T06:19:55.000Z</time>
      </trkpt>
      <trkpt lat="47.24637" lon="4.96128">
        <ele>396.5</ele>
        <time>2013-04-13T06:19:58.000Z</time>
      </trkpt>
      <trkpt lat="47.24637" lon="4.96125">
        <ele>396.7</ele>
        <time>2013-04-13T06:19:59.000Z</time>
      </trkpt>
      <trkpt lat="47.24638" lon="4.96122">
        <ele>395.7</ele>
        <time>2013-04-13T06:20:00.000Z</time>
      </trkpt>
      <trkpt lat="47.24638" lon="4.96119">
        <ele>395.1</ele>
        <time>2013-04-13T06:20:01.000Z</time>
      </trkpt>
      <trkpt lat="47.2464" lon="4.96112">
        <ele>395.8</ele>
        <time>2013-04-13T06:20:03.000Z</time>
      </trkpt>
      <trkpt lat="47.2464" lon="4.96109">
        <ele>396.2</ele>
        <time>2013-04-13T06:20:04.000Z</time>
      </trkpt>
      <trkpt lat="47.2464" lon="4.96103">
        <ele>395.9</ele>
        <time>2013-04-13T06:20:06.000Z</time>
      </trkpt>
      <trkpt lat="47.24641" lon="4.961">
        <ele>395.9</ele>
        <time>2013-04-13T06:20:07.000Z</time>
      </trkpt>
      <trkpt lat="47.24641" lon="4.96095">
        <ele>395.9</ele>
        <time>2013-04-13T06:20:09.000Z</time>
      </trkpt>
      <trkpt lat="47.24641" lon="4.96092">
        <ele>396.1</ele>
        <time>2013-04-13T06:20:10.000Z</time>
      </trkpt>
      <trkpt lat="47.24641" lon="4.96087">
        <ele>396.8</ele>
        <time>2013-04-13T06:20:12.000Z</time>
      </trkpt>
      <trkpt lat="47.24641" lon="4.96085">
        <ele>396.8</ele>
        <time>2013-04-13T06:20:13.000Z</time>
      </trkpt>
      <trkpt lat="47.24641" lon="4.9608">
        <ele>397.3</ele>
        <time>2013-04-13T06:20:15.000Z</time>
      </trkpt>
      <trkpt lat="47.24641" lon="4.96077">
        <ele>397.3</ele>
        <time>2013-04-13T06:20:16.000Z</time>
      </trkpt>
      <trkpt lat="47.24641" lon="4.96071">
        <ele>397.7</ele>
        <time>2013-04-13T06:20:18.000Z</time>
      </trkpt>
      <trkpt lat="47.24641" lon="4.96069">
        <ele>397.8</ele>
        <time>2013-04-13T06:20:19.000Z</time>
      </trkpt>
      <trkpt lat="47.24642" lon="4.96064">
        <ele>398.2</ele>
        <time>2013-04-13T06:20:21.000Z</time>
      </trkpt>
      <trkpt lat="47.24643" lon="4.96062">
        <ele>398.3</ele>
        <time>2013-04-13T06:20:22.000Z</time>
      </trkpt>
      <trkpt lat="47.24643" lon="4.96057">
        <ele>398.2</ele>
        <time>2013-04-13T06:20:25.000Z</time>
      </trkpt>
      <trkpt lat="47.24643" lon="4.96055">
        <ele>398.1</ele>
        <time>2013-04-13T06:20:26.000Z</time>
      </trkpt>
      <trkpt lat="47.24642" lon="4.96049">
        <ele>398.5</ele>
        <time>2013-04-13T06:20:29.000Z</time>
      </trkpt>
      <trkpt lat="47.24642" lon="4.96047">
        <ele>398.9</ele>
        <time>2013-04-13T06:20:30.000Z</time>
      </trkpt>
      <trkpt lat="47.24642" lon="4.9604">
        <ele>398.7</ele>
        <time>2013-04-13T06:20:33.000Z</time>
      </trkpt>
      <trkpt lat="47.24643" lon="4.96038">
        <ele>398.6</ele>
        <time>2013-04-13T06:20:34.000Z</time>
      </trkpt>
      <trkpt lat="47.24644" lon="4.96033">
        <ele>399.2</ele>
        <time>2013-04-13T06:20:37.000Z</time>
      </trkpt>
      <trkpt lat="47.24644" lon="4.96031">
        <ele>399.4</ele>
        <time>2013-04-13T06:20:38.000Z</time>
      </trkpt>
      <trkpt lat="47.24646" lon="4.96025">
        <ele>399</ele>
        <time>2013-04-13T06:20:41.000Z</time>
      </trkpt>
      <trkpt lat="47.24647" lon="4.96023">
        <ele>400.2</ele>
        <time>2013-04-13T06:20:42.000Z</time>
      </trkpt>
      <trkpt lat="47.24649" lon="4.96019">
        <ele>400.8</ele>
        <time>2013-04-13T06:20:44.000Z</time>
      </trkpt>
      <trkpt lat="47.24649" lon="4.96017">
        <ele>400.9</ele>
        <time>2013-04-13T06:20:45.000Z</time>
      </trkpt>
      <trkpt lat="47.24652" lon="4.96012">
        <ele>401.9</ele>
        <time>2013-04-13T06:20:48.000Z</time>
      </trkpt>
      <trkpt lat="47.24652" lon="4.9601">
        <ele>402.3</ele>
        <time>2013-04-13T06:20:49.000Z</time>
      </trkpt>
      <trkpt lat="47.24654" lon="4.96004">
        <ele>402.5</ele>
        <time>2013-04-13T06:20:52.000Z</time>
      </trkpt>
      <trkpt lat="47.24654" lon="4.96002">
        <ele>402.1</ele>
        <time>2013-04-13T06:20:53.000Z</time>
      </trkpt>
      <trkpt lat="47.24655" lon="4.95996">
        <ele>401.6</ele>
        <time>2013-04-13T06:20:56.000Z</time>
      </trkpt>
      <trkpt lat="47.24656" lon="4.95995">
        <ele>400.9</ele>
        <time>2013-04-13T06:20:57.000Z</time>
      </trkpt>
      <trkpt lat="47.24657" lon="4.95989">
        <ele>401</ele>
        <time>2013-04-13T06:21:00.000Z</time>
      </trkpt>
      <trkpt lat="47.24658" lon="4.95987">
        <ele>401.3</ele>
        <time>2013-04-13T06:21:01.000Z</time>
      </trkpt>
      <trkpt lat="47.24661" lon="4.95982">
        <ele>402.4</ele>
        <time>2013-04-13T06:21:04.000Z</time>
      </trkpt>
      <trkpt lat="47.24662" lon="4.9598">
        <ele>403.1</ele>
        <time>2013-04-13T06:21:05.000Z</time>
      </trkpt>
      <trkpt lat="47.24663" lon="4.95974">
        <ele>402.9</ele>
        <time>2013-04-13T06:21:08.000Z</time>
      </trkpt>
      <trkpt lat="47.24663" lon="4.95972">
        <ele>402.7</ele>
        <time>2013-04-13T06:21:09.000Z</time>
      </trkpt>
      <trkpt lat="47.24663" lon="4.95968">
        <ele>402.7</ele>
        <time>2013-04-13T06:21:11.000Z</time>
      </trkpt>
      <trkpt lat="47.24663" lon="4.95965">
        <ele>402.6</ele>
        <time>2013-04-13T06:21:12.000Z</time>
      </trkpt>
      <trkpt lat="47.24663" lon="4.9596">
        <ele>401.9</ele>
        <time>2013-04-13T06:21:14.000Z</time>
      </trkpt>
      <trkpt lat="47.24664" lon="4.95958">
        <ele>402.2</ele>
        <time>2013-04-13T06:21:15.000Z</time>
      </trkpt>
      <trkpt lat="47.24665" lon="4.95953">
        <ele>402.6</ele>
        <time>2013-04-13T06:21:18.000Z</time>
      </trkpt>
      <trkpt lat="47.24665" lon="4.95951">
        <ele>403.2</ele>
        <time>2013-04-13T06:21:19.000Z</time>
      </trkpt>
      <trkpt lat="47.24667" lon="4.95946">
        <ele>405</ele>
        <time>2013-04-13T06:21:23.000Z</time>
      </trkpt>
      <trkpt lat="47.24668" lon="4.95944">
        <ele>405.1</ele>
        <time>2013-04-13T06:21:24.000Z</time>
      </trkpt>
      <trkpt lat="47.24669" lon="4.9594">
        <ele>404.5</ele>
        <time>2013-04-13T06:21:26.000Z</time>
      </trkpt>
      <trkpt lat="47.2467" lon="4.95937">
        <ele>405.1</ele>
        <time>2013-04-13T06:21:27.000Z</time>
      </trkpt>
      <trkpt lat="47.24671" lon="4.95932">
        <ele>405.1</ele>
        <time>2013-04-13T06:21:29.000Z</time>
      </trkpt>
      <trkpt lat="47.24671" lon="4.95929">
        <ele>406.1</ele>
        <time>2013-04-13T06:21:30.000Z</time>
      </trkpt>
      <trkpt lat="47.24672" lon="4.95925">
        <ele>406.4</ele>
        <time>2013-04-13T06:21:31.000Z</time>
      </trkpt>
      <trkpt lat="47.24672" lon="4.95922">
        <ele>406.3</ele>
        <time>2013-04-13T06:21:32.000Z</time>
      </trkpt>
      <trkpt lat="47.24673" lon="4.95919">
        <ele>406.6</ele>
        <time>2013-04-13T06:21:33.000Z</time>
      </trkpt>
      <trkpt lat="47.24673" lon="4.95915">
        <ele>406.8</ele>
        <time>2013-04-13T06:21:34.000Z</time>
      </trkpt>
      <trkpt lat="47.24674" lon="4.95909">
        <ele>407.4</ele>
        <time>2013-04-13T06:21:36.000Z</time>
      </trkpt>
      <trkpt lat="47.24675" lon="4.95907">
        <ele>408</ele>
        <time>2013-04-13T06:21:37.000Z</time>
      </trkpt>
      <trkpt lat="47.24677" lon="4.95901">
        <ele>408</ele>
        <time>2013-04-13T06:21:40.000Z</time>
      </trkpt>
      <trkpt lat="47.24677" lon="4.95899">
        <ele>407.9</ele>
        <time>2013-04-13T06:21:41.000Z</time>
      </trkpt>
      <trkpt lat="47.24678" lon="4.95893">
        <ele>408.3</ele>
        <time>2013-04-13T06:21:44.000Z</time>
      </trkpt>
      <trkpt lat="47.24678" lon="4.95892">
        <ele>408.2</ele>
        <time>2013-04-13T06:21:45.000Z</time>
      </trkpt>
      <trkpt lat="47.2468" lon="4.95887">
        <ele>407.6</ele>
        <time>2013-04-13T06:21:48.000Z</time>
      </trkpt>
      <trkpt lat="47.2468" lon="4.95885">
        <ele>407.5</ele>
        <time>2013-04-13T06:21:49.000Z</time>
      </trkpt>
      <trkpt lat="47.24682" lon="4.9588">
        <ele>408.4</ele>
        <time>2013-04-13T06:21:52.000Z</time>
      </trkpt>
      <trkpt lat="47.24683" lon="4.95879">
        <ele>408.6</ele>
        <time>2013-04-13T06:21:53.000Z</time>
      </trkpt>
      <trkpt lat="47.24685" lon="4.95874">
        <ele>408.6</ele>
        <time>2013-04-13T06:21:56.000Z</time>
      </trkpt>
      <trkpt lat="47.24685" lon="4.95872">
        <ele>408.9</ele>
        <time>2013-04-13T06:21:57.000Z</time>
      </trkpt>
      <trkpt lat="47.24686" lon="4.95866">
        <ele>409.8</ele>
        <time>2013-04-13T06:22:00.000Z</time>
      </trkpt>
      <trkpt lat="47.24687" lon="4.95864">
        <ele>409.3</ele>
        <time>2013-04-13T06:22:01.000Z</time>
      </trkpt>
      <trkpt lat="47.2469" lon="4.95859">
        <ele>409</ele>
        <time>2013-04-13T06:22:04.000Z</time>
      </trkpt>
      <trkpt lat="47.2469" lon="4.95858">
        <ele>409.1</ele>
        <time>2013-04-13T06:22:05.000Z</time>
      </trkpt>
      <trkpt lat="47.24693" lon="4.95854">
        <ele>409.7</ele>
        <time>2013-04-13T06:22:08.000Z</time>
      </trkpt>
      <trkpt lat="47.24694" lon="4.95852">
        <ele>409.3</ele>
        <time>2013-04-13T06:22:09.000Z</time>
      </trkpt>
      <trkpt lat="47.24696" lon="4.95848">
        <ele>410.4</ele>
        <time>2013-04-13T06:22:12.000Z</time>
      </trkpt>
      <trkpt lat="47.24696" lon="4.95846">
        <ele>410.9</ele>
        <time>2013-04-13T06:22:13.000Z</time>
      </trkpt>
      <trkpt lat="47.24698" lon="4.9584">
        <ele>412.3</ele>
        <time>2013-04-13T06:22:16.000Z</time>
      </trkpt>
      <trkpt lat="47.24698" lon="4.95839">
        <ele>412.2</ele>
        <time>2013-04-13T06:22:17.000Z</time>
      </trkpt>
      <trkpt lat="47.247" lon="4.95833">
        <ele>413.5</ele>
        <time>2013-04-13T06:22:20.000Z</time>
      </trkpt>
      <trkpt lat="47.24701" lon="4.95832">
        <ele>414.2</ele>
        <time>2013-04-13T06:22:21.000Z</time>
      </trkpt>
      <trkpt lat="47.24702" lon="4.95828">
        <ele>415.2</ele>
        <time>2013-04-13T06:22:23.000Z</time>
      </trkpt>
      <trkpt lat="47.24704" lon="4.95826">
        <ele>414.8</ele>
        <time>2013-04-13T06:22:24.000Z</time>
      </trkpt>
      <trkpt lat="47.24706" lon="4.95822">
        <ele>414.7</ele>
        <time>2013-04-13T06:22:26.000Z</time>
      </trkpt>
      <trkpt lat="47.24706" lon="4.9582">
        <ele>415.4</ele>
        <time>2013-04-13T06:22:27.000Z</time>
      </trkpt>
      <trkpt lat="47.24708" lon="4.95814">
        <ele>414.8</ele>
        <time>2013-04-13T06:22:30.000Z</time>
      </trkpt>
      <trkpt lat="47.24708" lon="4.95812">
        <ele>414.9</ele>
        <time>2013-04-13T06:22:31.000Z</time>
      </trkpt>
      <trkpt lat="47.2471" lon="4.95807">
        <ele>414.6</ele>
        <time>2013-04-13T06:22:34.000Z</time>
      </trkpt>
      <trkpt lat="47.2471" lon="4.95806">
        <ele>415.5</ele>
        <time>2013-04-13T06:22:35.000Z</time>
      </trkpt>
      <trkpt lat="47.24712" lon="4.958">
        <ele>414.9</ele>
        <time>2013-04-13T06:22:38.000Z</time>
      </trkpt>
      <trkpt lat="47.24713" lon="4.95798">
        <ele>414.9</ele>
        <time>2013-04-13T06:22:39.000Z</time>
      </trkpt>
      <trkpt lat="47.24715" lon="4.95794">
        <ele>414.3</ele>
        <time>2013-04-13T06:22:41.000Z</time>
      </trkpt>
      <trkpt lat="47.24717" lon="4.95791">
        <ele>414.7</ele>
        <time>2013-04-13T06:22:42.000Z</time>
      </trkpt>
      <trkpt lat="47.24719" lon="4.95787">
        <ele>415.5</ele>
        <time>2013-04-13T06:22:44.000Z</time>
      </trkpt>
      <trkpt lat="47.2472" lon="4.95785">
        <ele>415</ele>
        <time>2013-04-13T06:22:45.000Z</time>
      </trkpt>
      <trkpt lat="47.24723" lon="4.9578">
        <ele>414.7</ele>
        <time>2013-04-13T06:22:48.000Z</time>
      </trkpt>
      <trkpt lat="47.24724" lon="4.95778">
        <ele>414.7</ele>
        <time>2013-04-13T06:22:49.000Z</time>
      </trkpt>
      <trkpt lat="47.24725" lon="4.95773">
        <ele>414.6</ele>
        <time>2013-04-13T06:22:52.000Z</time>
      </trkpt>
      <trkpt lat="47.24726" lon="4.95771">
        <ele>413.9</ele>
        <time>2013-04-13T06:22:53.000Z</time>
      </trkpt>
      <trkpt lat="47.24728" lon="4.95765">
        <ele>414.3</ele>
        <time>2013-04-13T06:22:57.000Z</time>
      </trkpt>
      <trkpt lat="47.24729" lon="4.95764">
        <ele>414.1</ele>
        <time>2013-04-13T06:22:58.000Z</time>
      </trkpt>
      <trkpt lat="47.24732" lon="4.9576">
        <ele>416.6</ele>
        <time>2013-04-13T06:23:02.000Z</time>
      </trkpt>
      <trkpt lat="47.24734" lon="4.95758">
        <ele>416.9</ele>
        <time>2013-04-13T06:23:03.000Z</time>
      </trkpt>
      <trkpt lat="47.24737" lon="4.95754">
        <ele>418.1</ele>
        <time>2013-04-13T06:23:06.000Z</time>
      </trkpt>
      <trkpt lat="47.24738" lon="4.95753">
        <ele>418.2</ele>
        <time>2013-04-13T06:23:07.000Z</time>
      </trkpt>
      <trkpt lat="47.24741" lon="4.95749">
        <ele>417.4</ele>
        <time>2013-04-13T06:23:10.000Z</time>
      </trkpt>
      <trkpt lat="47.24742" lon="4.95748">
        <ele>416.9</ele>
        <time>2013-04-13T06:23:11.000Z</time>
      </trkpt>
      <trkpt lat="47.24745" lon="4.95743">
        <ele>416.9</ele>
        <time>2013-04-13T06:23:14.000Z</time>
      </trkpt>
      <trkpt lat="47.24745" lon="4.95741">
        <ele>417.6</ele>
        <time>2013-04-13T06:23:15.000Z</time>
      </trkpt>
      <trkpt lat="47.24746" lon="4.95737">
        <ele>417.6</ele>
        <time>2013-04-13T06:23:17.000Z</time>
      </trkpt>
      <trkpt lat="47.24747" lon="4.95734">
        <ele>416.6</ele>
        <time>2013-04-13T06:23:18.000Z</time>
      </trkpt>
      <trkpt lat="47.24748" lon="4.95729">
        <ele>417.3</ele>
        <time>2013-04-13T06:23:20.000Z</time>
      </trkpt>
      <trkpt lat="47.24749" lon="4.95727">
        <ele>417.2</ele>
        <time>2013-04-13T06:23:21.000Z</time>
      </trkpt>
      <trkpt lat="47.2475" lon="4.95722">
        <ele>416.2</ele>
        <time>2013-04-13T06:23:23.000Z</time>
      </trkpt>
      <trkpt lat="47.24751" lon="4.9572">
        <ele>415.8</ele>
        <time>2013-04-13T06:23:24.000Z</time>
      </trkpt>
      <trkpt lat="47.24752" lon="4.95716">
        <ele>416</ele>
        <time>2013-04-13T06:23:26.000Z</time>
      </trkpt>
      <trkpt lat="47.24753" lon="4.95714">
        <ele>416</ele>
        <time>2013-04-13T06:23:27.000Z</time>
      </trkpt>
      <trkpt lat="47.24755" lon="4.95712">
        <ele>415.3</ele>
        <time>2013-04-13T06:23:29.000Z</time>
      </trkpt>
      <trkpt lat="47.24756" lon="4.95708">
        <ele>415.2</ele>
        <time>2013-04-13T06:23:30.000Z</time>
      </trkpt>
      <trkpt lat="47.24759" lon="4.95703">
        <ele>414.7</ele>
        <time>2013-04-13T06:23:33.000Z</time>
      </trkpt>
      <trkpt lat="47.2476" lon="4.95702">
        <ele>414.9</ele>
        <time>2013-04-13T06:23:34.000Z</time>
      </trkpt>
      <trkpt lat="47.24762" lon="4.95697">
        <ele>415.2</ele>
        <time>2013-04-13T06:23:37.000Z</time>
      </trkpt>
      <trkpt lat="47.24763" lon="4.95695">
        <ele>415.1</ele>
        <time>2013-04-13T06:23:38.000Z</time>
      </trkpt>
      <trkpt lat="47.24764" lon="4.95691">
        <ele>415.5</ele>
        <time>2013-04-13T06:23:40.000Z</time>
      </trkpt>
      <trkpt lat="47.24765" lon="4.95689">
        <ele>415.4</ele>
        <time>2013-04-13T06:23:41.000Z</time>
      </trkpt>
      <trkpt lat="47.24767" lon="4.95683">
        <ele>415.9</ele>
        <time>2013-04-13T06:23:44.000Z</time>
      </trkpt>
      <trkpt lat="47.24768" lon="4.95681">
        <ele>415.7</ele>
        <time>2013-04-13T06:23:45.000Z</time>
      </trkpt>
      <trkpt lat="47.2477" lon="4.95677">
        <ele>414.9</ele>
        <time>2013-04-13T06:23:48.000Z</time>
      </trkpt>
      <trkpt lat="47.24771" lon="4.95675">
        <ele>414.2</ele>
        <time>2013-04-13T06:23:49.000Z</time>
      </trkpt>
      <trkpt lat="47.24774" lon="4.95671">
        <ele>414.4</ele>
        <time>2013-04-13T06:23:52.000Z</time>
      </trkpt>
      <trkpt lat="47.24775" lon="4.95671">
        <ele>413.7</ele>
        <time>2013-04-13T06:23:53.000Z</time>
      </trkpt>
      <trkpt lat="47.24778" lon="4.95667">
        <ele>411.3</ele>
        <time>2013-04-13T06:23:56.000Z</time>
      </trkpt>
      <trkpt lat="47.24779" lon="4.95666">
        <ele>411.7</ele>
        <time>2013-04-13T06:23:57.000Z</time>
      </trkpt>
      <trkpt lat="47.24782" lon="4.95663">
        <ele>411.1</ele>
        <time>2013-04-13T06:23:59.000Z</time>
      </trkpt>
      <trkpt lat="47.24783" lon="4.95661">
        <ele>410.9</ele>
        <time>2013-04-13T06:24:00.000Z</time>
      </trkpt>
      <trkpt lat="47.24785" lon="4.95657">
        <ele>410.8</ele>
        <time>2013-04-13T06:24:03.000Z</time>
      </trkpt>
      <trkpt lat="47.24786" lon="4.95656">
        <ele>410.8</ele>
        <time>2013-04-13T06:24:04.000Z</time>
      </trkpt>
      <trkpt lat="47.24788" lon="4.95651">
        <ele>411.5</ele>
        <time>2013-04-13T06:24:07.000Z</time>
      </trkpt>
      <trkpt lat="47.24789" lon="4.9565">
        <ele>411.7</ele>
        <time>2013-04-13T06:24:08.000Z</time>
      </trkpt>
      <trkpt lat="47.24791" lon="4.95646">
        <ele>411.8</ele>
        <time>2013-04-13T06:24:10.000Z</time>
      </trkpt>
      <trkpt lat="47.24792" lon="4.95644">
        <ele>411.7</ele>
        <time>2013-04-13T06:24:11.000Z</time>
      </trkpt>
      <trkpt lat="47.24794" lon="4.9564">
        <ele>411.8</ele>
        <time>2013-04-13T06:24:13.000Z</time>
      </trkpt>
      <trkpt lat="47.24795" lon="4.95638">
        <ele>413.3</ele>
        <time>2013-04-13T06:24:14.000Z</time>
      </trkpt>
      <trkpt lat="47.24797" lon="4.95634">
        <ele>412.7</ele>
        <time>2013-04-13T06:24:16.000Z</time>
      </trkpt>
      <trkpt lat="47.24798" lon="4.95632">
        <ele>413.5</ele>
        <time>2013-04-13T06:24:17.000Z</time>
      </trkpt>
      <trkpt lat="47.24801" lon="4.95626">
        <ele>413.9</ele>
        <time>2013-04-13T06:24:20.000Z</time>
      </trkpt>
      <trkpt lat="47.24802" lon="4.95625">
        <ele>414.4</ele>
        <time>2013-04-13T06:24:21.000Z</time>
      </trkpt>
      <trkpt lat="47.24805" lon="4.95621">
        <ele>414.9</ele>
        <time>2013-04-13T06:24:24.000Z</time>
      </trkpt>
      <trkpt lat="47.24806" lon="4.95619">
        <ele>415.1</ele>
        <time>2013-04-13T06:24:25.000Z</time>
      </trkpt>
      <trkpt lat="47.24809" lon="4.95616">
        <ele>416</ele>
        <time>2013-04-13T06:24:27.000Z</time>
      </trkpt>
      <trkpt lat="47.2481" lon="4.95614">
        <ele>417</ele>
        <time>2013-04-13T06:24:28.000Z</time>
      </trkpt>
      <trkpt lat="47.24812" lon="4.9561">
        <ele>417.9</ele>
        <time>2013-04-13T06:24:30.000Z</time>
      </trkpt>
      <trkpt lat="47.24814" lon="4.95608">
        <ele>418.2</ele>
        <time>2013-04-13T06:24:31.000Z</time>
      </trkpt>
      <trkpt lat="47.24815" lon="4.95605">
        <ele>417.9</ele>
        <time>2013-04-13T06:24:32.000Z</time>
      </trkpt>
      <trkpt lat="47.24817" lon="4.95603">
        <ele>417.7</ele>
        <time>2013-04-13T06:24:33.000Z</time>
      </trkpt>
      <trkpt lat="47.2482" lon="4.95599">
        <ele>419</ele>
        <time>2013-04-13T06:24:35.000Z</time>
      </trkpt>
      <trkpt lat="47.24821" lon="4.95598">
        <ele>418.6</ele>
        <time>2013-04-13T06:24:36.000Z</time>
      </trkpt>
      <trkpt lat="47.24824" lon="4.95595">
        <ele>419.4</ele>
        <time>2013-04-13T06:24:38.000Z</time>
      </trkpt>
      <trkpt lat="47.24826" lon="4.95594">
        <ele>419.3</ele>
        <time>2013-04-13T06:24:39.000Z</time>
      </trkpt>
      <trkpt lat="47.2483" lon="4.95591">
        <ele>419.6</ele>
        <time>2013-04-13T06:24:42.000Z</time>
      </trkpt>
      <trkpt lat="47.24831" lon="4.9559">
        <ele>419</ele>
        <time>2013-04-13T06:24:43.000Z</time>
      </trkpt>
      <trkpt lat="47.24835" lon="4.95589">
        <ele>419.9</ele>
        <time>2013-04-13T06:24:46.000Z</time>
      </trkpt>
      <trkpt lat="47.24837" lon="4.9559">
        <ele>420.1</ele>
        <time>2013-04-13T06:24:47.000Z</time>
      </trkpt>
      <trkpt lat="47.2484" lon="4.95589">
        <ele>420.8</ele>
        <time>2013-04-13T06:24:49.000Z</time>
      </trkpt>
      <trkpt lat="47.24841" lon="4.95589">
        <ele>420.5</ele>
        <time>2013-04-13T06:24:50.000Z</time>
      </trkpt>
      <trkpt lat="47.24845" lon="4.95587">
        <ele>420</ele>
        <time>2013-04-13T06:24:52.000Z</time>
      </trkpt>
      <trkpt lat="47.24846" lon="4.95586">
        <ele>420.4</ele>
        <time>2013-04-13T06:24:53.000Z</time>
      </trkpt>
      <trkpt lat="47.24849" lon="4.95584">
        <ele>421.6</ele>
        <time>2013-04-13T06:24:56.000Z</time>
      </trkpt>
      <trkpt lat="47.2485" lon="4.95582">
        <ele>421.6</ele>
        <time>2013-04-13T06:24:57.000Z</time>
      </trkpt>
      <trkpt lat="47.24852" lon="4.95578">
        <ele>421.2</ele>
        <time>2013-04-13T06:25:00.000Z</time>
      </trkpt>
      <trkpt lat="47.24852" lon="4.95576">
        <ele>421.2</ele>
        <time>2013-04-13T06:25:01.000Z</time>
      </trkpt>
      <trkpt lat="47.24855" lon="4.9557">
        <ele>420.8</ele>
        <time>2013-04-13T06:25:04.000Z</time>
      </trkpt>
      <trkpt lat="47.24855" lon="4.95569">
        <ele>421.1</ele>
        <time>2013-04-13T06:25:05.000Z</time>
      </trkpt>
      <trkpt lat="47.24858" lon="4.95565">
        <ele>422</ele>
        <time>2013-04-13T06:25:08.000Z</time>
      </trkpt>
      <trkpt lat="47.24859" lon="4.95563">
        <ele>421.5</ele>
        <time>2013-04-13T06:25:09.000Z</time>
      </trkpt>
      <trkpt lat="47.24861" lon="4.95559">
        <ele>422.5</ele>
        <time>2013-04-13T06:25:13.000Z</time>
      </trkpt>
      <trkpt lat="47.24862" lon="4.95557">
        <ele>423.1</ele>
        <time>2013-04-13T06:25:14.000Z</time>
      </trkpt>
      <trkpt lat="47.24865" lon="4.95553">
        <ele>423.2</ele>
        <time>2013-04-13T06:25:17.000Z</time>
      </trkpt>
      <trkpt lat="47.24867" lon="4.95552">
        <ele>423.2</ele>
        <time>2013-04-13T06:25:18.000Z</time>
      </trkpt>
      <trkpt lat="47.24869" lon="4.95548">
        <ele>422.3</ele>
        <time>2013-04-13T06:25:21.000Z</time>
      </trkpt>
      <trkpt lat="47.2487" lon="4.95546">
        <ele>422.1</ele>
        <time>2013-04-13T06:25:22.000Z</time>
      </trkpt>
      <trkpt lat="47.24873" lon="4.95542">
        <ele>421.8</ele>
        <time>2013-04-13T06:25:25.000Z</time>
      </trkpt>
      <trkpt lat="47.24874" lon="4.95541">
        <ele>423</ele>
        <time>2013-04-13T06:25:26.000Z</time>
      </trkpt>
      <trkpt lat="47.24876" lon="4.95537">
        <ele>422.8</ele>
        <time>2013-04-13T06:25:28.000Z</time>
      </trkpt>
      <trkpt lat="47.24877" lon="4.95535">
        <ele>422.7</ele>
        <time>2013-04-13T06:25:29.000Z</time>
      </trkpt>
      <trkpt lat="47.24878" lon="4.95529">
        <ele>421.1</ele>
        <time>2013-04-13T06:25:31.000Z</time>
      </trkpt>
      <trkpt lat="47.24879" lon="4.95527">
        <ele>421.2</ele>
        <time>2013-04-13T06:25:32.000Z</time>
      </trkpt>
      <trkpt lat="47.24881" lon="4.95523">
        <ele>422.1</ele>
        <time>2013-04-13T06:25:34.000Z</time>
      </trkpt>
      <trkpt lat="47.24882" lon="4.95521">
        <ele>421.9</ele>
        <time>2013-04-13T06:25:35.000Z</time>
      </trkpt>
      <trkpt lat="47.24885" lon="4.95517">
        <ele>422.1</ele>
        <time>2013-04-13T06:25:38.000Z</time>
      </trkpt>
      <trkpt lat="47.24886" lon="4.95515">
        <ele>422.1</ele>
        <time>2013-04-13T06:25:39.000Z</time>
      </trkpt>
      <trkpt lat="47.24888" lon="4.9551">
        <ele>423.6</ele>
        <time>2013-04-13T06:25:42.000Z</time>
      </trkpt>
      <trkpt lat="47.24888" lon="4.95509">
        <ele>424</ele>
        <time>2013-04-13T06:25:43.000Z</time>
      </trkpt>
      <trkpt lat="47.24891" lon="4.95505">
        <ele>426.3</ele>
        <time>2013-04-13T06:25:46.000Z</time>
      </trkpt>
      <trkpt lat="47.24892" lon="4.95505">
        <ele>427</ele>
        <time>2013-04-13T06:25:47.000Z</time>
      </trkpt>
      <trkpt lat="47.24894" lon="4.95501">
        <ele>426.5</ele>
        <time>2013-04-13T06:25:50.000Z</time>
      </trkpt>
      <trkpt lat="47.24895" lon="4.95499">
        <ele>427.3</ele>
        <time>2013-04-13T06:25:51.000Z</time>
      </trkpt>
      <trkpt lat="47.24895" lon="4.95494">
        <ele>427.4</ele>
        <time>2013-04-13T06:25:53.000Z</time>
      </trkpt>
      <trkpt lat="47.24896" lon="4.95492">
        <ele>427.4</ele>
        <time>2013-04-13T06:25:54.000Z</time>
      </trkpt>
      <trkpt lat="47.24897" lon="4.95488">
        <ele>428</ele>
        <time>2013-04-13T06:25:56.000Z</time>
      </trkpt>
      <trkpt lat="47.24898" lon="4.95486">
        <ele>428.3</ele>
        <time>2013-04-13T06:25:57.000Z</time>
      </trkpt>
      <trkpt lat="47.24899" lon="4.95479">
        <ele>430.6</ele>
        <time>2013-04-13T06:26:00.000Z</time>
      </trkpt>
      <trkpt lat="47.249" lon="4.95478">
        <ele>430.2</ele>
        <time>2013-04-13T06:26:01.000Z</time>
      </trkpt>
      <trkpt lat="47.24901" lon="4.95474">
        <ele>430.2</ele>
        <time>2013-04-13T06:26:03.000Z</time>
      </trkpt>
      <trkpt lat="47.24901" lon="4.95471">
        <ele>431.2</ele>
        <time>2013-04-13T06:26:04.000Z</time>
      </trkpt>
      <trkpt lat="47.24903" lon="4.95466">
        <ele>431.2</ele>
        <time>2013-04-13T06:26:06.000Z</time>
      </trkpt>
      <trkpt lat="47.24903" lon="4.95464">
        <ele>431.5</ele>
        <time>2013-04-13T06:26:07.000Z</time>
      </trkpt>
      <trkpt lat="47.24904" lon="4.9546">
        <ele>432</ele>
        <time>2013-04-13T06:26:09.000Z</time>
      </trkpt>
      <trkpt lat="47.24905" lon="4.95458">
        <ele>431.9</ele>
        <time>2013-04-13T06:26:10.000Z</time>
      </trkpt>
      <trkpt lat="47.24907" lon="4.95452">
        <ele>432.9</ele>
        <time>2013-04-13T06:26:13.000Z</time>
      </trkpt>
      <trkpt lat="47.24907" lon="4.9545">
        <ele>433.2</ele>
        <time>2013-04-13T06:26:14.000Z</time>
      </trkpt>
      <trkpt lat="47.24908" lon="4.95445">
        <ele>434</ele>
        <time>2013-04-13T06:26:16.000Z</time>
      </trkpt>
      <trkpt lat="47.24909" lon="4.95443">
        <ele>434.4</ele>
        <time>2013-04-13T06:26:17.000Z</time>
      </trkpt>
      <trkpt lat="47.2491" lon="4.95439">
        <ele>435.2</ele>
        <time>2013-04-13T06:26:19.000Z</time>
      </trkpt>
      <trkpt lat="47.24911" lon="4.95436">
        <ele>435.5</ele>
        <time>2013-04-13T06:26:20.000Z</time>
      </trkpt>
      <trkpt lat="47.24912" lon="4.95432">
        <ele>436.2</ele>
        <time>2013-04-13T06:26:22.000Z</time>
      </trkpt>
      <trkpt lat="47.24913" lon="4.9543">
        <ele>435.6</ele>
        <time>2013-04-13T06:26:23.000Z</time>
      </trkpt>
      <trkpt lat="47.24916" lon="4.95425">
        <ele>436.3</ele>
        <time>2013-04-13T06:26:26.000Z</time>
      </trkpt>
      <trkpt lat="47.24916" lon="4.95423">
        <ele>435.9</ele>
        <time>2013-04-13T06:26:27.000Z</time>
      </trkpt>
      <trkpt lat="47.24918" lon="4.95418">
        <ele>435.7</ele>
        <time>2013-04-13T06:26:30.000Z</time>
      </trkpt>
      <trkpt lat="47.24919" lon="4.95416">
        <ele>435.8</ele>
        <time>2013-04-13T06:26:31.000Z</time>
      </trkpt>
      <trkpt lat="47.24922" lon="4.95414">
        <ele>435.7</ele>
        <time>2013-04-13T06:26:34.000Z</time>
      </trkpt>
      <trkpt lat="47.24923" lon="4.95413">
        <ele>435.8</ele>
        <time>2013-04-13T06:26:35.000Z</time>
      </trkpt>
      <trkpt lat="47.24926" lon="4.95409">
        <ele>436.1</ele>
        <time>2013-04-13T06:26:39.000Z</time>
      </trkpt>
      <trkpt lat="47.24927" lon="4.95407">
        <ele>435.9</ele>
        <time>2013-04-13T06:26:40.000Z</time>
      </trkpt>
      <trkpt lat="47.2493" lon="4.95403">
        <ele>436.3</ele>
        <time>2013-04-13T06:26:43.000Z</time>
      </trkpt>
      <trkpt lat="47.24931" lon="4.95402">
        <ele>436.4</ele>
        <time>2013-04-13T06:26:44.000Z</time>
      </trkpt>
      <trkpt lat="47.24934" lon="4.95398">
        <ele>436.2</ele>
        <time>2013-04-13T06:26:47.000Z</time>
      </trkpt>
      <trkpt lat="47.24935" lon="4.95396">
        <ele>436.7</ele>
        <time>2013-04-13T06:26:48.000Z</time>
      </trkpt>
      <trkpt lat="47.24938" lon="4.95392">
        <ele>438.1</ele>
        <time>2013-04-13T06:26:51.000Z</time>
      </trkpt>
      <trkpt lat="47.24939" lon="4.9539">
        <ele>438.4</ele>
        <time>2013-04-13T06:26:52.000Z</time>
      </trkpt>
      <trkpt lat="47.24943" lon="4.95387">
        <ele>439.3</ele>
        <time>2013-04-13T06:26:55.000Z</time>
      </trkpt>
      <trkpt lat="47.24944" lon="4.95386">
        <ele>439.1</ele>
        <time>2013-04-13T06:26:56.000Z</time>
      </trkpt>
      <trkpt lat="47.24946" lon="4.95382">
        <ele>439</ele>
        <time>2013-04-13T06:26:58.000Z</time>
      </trkpt>
      <trkpt lat="47.24948" lon="4.9538">
        <ele>438.6</ele>
        <time>2013-04-13T06:26:59.000Z</time>
      </trkpt>
      <trkpt lat="47.2495" lon="4.95375">
        <ele>439.3</ele>
        <time>2013-04-13T06:27:03.000Z</time>
      </trkpt>
      <trkpt lat="47.24951" lon="4.95374">
        <ele>439.2</ele>
        <time>2013-04-13T06:27:04.000Z</time>
      </trkpt>
      <trkpt lat="47.24954" lon="4.95369">
        <ele>440.1</ele>
        <time>2013-04-13T06:27:08.000Z</time>
      </trkpt>
      <trkpt lat="47.24955" lon="4.95368">
        <ele>439.7</ele>
        <time>2013-04-13T06:27:09.000Z</time>
      </trkpt>
      <trkpt lat="47.24957" lon="4.95364">
        <ele>439.3</ele>
        <time>2013-04-13T06:27:11.000Z</time>
      </trkpt>
      <trkpt lat="47.24958" lon="4.95362">
        <ele>439.7</ele>
        <time>2013-04-13T06:27:12.000Z</time>
      </trkpt>
      <trkpt lat="47.2496" lon="4.95357">
        <ele>440.1</ele>
        <time>2013-04-13T06:27:15.000Z</time>
      </trkpt>
      <trkpt lat="47.24961" lon="4.95356">
        <ele>440</ele>
        <time>2013-04-13T06:27:16.000Z</time>
      </trkpt>
      <trkpt lat="47.24963" lon="4.95351">
        <ele>440.7</ele>
        <time>2013-04-13T06:27:19.000Z</time>
      </trkpt>
      <trkpt lat="47.24964" lon="4.95349">
        <ele>441.2</ele>
        <time>2013-04-13T06:27:20.000Z</time>
      </trkpt>
      <trkpt lat="47.24966" lon="4.95344">
        <ele>441.6</ele>
        <time>2013-04-13T06:27:24.000Z</time>
      </trkpt>
      <trkpt lat="47.24967" lon="4.95343">
        <ele>441.6</ele>
        <time>2013-04-13T06:27:25.000Z</time>
      </trkpt>
      <trkpt lat="47.24969" lon="4.95339">
        <ele>442.2</ele>
        <time>2013-04-13T06:27:27.000Z</time>
      </trkpt>
      <trkpt lat="47.2497" lon="4.95337">
        <ele>442.5</ele>
        <time>2013-04-13T06:27:28.000Z</time>
      </trkpt>
      <trkpt lat="47.24972" lon="4.95333">
        <ele>442.7</ele>
        <time>2013-04-13T06:27:30.000Z</time>
      </trkpt>
      <trkpt lat="47.24973" lon="4.95331">
        <ele>442.9</ele>
        <time>2013-04-13T06:27:31.000Z</time>
      </trkpt>
      <trkpt lat="47.24976" lon="4.95329">
        <ele>443</ele>
        <time>2013-04-13T06:27:33.000Z</time>
      </trkpt>
      <trkpt lat="47.24977" lon="4.95327">
        <ele>443</ele>
        <time>2013-04-13T06:27:34.000Z</time>
      </trkpt>
      <trkpt lat="47.2498" lon="4.95323">
        <ele>441.3</ele>
        <time>2013-04-13T06:27:37.000Z</time>
      </trkpt>
      <trkpt lat="47.2498" lon="4.95322">
        <ele>442</ele>
        <time>2013-04-13T06:27:38.000Z</time>
      </trkpt>
      <trkpt lat="47.24982" lon="4.95317">
        <ele>442</ele>
        <time>2013-04-13T06:27:41.000Z</time>
      </trkpt>
      <trkpt lat="47.24982" lon="4.95315">
        <ele>442.4</ele>
        <time>2013-04-13T06:27:42.000Z</time>
      </trkpt>
      <trkpt lat="47.24983" lon="4.9531">
        <ele>442.1</ele>
        <time>2013-04-13T06:27:45.000Z</time>
      </trkpt>
      <trkpt lat="47.24984" lon="4.95308">
        <ele>441.8</ele>
        <time>2013-04-13T06:27:46.000Z</time>
      </trkpt>
      <trkpt lat="47.24985" lon="4.95302">
        <ele>441.3</ele>
        <time>2013-04-13T06:27:49.000Z</time>
      </trkpt>
      <trkpt lat="47.24986" lon="4.953">
        <ele>442</ele>
        <time>2013-04-13T06:27:50.000Z</time>
      </trkpt>
      <trkpt lat="47.24988" lon="4.95294">
        <ele>441</ele>
        <time>2013-04-13T06:27:53.000Z</time>
      </trkpt>
      <trkpt lat="47.24989" lon="4.95292">
        <ele>440.7</ele>
        <time>2013-04-13T06:27:54.000Z</time>
      </trkpt>
      <trkpt lat="47.24991" lon="4.95288">
        <ele>439.7</ele>
        <time>2013-04-13T06:27:56.000Z</time>
      </trkpt>
      <trkpt lat="47.24992" lon="4.95286">
        <ele>439.2</ele>
        <time>2013-04-13T06:27:57.000Z</time>
      </trkpt>
      <trkpt lat="47.24994" lon="4.95282">
        <ele>438.5</ele>
        <time>2013-04-13T06:27:59.000Z</time>
      </trkpt>
      <trkpt lat="47.24995" lon="4.9528">
        <ele>438.8</ele>
        <time>2013-04-13T06:28:00.000Z</time>
      </trkpt>
      <trkpt lat="47.24999" lon="4.95276">
        <ele>437.4</ele>
        <time>2013-04-13T06:28:03.000Z</time>
      </trkpt>
      <trkpt lat="47.25" lon="4.95275">
        <ele>437.3</ele>
        <time>2013-04-13T06:28:04.000Z</time>
      </trkpt>
      <trkpt lat="47.25002" lon="4.95272">
        <ele>437.1</ele>
        <time>2013-04-13T06:28:06.000Z</time>
      </trkpt>
      <trkpt lat="47.25003" lon="4.9527">
        <ele>436.7</ele>
        <time>2013-04-13T06:28:07.000Z</time>
      </trkpt>
      <trkpt lat="47.25006" lon="4.95267">
        <ele>436.9</ele>
        <time>2013-04-13T06:28:09.000Z</time>
      </trkpt>
      <trkpt lat="47.25007" lon="4.95266">
        <ele>436.8</ele>
        <time>2013-04-13T06:28:10.000Z</time>
      </trkpt>
      <trkpt lat="47.2501" lon="4.95262">
        <ele>437.4</ele>
        <time>2013-04-13T06:28:13.000Z</time>
      </trkpt>
      <trkpt lat="47.25011" lon="4.95261">
        <ele>437.3</ele>
        <time>2013-04-13T06:28:14.000Z</time>
      </trkpt>
      <trkpt lat="47.25014" lon="4.95258">
        <ele>438.1</ele>
        <time>2013-04-13T06:28:17.000Z</time>
      </trkpt>
      <trkpt lat="47.25015" lon="4.95257">
        <ele>438.2</ele>
        <time>2013-04-13T06:28:18.000Z</time>
      </trkpt>
      <trkpt lat="47.25016" lon="4.95251">
        <ele>438.6</ele>
        <time>2013-04-13T06:28:21.000Z</time>
      </trkpt>
      <trkpt lat="47.25017" lon="4.9525">
        <ele>438.5</ele>
        <time>2013-04-13T06:28:22.000Z</time>
      </trkpt>
      <trkpt lat="47.25018" lon="4.95245">
        <ele>438.8</ele>
        <time>2013-04-13T06:28:25.000Z</time>
      </trkpt>
      <trkpt lat="47.25019" lon="4.95244">
        <ele>438.5</ele>
        <time>2013-04-13T06:28:26.000Z</time>
      </trkpt>
      <trkpt lat="47.25019" lon="4.95238">
        <ele>439.9</ele>
        <time>2013-04-13T06:28:29.000Z</time>
      </trkpt>
      <trkpt lat="47.2502" lon="4.95237">
        <ele>440.4</ele>
        <time>2013-04-13T06:28:30.000Z</time>
      </trkpt>
      <trkpt lat="47.25021" lon="4.95232">
        <ele>440.2</ele>
        <time>2013-04-13T06:28:33.000Z</time>
      </trkpt>
      <trkpt lat="47.25022" lon="4.9523">
        <ele>440.1</ele>
        <time>2013-04-13T06:28:34.000Z</time>
      </trkpt>
      <trkpt lat="47.25024" lon="4.95225">
        <ele>439.4</ele>
        <time>2013-04-13T06:28:37.000Z</time>
      </trkpt>
      <trkpt lat="47.25024" lon="4.95224">
        <ele>439.6</ele>
        <time>2013-04-13T06:28:38.000Z</time>
      </trkpt>
      <trkpt lat="47.25027" lon="4.95219">
        <ele>439.6</ele>
        <time>2013-04-13T06:28:43.000Z</time>
      </trkpt>
      <trkpt lat="47.25027" lon="4.95218">
        <ele>440.6</ele>
        <time>2013-04-13T06:28:44.000Z</time>
      </trkpt>
      <trkpt lat="47.25029" lon="4.95212">
        <ele>443</ele>
        <time>2013-04-13T06:28:47.000Z</time>
      </trkpt>
      <trkpt lat="47.25029" lon="4.9521">
        <ele>442.6</ele>
        <time>2013-04-13T06:28:48.000Z</time>
      </trkpt>
      <trkpt lat="47.25031" lon="4.95205">
        <ele>442.5</ele>
        <time>2013-04-13T06:28:50.000Z</time>
      </trkpt>
      <trkpt lat="47.25031" lon="4.95203">
        <ele>442.1</ele>
        <time>2013-04-13T06:28:51.000Z</time>
      </trkpt>
      <trkpt lat="47.25033" lon="4.95197">
        <ele>442.1</ele>
        <time>2013-04-13T06:28:54.000Z</time>
      </trkpt>
      <trkpt lat="47.25034" lon="4.95195">
        <ele>442.1</ele>
        <time>2013-04-13T06:28:55.000Z</time>
      </trkpt>
      <trkpt lat="47.25035" lon="4.95189">
        <ele>440.9</ele>
        <time>2013-04-13T06:28:58.000Z</time>
      </trkpt>
      <trkpt lat="47.25036" lon="4.95187">
        <ele>441</ele>
        <time>2013-04-13T06:28:59.000Z</time>
      </trkpt>
      <trkpt lat="47.25039" lon="4.95184">
        <ele>441.7</ele>
        <time>2013-04-13T06:29:01.000Z</time>
      </trkpt>
      <trkpt lat="47.25041" lon="4.95182">
        <ele>441.6</ele>
        <time>2013-04-13T06:29:02.000Z</time>
      </trkpt>
      <trkpt lat="47.25043" lon="4.95179">
        <ele>440.7</ele>
        <time>2013-04-13T06:29:04.000Z</time>
      </trkpt>
      <trkpt lat="47.25044" lon="4.95178">
        <ele>441.1</ele>
        <time>2013-04-13T06:29:05.000Z</time>
      </trkpt>
      <trkpt lat="47.25047" lon="4.95174">
        <ele>442.9</ele>
        <time>2013-04-13T06:29:08.000Z</time>
      </trkpt>
      <trkpt lat="47.25048" lon="4.95172">
        <ele>443.6</ele>
        <time>2013-04-13T06:29:09.000Z</time>
      </trkpt>
      <trkpt lat="47.25051" lon="4.95168">
        <ele>445.6</ele>
        <time>2013-04-13T06:29:13.000Z</time>
      </trkpt>
      <trkpt lat="47.25051" lon="4.95166">
        <ele>446.5</ele>
        <time>2013-04-13T06:29:14.000Z</time>
      </trkpt>
      <trkpt lat="47.25053" lon="4.95161">
        <ele>446.6</ele>
        <time>2013-04-13T06:29:18.000Z</time>
      </trkpt>
      <trkpt lat="47.25053" lon="4.95159">
        <ele>447</ele>
        <time>2013-04-13T06:29:19.000Z</time>
      </trkpt>
      <trkpt lat="47.25055" lon="4.95154">
        <ele>446.4</ele>
        <time>2013-04-13T06:29:22.000Z</time>
      </trkpt>
      <trkpt lat="47.25056" lon="4.95152">
        <ele>446.1</ele>
        <time>2013-04-13T06:29:23.000Z</time>
      </trkpt>
      <trkpt lat="47.25058" lon="4.95148">
        <ele>446.1</ele>
        <time>2013-04-13T06:29:25.000Z</time>
      </trkpt>
      <trkpt lat="47.25059" lon="4.95146">
        <ele>446</ele>
        <time>2013-04-13T06:29:26.000Z</time>
      </trkpt>
      <trkpt lat="47.25061" lon="4.95142">
        <ele>446.3</ele>
        <time>2013-04-13T06:29:28.000Z</time>
      </trkpt>
      <trkpt lat="47.25062" lon="4.9514">
        <ele>445.6</ele>
        <time>2013-04-13T06:29:29.000Z</time>
      </trkpt>
      <trkpt lat="47.25064" lon="4.95137">
        <ele>446.3</ele>
        <time>2013-04-13T06:29:31.000Z</time>
      </trkpt>
      <trkpt lat="47.25065" lon="4.95135">
        <ele>446.6</ele>
        <time>2013-04-13T06:29:32.000Z</time>
      </trkpt>
      <trkpt lat="47.25067" lon="4.95133">
        <ele>447</ele>
        <time>2013-04-13T06:29:34.000Z</time>
      </trkpt>
      <trkpt lat="47.25069" lon="4.95132">
        <ele>447.5</ele>
        <time>2013-04-13T06:29:35.000Z</time>
      </trkpt>
      <trkpt lat="47.25071" lon="4.95129">
        <ele>448.8</ele>
        <time>2013-04-13T06:29:37.000Z</time>
      </trkpt>
      <trkpt lat="47.25073" lon="4.95127">
        <ele>449.2</ele>
        <time>2013-04-13T06:29:38.000Z</time>
      </trkpt>
      <trkpt lat="47.25076" lon="4.95124">
        <ele>450.8</ele>
        <time>2013-04-13T06:29:41.000Z</time>
      </trkpt>
      <trkpt lat="47.25076" lon="4.95123">
        <ele>450.6</ele>
        <time>2013-04-13T06:29:42.000Z</time>
      </trkpt>
      <trkpt lat="47.25078" lon="4.95117">
        <ele>450.4</ele>
        <time>2013-04-13T06:29:46.000Z</time>
      </trkpt>
      <trkpt lat="47.25079" lon="4.95116">
        <ele>450.2</ele>
        <time>2013-04-13T06:29:47.000Z</time>
      </trkpt>
      <trkpt lat="47.25081" lon="4.95111">
        <ele>451.1</ele>
        <time>2013-04-13T06:29:50.000Z</time>
      </trkpt>
      <trkpt lat="47.25082" lon="4.95109">
        <ele>451.6</ele>
        <time>2013-04-13T06:29:51.000Z</time>
      </trkpt>
      <trkpt lat="47.25085" lon="4.95105">
        <ele>451.1</ele>
        <time>2013-04-13T06:29:53.000Z</time>
      </trkpt>
      <trkpt lat="47.25086" lon="4.95103">
        <ele>451.1</ele>
        <time>2013-04-13T06:29:54.000Z</time>
      </trkpt>
      <trkpt lat="47.25089" lon="4.951">
        <ele>451.5</ele>
        <time>2013-04-13T06:29:56.000Z</time>
      </trkpt>
      <trkpt lat="47.2509" lon="4.95099">
        <ele>451.1</ele>
        <time>2013-04-13T06:29:57.000Z</time>
      </trkpt>
      <trkpt lat="47.25093" lon="4.95096">
        <ele>449.9</ele>
        <time>2013-04-13T06:30:00.000Z</time>
      </trkpt>
      <trkpt lat="47.25094" lon="4.95095">
        <ele>450.2</ele>
        <time>2013-04-13T06:30:01.000Z</time>
      </trkpt>
      <trkpt lat="47.25097" lon="4.95092">
        <ele>449.3</ele>
        <time>2013-04-13T06:30:04.000Z</time>
      </trkpt>
      <trkpt lat="47.25098" lon="4.95091">
        <ele>449.3</ele>
        <time>2013-04-13T06:30:05.000Z</time>
      </trkpt>
      <trkpt lat="47.25101" lon="4.95087">
        <ele>450</ele>
        <time>2013-04-13T06:30:08.000Z</time>
      </trkpt>
      <trkpt lat="47.25101" lon="4.95086">
        <ele>449.8</ele>
        <time>2013-04-13T06:30:09.000Z</time>
      </trkpt>
      <trkpt lat="47.25104" lon="4.95081">
        <ele>450</ele>
        <time>2013-04-13T06:30:12.000Z</time>
      </trkpt>
      <trkpt lat="47.25104" lon="4.95078">
        <ele>449.9</ele>
        <time>2013-04-13T06:30:13.000Z</time>
      </trkpt>
      <trkpt lat="47.25106" lon="4.95073">
        <ele>450.2</ele>
        <time>2013-04-13T06:30:16.000Z</time>
      </trkpt>
      <trkpt lat="47.25107" lon="4.95071">
        <ele>449.9</ele>
        <time>2013-04-13T06:30:17.000Z</time>
      </trkpt>
      <trkpt lat="47.25109" lon="4.95068">
        <ele>450.7</ele>
        <time>2013-04-13T06:30:19.000Z</time>
      </trkpt>
      <trkpt lat="47.25111" lon="4.95067">
        <ele>450.9</ele>
        <time>2013-04-13T06:30:20.000Z</time>
      </trkpt>
      <trkpt lat="47.25113" lon="4.95062">
        <ele>451.5</ele>
        <time>2013-04-13T06:30:24.000Z</time>
      </trkpt>
      <trkpt lat="47.25113" lon="4.95061">
        <ele>452.6</ele>
        <time>2013-04-13T06:30:25.000Z</time>
      </trkpt>
      <trkpt lat="47.25113" lon="4.95054">
        <ele>453.4</ele>
        <time>2013-04-13T06:30:30.000Z</time>
      </trkpt>
      <trkpt lat="47.25113" lon="4.95053">
        <ele>453.3</ele>
        <time>2013-04-13T06:30:31.000Z</time>
      </trkpt>
      <trkpt lat="47.25113" lon="4.95047">
        <ele>454.2</ele>
        <time>2013-04-13T06:30:34.000Z</time>
      </trkpt>
      <trkpt lat="47.25112" lon="4.95046">
        <ele>454.4</ele>
        <time>2013-04-13T06:30:35.000Z</time>
      </trkpt>
      <trkpt lat="47.25112" lon="4.95041">
        <ele>453.7</ele>
        <time>2013-04-13T06:30:37.000Z</time>
      </trkpt>
      <trkpt lat="47.25111" lon="4.95038">
        <ele>453.5</ele>
        <time>2013-04-13T06:30:38.000Z</time>
      </trkpt>
      <trkpt lat="47.25111" lon="4.95032">
        <ele>453.5</ele>
        <time>2013-04-13T06:30:41.000Z</time>
      </trkpt>
      <trkpt lat="47.25111" lon="4.9503">
        <ele>453.7</ele>
        <time>2013-04-13T06:30:42.000Z</time>
      </trkpt>
      <trkpt lat="47.2511" lon="4.95025">
        <ele>453.8</ele>
        <time>2013-04-13T06:30:45.000Z</time>
      </trkpt>
      <trkpt lat="47.2511" lon="4.95023">
        <ele>454</ele>
        <time>2013-04-13T06:30:46.000Z</time>
      </trkpt>
      <trkpt lat="47.25109" lon="4.95017">
        <ele>455.4</ele>
        <time>2013-04-13T06:30:51.000Z</time>
      </trkpt>
      <trkpt lat="47.25109" lon="4.95016">
        <ele>455.7</ele>
        <time>2013-04-13T06:30:52.000Z</time>
      </trkpt>
      <trkpt lat="47.2511" lon="4.9501">
        <ele>455.7</ele>
        <time>2013-04-13T06:30:56.000Z</time>
      </trkpt>
      <trkpt lat="47.2511" lon="4.95009">
        <ele>455.5</ele>
        <time>2013-04-13T06:30:57.000Z</time>
      </trkpt>
      <trkpt lat="47.25108" lon="4.95002">
        <ele>456</ele>
        <time>2013-04-13T06:31:02.000Z</time>
      </trkpt>
      <trkpt lat="47.25108" lon="4.95001">
        <ele>456.3</ele>
        <time>2013-04-13T06:31:03.000Z</time>
      </trkpt>
      <trkpt lat="47.25107" lon="4.94996">
        <ele>455.7</ele>
        <time>2013-04-13T06:31:07.000Z</time>
      </trkpt>
      <trkpt lat="47.25107" lon="4.94994">
        <ele>455.8</ele>
        <time>2013-04-13T06:31:08.000Z</time>
      </trkpt>
      <trkpt lat="47.2511" lon="4.94991">
        <ele>455.8</ele>
        <time>2013-04-13T06:31:12.000Z</time>
      </trkpt>
      <trkpt lat="47.25111" lon="4.9499">
        <ele>456.5</ele>
        <time>2013-04-13T06:31:13.000Z</time>
      </trkpt>
      <trkpt lat="47.25115" lon="4.9499">
        <ele>456</ele>
        <time>2013-04-13T06:31:18.000Z</time>
      </trkpt>
      <trkpt lat="47.25116" lon="4.9499">
        <ele>456.5</ele>
        <time>2013-04-13T06:31:19.000Z</time>
      </trkpt>
      <trkpt lat="47.25119" lon="4.94985">
        <ele>456.2</ele>
        <time>2013-04-13T06:31:23.000Z</time>
      </trkpt>
      <trkpt lat="47.25119" lon="4.94983">
        <ele>455.8</ele>
        <time>2013-04-13T06:31:24.000Z</time>
      </trkpt>
      <trkpt lat="47.2512" lon="4.94977">
        <ele>455.8</ele>
        <time>2013-04-13T06:31:27.000Z</time>
      </trkpt>
      <trkpt lat="47.2512" lon="4.94975">
        <ele>455.8</ele>
        <time>2013-04-13T06:31:28.000Z</time>
      </trkpt>
      <trkpt lat="47.25121" lon="4.9497">
        <ele>456</ele>
        <time>2013-04-13T06:31:37.000Z</time>
      </trkpt>
      <trkpt lat="47.25122" lon="4.94968">
        <ele>455.5</ele>
        <time>2013-04-13T06:31:38.000Z</time>
      </trkpt>
      <trkpt lat="47.25124" lon="4.94964">
        <ele>456.3</ele>
        <time>2013-04-13T06:31:41.000Z</time>
      </trkpt>
      <trkpt lat="47.25125" lon="4.94963">
        <ele>456.3</ele>
        <time>2013-04-13T06:31:42.000Z</time>
      </trkpt>
      <trkpt lat="47.25124" lon="4.94956">
        <ele>456.6</ele>
        <time>2013-04-13T06:31:49.000Z</time>
      </trkpt>
      <trkpt lat="47.25124" lon="4.94955">
        <ele>456.8</ele>
        <time>2013-04-13T06:31:50.000Z</time>
      </trkpt>
      <trkpt lat="47.25126" lon="4.9495">
        <ele>458.9</ele>
        <time>2013-04-13T06:31:56.000Z</time>
      </trkpt>
      <trkpt lat="47.25127" lon="4.9495">
        <ele>458.6</ele>
        <time>2013-04-13T06:31:57.000Z</time>
      </trkpt>
      <trkpt lat="47.25125" lon="4.94944">
        <ele>460.8</ele>
        <time>2013-04-13T06:32:02.000Z</time>
      </trkpt>
      <trkpt lat="47.25125" lon="4.94943">
        <ele>460</ele>
        <time>2013-04-13T06:32:03.000Z</time>
      </trkpt>
      <trkpt lat="47.25123" lon="4.94937">
        <ele>460.5</ele>
        <time>2013-04-13T06:32:08.000Z</time>
      </trkpt>
      <trkpt lat="47.25122" lon="4.94936">
        <ele>460.6</ele>
        <time>2013-04-13T06:32:09.000Z</time>
      </trkpt>
      <trkpt lat="47.2512" lon="4.94931">
        <ele>462.6</ele>
        <time>2013-04-13T06:32:15.000Z</time>
      </trkpt>
      <trkpt lat="47.2512" lon="4.94931">
        <ele>461.7</ele>
        <time>2013-04-13T06:32:16.000Z</time>
      </trkpt>
      <trkpt lat="47.25123" lon="4.94926">
        <ele>465.6</ele>
        <time>2013-04-13T06:32:22.000Z</time>
      </trkpt>
      <trkpt lat="47.25123" lon="4.94926">
        <ele>466.9</ele>
        <time>2013-04-13T06:32:23.000Z</time>
      </trkpt>
      <trkpt lat="47.25126" lon="4.94922">
        <ele>467.3</ele>
        <time>2013-04-13T06:32:27.000Z</time>
      </trkpt>
      <trkpt lat="47.25127" lon="4.94922">
        <ele>467.2</ele>
        <time>2013-04-13T06:32:28.000Z</time>
      </trkpt>
      <trkpt lat="47.25131" lon="4.94923">
        <ele>469</ele>
        <time>2013-04-13T06:32:40.000Z</time>
      </trkpt>
      <trkpt lat="47.25131" lon="4.94924">
        <ele>468.8</ele>
        <time>2013-04-13T06:32:41.000Z</time>
      </trkpt>
      <trkpt lat="47.25127" lon="4.94922">
        <ele>471.5</ele>
        <time>2013-04-13T06:32:58.000Z</time>
      </trkpt>
      <trkpt lat="47.25127" lon="4.9492">
        <ele>471.3</ele>
        <time>2013-04-13T06:32:59.000Z</time>
      </trkpt>
      <trkpt lat="47.25129" lon="4.94915">
        <ele>477.5</ele>
        <time>2013-04-13T06:38:03.000Z</time>
      </trkpt>
      <trkpt lat="47.25128" lon="4.94913">
        <ele>478</ele>
        <time>2013-04-13T06:38:04.000Z</time>
      </trkpt>
      <trkpt lat="47.25126" lon="4.94908">
        <ele>477.9</ele>
        <time>2013-04-13T06:38:06.000Z</time>
      </trkpt>
      <trkpt lat="47.25125" lon="4.94905">
        <ele>477.9</ele>
        <time>2013-04-13T06:38:07.000Z</time>
      </trkpt>
      <trkpt lat="47.25123" lon="4.94899">
        <ele>478.3</ele>
        <time>2013-04-13T06:38:09.000Z</time>
      </trkpt>
      <trkpt lat="47.25122" lon="4.94896">
        <ele>478</ele>
        <time>2013-04-13T06:38:10.000Z</time>
      </trkpt>
      <trkpt lat="47.25121" lon="4.94892">
        <ele>478.7</ele>
        <time>2013-04-13T06:38:11.000Z</time>
      </trkpt>
      <trkpt lat="47.2512" lon="4.94889">
        <ele>478.9</ele>
        <time>2013-04-13T06:38:12.000Z</time>
      </trkpt>
      <trkpt lat="47.25118" lon="4.94886">
        <ele>478.3</ele>
        <time>2013-04-13T06:38:13.000Z</time>
      </trkpt>
      <trkpt lat="47.25117" lon="4.94883">
        <ele>478.5</ele>
        <time>2013-04-13T06:38:14.000Z</time>
      </trkpt>
      <trkpt lat="47.25115" lon="4.94877">
        <ele>479.8</ele>
        <time>2013-04-13T06:38:16.000Z</time>
      </trkpt>
      <trkpt lat="47.25114" lon="4.94875">
        <ele>479.8</ele>
        <time>2013-04-13T06:38:17.000Z</time>
      </trkpt>
      <trkpt lat="47.25112" lon="4.9487">
        <ele>479.5</ele>
        <time>2013-04-13T06:38:19.000Z</time>
      </trkpt>
      <trkpt lat="47.25111" lon="4.94868">
        <ele>478.9</ele>
        <time>2013-04-13T06:38:20.000Z</time>
      </trkpt>
      <trkpt lat="47.25109" lon="4.94863">
        <ele>474.1</ele>
        <time>2013-04-13T06:38:22.000Z</time>
      </trkpt>
      <trkpt lat="47.25108" lon="4.94861">
        <ele>472.6</ele>
        <time>2013-04-13T06:38:23.000Z</time>
      </trkpt>
      <trkpt lat="47.25106" lon="4.94857">
        <ele>472</ele>
        <time>2013-04-13T06:38:25.000Z</time>
      </trkpt>
      <trkpt lat="47.25105" lon="4.94855">
        <ele>471.4</ele>
        <time>2013-04-13T06:38:26.000Z</time>
      </trkpt>
      <trkpt lat="47.25103" lon="4.94849">
        <ele>473.7</ele>
        <time>2013-04-13T06:38:30.000Z</time>
      </trkpt>
      <trkpt lat="47.25103" lon="4.94848">
        <ele>474.1</ele>
        <time>2013-04-13T06:38:31.000Z</time>
      </trkpt>
      <trkpt lat="47.25103" lon="4.94842">
        <ele>477.5</ele>
        <time>2013-04-13T06:38:35.000Z</time>
      </trkpt>
      <trkpt lat="47.25102" lon="4.94841">
        <ele>477.7</ele>
        <time>2013-04-13T06:38:36.000Z</time>
      </trkpt>
      <trkpt lat="47.25101" lon="4.94836">
        <ele>477.8</ele>
        <time>2013-04-13T06:38:56.000Z</time>
      </trkpt>
      <trkpt lat="47.25101" lon="4.94834">
        <ele>479</ele>
        <time>2013-04-13T06:38:57.000Z</time>
      </trkpt>
      <trkpt lat="47.25101" lon="4.94828">
        <ele>479.7</ele>
        <time>2013-04-13T06:39:00.000Z</time>
      </trkpt>
      <trkpt lat="47.251" lon="4.94825">
        <ele>480.1</ele>
        <time>2013-04-13T06:39:01.000Z</time>
      </trkpt>
      <trkpt lat="47.25099" lon="4.94821">
        <ele>480.4</ele>
        <time>2013-04-13T06:39:03.000Z</time>
      </trkpt>
      <trkpt lat="47.25099" lon="4.94819">
        <ele>480.7</ele>
        <time>2013-04-13T06:39:04.000Z</time>
      </trkpt>
      <trkpt lat="47.25096" lon="4.94815">
        <ele>480.7</ele>
        <time>2013-04-13T06:39:07.000Z</time>
      </trkpt>
      <trkpt lat="47.25096" lon="4.94813">
        <ele>480.3</ele>
        <time>2013-04-13T06:39:08.000Z</time>
      </trkpt>
      <trkpt lat="47.25094" lon="4.94808">
        <ele>482.7</ele>
        <time>2013-04-13T06:39:12.000Z</time>
      </trkpt>
      <trkpt lat="47.25093" lon="4.94806">
        <ele>483.4</ele>
        <time>2013-04-13T06:39:13.000Z</time>
      </trkpt>
      <trkpt lat="47.25092" lon="4.94801">
        <ele>482.8</ele>
        <time>2013-04-13T06:39:16.000Z</time>
      </trkpt>
      <trkpt lat="47.25091" lon="4.948">
        <ele>482.6</ele>
        <time>2013-04-13T06:39:17.000Z</time>
      </trkpt>
      <trkpt lat="47.25089" lon="4.94794">
        <ele>481.9</ele>
        <time>2013-04-13T06:39:20.000Z</time>
      </trkpt>
      <trkpt lat="47.25088" lon="4.94793">
        <ele>482.7</ele>
        <time>2013-04-13T06:39:21.000Z</time>
      </trkpt>
      <trkpt lat="47.25085" lon="4.94789">
        <ele>483.9</ele>
        <time>2013-04-13T06:39:24.000Z</time>
      </trkpt>
      <trkpt lat="47.25085" lon="4.94788">
        <ele>483.6</ele>
        <time>2013-04-13T06:39:25.000Z</time>
      </trkpt>
      <trkpt lat="47.25083" lon="4.94782">
        <ele>484</ele>
        <time>2013-04-13T06:39:28.000Z</time>
      </trkpt>
      <trkpt lat="47.25083" lon="4.94779">
        <ele>484.1</ele>
        <time>2013-04-13T06:39:29.000Z</time>
      </trkpt>
      <trkpt lat="47.25081" lon="4.94774">
        <ele>484.4</ele>
        <time>2013-04-13T06:39:32.000Z</time>
      </trkpt>
      <trkpt lat="47.25081" lon="4.94772">
        <ele>484.2</ele>
        <time>2013-04-13T06:39:33.000Z</time>
      </trkpt>
      <trkpt lat="47.2508" lon="4.94766">
        <ele>486.1</ele>
        <time>2013-04-13T06:39:37.000Z</time>
      </trkpt>
      <trkpt lat="47.2508" lon="4.94765">
        <ele>487.5</ele>
        <time>2013-04-13T06:39:38.000Z</time>
      </trkpt>
      <trkpt lat="47.25077" lon="4.94759">
        <ele>487.7</ele>
        <time>2013-04-13T06:39:43.000Z</time>
      </trkpt>
      <trkpt lat="47.25077" lon="4.94758">
        <ele>488.2</ele>
        <time>2013-04-13T06:39:44.000Z</time>
      </trkpt>
      <trkpt lat="47.25076" lon="4.94753">
        <ele>489.4</ele>
        <time>2013-04-13T06:39:47.000Z</time>
      </trkpt>
      <trkpt lat="47.25075" lon="4.94751">
        <ele>488.4</ele>
        <time>2013-04-13T06:39:48.000Z</time>
      </trkpt>
      <trkpt lat="47.25073" lon="4.94746">
        <ele>487.9</ele>
        <time>2013-04-13T06:39:51.000Z</time>
      </trkpt>
      <trkpt lat="47.25072" lon="4.94744">
        <ele>487.6</ele>
        <time>2013-04-13T06:39:52.000Z</time>
      </trkpt>
      <trkpt lat="47.2507" lon="4.94739">
        <ele>487.9</ele>
        <time>2013-04-13T06:39:56.000Z</time>
      </trkpt>
      <trkpt lat="47.25069" lon="4.94739">
        <ele>488.6</ele>
        <time>2013-04-13T06:39:57.000Z</time>
      </trkpt>
      <trkpt lat="47.25068" lon="4.94733">
        <ele>488.6</ele>
        <time>2013-04-13T06:40:02.000Z</time>
      </trkpt>
      <trkpt lat="47.25068" lon="4.94731">
        <ele>488.5</ele>
        <time>2013-04-13T06:40:03.000Z</time>
      </trkpt>
      <trkpt lat="47.25067" lon="4.94725">
        <ele>489.4</ele>
        <time>2013-04-13T06:40:07.000Z</time>
      </trkpt>
      <trkpt lat="47.25066" lon="4.94724">
        <ele>489.3</ele>
        <time>2013-04-13T06:40:08.000Z</time>
      </trkpt>
      <trkpt lat="47.25063" lon="4.94719">
        <ele>489</ele>
        <time>2013-04-13T06:40:12.000Z</time>
      </trkpt>
      <trkpt lat="47.25062" lon="4.94718">
        <ele>488.2</ele>
        <time>2013-04-13T06:40:13.000Z</time>
      </trkpt>
      <trkpt lat="47.25059" lon="4.94714">
        <ele>487.7</ele>
        <time>2013-04-13T06:40:16.000Z</time>
      </trkpt>
      <trkpt lat="47.25059" lon="4.94712">
        <ele>487.7</ele>
        <time>2013-04-13T06:40:17.000Z</time>
      </trkpt>
      <trkpt lat="47.25056" lon="4.94708">
        <ele>486.4</ele>
        <time>2013-04-13T06:40:21.000Z</time>
      </trkpt>
      <trkpt lat="47.25055" lon="4.94706">
        <ele>486.4</ele>
        <time>2013-04-13T06:40:22.000Z</time>
      </trkpt>
      <trkpt lat="47.25052" lon="4.94701">
        <ele>487</ele>
        <time>2013-04-13T06:40:25.000Z</time>
      </trkpt>
      <trkpt lat="47.25051" lon="4.94699">
        <ele>487.3</ele>
        <time>2013-04-13T06:40:26.000Z</time>
      </trkpt>
      <trkpt lat="47.25048" lon="4.94695">
        <ele>487.4</ele>
        <time>2013-04-13T06:40:29.000Z</time>
      </trkpt>
      <trkpt lat="47.25047" lon="4.94694">
        <ele>487.1</ele>
        <time>2013-04-13T06:40:30.000Z</time>
      </trkpt>
      <trkpt lat="47.25044" lon="4.9469">
        <ele>488</ele>
        <time>2013-04-13T06:40:33.000Z</time>
      </trkpt>
      <trkpt lat="47.25044" lon="4.94688">
        <ele>488</ele>
        <time>2013-04-13T06:40:34.000Z</time>
      </trkpt>
      <trkpt lat="47.2504" lon="4.94684">
        <ele>490.2</ele>
        <time>2013-04-13T06:40:38.000Z</time>
      </trkpt>
      <trkpt lat="47.25039" lon="4.94683">
        <ele>490</ele>
        <time>2013-04-13T06:40:39.000Z</time>
      </trkpt>
      <trkpt lat="47.25036" lon="4.94679">
        <ele>491.1</ele>
        <time>2013-04-13T06:40:43.000Z</time>
      </trkpt>
      <trkpt lat="47.25035" lon="4.94677">
        <ele>491.4</ele>
        <time>2013-04-13T06:40:44.000Z</time>
      </trkpt>
      <trkpt lat="47.25033" lon="4.94672">
        <ele>491.3</ele>
        <time>2013-04-13T06:40:47.000Z</time>
      </trkpt>
      <trkpt lat="47.25032" lon="4.9467">
        <ele>490.4</ele>
        <time>2013-04-13T06:40:48.000Z</time>
      </trkpt>
      <trkpt lat="47.2503" lon="4.94665">
        <ele>490.8</ele>
        <time>2013-04-13T06:40:51.000Z</time>
      </trkpt>
      <trkpt lat="47.25029" lon="4.94664">
        <ele>488.3</ele>
        <time>2013-04-13T06:40:52.000Z</time>
      </trkpt>
      <trkpt lat="47.25027" lon="4.94659">
        <ele>488.2</ele>
        <time>2013-04-13T06:40:55.000Z</time>
      </trkpt>
      <trkpt lat="47.25027" lon="4.94658">
        <ele>489.3</ele>
        <time>2013-04-13T06:40:56.000Z</time>
      </trkpt>
      <trkpt lat="47.25026" lon="4.94652">
        <ele>490</ele>
        <time>2013-04-13T06:41:00.000Z</time>
      </trkpt>
      <trkpt lat="47.25025" lon="4.94651">
        <ele>488.9</ele>
        <time>2013-04-13T06:41:01.000Z</time>
      </trkpt>
      <trkpt lat="47.25023" lon="4.94647">
        <ele>488.9</ele>
        <time>2013-04-13T06:41:04.000Z</time>
      </trkpt>
      <trkpt lat="47.25022" lon="4.94646">
        <ele>489.3</ele>
        <time>2013-04-13T06:41:05.000Z</time>
      </trkpt>
      <trkpt lat="47.2502" lon="4.94641">
        <ele>490.5</ele>
        <time>2013-04-13T06:41:08.000Z</time>
      </trkpt>
      <trkpt lat="47.25019" lon="4.9464">
        <ele>490.9</ele>
        <time>2013-04-13T06:41:09.000Z</time>
      </trkpt>
      <trkpt lat="47.25016" lon="4.94635">
        <ele>491.9</ele>
        <time>2013-04-13T06:41:12.000Z</time>
      </trkpt>
      <trkpt lat="47.25016" lon="4.94633">
        <ele>491.7</ele>
        <time>2013-04-13T06:41:13.000Z</time>
      </trkpt>
      <trkpt lat="47.25014" lon="4.94628">
        <ele>493.6</ele>
        <time>2013-04-13T06:41:16.000Z</time>
      </trkpt>
      <trkpt lat="47.25014" lon="4.94626">
        <ele>493.5</ele>
        <time>2013-04-13T06:41:17.000Z</time>
      </trkpt>
      <trkpt lat="47.25013" lon="4.94621">
        <ele>494.6</ele>
        <time>2013-04-13T06:41:20.000Z</time>
      </trkpt>
      <trkpt lat="47.25012" lon="4.94619">
        <ele>494.2</ele>
        <time>2013-04-13T06:41:21.000Z</time>
      </trkpt>
      <trkpt lat="47.25011" lon="4.94614">
        <ele>494.7</ele>
        <time>2013-04-13T06:41:24.000Z</time>
      </trkpt>
      <trkpt lat="47.2501" lon="4.94613">
        <ele>494.2</ele>
        <time>2013-04-13T06:41:25.000Z</time>
      </trkpt>
      <trkpt lat="47.25007" lon="4.94609">
        <ele>496.8</ele>
        <time>2013-04-13T06:41:29.000Z</time>
      </trkpt>
      <trkpt lat="47.25006" lon="4.94607">
        <ele>498.4</ele>
        <time>2013-04-13T06:41:30.000Z</time>
      </trkpt>
      <trkpt lat="47.25003" lon="4.94604">
        <ele>499.9</ele>
        <time>2013-04-13T06:41:33.000Z</time>
      </trkpt>
      <trkpt lat="47.25001" lon="4.94602">
        <ele>500.4</ele>
        <time>2013-04-13T06:41:34.000Z</time>
      </trkpt>
      <trkpt lat="47.24997" lon="4.94598">
        <ele>501.1</ele>
        <time>2013-04-13T06:41:37.000Z</time>
      </trkpt>
      <trkpt lat="47.24997" lon="4.94597">
        <ele>501.3</ele>
        <time>2013-04-13T06:41:38.000Z</time>
      </trkpt>
      <trkpt lat="47.24994" lon="4.94593">
        <ele>501.2</ele>
        <time>2013-04-13T06:41:42.000Z</time>
      </trkpt>
      <trkpt lat="47.24994" lon="4.94592">
        <ele>501</ele>
        <time>2013-04-13T06:41:43.000Z</time>
      </trkpt>
      <trkpt lat="47.24993" lon="4.94586">
        <ele>501.8</ele>
        <time>2013-04-13T06:41:46.000Z</time>
      </trkpt>
      <trkpt lat="47.24993" lon="4.94584">
        <ele>501.6</ele>
        <time>2013-04-13T06:41:47.000Z</time>
      </trkpt>
      <trkpt lat="47.24992" lon="4.94578">
        <ele>502.3</ele>
        <time>2013-04-13T06:41:51.000Z</time>
      </trkpt>
      <trkpt lat="47.24991" lon="4.94576">
        <ele>502.1</ele>
        <time>2013-04-13T06:41:52.000Z</time>
      </trkpt>
      <trkpt lat="47.2499" lon="4.9457">
        <ele>502.4</ele>
        <time>2013-04-13T06:41:55.000Z</time>
      </trkpt>
      <trkpt lat="47.24989" lon="4.94568">
        <ele>503.5</ele>
        <time>2013-04-13T06:41:56.000Z</time>
      </trkpt>
      <trkpt lat="47.24987" lon="4.94563">
        <ele>506.7</ele>
        <time>2013-04-13T06:42:00.000Z</time>
      </trkpt>
      <trkpt lat="47.24986" lon="4.94562">
        <ele>507.2</ele>
        <time>2013-04-13T06:42:01.000Z</time>
      </trkpt>
      <trkpt lat="47.24984" lon="4.94557">
        <ele>506.5</ele>
        <time>2013-04-13T06:42:05.000Z</time>
      </trkpt>
      <trkpt lat="47.24983" lon="4.94556">
        <ele>506.2</ele>
        <time>2013-04-13T06:42:06.000Z</time>
      </trkpt>
      <trkpt lat="47.2498" lon="4.94551">
        <ele>505</ele>
        <time>2013-04-13T06:42:10.000Z</time>
      </trkpt>
      <trkpt lat="47.2498" lon="4.9455">
        <ele>505</ele>
        <time>2013-04-13T06:42:11.000Z</time>
      </trkpt>
      <trkpt lat="47.24977" lon="4.94545">
        <ele>501.7</ele>
        <time>2013-04-13T06:42:16.000Z</time>
      </trkpt>
      <trkpt lat="47.24976" lon="4.94545">
        <ele>501.5</ele>
        <time>2013-04-13T06:42:17.000Z</time>
      </trkpt>
      <trkpt lat="47.24972" lon="4.94543">
        <ele>501.2</ele>
        <time>2013-04-13T06:42:22.000Z</time>
      </trkpt>
      <trkpt lat="47.24971" lon="4.94542">
        <ele>501.9</ele>
        <time>2013-04-13T06:42:23.000Z</time>
      </trkpt>
      <trkpt lat="47.24968" lon="4.9454">
        <ele>499.6</ele>
        <time>2013-04-13T06:42:25.000Z</time>
      </trkpt>
      <trkpt lat="47.24967" lon="4.94538">
        <ele>499.8</ele>
        <time>2013-04-13T06:42:26.000Z</time>
      </trkpt>
      <trkpt lat="47.24964" lon="4.94534">
        <ele>499.5</ele>
        <time>2013-04-13T06:42:29.000Z</time>
      </trkpt>
      <trkpt lat="47.24963" lon="4.94533">
        <ele>499</ele>
        <time>2013-04-13T06:42:30.000Z</time>
      </trkpt>
      <trkpt lat="47.24961" lon="4.94529">
        <ele>499.2</ele>
        <time>2013-04-13T06:42:33.000Z</time>
      </trkpt>
      <trkpt lat="47.2496" lon="4.94528">
        <ele>499.7</ele>
        <time>2013-04-13T06:42:34.000Z</time>
      </trkpt>
      <trkpt lat="47.24957" lon="4.94526">
        <ele>500.3</ele>
        <time>2013-04-13T06:42:36.000Z</time>
      </trkpt>
      <trkpt lat="47.24956" lon="4.94525">
        <ele>500.3</ele>
        <time>2013-04-13T06:42:37.000Z</time>
      </trkpt>
      <trkpt lat="47.24953" lon="4.94522">
        <ele>500</ele>
        <time>2013-04-13T06:42:40.000Z</time>
      </trkpt>
      <trkpt lat="47.24952" lon="4.94521">
        <ele>500.5</ele>
        <time>2013-04-13T06:42:41.000Z</time>
      </trkpt>
      <trkpt lat="47.2495" lon="4.94515">
        <ele>501.7</ele>
        <time>2013-04-13T06:42:45.000Z</time>
      </trkpt>
      <trkpt lat="47.2495" lon="4.94514">
        <ele>501.8</ele>
        <time>2013-04-13T06:42:46.000Z</time>
      </trkpt>
      <trkpt lat="47.24948" lon="4.94509">
        <ele>502.2</ele>
        <time>2013-04-13T06:42:49.000Z</time>
      </trkpt>
      <trkpt lat="47.24947" lon="4.94508">
        <ele>501.5</ele>
        <time>2013-04-13T06:42:50.000Z</time>
      </trkpt>
      <trkpt lat="47.24945" lon="4.94504">
        <ele>500.7</ele>
        <time>2013-04-13T06:42:52.000Z</time>
      </trkpt>
      <trkpt lat="47.24944" lon="4.94502">
        <ele>500.8</ele>
        <time>2013-04-13T06:42:53.000Z</time>
      </trkpt>
      <trkpt lat="47.24942" lon="4.94497">
        <ele>502.4</ele>
        <time>2013-04-13T06:42:55.000Z</time>
      </trkpt>
      <trkpt lat="47.24941" lon="4.94494">
        <ele>502.2</ele>
        <time>2013-04-13T06:42:56.000Z</time>
      </trkpt>
      <trkpt lat="47.2494" lon="4.9449">
        <ele>501.8</ele>
        <time>2013-04-13T06:42:58.000Z</time>
      </trkpt>
      <trkpt lat="47.2494" lon="4.94488">
        <ele>502.2</ele>
        <time>2013-04-13T06:42:59.000Z</time>
      </trkpt>
      <trkpt lat="47.24938" lon="4.94482">
        <ele>498.6</ele>
        <time>2013-04-13T06:43:02.000Z</time>
      </trkpt>
      <trkpt lat="47.24938" lon="4.94481">
        <ele>498.9</ele>
        <time>2013-04-13T06:43:03.000Z</time>
      </trkpt>
      <trkpt lat="47.24936" lon="4.94476">
        <ele>498.1</ele>
        <time>2013-04-13T06:43:07.000Z</time>
      </trkpt>
      <trkpt lat="47.24936" lon="4.94474">
        <ele>498.3</ele>
        <time>2013-04-13T06:43:08.000Z</time>
      </trkpt>
      <trkpt lat="47.24934" lon="4.94469">
        <ele>501.2</ele>
        <time>2013-04-13T06:43:12.000Z</time>
      </trkpt>
      <trkpt lat="47.24934" lon="4.94468">
        <ele>501.7</ele>
        <time>2013-04-13T06:43:13.000Z</time>
      </trkpt>
      <trkpt lat="47.24932" lon="4.94462">
        <ele>503.7</ele>
        <time>2013-04-13T06:43:17.000Z</time>
      </trkpt>
      <trkpt lat="47.24932" lon="4.9446">
        <ele>504.9</ele>
        <time>2013-04-13T06:43:18.000Z</time>
      </trkpt>
      <trkpt lat="47.24931" lon="4.94455">
        <ele>502.1</ele>
        <time>2013-04-13T06:43:23.000Z</time>
      </trkpt>
      <trkpt lat="47.2493" lon="4.94453">
        <ele>502.3</ele>
        <time>2013-04-13T06:43:24.000Z</time>
      </trkpt>
      <trkpt lat="47.24929" lon="4.94448">
        <ele>504</ele>
        <time>2013-04-13T06:43:28.000Z</time>
      </trkpt>
      <trkpt lat="47.24929" lon="4.94447">
        <ele>504.1</ele>
        <time>2013-04-13T06:43:29.000Z</time>
      </trkpt>
      <trkpt lat="47.2493" lon="4.94442">
        <ele>503.6</ele>
        <time>2013-04-13T06:43:35.000Z</time>
      </trkpt>
      <trkpt lat="47.24929" lon="4.9444">
        <ele>503.5</ele>
        <time>2013-04-13T06:43:36.000Z</time>
      </trkpt>
      <trkpt lat="47.24927" lon="4.94435">
        <ele>503.9</ele>
        <time>2013-04-13T06:43:38.000Z</time>
      </trkpt>
      <trkpt lat="47.24926" lon="4.94433">
        <ele>505.8</ele>
        <time>2013-04-13T06:43:39.000Z</time>
      </trkpt>
      <trkpt lat="47.24924" lon="4.94428">
        <ele>506.4</ele>
        <time>2013-04-13T06:43:42.000Z</time>
      </trkpt>
      <trkpt lat="47.24924" lon="4.94426">
        <ele>507.2</ele>
        <time>2013-04-13T06:43:43.000Z</time>
      </trkpt>
      <trkpt lat="47.24921" lon="4.94421">
        <ele>507.3</ele>
        <time>2013-04-13T06:43:48.000Z</time>
      </trkpt>
      <trkpt lat="47.2492" lon="4.9442">
        <ele>507.6</ele>
        <time>2013-04-13T06:43:49.000Z</time>
      </trkpt>
      <trkpt lat="47.24919" lon="4.94415">
        <ele>508.7</ele>
        <time>2013-04-13T06:43:52.000Z</time>
      </trkpt>
      <trkpt lat="47.24918" lon="4.94413">
        <ele>508.5</ele>
        <time>2013-04-13T06:43:53.000Z</time>
      </trkpt>
      <trkpt lat="47.24917" lon="4.94408">
        <ele>509.2</ele>
        <time>2013-04-13T06:43:56.000Z</time>
      </trkpt>
      <trkpt lat="47.24916" lon="4.94406">
        <ele>509.6</ele>
        <time>2013-04-13T06:43:57.000Z</time>
      </trkpt>
      <trkpt lat="47.24914" lon="4.94402">
        <ele>510.2</ele>
        <time>2013-04-13T06:43:59.000Z</time>
      </trkpt>
      <trkpt lat="47.24913" lon="4.944">
        <ele>509.7</ele>
        <time>2013-04-13T06:44:00.000Z</time>
      </trkpt>
      <trkpt lat="47.24912" lon="4.94396">
        <ele>510.4</ele>
        <time>2013-04-13T06:44:02.000Z</time>
      </trkpt>
      <trkpt lat="47.24911" lon="4.94394">
        <ele>510.6</ele>
        <time>2013-04-13T06:44:03.000Z</time>
      </trkpt>
      <trkpt lat="47.24908" lon="4.9439">
        <ele>509.4</ele>
        <time>2013-04-13T06:44:06.000Z</time>
      </trkpt>
      <trkpt lat="47.24908" lon="4.94389">
        <ele>509.4</ele>
        <time>2013-04-13T06:44:07.000Z</time>
      </trkpt>
      <trkpt lat="47.24906" lon="4.94385">
        <ele>508.3</ele>
        <time>2013-04-13T06:44:11.000Z</time>
      </trkpt>
      <trkpt lat="47.24905" lon="4.94383">
        <ele>508.9</ele>
        <time>2013-04-13T06:44:12.000Z</time>
      </trkpt>
      <trkpt lat="47.24904" lon="4.94379">
        <ele>509.1</ele>
        <time>2013-04-13T06:44:14.000Z</time>
      </trkpt>
      <trkpt lat="47.24903" lon="4.94377">
        <ele>509.7</ele>
        <time>2013-04-13T06:44:15.000Z</time>
      </trkpt>
      <trkpt lat="47.24901" lon="4.94371">
        <ele>508.5</ele>
        <time>2013-04-13T06:44:18.000Z</time>
      </trkpt>
      <trkpt lat="47.24901" lon="4.9437">
        <ele>508.4</ele>
        <time>2013-04-13T06:44:19.000Z</time>
      </trkpt>
      <trkpt lat="47.24899" lon="4.94366">
        <ele>509.3</ele>
        <time>2013-04-13T06:44:21.000Z</time>
      </trkpt>
      <trkpt lat="47.24899" lon="4.94363">
        <ele>509.5</ele>
        <time>2013-04-13T06:44:22.000Z</time>
      </trkpt>
      <trkpt lat="47.24898" lon="4.94358">
        <ele>509</ele>
        <time>2013-04-13T06:44:25.000Z</time>
      </trkpt>
      <trkpt lat="47.24897" lon="4.94356">
        <ele>509.6</ele>
        <time>2013-04-13T06:44:26.000Z</time>
      </trkpt>
      <trkpt lat="47.24896" lon="4.94351">
        <ele>511.3</ele>
        <time>2013-04-13T06:44:29.000Z</time>
      </trkpt>
      <trkpt lat="47.24895" lon="4.94349">
        <ele>511.1</ele>
        <time>2013-04-13T06:44:30.000Z</time>
      </trkpt>
      <trkpt lat="47.24893" lon="4.94345">
        <ele>510.7</ele>
        <time>2013-04-13T06:44:33.000Z</time>
      </trkpt>
      <trkpt lat="47.24892" lon="4.94343">
        <ele>510.8</ele>
        <time>2013-04-13T06:44:34.000Z</time>
      </trkpt>
      <trkpt lat="47.24889" lon="4.94339">
        <ele>511</ele>
        <time>2013-04-13T06:44:37.000Z</time>
      </trkpt>
      <trkpt lat="47.24889" lon="4.94337">
        <ele>512</ele>
        <time>2013-04-13T06:44:38.000Z</time>
      </trkpt>
      <trkpt lat="47.24887" lon="4.94331">
        <ele>511.7</ele>
        <time>2013-04-13T06:44:41.000Z</time>
      </trkpt>
      <trkpt lat="47.24886" lon="4.94329">
        <ele>511.5</ele>
        <time>2013-04-13T06:44:42.000Z</time>
      </trkpt>
      <trkpt lat="47.24885" lon="4.94323">
        <ele>512.2</ele>
        <time>2013-04-13T06:44:45.000Z</time>
      </trkpt>
      <trkpt lat="47.24884" lon="4.94322">
        <ele>512.3</ele>
        <time>2013-04-13T06:44:46.000Z</time>
      </trkpt>
      <trkpt lat="47.24883" lon="4.94316">
        <ele>511.4</ele>
        <time>2013-04-13T06:44:50.000Z</time>
      </trkpt>
      <trkpt lat="47.24882" lon="4.94314">
        <ele>512.1</ele>
        <time>2013-04-13T06:44:51.000Z</time>
      </trkpt>
      <trkpt lat="47.24881" lon="4.94309">
        <ele>513.7</ele>
        <time>2013-04-13T06:44:55.000Z</time>
      </trkpt>
      <trkpt lat="47.2488" lon="4.94308">
        <ele>514.1</ele>
        <time>2013-04-13T06:44:56.000Z</time>
      </trkpt>
      <trkpt lat="47.24877" lon="4.94304">
        <ele>514.1</ele>
        <time>2013-04-13T06:44:59.000Z</time>
      </trkpt>
      <trkpt lat="47.24876" lon="4.94302">
        <ele>513.9</ele>
        <time>2013-04-13T06:45:00.000Z</time>
      </trkpt>
      <trkpt lat="47.24875" lon="4.94297">
        <ele>514.9</ele>
        <time>2013-04-13T06:45:02.000Z</time>
      </trkpt>
      <trkpt lat="47.24874" lon="4.94296">
        <ele>515.3</ele>
        <time>2013-04-13T06:45:03.000Z</time>
      </trkpt>
      <trkpt lat="47.2487" lon="4.94295">
        <ele>518.3</ele>
        <time>2013-04-13T06:45:29.000Z</time>
      </trkpt>
      <trkpt lat="47.2487" lon="4.94293">
        <ele>518.7</ele>
        <time>2013-04-13T06:45:30.000Z</time>
      </trkpt>
      <trkpt lat="47.24869" lon="4.9429">
        <ele>519</ele>
        <time>2013-04-13T06:45:32.000Z</time>
      </trkpt>
      <trkpt lat="47.24868" lon="4.94286">
        <ele>519.2</ele>
        <time>2013-04-13T06:45:33.000Z</time>
      </trkpt>
      <trkpt lat="47.24867" lon="4.94283">
        <ele>519.4</ele>
        <time>2013-04-13T06:45:34.000Z</time>
      </trkpt>
      <trkpt lat="47.24866" lon="4.9428">
        <ele>519.4</ele>
        <time>2013-04-13T06:45:35.000Z</time>
      </trkpt>
      <trkpt lat="47.24864" lon="4.94274">
        <ele>519.7</ele>
        <time>2013-04-13T06:45:37.000Z</time>
      </trkpt>
      <trkpt lat="47.24863" lon="4.94272">
        <ele>519.9</ele>
        <time>2013-04-13T06:45:38.000Z</time>
      </trkpt>
      <trkpt lat="47.24861" lon="4.94268">
        <ele>520.9</ele>
        <time>2013-04-13T06:45:40.000Z</time>
      </trkpt>
      <trkpt lat="47.2486" lon="4.94266">
        <ele>521.1</ele>
        <time>2013-04-13T06:45:41.000Z</time>
      </trkpt>
      <trkpt lat="47.24857" lon="4.94261">
        <ele>521.5</ele>
        <time>2013-04-13T06:45:44.000Z</time>
      </trkpt>
      <trkpt lat="47.24856" lon="4.94259">
        <ele>521</ele>
        <time>2013-04-13T06:45:45.000Z</time>
      </trkpt>
      <trkpt lat="47.24854" lon="4.94254">
        <ele>521.4</ele>
        <time>2013-04-13T06:45:47.000Z</time>
      </trkpt>
      <trkpt lat="47.24854" lon="4.94251">
        <ele>521.5</ele>
        <time>2013-04-13T06:45:48.000Z</time>
      </trkpt>
      <trkpt lat="47.24852" lon="4.94246">
        <ele>521.9</ele>
        <time>2013-04-13T06:45:50.000Z</time>
      </trkpt>
      <trkpt lat="47.24851" lon="4.94243">
        <ele>521.5</ele>
        <time>2013-04-13T06:45:51.000Z</time>
      </trkpt>
      <trkpt lat="47.24848" lon="4.94238">
        <ele>522.7</ele>
        <time>2013-04-13T06:45:54.000Z</time>
      </trkpt>
      <trkpt lat="47.24847" lon="4.94237">
        <ele>522.7</ele>
        <time>2013-04-13T06:45:55.000Z</time>
      </trkpt>
      <trkpt lat="47.24845" lon="4.94233">
        <ele>522.2</ele>
        <time>2013-04-13T06:45:58.000Z</time>
      </trkpt>
      <trkpt lat="47.24844" lon="4.94232">
        <ele>522.3</ele>
        <time>2013-04-13T06:45:59.000Z</time>
      </trkpt>
      <trkpt lat="47.24842" lon="4.94228">
        <ele>521.4</ele>
        <time>2013-04-13T06:46:02.000Z</time>
      </trkpt>
      <trkpt lat="47.24842" lon="4.94226">
        <ele>522.2</ele>
        <time>2013-04-13T06:46:03.000Z</time>
      </trkpt>
      <trkpt lat="47.24839" lon="4.94222">
        <ele>523.5</ele>
        <time>2013-04-13T06:46:06.000Z</time>
      </trkpt>
      <trkpt lat="47.24838" lon="4.9422">
        <ele>523.3</ele>
        <time>2013-04-13T06:46:07.000Z</time>
      </trkpt>
      <trkpt lat="47.24835" lon="4.94217">
        <ele>521.7</ele>
        <time>2013-04-13T06:46:09.000Z</time>
      </trkpt>
      <trkpt lat="47.24834" lon="4.94215">
        <ele>521.5</ele>
        <time>2013-04-13T06:46:10.000Z</time>
      </trkpt>
      <trkpt lat="47.24832" lon="4.94212">
        <ele>522.2</ele>
        <time>2013-04-13T06:46:13.000Z</time>
      </trkpt>
      <trkpt lat="47.24831" lon="4.9421">
        <ele>522.2</ele>
        <time>2013-04-13T06:46:14.000Z</time>
      </trkpt>
      <trkpt lat="47.24828" lon="4.94206">
        <ele>523</ele>
        <time>2013-04-13T06:46:17.000Z</time>
      </trkpt>
      <trkpt lat="47.24828" lon="4.94204">
        <ele>522.9</ele>
        <time>2013-04-13T06:46:18.000Z</time>
      </trkpt>
      <trkpt lat="47.24826" lon="4.94199">
        <ele>522.8</ele>
        <time>2013-04-13T06:46:21.000Z</time>
      </trkpt>
      <trkpt lat="47.24826" lon="4.94197">
        <ele>521.8</ele>
        <time>2013-04-13T06:46:22.000Z</time>
      </trkpt>
      <trkpt lat="47.24824" lon="4.94191">
        <ele>520.4</ele>
        <time>2013-04-13T06:46:27.000Z</time>
      </trkpt>
      <trkpt lat="47.24823" lon="4.9419">
        <ele>520.7</ele>
        <time>2013-04-13T06:46:28.000Z</time>
      </trkpt>
      <trkpt lat="47.24822" lon="4.94186">
        <ele>519.2</ele>
        <time>2013-04-13T06:46:30.000Z</time>
      </trkpt>
      <trkpt lat="47.24821" lon="4.94184">
        <ele>519.2</ele>
        <time>2013-04-13T06:46:31.000Z</time>
      </trkpt>
      <trkpt lat="47.24818" lon="4.94179">
        <ele>519.9</ele>
        <time>2013-04-13T06:46:34.000Z</time>
      </trkpt>
      <trkpt lat="47.24818" lon="4.94178">
        <ele>520</ele>
        <time>2013-04-13T06:46:35.000Z</time>
      </trkpt>
      <trkpt lat="47.24816" lon="4.94174">
        <ele>518.3</ele>
        <time>2013-04-13T06:46:38.000Z</time>
      </trkpt>
      <trkpt lat="47.24815" lon="4.94172">
        <ele>517.9</ele>
        <time>2013-04-13T06:46:39.000Z</time>
      </trkpt>
      <trkpt lat="47.24814" lon="4.94167">
        <ele>518.1</ele>
        <time>2013-04-13T06:46:41.000Z</time>
      </trkpt>
      <trkpt lat="47.24814" lon="4.94165">
        <ele>518.3</ele>
        <time>2013-04-13T06:46:42.000Z</time>
      </trkpt>
      <trkpt lat="47.24812" lon="4.9416">
        <ele>518.5</ele>
        <time>2013-04-13T06:46:45.000Z</time>
      </trkpt>
      <trkpt lat="47.24811" lon="4.94159">
        <ele>518.6</ele>
        <time>2013-04-13T06:46:46.000Z</time>
      </trkpt>
      <trkpt lat="47.24809" lon="4.94154">
        <ele>518.3</ele>
        <time>2013-04-13T06:46:50.000Z</time>
      </trkpt>
      <trkpt lat="47.24808" lon="4.94152">
        <ele>518.3</ele>
        <time>2013-04-13T06:46:51.000Z</time>
      </trkpt>
      <trkpt lat="47.24807" lon="4.94147">
        <ele>517.5</ele>
        <time>2013-04-13T06:46:56.000Z</time>
      </trkpt>
      <trkpt lat="47.24806" lon="4.94145">
        <ele>516.9</ele>
        <time>2013-04-13T06:46:57.000Z</time>
      </trkpt>
      <trkpt lat="47.24804" lon="4.9414">
        <ele>516.5</ele>
        <time>2013-04-13T06:47:00.000Z</time>
      </trkpt>
      <trkpt lat="47.24802" lon="4.94139">
        <ele>516.8</ele>
        <time>2013-04-13T06:47:01.000Z</time>
      </trkpt>
      <trkpt lat="47.24799" lon="4.94135">
        <ele>517.1</ele>
        <time>2013-04-13T06:47:04.000Z</time>
      </trkpt>
      <trkpt lat="47.24798" lon="4.94133">
        <ele>517.4</ele>
        <time>2013-04-13T06:47:05.000Z</time>
      </trkpt>
      <trkpt lat="47.24795" lon="4.94129">
        <ele>517.6</ele>
        <time>2013-04-13T06:47:08.000Z</time>
      </trkpt>
      <trkpt lat="47.24794" lon="4.94128">
        <ele>517.5</ele>
        <time>2013-04-13T06:47:09.000Z</time>
      </trkpt>
      <trkpt lat="47.24791" lon="4.94124">
        <ele>518</ele>
        <time>2013-04-13T06:47:12.000Z</time>
      </trkpt>
      <trkpt lat="47.2479" lon="4.94122">
        <ele>516.8</ele>
        <time>2013-04-13T06:47:13.000Z</time>
      </trkpt>
      <trkpt lat="47.24788" lon="4.94118">
        <ele>515.8</ele>
        <time>2013-04-13T06:47:15.000Z</time>
      </trkpt>
      <trkpt lat="47.24787" lon="4.94116">
        <ele>516.1</ele>
        <time>2013-04-13T06:47:16.000Z</time>
      </trkpt>
      <trkpt lat="47.24783" lon="4.94112">
        <ele>516.1</ele>
        <time>2013-04-13T06:47:18.000Z</time>
      </trkpt>
      <trkpt lat="47.24782" lon="4.94109">
        <ele>516</ele>
        <time>2013-04-13T06:47:19.000Z</time>
      </trkpt>
      <trkpt lat="47.2478" lon="4.94107">
        <ele>515.9</ele>
        <time>2013-04-13T06:47:20.000Z</time>
      </trkpt>
      <trkpt lat="47.24778" lon="4.94105">
        <ele>516.2</ele>
        <time>2013-04-13T06:47:21.000Z</time>
      </trkpt>
      <trkpt lat="47.24776" lon="4.941">
        <ele>515.7</ele>
        <time>2013-04-13T06:47:23.000Z</time>
      </trkpt>
      <trkpt lat="47.24775" lon="4.94097">
        <ele>516.3</ele>
        <time>2013-04-13T06:47:24.000Z</time>
      </trkpt>
      <trkpt lat="47.24773" lon="4.94093">
        <ele>516.1</ele>
        <time>2013-04-13T06:47:26.000Z</time>
      </trkpt>
      <trkpt lat="47.24771" lon="4.94091">
        <ele>516.3</ele>
        <time>2013-04-13T06:47:27.000Z</time>
      </trkpt>
      <trkpt lat="47.2477" lon="4.94088">
        <ele>516.8</ele>
        <time>2013-04-13T06:47:29.000Z</time>
      </trkpt>
      <trkpt lat="47.24769" lon="4.94086">
        <ele>517.6</ele>
        <time>2013-04-13T06:47:30.000Z</time>
      </trkpt>
      <trkpt lat="47.24767" lon="4.94081">
        <ele>520.1</ele>
        <time>2013-04-13T06:47:33.000Z</time>
      </trkpt>
      <trkpt lat="47.24767" lon="4.9408">
        <ele>520.7</ele>
        <time>2013-04-13T06:47:34.000Z</time>
      </trkpt>
      <trkpt lat="47.24764" lon="4.94076">
        <ele>521.7</ele>
        <time>2013-04-13T06:47:37.000Z</time>
      </trkpt>
      <trkpt lat="47.24763" lon="4.94075">
        <ele>522.1</ele>
        <time>2013-04-13T06:47:38.000Z</time>
      </trkpt>
      <trkpt lat="47.24761" lon="4.9407">
        <ele>523.1</ele>
        <time>2013-04-13T06:47:42.000Z</time>
      </trkpt>
      <trkpt lat="47.2476" lon="4.94068">
        <ele>522.2</ele>
        <time>2013-04-13T06:47:43.000Z</time>
      </trkpt>
      <trkpt lat="47.24759" lon="4.94064">
        <ele>521.4</ele>
        <time>2013-04-13T06:47:45.000Z</time>
      </trkpt>
      <trkpt lat="47.24758" lon="4.94062">
        <ele>520.8</ele>
        <time>2013-04-13T06:47:46.000Z</time>
      </trkpt>
      <trkpt lat="47.24755" lon="4.94057">
        <ele>522.2</ele>
        <time>2013-04-13T06:47:49.000Z</time>
      </trkpt>
      <trkpt lat="47.24755" lon="4.94055">
        <ele>522.5</ele>
        <time>2013-04-13T06:47:50.000Z</time>
      </trkpt>
      <trkpt lat="47.24753" lon="4.94051">
        <ele>522.5</ele>
        <time>2013-04-13T06:47:52.000Z</time>
      </trkpt>
      <trkpt lat="47.24753" lon="4.94049">
        <ele>522.3</ele>
        <time>2013-04-13T06:47:53.000Z</time>
      </trkpt>
      <trkpt lat="47.24751" lon="4.94045">
        <ele>522.5</ele>
        <time>2013-04-13T06:47:55.000Z</time>
      </trkpt>
      <trkpt lat="47.2475" lon="4.94043">
        <ele>521.9</ele>
        <time>2013-04-13T06:47:56.000Z</time>
      </trkpt>
      <trkpt lat="47.24749" lon="4.94037">
        <ele>522.1</ele>
        <time>2013-04-13T06:47:59.000Z</time>
      </trkpt>
      <trkpt lat="47.24749" lon="4.94035">
        <ele>521.7</ele>
        <time>2013-04-13T06:48:00.000Z</time>
      </trkpt>
      <trkpt lat="47.24747" lon="4.94029">
        <ele>522</ele>
        <time>2013-04-13T06:48:02.000Z</time>
      </trkpt>
      <trkpt lat="47.24747" lon="4.94027">
        <ele>521.4</ele>
        <time>2013-04-13T06:48:03.000Z</time>
      </trkpt>
      <trkpt lat="47.24745" lon="4.94022">
        <ele>522.4</ele>
        <time>2013-04-13T06:48:05.000Z</time>
      </trkpt>
      <trkpt lat="47.24745" lon="4.9402">
        <ele>522</ele>
        <time>2013-04-13T06:48:06.000Z</time>
      </trkpt>
      <trkpt lat="47.24743" lon="4.94015">
        <ele>521.6</ele>
        <time>2013-04-13T06:48:08.000Z</time>
      </trkpt>
      <trkpt lat="47.24743" lon="4.94013">
        <ele>522.3</ele>
        <time>2013-04-13T06:48:09.000Z</time>
      </trkpt>
      <trkpt lat="47.24741" lon="4.94007">
        <ele>522.3</ele>
        <time>2013-04-13T06:48:12.000Z</time>
      </trkpt>
      <trkpt lat="47.24741" lon="4.94006">
        <ele>522.3</ele>
        <time>2013-04-13T06:48:13.000Z</time>
      </trkpt>
      <trkpt lat="47.24738" lon="4.94003">
        <ele>523.3</ele>
        <time>2013-04-13T06:48:17.000Z</time>
      </trkpt>
      <trkpt lat="47.24737" lon="4.94002">
        <ele>522.9</ele>
        <time>2013-04-13T06:48:18.000Z</time>
      </trkpt>
      <trkpt lat="47.24734" lon="4.93998">
        <ele>522.7</ele>
        <time>2013-04-13T06:48:21.000Z</time>
      </trkpt>
      <trkpt lat="47.24734" lon="4.93996">
        <ele>523</ele>
        <time>2013-04-13T06:48:22.000Z</time>
      </trkpt>
      <trkpt lat="47.24732" lon="4.93992">
        <ele>522.4</ele>
        <time>2013-04-13T06:48:25.000Z</time>
      </trkpt>
      <trkpt lat="47.24731" lon="4.93991">
        <ele>523</ele>
        <time>2013-04-13T06:48:26.000Z</time>
      </trkpt>
      <trkpt lat="47.24729" lon="4.93985">
        <ele>523.6</ele>
        <time>2013-04-13T06:48:29.000Z</time>
      </trkpt>
      <trkpt lat="47.24729" lon="4.93983">
        <ele>523.2</ele>
        <time>2013-04-13T06:48:30.000Z</time>
      </trkpt>
      <trkpt lat="47.24728" lon="4.93978">
        <ele>523.3</ele>
        <time>2013-04-13T06:48:32.000Z</time>
      </trkpt>
      <trkpt lat="47.24727" lon="4.93976">
        <ele>524.2</ele>
        <time>2013-04-13T06:48:33.000Z</time>
      </trkpt>
      <trkpt lat="47.24727" lon="4.93972">
        <ele>524.7</ele>
        <time>2013-04-13T06:48:35.000Z</time>
      </trkpt>
      <trkpt lat="47.24726" lon="4.93969">
        <ele>524.9</ele>
        <time>2013-04-13T06:48:36.000Z</time>
      </trkpt>
      <trkpt lat="47.24725" lon="4.93964">
        <ele>524.4</ele>
        <time>2013-04-13T06:48:38.000Z</time>
      </trkpt>
      <trkpt lat="47.24724" lon="4.93962">
        <ele>524.4</ele>
        <time>2013-04-13T06:48:39.000Z</time>
      </trkpt>
      <trkpt lat="47.24722" lon="4.93957">
        <ele>524.4</ele>
        <time>2013-04-13T06:48:42.000Z</time>
      </trkpt>
      <trkpt lat="47.24721" lon="4.93956">
        <ele>524.7</ele>
        <time>2013-04-13T06:48:43.000Z</time>
      </trkpt>
      <trkpt lat="47.24718" lon="4.93952">
        <ele>524.7</ele>
        <time>2013-04-13T06:48:45.000Z</time>
      </trkpt>
      <trkpt lat="47.24717" lon="4.93951">
        <ele>524.2</ele>
        <time>2013-04-13T06:48:46.000Z</time>
      </trkpt>
      <trkpt lat="47.24715" lon="4.93947">
        <ele>525.4</ele>
        <time>2013-04-13T06:48:48.000Z</time>
      </trkpt>
      <trkpt lat="47.24713" lon="4.93946">
        <ele>525.5</ele>
        <time>2013-04-13T06:48:49.000Z</time>
      </trkpt>
      <trkpt lat="47.24711" lon="4.93941">
        <ele>526.4</ele>
        <time>2013-04-13T06:48:51.000Z</time>
      </trkpt>
      <trkpt lat="47.2471" lon="4.93939">
        <ele>526.4</ele>
        <time>2013-04-13T06:48:52.000Z</time>
      </trkpt>
      <trkpt lat="47.24708" lon="4.93935">
        <ele>526.6</ele>
        <time>2013-04-13T06:48:54.000Z</time>
      </trkpt>
      <trkpt lat="47.24707" lon="4.93933">
        <ele>525.6</ele>
        <time>2013-04-13T06:48:55.000Z</time>
      </trkpt>
      <trkpt lat="47.24706" lon="4.93929">
        <ele>525.6</ele>
        <time>2013-04-13T06:48:57.000Z</time>
      </trkpt>
      <trkpt lat="47.24704" lon="4.93926">
        <ele>524.8</ele>
        <time>2013-04-13T06:48:58.000Z</time>
      </trkpt>
      <trkpt lat="47.24702" lon="4.93923">
        <ele>524.5</ele>
        <time>2013-04-13T06:49:00.000Z</time>
      </trkpt>
      <trkpt lat="47.24701" lon="4.93921">
        <ele>524</ele>
        <time>2013-04-13T06:49:01.000Z</time>
      </trkpt>
      <trkpt lat="47.24698" lon="4.93916">
        <ele>526.2</ele>
        <time>2013-04-13T06:49:05.000Z</time>
      </trkpt>
      <trkpt lat="47.24698" lon="4.93915">
        <ele>526.6</ele>
        <time>2013-04-13T06:49:06.000Z</time>
      </trkpt>
      <trkpt lat="47.24697" lon="4.9391">
        <ele>528.2</ele>
        <time>2013-04-13T06:49:10.000Z</time>
      </trkpt>
      <trkpt lat="47.24697" lon="4.93908">
        <ele>528.2</ele>
        <time>2013-04-13T06:49:11.000Z</time>
      </trkpt>
      <trkpt lat="47.24697" lon="4.93903">
        <ele>529.3</ele>
        <time>2013-04-13T06:49:14.000Z</time>
      </trkpt>
      <trkpt lat="47.24697" lon="4.93901">
        <ele>529.5</ele>
        <time>2013-04-13T06:49:15.000Z</time>
      </trkpt>
      <trkpt lat="47.24695" lon="4.93895">
        <ele>530.1</ele>
        <time>2013-04-13T06:49:17.000Z</time>
      </trkpt>
      <trkpt lat="47.24694" lon="4.93893">
        <ele>530.5</ele>
        <time>2013-04-13T06:49:18.000Z</time>
      </trkpt>
      <trkpt lat="47.24693" lon="4.93886">
        <ele>531.9</ele>
        <time>2013-04-13T06:49:28.000Z</time>
      </trkpt>
      <trkpt lat="47.24693" lon="4.93886">
        <ele>532</ele>
        <time>2013-04-13T06:49:29.000Z</time>
      </trkpt>
      <trkpt lat="47.24692" lon="4.93881">
        <ele>533.2</ele>
        <time>2013-04-13T06:49:36.000Z</time>
      </trkpt>
      <trkpt lat="47.24691" lon="4.93878">
        <ele>532.9</ele>
        <time>2013-04-13T06:49:37.000Z</time>
      </trkpt>
      <trkpt lat="47.24691" lon="4.93874">
        <ele>532.9</ele>
        <time>2013-04-13T06:49:38.000Z</time>
      </trkpt>
      <trkpt lat="47.2469" lon="4.93871">
        <ele>533.6</ele>
        <time>2013-04-13T06:49:39.000Z</time>
      </trkpt>
      <trkpt lat="47.24689" lon="4.93867">
        <ele>534.1</ele>
        <time>2013-04-13T06:49:40.000Z</time>
      </trkpt>
      <trkpt lat="47.24689" lon="4.93864">
        <ele>533.9</ele>
        <time>2013-04-13T06:49:41.000Z</time>
      </trkpt>
      <trkpt lat="47.24688" lon="4.9386">
        <ele>534.3</ele>
        <time>2013-04-13T06:49:42.000Z</time>
      </trkpt>
      <trkpt lat="47.24688" lon="4.93857">
        <ele>533.1</ele>
        <time>2013-04-13T06:49:43.000Z</time>
      </trkpt>
      <trkpt lat="47.24687" lon="4.93851">
        <ele>533.5</ele>
        <time>2013-04-13T06:49:45.000Z</time>
      </trkpt>
      <trkpt lat="47.24686" lon="4.93848">
        <ele>532.8</ele>
        <time>2013-04-13T06:49:46.000Z</time>
      </trkpt>
      <trkpt lat="47.24685" lon="4.93842">
        <ele>533.2</ele>
        <time>2013-04-13T06:49:48.000Z</time>
      </trkpt>
      <trkpt lat="47.24685" lon="4.9384">
        <ele>533.4</ele>
        <time>2013-04-13T06:49:49.000Z</time>
      </trkpt>
      <trkpt lat="47.24685" lon="4.93835">
        <ele>533.9</ele>
        <time>2013-04-13T06:49:52.000Z</time>
      </trkpt>
      <trkpt lat="47.24684" lon="4.93832">
        <ele>534.1</ele>
        <time>2013-04-13T06:49:53.000Z</time>
      </trkpt>
      <trkpt lat="47.24683" lon="4.93826">
        <ele>534.8</ele>
        <time>2013-04-13T06:49:59.000Z</time>
      </trkpt>
      <trkpt lat="47.24683" lon="4.93826">
        <ele>534.6</ele>
        <time>2013-04-13T06:50:00.000Z</time>
      </trkpt>
      <trkpt lat="47.24684" lon="4.93821">
        <ele>533.9</ele>
        <time>2013-04-13T06:50:12.000Z</time>
      </trkpt>
      <trkpt lat="47.24684" lon="4.93819">
        <ele>533.8</ele>
        <time>2013-04-13T06:50:13.000Z</time>
      </trkpt>
      <trkpt lat="47.24685" lon="4.93814">
        <ele>533.1</ele>
        <time>2013-04-13T06:50:15.000Z</time>
      </trkpt>
      <trkpt lat="47.24685" lon="4.93811">
        <ele>532.7</ele>
        <time>2013-04-13T06:50:16.000Z</time>
      </trkpt>
      <trkpt lat="47.24684" lon="4.93806">
        <ele>532.1</ele>
        <time>2013-04-13T06:50:18.000Z</time>
      </trkpt>
      <trkpt lat="47.24685" lon="4.93802">
        <ele>532.3</ele>
        <time>2013-04-13T06:50:19.000Z</time>
      </trkpt>
      <trkpt lat="47.24685" lon="4.93799">
        <ele>532.4</ele>
        <time>2013-04-13T06:50:20.000Z</time>
      </trkpt>
      <trkpt lat="47.24685" lon="4.93795">
        <ele>532.8</ele>
        <time>2013-04-13T06:50:21.000Z</time>
      </trkpt>
      <trkpt lat="47.24685" lon="4.93792">
        <ele>533.6</ele>
        <time>2013-04-13T06:50:22.000Z</time>
      </trkpt>
      <trkpt lat="47.24685" lon="4.93788">
        <ele>534.7</ele>
        <time>2013-04-13T06:50:23.000Z</time>
      </trkpt>
      <trkpt lat="47.24683" lon="4.93783">
        <ele>536.6</ele>
        <time>2013-04-13T06:50:25.000Z</time>
      </trkpt>
      <trkpt lat="47.24682" lon="4.9378">
        <ele>537.4</ele>
        <time>2013-04-13T06:50:26.000Z</time>
      </trkpt>
      <trkpt lat="47.24682" lon="4.93774">
        <ele>539.2</ele>
        <time>2013-04-13T06:50:55.000Z</time>
      </trkpt>
      <trkpt lat="47.24682" lon="4.93773">
        <ele>539</ele>
        <time>2013-04-13T06:50:56.000Z</time>
      </trkpt>
      <trkpt lat="47.24681" lon="4.93766">
        <ele>539.9</ele>
        <time>2013-04-13T06:53:54.000Z</time>
      </trkpt>
      <trkpt lat="47.24682" lon="4.93764">
        <ele>540.1</ele>
        <time>2013-04-13T06:53:55.000Z</time>
      </trkpt>
      <trkpt lat="47.24683" lon="4.9376">
        <ele>541.4</ele>
        <time>2013-04-13T06:53:57.000Z</time>
      </trkpt>
      <trkpt lat="47.24684" lon="4.93758">
        <ele>541.2</ele>
        <time>2013-04-13T06:53:58.000Z</time>
      </trkpt>
      <trkpt lat="47.24686" lon="4.93753">
        <ele>541.8</ele>
        <time>2013-04-13T06:54:00.000Z</time>
      </trkpt>
      <trkpt lat="47.24687" lon="4.93751">
        <ele>541.2</ele>
        <time>2013-04-13T06:54:01.000Z</time>
      </trkpt>
      <trkpt lat="47.24688" lon="4.93747">
        <ele>539.7</ele>
        <time>2013-04-13T06:54:03.000Z</time>
      </trkpt>
      <trkpt lat="47.24689" lon="4.93745">
        <ele>539.6</ele>
        <time>2013-04-13T06:54:04.000Z</time>
      </trkpt>
      <trkpt lat="47.24691" lon="4.9374">
        <ele>538.2</ele>
        <time>2013-04-13T06:54:06.000Z</time>
      </trkpt>
      <trkpt lat="47.24692" lon="4.93738">
        <ele>537.1</ele>
        <time>2013-04-13T06:54:07.000Z</time>
      </trkpt>
      <trkpt lat="47.24694" lon="4.93732">
        <ele>537.1</ele>
        <time>2013-04-13T06:54:09.000Z</time>
      </trkpt>
      <trkpt lat="47.24695" lon="4.93729">
        <ele>538</ele>
        <time>2013-04-13T06:54:10.000Z</time>
      </trkpt>
      <trkpt lat="47.24696" lon="4.93723">
        <ele>538.2</ele>
        <time>2013-04-13T06:54:12.000Z</time>
      </trkpt>
      <trkpt lat="47.24697" lon="4.9372">
        <ele>538</ele>
        <time>2013-04-13T06:54:13.000Z</time>
      </trkpt>
      <trkpt lat="47.24697" lon="4.93714">
        <ele>538.5</ele>
        <time>2013-04-13T06:54:15.000Z</time>
      </trkpt>
      <trkpt lat="47.24698" lon="4.93712">
        <ele>538.6</ele>
        <time>2013-04-13T06:54:16.000Z</time>
      </trkpt>
      <trkpt lat="47.24699" lon="4.93706">
        <ele>538.6</ele>
        <time>2013-04-13T06:54:19.000Z</time>
      </trkpt>
      <trkpt lat="47.24699" lon="4.93704">
        <ele>538.3</ele>
        <time>2013-04-13T06:54:20.000Z</time>
      </trkpt>
      <trkpt lat="47.247" lon="4.93699">
        <ele>538.2</ele>
        <time>2013-04-13T06:54:23.000Z</time>
      </trkpt>
      <trkpt lat="47.247" lon="4.93697">
        <ele>537.5</ele>
        <time>2013-04-13T06:54:24.000Z</time>
      </trkpt>
      <trkpt lat="47.247" lon="4.93692">
        <ele>537.1</ele>
        <time>2013-04-13T06:54:27.000Z</time>
      </trkpt>
      <trkpt lat="47.247" lon="4.9369">
        <ele>537.2</ele>
        <time>2013-04-13T06:54:28.000Z</time>
      </trkpt>
      <trkpt lat="47.24701" lon="4.93685">
        <ele>537.4</ele>
        <time>2013-04-13T06:54:31.000Z</time>
      </trkpt>
      <trkpt lat="47.24702" lon="4.93683">
        <ele>537.7</ele>
        <time>2013-04-13T06:54:32.000Z</time>
      </trkpt>
      <trkpt lat="47.24705" lon="4.93678">
        <ele>536.6</ele>
        <time>2013-04-13T06:54:35.000Z</time>
      </trkpt>
      <trkpt lat="47.24705" lon="4.93677">
        <ele>536.6</ele>
        <time>2013-04-13T06:54:36.000Z</time>
      </trkpt>
      <trkpt lat="47.24707" lon="4.93673">
        <ele>538.4</ele>
        <time>2013-04-13T06:54:40.000Z</time>
      </trkpt>
      <trkpt lat="47.24707" lon="4.93671">
        <ele>539.1</ele>
        <time>2013-04-13T06:54:41.000Z</time>
      </trkpt>
      <trkpt lat="47.24707" lon="4.93664">
        <ele>540.1</ele>
        <time>2013-04-13T06:54:44.000Z</time>
      </trkpt>
      <trkpt lat="47.24706" lon="4.93662">
        <ele>540.4</ele>
        <time>2013-04-13T06:54:45.000Z</time>
      </trkpt>
      <trkpt lat="47.24707" lon="4.93657">
        <ele>540</ele>
        <time>2013-04-13T06:54:47.000Z</time>
      </trkpt>
      <trkpt lat="47.24708" lon="4.93655">
        <ele>540.1</ele>
        <time>2013-04-13T06:54:48.000Z</time>
      </trkpt>
      <trkpt lat="47.2471" lon="4.9365">
        <ele>538.8</ele>
        <time>2013-04-13T06:54:51.000Z</time>
      </trkpt>
      <trkpt lat="47.2471" lon="4.93648">
        <ele>539.2</ele>
        <time>2013-04-13T06:54:52.000Z</time>
      </trkpt>
      <trkpt lat="47.24709" lon="4.93643">
        <ele>539.5</ele>
        <time>2013-04-13T06:54:55.000Z</time>
      </trkpt>
      <trkpt lat="47.24709" lon="4.93641">
        <ele>540.1</ele>
        <time>2013-04-13T06:54:56.000Z</time>
      </trkpt>
      <trkpt lat="47.2471" lon="4.93636">
        <ele>540.9</ele>
        <time>2013-04-13T06:54:59.000Z</time>
      </trkpt>
      <trkpt lat="47.24711" lon="4.93635">
        <ele>539.3</ele>
        <time>2013-04-13T06:55:00.000Z</time>
      </trkpt>
      <trkpt lat="47.24713" lon="4.93631">
        <ele>538.6</ele>
        <time>2013-04-13T06:55:03.000Z</time>
      </trkpt>
      <trkpt lat="47.24714" lon="4.93629">
        <ele>538.6</ele>
        <time>2013-04-13T06:55:04.000Z</time>
      </trkpt>
      <trkpt lat="47.24715" lon="4.93623">
        <ele>538</ele>
        <time>2013-04-13T06:55:07.000Z</time>
      </trkpt>
      <trkpt lat="47.24715" lon="4.93621">
        <ele>538.3</ele>
        <time>2013-04-13T06:55:08.000Z</time>
      </trkpt>
      <trkpt lat="47.24716" lon="4.93616">
        <ele>537.8</ele>
        <time>2013-04-13T06:55:10.000Z</time>
      </trkpt>
      <trkpt lat="47.24716" lon="4.93614">
        <ele>538.2</ele>
        <time>2013-04-13T06:55:11.000Z</time>
      </trkpt>
      <trkpt lat="47.24717" lon="4.93609">
        <ele>538.5</ele>
        <time>2013-04-13T06:55:13.000Z</time>
      </trkpt>
      <trkpt lat="47.24718" lon="4.93607">
        <ele>538.1</ele>
        <time>2013-04-13T06:55:14.000Z</time>
      </trkpt>
      <trkpt lat="47.2472" lon="4.93602">
        <ele>538.2</ele>
        <time>2013-04-13T06:55:17.000Z</time>
      </trkpt>
      <trkpt lat="47.24721" lon="4.93601">
        <ele>538</ele>
        <time>2013-04-13T06:55:18.000Z</time>
      </trkpt>
      <trkpt lat="47.24723" lon="4.93596">
        <ele>537.1</ele>
        <time>2013-04-13T06:55:21.000Z</time>
      </trkpt>
      <trkpt lat="47.24724" lon="4.93594">
        <ele>536.7</ele>
        <time>2013-04-13T06:55:22.000Z</time>
      </trkpt>
      <trkpt lat="47.24726" lon="4.93591">
        <ele>535.9</ele>
        <time>2013-04-13T06:55:25.000Z</time>
      </trkpt>
      <trkpt lat="47.24727" lon="4.9359">
        <ele>535.8</ele>
        <time>2013-04-13T06:55:26.000Z</time>
      </trkpt>
      <trkpt lat="47.2473" lon="4.93586">
        <ele>536.5</ele>
        <time>2013-04-13T06:55:29.000Z</time>
      </trkpt>
      <trkpt lat="47.24731" lon="4.93584">
        <ele>536.5</ele>
        <time>2013-04-13T06:55:30.000Z</time>
      </trkpt>
      <trkpt lat="47.24734" lon="4.93581">
        <ele>537.4</ele>
        <time>2013-04-13T06:55:33.000Z</time>
      </trkpt>
      <trkpt lat="47.24735" lon="4.9358">
        <ele>537.3</ele>
        <time>2013-04-13T06:55:34.000Z</time>
      </trkpt>
      <trkpt lat="47.24738" lon="4.93574">
        <ele>537</ele>
        <time>2013-04-13T06:55:37.000Z</time>
      </trkpt>
      <trkpt lat="47.24738" lon="4.93572">
        <ele>537.1</ele>
        <time>2013-04-13T06:55:38.000Z</time>
      </trkpt>
      <trkpt lat="47.2474" lon="4.93567">
        <ele>536.2</ele>
        <time>2013-04-13T06:55:41.000Z</time>
      </trkpt>
      <trkpt lat="47.2474" lon="4.93564">
        <ele>536.9</ele>
        <time>2013-04-13T06:55:42.000Z</time>
      </trkpt>
      <trkpt lat="47.24741" lon="4.93559">
        <ele>536.8</ele>
        <time>2013-04-13T06:55:44.000Z</time>
      </trkpt>
      <trkpt lat="47.24741" lon="4.93557">
        <ele>537.4</ele>
        <time>2013-04-13T06:55:45.000Z</time>
      </trkpt>
      <trkpt lat="47.24743" lon="4.93552">
        <ele>537.4</ele>
        <time>2013-04-13T06:55:48.000Z</time>
      </trkpt>
      <trkpt lat="47.24743" lon="4.9355">
        <ele>537.5</ele>
        <time>2013-04-13T06:55:49.000Z</time>
      </trkpt>
      <trkpt lat="47.24746" lon="4.93546">
        <ele>541.7</ele>
        <time>2013-04-13T06:55:53.000Z</time>
      </trkpt>
      <trkpt lat="47.24746" lon="4.93545">
        <ele>540.2</ele>
        <time>2013-04-13T06:55:54.000Z</time>
      </trkpt>
      <trkpt lat="47.24748" lon="4.93541">
        <ele>540.5</ele>
        <time>2013-04-13T06:55:57.000Z</time>
      </trkpt>
      <trkpt lat="47.24749" lon="4.93539">
        <ele>540.4</ele>
        <time>2013-04-13T06:55:58.000Z</time>
      </trkpt>
      <trkpt lat="47.24751" lon="4.93535">
        <ele>541.1</ele>
        <time>2013-04-13T06:56:02.000Z</time>
      </trkpt>
      <trkpt lat="47.24752" lon="4.93534">
        <ele>541.4</ele>
        <time>2013-04-13T06:56:03.000Z</time>
      </trkpt>
      <trkpt lat="47.24755" lon="4.9353">
        <ele>541.9</ele>
        <time>2013-04-13T06:56:07.000Z</time>
      </trkpt>
      <trkpt lat="47.24756" lon="4.93529">
        <ele>542.3</ele>
        <time>2013-04-13T06:56:08.000Z</time>
      </trkpt>
      <trkpt lat="47.24759" lon="4.93524">
        <ele>542.7</ele>
        <time>2013-04-13T06:56:12.000Z</time>
      </trkpt>
      <trkpt lat="47.2476" lon="4.93522">
        <ele>542.1</ele>
        <time>2013-04-13T06:56:13.000Z</time>
      </trkpt>
      <trkpt lat="47.24763" lon="4.93518">
        <ele>542.7</ele>
        <time>2013-04-13T06:56:16.000Z</time>
      </trkpt>
      <trkpt lat="47.24765" lon="4.93517">
        <ele>542.7</ele>
        <time>2013-04-13T06:56:17.000Z</time>
      </trkpt>
      <trkpt lat="47.24768" lon="4.93514">
        <ele>543.2</ele>
        <time>2013-04-13T06:56:20.000Z</time>
      </trkpt>
      <trkpt lat="47.24768" lon="4.93513">
        <ele>543.6</ele>
        <time>2013-04-13T06:56:21.000Z</time>
      </trkpt>
      <trkpt lat="47.24771" lon="4.93508">
        <ele>544.4</ele>
        <time>2013-04-13T06:56:24.000Z</time>
      </trkpt>
      <trkpt lat="47.24773" lon="4.93507">
        <ele>544.9</ele>
        <time>2013-04-13T06:56:25.000Z</time>
      </trkpt>
      <trkpt lat="47.24776" lon="4.93503">
        <ele>545.3</ele>
        <time>2013-04-13T06:56:28.000Z</time>
      </trkpt>
      <trkpt lat="47.24776" lon="4.93501">
        <ele>545.1</ele>
        <time>2013-04-13T06:56:29.000Z</time>
      </trkpt>
      <trkpt lat="47.24778" lon="4.93497">
        <ele>545</ele>
        <time>2013-04-13T06:56:32.000Z</time>
      </trkpt>
      <trkpt lat="47.24779" lon="4.93495">
        <ele>545.5</ele>
        <time>2013-04-13T06:56:33.000Z</time>
      </trkpt>
      <trkpt lat="47.24781" lon="4.9349">
        <ele>544</ele>
        <time>2013-04-13T06:56:36.000Z</time>
      </trkpt>
      <trkpt lat="47.24782" lon="4.93489">
        <ele>544.4</ele>
        <time>2013-04-13T06:56:37.000Z</time>
      </trkpt>
      <trkpt lat="47.24786" lon="4.93485">
        <ele>544.1</ele>
        <time>2013-04-13T06:56:40.000Z</time>
      </trkpt>
      <trkpt lat="47.24787" lon="4.93484">
        <ele>544.1</ele>
        <time>2013-04-13T06:56:41.000Z</time>
      </trkpt>
      <trkpt lat="47.2479" lon="4.93479">
        <ele>544.1</ele>
        <time>2013-04-13T06:56:44.000Z</time>
      </trkpt>
      <trkpt lat="47.24791" lon="4.93478">
        <ele>543.9</ele>
        <time>2013-04-13T06:56:45.000Z</time>
      </trkpt>
      <trkpt lat="47.24794" lon="4.93476">
        <ele>543.8</ele>
        <time>2013-04-13T06:56:47.000Z</time>
      </trkpt>
      <trkpt lat="47.24795" lon="4.93475">
        <ele>544.1</ele>
        <time>2013-04-13T06:56:48.000Z</time>
      </trkpt>
      <trkpt lat="47.24798" lon="4.93472">
        <ele>543.6</ele>
        <time>2013-04-13T06:56:50.000Z</time>
      </trkpt>
      <trkpt lat="47.24799" lon="4.93471">
        <ele>543.9</ele>
        <time>2013-04-13T06:56:51.000Z</time>
      </trkpt>
      <trkpt lat="47.24802" lon="4.93467">
        <ele>544.7</ele>
        <time>2013-04-13T06:56:54.000Z</time>
      </trkpt>
      <trkpt lat="47.24803" lon="4.93465">
        <ele>544.5</ele>
        <time>2013-04-13T06:56:55.000Z</time>
      </trkpt>
      <trkpt lat="47.24806" lon="4.93461">
        <ele>544.7</ele>
        <time>2013-04-13T06:56:58.000Z</time>
      </trkpt>
      <trkpt lat="47.24807" lon="4.93459">
        <ele>545.4</ele>
        <time>2013-04-13T06:56:59.000Z</time>
      </trkpt>
      <trkpt lat="47.24809" lon="4.93454">
        <ele>546.8</ele>
        <time>2013-04-13T06:57:02.000Z</time>
      </trkpt>
      <trkpt lat="47.2481" lon="4.93453">
        <ele>546.7</ele>
        <time>2013-04-13T06:57:03.000Z</time>
      </trkpt>
      <trkpt lat="47.24812" lon="4.93447">
        <ele>548.3</ele>
        <time>2013-04-13T06:57:06.000Z</time>
      </trkpt>
      <trkpt lat="47.24813" lon="4.93445">
        <ele>548.4</ele>
        <time>2013-04-13T06:57:07.000Z</time>
      </trkpt>
      <trkpt lat="47.24815" lon="4.93441">
        <ele>548.6</ele>
        <time>2013-04-13T06:57:10.000Z</time>
      </trkpt>
      <trkpt lat="47.24816" lon="4.93439">
        <ele>547.7</ele>
        <time>2013-04-13T06:57:11.000Z</time>
      </trkpt>
      <trkpt lat="47.24817" lon="4.93435">
        <ele>548.1</ele>
        <time>2013-04-13T06:57:14.000Z</time>
      </trkpt>
      <trkpt lat="47.24818" lon="4.93433">
        <ele>549</ele>
        <time>2013-04-13T06:57:15.000Z</time>
      </trkpt>
      <trkpt lat="47.24821" lon="4.93429">
        <ele>549.8</ele>
        <time>2013-04-13T06:57:18.000Z</time>
      </trkpt>
      <trkpt lat="47.24822" lon="4.93427">
        <ele>549.8</ele>
        <time>2013-04-13T06:57:19.000Z</time>
      </trkpt>
      <trkpt lat="47.24825" lon="4.93422">
        <ele>550</ele>
        <time>2013-04-13T06:57:22.000Z</time>
      </trkpt>
      <trkpt lat="47.24826" lon="4.93421">
        <ele>550.9</ele>
        <time>2013-04-13T06:57:23.000Z</time>
      </trkpt>
      <trkpt lat="47.24829" lon="4.93416">
        <ele>550.5</ele>
        <time>2013-04-13T06:57:26.000Z</time>
      </trkpt>
      <trkpt lat="47.2483" lon="4.93415">
        <ele>551.6</ele>
        <time>2013-04-13T06:57:27.000Z</time>
      </trkpt>
      <trkpt lat="47.24833" lon="4.9341">
        <ele>553.9</ele>
        <time>2013-04-13T06:57:30.000Z</time>
      </trkpt>
      <trkpt lat="47.24834" lon="4.93408">
        <ele>554.3</ele>
        <time>2013-04-13T06:57:31.000Z</time>
      </trkpt>
      <trkpt lat="47.24836" lon="4.93404">
        <ele>555.6</ele>
        <time>2013-04-13T06:57:34.000Z</time>
      </trkpt>
      <trkpt lat="47.24837" lon="4.93403">
        <ele>555.8</ele>
        <time>2013-04-13T06:57:35.000Z</time>
      </trkpt>
      <trkpt lat="47.2484" lon="4.93398">
        <ele>555.1</ele>
        <time>2013-04-13T06:57:38.000Z</time>
      </trkpt>
      <trkpt lat="47.24841" lon="4.93397">
        <ele>550.5</ele>
        <time>2013-04-13T06:57:39.000Z</time>
      </trkpt>
      <trkpt lat="47.24844" lon="4.93395">
        <ele>549.7</ele>
        <time>2013-04-13T06:57:42.000Z</time>
      </trkpt>
      <trkpt lat="47.24846" lon="4.93393">
        <ele>549.4</ele>
        <time>2013-04-13T06:57:43.000Z</time>
      </trkpt>
      <trkpt lat="47.24848" lon="4.9339">
        <ele>549.2</ele>
        <time>2013-04-13T06:57:46.000Z</time>
      </trkpt>
      <trkpt lat="47.24849" lon="4.93389">
        <ele>550.1</ele>
        <time>2013-04-13T06:57:47.000Z</time>
      </trkpt>
      <trkpt lat="47.24851" lon="4.93385">
        <ele>551.5</ele>
        <time>2013-04-13T06:57:50.000Z</time>
      </trkpt>
      <trkpt lat="47.24851" lon="4.93383">
        <ele>551.1</ele>
        <time>2013-04-13T06:57:51.000Z</time>
      </trkpt>
      <trkpt lat="47.24854" lon="4.93379">
        <ele>551.4</ele>
        <time>2013-04-13T06:57:54.000Z</time>
      </trkpt>
      <trkpt lat="47.24855" lon="4.93378">
        <ele>551.4</ele>
        <time>2013-04-13T06:57:55.000Z</time>
      </trkpt>
      <trkpt lat="47.24857" lon="4.93373">
        <ele>551.4</ele>
        <time>2013-04-13T06:57:58.000Z</time>
      </trkpt>
      <trkpt lat="47.24858" lon="4.93372">
        <ele>551.8</ele>
        <time>2013-04-13T06:57:59.000Z</time>
      </trkpt>
      <trkpt lat="47.24861" lon="4.93369">
        <ele>551.6</ele>
        <time>2013-04-13T06:58:02.000Z</time>
      </trkpt>
      <trkpt lat="47.24863" lon="4.93368">
        <ele>552</ele>
        <time>2013-04-13T06:58:03.000Z</time>
      </trkpt>
      <trkpt lat="47.24866" lon="4.93364">
        <ele>553.1</ele>
        <time>2013-04-13T06:58:06.000Z</time>
      </trkpt>
      <trkpt lat="47.24866" lon="4.93363">
        <ele>553</ele>
        <time>2013-04-13T06:58:07.000Z</time>
      </trkpt>
      <trkpt lat="47.24868" lon="4.93358">
        <ele>553</ele>
        <time>2013-04-13T06:58:11.000Z</time>
      </trkpt>
      <trkpt lat="47.24869" lon="4.93356">
        <ele>553.5</ele>
        <time>2013-04-13T06:58:12.000Z</time>
      </trkpt>
      <trkpt lat="47.24871" lon="4.93352">
        <ele>554</ele>
        <time>2013-04-13T06:58:15.000Z</time>
      </trkpt>
      <trkpt lat="47.24872" lon="4.9335">
        <ele>553.3</ele>
        <time>2013-04-13T06:58:16.000Z</time>
      </trkpt>
      <trkpt lat="47.24875" lon="4.93344">
        <ele>554.8</ele>
        <time>2013-04-13T06:58:19.000Z</time>
      </trkpt>
      <trkpt lat="47.24876" lon="4.93343">
        <ele>555.5</ele>
        <time>2013-04-13T06:58:20.000Z</time>
      </trkpt>
      <trkpt lat="47.24877" lon="4.93339">
        <ele>556.1</ele>
        <time>2013-04-13T06:58:22.000Z</time>
      </trkpt>
      <trkpt lat="47.24879" lon="4.93338">
        <ele>556.6</ele>
        <time>2013-04-13T06:58:23.000Z</time>
      </trkpt>
      <trkpt lat="47.24881" lon="4.93335">
        <ele>557</ele>
        <time>2013-04-13T06:58:25.000Z</time>
      </trkpt>
      <trkpt lat="47.24883" lon="4.93333">
        <ele>556.8</ele>
        <time>2013-04-13T06:58:26.000Z</time>
      </trkpt>
      <trkpt lat="47.24885" lon="4.93329">
        <ele>556.4</ele>
        <time>2013-04-13T06:58:28.000Z</time>
      </trkpt>
      <trkpt lat="47.24886" lon="4.93327">
        <ele>556.7</ele>
        <time>2013-04-13T06:58:29.000Z</time>
      </trkpt>
      <trkpt lat="47.24888" lon="4.93323">
        <ele>557.1</ele>
        <time>2013-04-13T06:58:31.000Z</time>
      </trkpt>
      <trkpt lat="47.24889" lon="4.9332">
        <ele>558</ele>
        <time>2013-04-13T06:58:32.000Z</time>
      </trkpt>
      <trkpt lat="47.24891" lon="4.93317">
        <ele>558.7</ele>
        <time>2013-04-13T06:58:34.000Z</time>
      </trkpt>
      <trkpt lat="47.24892" lon="4.93316">
        <ele>558.6</ele>
        <time>2013-04-13T06:58:35.000Z</time>
      </trkpt>
      <trkpt lat="47.24895" lon="4.93311">
        <ele>558.4</ele>
        <time>2013-04-13T06:58:38.000Z</time>
      </trkpt>
      <trkpt lat="47.24896" lon="4.93308">
        <ele>559.2</ele>
        <time>2013-04-13T06:58:39.000Z</time>
      </trkpt>
      <trkpt lat="47.24898" lon="4.93304">
        <ele>558.6</ele>
        <time>2013-04-13T06:58:43.000Z</time>
      </trkpt>
      <trkpt lat="47.24899" lon="4.93303">
        <ele>558.1</ele>
        <time>2013-04-13T06:58:44.000Z</time>
      </trkpt>
      <trkpt lat="47.249" lon="4.93298">
        <ele>558.5</ele>
        <time>2013-04-13T06:58:48.000Z</time>
      </trkpt>
      <trkpt lat="47.24901" lon="4.93297">
        <ele>558.2</ele>
        <time>2013-04-13T06:58:49.000Z</time>
      </trkpt>
      <trkpt lat="47.24903" lon="4.93293">
        <ele>559.1</ele>
        <time>2013-04-13T06:58:52.000Z</time>
      </trkpt>
      <trkpt lat="47.24904" lon="4.93292">
        <ele>559.6</ele>
        <time>2013-04-13T06:58:53.000Z</time>
      </trkpt>
      <trkpt lat="47.24907" lon="4.93288">
        <ele>560.6</ele>
        <time>2013-04-13T06:58:56.000Z</time>
      </trkpt>
      <trkpt lat="47.24908" lon="4.93287">
        <ele>561.6</ele>
        <time>2013-04-13T06:58:57.000Z</time>
      </trkpt>
      <trkpt lat="47.24911" lon="4.93282">
        <ele>560.5</ele>
        <time>2013-04-13T06:59:00.000Z</time>
      </trkpt>
      <trkpt lat="47.24911" lon="4.9328">
        <ele>561.1</ele>
        <time>2013-04-13T06:59:01.000Z</time>
      </trkpt>
      <trkpt lat="47.24913" lon="4.93276">
        <ele>563.1</ele>
        <time>2013-04-13T06:59:03.000Z</time>
      </trkpt>
      <trkpt lat="47.24914" lon="4.93274">
        <ele>563</ele>
        <time>2013-04-13T06:59:04.000Z</time>
      </trkpt>
      <trkpt lat="47.24915" lon="4.93268">
        <ele>562.9</ele>
        <time>2013-04-13T06:59:07.000Z</time>
      </trkpt>
      <trkpt lat="47.24916" lon="4.93267">
        <ele>563.6</ele>
        <time>2013-04-13T06:59:08.000Z</time>
      </trkpt>
      <trkpt lat="47.24918" lon="4.93261">
        <ele>564</ele>
        <time>2013-04-13T06:59:12.000Z</time>
      </trkpt>
      <trkpt lat="47.24918" lon="4.93259">
        <ele>563.5</ele>
        <time>2013-04-13T06:59:13.000Z</time>
      </trkpt>
      <trkpt lat="47.24919" lon="4.93254">
        <ele>564.7</ele>
        <time>2013-04-13T06:59:16.000Z</time>
      </trkpt>
      <trkpt lat="47.24919" lon="4.93252">
        <ele>564.7</ele>
        <time>2013-04-13T06:59:17.000Z</time>
      </trkpt>
      <trkpt lat="47.2492" lon="4.93247">
        <ele>564.7</ele>
        <time>2013-04-13T06:59:20.000Z</time>
      </trkpt>
      <trkpt lat="47.24921" lon="4.93245">
        <ele>563.8</ele>
        <time>2013-04-13T06:59:21.000Z</time>
      </trkpt>
      <trkpt lat="47.24922" lon="4.93239">
        <ele>564.7</ele>
        <time>2013-04-13T06:59:24.000Z</time>
      </trkpt>
      <trkpt lat="47.24923" lon="4.93238">
        <ele>565.8</ele>
        <time>2013-04-13T06:59:25.000Z</time>
      </trkpt>
      <trkpt lat="47.24925" lon="4.93232">
        <ele>565.7</ele>
        <time>2013-04-13T06:59:28.000Z</time>
      </trkpt>
      <trkpt lat="47.24925" lon="4.9323">
        <ele>565.2</ele>
        <time>2013-04-13T06:59:29.000Z</time>
      </trkpt>
      <trkpt lat="47.24927" lon="4.93225">
        <ele>565.6</ele>
        <time>2013-04-13T06:59:32.000Z</time>
      </trkpt>
      <trkpt lat="47.24928" lon="4.93223">
        <ele>565.4</ele>
        <time>2013-04-13T06:59:33.000Z</time>
      </trkpt>
      <trkpt lat="47.2493" lon="4.93219">
        <ele>566.1</ele>
        <time>2013-04-13T06:59:35.000Z</time>
      </trkpt>
      <trkpt lat="47.24931" lon="4.93217">
        <ele>566.9</ele>
        <time>2013-04-13T06:59:36.000Z</time>
      </trkpt>
      <trkpt lat="47.24933" lon="4.93212">
        <ele>565</ele>
        <time>2013-04-13T06:59:39.000Z</time>
      </trkpt>
      <trkpt lat="47.24934" lon="4.9321">
        <ele>565.4</ele>
        <time>2013-04-13T06:59:40.000Z</time>
      </trkpt>
      <trkpt lat="47.24936" lon="4.93206">
        <ele>565.7</ele>
        <time>2013-04-13T06:59:42.000Z</time>
      </trkpt>
      <trkpt lat="47.24937" lon="4.93204">
        <ele>566</ele>
        <time>2013-04-13T06:59:43.000Z</time>
      </trkpt>
      <trkpt lat="47.24938" lon="4.932">
        <ele>566</ele>
        <time>2013-04-13T06:59:45.000Z</time>
      </trkpt>
      <trkpt lat="47.24939" lon="4.93198">
        <ele>566</ele>
        <time>2013-04-13T06:59:46.000Z</time>
      </trkpt>
      <trkpt lat="47.2494" lon="4.93192">
        <ele>566</ele>
        <time>2013-04-13T06:59:49.000Z</time>
      </trkpt>
      <trkpt lat="47.24941" lon="4.9319">
        <ele>567</ele>
        <time>2013-04-13T06:59:50.000Z</time>
      </trkpt>
      <trkpt lat="47.24942" lon="4.93185">
        <ele>566.9</ele>
        <time>2013-04-13T06:59:53.000Z</time>
      </trkpt>
      <trkpt lat="47.24942" lon="4.93183">
        <ele>566.4</ele>
        <time>2013-04-13T06:59:54.000Z</time>
      </trkpt>
      <trkpt lat="47.24944" lon="4.93178">
        <ele>566</ele>
        <time>2013-04-13T06:59:57.000Z</time>
      </trkpt>
      <trkpt lat="47.24945" lon="4.93177">
        <ele>566</ele>
        <time>2013-04-13T06:59:58.000Z</time>
      </trkpt>
      <trkpt lat="47.24947" lon="4.93172">
        <ele>568.3</ele>
        <time>2013-04-13T07:00:01.000Z</time>
      </trkpt>
      <trkpt lat="47.24948" lon="4.93171">
        <ele>568.9</ele>
        <time>2013-04-13T07:00:02.000Z</time>
      </trkpt>
      <trkpt lat="47.2495" lon="4.93166">
        <ele>568.6</ele>
        <time>2013-04-13T07:00:06.000Z</time>
      </trkpt>
      <trkpt lat="47.24951" lon="4.93164">
        <ele>566.4</ele>
        <time>2013-04-13T07:00:07.000Z</time>
      </trkpt>
      <trkpt lat="47.24952" lon="4.9316">
        <ele>566.1</ele>
        <time>2013-04-13T07:00:10.000Z</time>
      </trkpt>
      <trkpt lat="47.24952" lon="4.93158">
        <ele>565.9</ele>
        <time>2013-04-13T07:00:11.000Z</time>
      </trkpt>
      <trkpt lat="47.24953" lon="4.93153">
        <ele>567.6</ele>
        <time>2013-04-13T07:00:14.000Z</time>
      </trkpt>
      <trkpt lat="47.24954" lon="4.93151">
        <ele>567.5</ele>
        <time>2013-04-13T07:00:15.000Z</time>
      </trkpt>
      <trkpt lat="47.24956" lon="4.93146">
        <ele>570</ele>
        <time>2013-04-13T07:00:19.000Z</time>
      </trkpt>
      <trkpt lat="47.24957" lon="4.93145">
        <ele>570.8</ele>
        <time>2013-04-13T07:00:20.000Z</time>
      </trkpt>
      <trkpt lat="47.24958" lon="4.9314">
        <ele>571.3</ele>
        <time>2013-04-13T07:00:23.000Z</time>
      </trkpt>
      <trkpt lat="47.24959" lon="4.93138">
        <ele>572.2</ele>
        <time>2013-04-13T07:00:24.000Z</time>
      </trkpt>
      <trkpt lat="47.24961" lon="4.93134">
        <ele>571.6</ele>
        <time>2013-04-13T07:00:26.000Z</time>
      </trkpt>
      <trkpt lat="47.24962" lon="4.93132">
        <ele>572.3</ele>
        <time>2013-04-13T07:00:27.000Z</time>
      </trkpt>
      <trkpt lat="47.24964" lon="4.93129">
        <ele>572.4</ele>
        <time>2013-04-13T07:00:29.000Z</time>
      </trkpt>
      <trkpt lat="47.24966" lon="4.93126">
        <ele>572.3</ele>
        <time>2013-04-13T07:00:30.000Z</time>
      </trkpt>
      <trkpt lat="47.24968" lon="4.93121">
        <ele>572.7</ele>
        <time>2013-04-13T07:00:32.000Z</time>
      </trkpt>
      <trkpt lat="47.24969" lon="4.9312">
        <ele>572.9</ele>
        <time>2013-04-13T07:00:33.000Z</time>
      </trkpt>
      <trkpt lat="47.24972" lon="4.93115">
        <ele>573.4</ele>
        <time>2013-04-13T07:00:36.000Z</time>
      </trkpt>
      <trkpt lat="47.24973" lon="4.93114">
        <ele>572.6</ele>
        <time>2013-04-13T07:00:37.000Z</time>
      </trkpt>
      <trkpt lat="47.24974" lon="4.93107">
        <ele>570.8</ele>
        <time>2013-04-13T07:00:41.000Z</time>
      </trkpt>
      <trkpt lat="47.24974" lon="4.93106">
        <ele>570.4</ele>
        <time>2013-04-13T07:00:42.000Z</time>
      </trkpt>
      <trkpt lat="47.24976" lon="4.93101">
        <ele>571</ele>
        <time>2013-04-13T07:00:47.000Z</time>
      </trkpt>
      <trkpt lat="47.24976" lon="4.93099">
        <ele>572</ele>
        <time>2013-04-13T07:00:48.000Z</time>
      </trkpt>
      <trkpt lat="47.24977" lon="4.93093">
        <ele>572.1</ele>
        <time>2013-04-13T07:00:51.000Z</time>
      </trkpt>
      <trkpt lat="47.24977" lon="4.93091">
        <ele>572.3</ele>
        <time>2013-04-13T07:00:52.000Z</time>
      </trkpt>
      <trkpt lat="47.24978" lon="4.93086">
        <ele>571.5</ele>
        <time>2013-04-13T07:00:55.000Z</time>
      </trkpt>
      <trkpt lat="47.24978" lon="4.93084">
        <ele>572.4</ele>
        <time>2013-04-13T07:00:56.000Z</time>
      </trkpt>
      <trkpt lat="47.24979" lon="4.9308">
        <ele>572.8</ele>
        <time>2013-04-13T07:00:58.000Z</time>
      </trkpt>
      <trkpt lat="47.24979" lon="4.93077">
        <ele>573</ele>
        <time>2013-04-13T07:00:59.000Z</time>
      </trkpt>
      <trkpt lat="47.24979" lon="4.93073">
        <ele>573.7</ele>
        <time>2013-04-13T07:01:01.000Z</time>
      </trkpt>
      <trkpt lat="47.24979" lon="4.9307">
        <ele>574.1</ele>
        <time>2013-04-13T07:01:02.000Z</time>
      </trkpt>
      <trkpt lat="47.24979" lon="4.93064">
        <ele>574.1</ele>
        <time>2013-04-13T07:01:05.000Z</time>
      </trkpt>
      <trkpt lat="47.2498" lon="4.93062">
        <ele>572.8</ele>
        <time>2013-04-13T07:01:06.000Z</time>
      </trkpt>
      <trkpt lat="47.24982" lon="4.93058">
        <ele>572.1</ele>
        <time>2013-04-13T07:01:08.000Z</time>
      </trkpt>
      <trkpt lat="47.24982" lon="4.93056">
        <ele>572.1</ele>
        <time>2013-04-13T07:01:09.000Z</time>
      </trkpt>
      <trkpt lat="47.24985" lon="4.9305">
        <ele>573.9</ele>
        <time>2013-04-13T07:01:12.000Z</time>
      </trkpt>
      <trkpt lat="47.24985" lon="4.93048">
        <ele>574.2</ele>
        <time>2013-04-13T07:01:13.000Z</time>
      </trkpt>
      <trkpt lat="47.24987" lon="4.93043">
        <ele>572.1</ele>
        <time>2013-04-13T07:01:16.000Z</time>
      </trkpt>
      <trkpt lat="47.24988" lon="4.93042">
        <ele>570.9</ele>
        <time>2013-04-13T07:01:17.000Z</time>
      </trkpt>
      <trkpt lat="47.24989" lon="4.93036">
        <ele>570.4</ele>
        <time>2013-04-13T07:01:21.000Z</time>
      </trkpt>
      <trkpt lat="47.24989" lon="4.93034">
        <ele>570.8</ele>
        <time>2013-04-13T07:01:22.000Z</time>
      </trkpt>
      <trkpt lat="47.24991" lon="4.93029">
        <ele>569.2</ele>
        <time>2013-04-13T07:01:25.000Z</time>
      </trkpt>
      <trkpt lat="47.24991" lon="4.93027">
        <ele>569.2</ele>
        <time>2013-04-13T07:01:26.000Z</time>
      </trkpt>
      <trkpt lat="47.24994" lon="4.93023">
        <ele>569.4</ele>
        <time>2013-04-13T07:01:29.000Z</time>
      </trkpt>
      <trkpt lat="47.24995" lon="4.93021">
        <ele>569.8</ele>
        <time>2013-04-13T07:01:30.000Z</time>
      </trkpt>
      <trkpt lat="47.24997" lon="4.93015">
        <ele>570.7</ele>
        <time>2013-04-13T07:01:33.000Z</time>
      </trkpt>
      <trkpt lat="47.24997" lon="4.93014">
        <ele>569.8</ele>
        <time>2013-04-13T07:01:34.000Z</time>
      </trkpt>
      <trkpt lat="47.25" lon="4.9301">
        <ele>571</ele>
        <time>2013-04-13T07:01:37.000Z</time>
      </trkpt>
      <trkpt lat="47.25001" lon="4.93009">
        <ele>571</ele>
        <time>2013-04-13T07:01:38.000Z</time>
      </trkpt>
      <trkpt lat="47.25003" lon="4.93006">
        <ele>570.6</ele>
        <time>2013-04-13T07:01:41.000Z</time>
      </trkpt>
      <trkpt lat="47.25004" lon="4.93005">
        <ele>570.8</ele>
        <time>2013-04-13T07:01:42.000Z</time>
      </trkpt>
      <trkpt lat="47.25008" lon="4.93002">
        <ele>571.2</ele>
        <time>2013-04-13T07:01:45.000Z</time>
      </trkpt>
      <trkpt lat="47.2501" lon="4.93001">
        <ele>571.3</ele>
        <time>2013-04-13T07:01:46.000Z</time>
      </trkpt>
      <trkpt lat="47.25014" lon="4.92999">
        <ele>570.9</ele>
        <time>2013-04-13T07:01:49.000Z</time>
      </trkpt>
      <trkpt lat="47.25015" lon="4.92998">
        <ele>571.1</ele>
        <time>2013-04-13T07:01:50.000Z</time>
      </trkpt>
      <trkpt lat="47.25018" lon="4.92995">
        <ele>570.5</ele>
        <time>2013-04-13T07:01:53.000Z</time>
      </trkpt>
      <trkpt lat="47.2502" lon="4.92994">
        <ele>570.4</ele>
        <time>2013-04-13T07:01:54.664Z</time>
      </trkpt>
      <trkpt lat="47.25024" lon="4.92991">
        <ele>571.1</ele>
        <time>2013-04-13T07:01:58.000Z</time>
      </trkpt>
      <trkpt lat="47.25024" lon="4.92989">
        <ele>571.6</ele>
        <time>2013-04-13T07:01:59.000Z</time>
      </trkpt>
      <trkpt lat="47.25026" lon="4.92984">
        <ele>571.3</ele>
        <time>2013-04-13T07:02:02.000Z</time>
      </trkpt>
      <trkpt lat="47.25027" lon="4.92982">
        <ele>571.1</ele>
        <time>2013-04-13T07:02:03.000Z</time>
      </trkpt>
      <trkpt lat="47.25029" lon="4.92977">
        <ele>571.8</ele>
        <time>2013-04-13T07:02:05.000Z</time>
      </trkpt>
      <trkpt lat="47.2503" lon="4.92975">
        <ele>568.7</ele>
        <time>2013-04-13T07:02:06.000Z</time>
      </trkpt>
      <trkpt lat="47.25033" lon="4.9297">
        <ele>568.6</ele>
        <time>2013-04-13T07:02:08.000Z</time>
      </trkpt>
      <trkpt lat="47.25034" lon="4.92968">
        <ele>568.4</ele>
        <time>2013-04-13T07:02:09.000Z</time>
      </trkpt>
      <trkpt lat="47.25037" lon="4.92964">
        <ele>568.5</ele>
        <time>2013-04-13T07:02:12.000Z</time>
      </trkpt>
      <trkpt lat="47.25039" lon="4.92963">
        <ele>568.3</ele>
        <time>2013-04-13T07:02:13.000Z</time>
      </trkpt>
      <trkpt lat="47.25042" lon="4.92959">
        <ele>567.7</ele>
        <time>2013-04-13T07:02:17.000Z</time>
      </trkpt>
      <trkpt lat="47.25042" lon="4.92959">
        <ele>567.2</ele>
        <time>2013-04-13T07:02:18.000Z</time>
      </trkpt>
      <trkpt lat="47.25045" lon="4.92955">
        <ele>567.7</ele>
        <time>2013-04-13T07:02:22.000Z</time>
      </trkpt>
      <trkpt lat="47.25046" lon="4.92954">
        <ele>567.9</ele>
        <time>2013-04-13T07:02:23.000Z</time>
      </trkpt>
      <trkpt lat="47.25048" lon="4.9295">
        <ele>569</ele>
        <time>2013-04-13T07:02:26.000Z</time>
      </trkpt>
      <trkpt lat="47.2505" lon="4.92948">
        <ele>567.4</ele>
        <time>2013-04-13T07:02:27.000Z</time>
      </trkpt>
      <trkpt lat="47.25053" lon="4.92946">
        <ele>567.3</ele>
        <time>2013-04-13T07:02:29.000Z</time>
      </trkpt>
      <trkpt lat="47.25055" lon="4.92945">
        <ele>567.1</ele>
        <time>2013-04-13T07:02:30.000Z</time>
      </trkpt>
      <trkpt lat="47.25057" lon="4.92942">
        <ele>567.4</ele>
        <time>2013-04-13T07:02:32.000Z</time>
      </trkpt>
      <trkpt lat="47.25059" lon="4.9294">
        <ele>566.8</ele>
        <time>2013-04-13T07:02:33.000Z</time>
      </trkpt>
      <trkpt lat="47.25061" lon="4.92937">
        <ele>567.6</ele>
        <time>2013-04-13T07:02:35.000Z</time>
      </trkpt>
      <trkpt lat="47.25063" lon="4.92936">
        <ele>567.8</ele>
        <time>2013-04-13T07:02:36.000Z</time>
      </trkpt>
      <trkpt lat="47.25066" lon="4.92932">
        <ele>567.9</ele>
        <time>2013-04-13T07:02:39.000Z</time>
      </trkpt>
      <trkpt lat="47.25066" lon="4.9293">
        <ele>568</ele>
        <time>2013-04-13T07:02:40.000Z</time>
      </trkpt>
      <trkpt lat="47.25069" lon="4.92926">
        <ele>567.4</ele>
        <time>2013-04-13T07:02:43.000Z</time>
      </trkpt>
      <trkpt lat="47.2507" lon="4.92925">
        <ele>568.2</ele>
        <time>2013-04-13T07:02:44.000Z</time>
      </trkpt>
      <trkpt lat="47.25073" lon="4.9292">
        <ele>568.4</ele>
        <time>2013-04-13T07:02:48.000Z</time>
      </trkpt>
      <trkpt lat="47.25074" lon="4.92919">
        <ele>568.9</ele>
        <time>2013-04-13T07:02:49.000Z</time>
      </trkpt>
      <trkpt lat="47.25077" lon="4.92915">
        <ele>568.4</ele>
        <time>2013-04-13T07:02:52.000Z</time>
      </trkpt>
      <trkpt lat="47.25078" lon="4.92913">
        <ele>567.9</ele>
        <time>2013-04-13T07:02:53.000Z</time>
      </trkpt>
      <trkpt lat="47.2508" lon="4.9291">
        <ele>568.1</ele>
        <time>2013-04-13T07:02:55.000Z</time>
      </trkpt>
      <trkpt lat="47.25082" lon="4.92908">
        <ele>568</ele>
        <time>2013-04-13T07:02:56.000Z</time>
      </trkpt>
      <trkpt lat="47.25084" lon="4.92904">
        <ele>568.2</ele>
        <time>2013-04-13T07:02:58.000Z</time>
      </trkpt>
      <trkpt lat="47.25086" lon="4.92902">
        <ele>568.6</ele>
        <time>2013-04-13T07:02:59.000Z</time>
      </trkpt>
      <trkpt lat="47.25088" lon="4.92898">
        <ele>568.4</ele>
        <time>2013-04-13T07:03:01.000Z</time>
      </trkpt>
      <trkpt lat="47.25089" lon="4.92896">
        <ele>568.3</ele>
        <time>2013-04-13T07:03:02.000Z</time>
      </trkpt>
      <trkpt lat="47.25092" lon="4.92892">
        <ele>567.6</ele>
        <time>2013-04-13T07:03:04.000Z</time>
      </trkpt>
      <trkpt lat="47.25093" lon="4.9289">
        <ele>567.3</ele>
        <time>2013-04-13T07:03:05.000Z</time>
      </trkpt>
      <trkpt lat="47.25096" lon="4.92886">
        <ele>568.9</ele>
        <time>2013-04-13T07:03:08.000Z</time>
      </trkpt>
      <trkpt lat="47.25096" lon="4.92884">
        <ele>569.9</ele>
        <time>2013-04-13T07:03:09.000Z</time>
      </trkpt>
      <trkpt lat="47.25099" lon="4.9288">
        <ele>569.2</ele>
        <time>2013-04-13T07:03:15.000Z</time>
      </trkpt>
      <trkpt lat="47.251" lon="4.9288">
        <ele>569.7</ele>
        <time>2013-04-13T07:03:16.000Z</time>
      </trkpt>
      <trkpt lat="47.25103" lon="4.92882">
        <ele>570.7</ele>
        <time>2013-04-13T07:03:20.000Z</time>
      </trkpt>
      <trkpt lat="47.25104" lon="4.92882">
        <ele>571.7</ele>
        <time>2013-04-13T07:03:21.000Z</time>
      </trkpt>
      <trkpt lat="47.25107" lon="4.92884">
        <ele>571.9</ele>
        <time>2013-04-13T07:03:24.000Z</time>
      </trkpt>
      <trkpt lat="47.25108" lon="4.92885">
        <ele>572.2</ele>
        <time>2013-04-13T07:03:25.000Z</time>
      </trkpt>
      <trkpt lat="47.25112" lon="4.92887">
        <ele>571.5</ele>
        <time>2013-04-13T07:03:28.000Z</time>
      </trkpt>
      <trkpt lat="47.25113" lon="4.92887">
        <ele>570</ele>
        <time>2013-04-13T07:03:29.000Z</time>
      </trkpt>
      <trkpt lat="47.25116" lon="4.92889">
        <ele>570.1</ele>
        <time>2013-04-13T07:03:33.000Z</time>
      </trkpt>
      <trkpt lat="47.25117" lon="4.92889">
        <ele>570.2</ele>
        <time>2013-04-13T07:03:34.000Z</time>
      </trkpt>
      <trkpt lat="47.2512" lon="4.92891">
        <ele>569.3</ele>
        <time>2013-04-13T07:03:37.000Z</time>
      </trkpt>
      <trkpt lat="47.25122" lon="4.92891">
        <ele>569</ele>
        <time>2013-04-13T07:03:38.000Z</time>
      </trkpt>
      <trkpt lat="47.25126" lon="4.92892">
        <ele>568.6</ele>
        <time>2013-04-13T07:03:41.000Z</time>
      </trkpt>
      <trkpt lat="47.25127" lon="4.92893">
        <ele>568.9</ele>
        <time>2013-04-13T07:03:42.000Z</time>
      </trkpt>
      <trkpt lat="47.25132" lon="4.92894">
        <ele>567.2</ele>
        <time>2013-04-13T07:03:45.000Z</time>
      </trkpt>
      <trkpt lat="47.25133" lon="4.92894">
        <ele>567.7</ele>
        <time>2013-04-13T07:03:46.000Z</time>
      </trkpt>
      <trkpt lat="47.25137" lon="4.92896">
        <ele>567.4</ele>
        <time>2013-04-13T07:03:49.000Z</time>
      </trkpt>
      <trkpt lat="47.25138" lon="4.92896">
        <ele>567.1</ele>
        <time>2013-04-13T07:03:50.000Z</time>
      </trkpt>
      <trkpt lat="47.25142" lon="4.92898">
        <ele>567.5</ele>
        <time>2013-04-13T07:03:52.000Z</time>
      </trkpt>
      <trkpt lat="47.25143" lon="4.92898">
        <ele>566.7</ele>
        <time>2013-04-13T07:03:53.000Z</time>
      </trkpt>
      <trkpt lat="47.25147" lon="4.92899">
        <ele>566.9</ele>
        <time>2013-04-13T07:03:55.000Z</time>
      </trkpt>
      <trkpt lat="47.25149" lon="4.92899">
        <ele>567.1</ele>
        <time>2013-04-13T07:03:56.000Z</time>
      </trkpt>
      <trkpt lat="47.25152" lon="4.929">
        <ele>566.7</ele>
        <time>2013-04-13T07:03:58.000Z</time>
      </trkpt>
      <trkpt lat="47.25153" lon="4.92901">
        <ele>567.1</ele>
        <time>2013-04-13T07:03:59.000Z</time>
      </trkpt>
      <trkpt lat="47.25156" lon="4.92902">
        <ele>568</ele>
        <time>2013-04-13T07:04:01.000Z</time>
      </trkpt>
      <trkpt lat="47.25158" lon="4.92903">
        <ele>568.3</ele>
        <time>2013-04-13T07:04:02.000Z</time>
      </trkpt>
      <trkpt lat="47.25162" lon="4.92904">
        <ele>568.2</ele>
        <time>2013-04-13T07:04:04.000Z</time>
      </trkpt>
      <trkpt lat="47.25164" lon="4.92904">
        <ele>568.9</ele>
        <time>2013-04-13T07:04:05.000Z</time>
      </trkpt>
      <trkpt lat="47.25167" lon="4.92904">
        <ele>570</ele>
        <time>2013-04-13T07:04:07.000Z</time>
      </trkpt>
      <trkpt lat="47.25169" lon="4.92904">
        <ele>569.9</ele>
        <time>2013-04-13T07:04:08.000Z</time>
      </trkpt>
      <trkpt lat="47.25173" lon="4.92905">
        <ele>568.8</ele>
        <time>2013-04-13T07:04:11.000Z</time>
      </trkpt>
      <trkpt lat="47.25175" lon="4.92905">
        <ele>568.9</ele>
        <time>2013-04-13T07:04:12.000Z</time>
      </trkpt>
      <trkpt lat="47.25179" lon="4.92906">
        <ele>569.1</ele>
        <time>2013-04-13T07:04:15.000Z</time>
      </trkpt>
      <trkpt lat="47.2518" lon="4.92906">
        <ele>569.1</ele>
        <time>2013-04-13T07:04:16.000Z</time>
      </trkpt>
      <trkpt lat="47.25183" lon="4.92906">
        <ele>570.8</ele>
        <time>2013-04-13T07:04:18.000Z</time>
      </trkpt>
      <trkpt lat="47.25185" lon="4.92906">
        <ele>571.3</ele>
        <time>2013-04-13T07:04:19.000Z</time>
      </trkpt>
      <trkpt lat="47.25188" lon="4.92907">
        <ele>570.8</ele>
        <time>2013-04-13T07:04:21.000Z</time>
      </trkpt>
      <trkpt lat="47.2519" lon="4.92907">
        <ele>569.3</ele>
        <time>2013-04-13T07:04:22.000Z</time>
      </trkpt>
      <trkpt lat="47.25193" lon="4.92909">
        <ele>567.7</ele>
        <time>2013-04-13T07:04:24.000Z</time>
      </trkpt>
      <trkpt lat="47.25194" lon="4.9291">
        <ele>567.6</ele>
        <time>2013-04-13T07:04:25.000Z</time>
      </trkpt>
      <trkpt lat="47.25197" lon="4.92911">
        <ele>567</ele>
        <time>2013-04-13T07:04:27.000Z</time>
      </trkpt>
      <trkpt lat="47.25199" lon="4.92911">
        <ele>567</ele>
        <time>2013-04-13T07:04:28.000Z</time>
      </trkpt>
      <trkpt lat="47.25202" lon="4.92911">
        <ele>567.7</ele>
        <time>2013-04-13T07:04:30.000Z</time>
      </trkpt>
      <trkpt lat="47.25204" lon="4.92912">
        <ele>566.6</ele>
        <time>2013-04-13T07:04:31.000Z</time>
      </trkpt>
      <trkpt lat="47.25208" lon="4.92913">
        <ele>566.1</ele>
        <time>2013-04-13T07:04:34.000Z</time>
      </trkpt>
      <trkpt lat="47.25209" lon="4.92913">
        <ele>565.3</ele>
        <time>2013-04-13T07:04:35.000Z</time>
      </trkpt>
      <trkpt lat="47.25213" lon="4.92913">
        <ele>565.2</ele>
        <time>2013-04-13T07:04:38.000Z</time>
      </trkpt>
      <trkpt lat="47.25215" lon="4.92913">
        <ele>565.4</ele>
        <time>2013-04-13T07:04:39.000Z</time>
      </trkpt>
      <trkpt lat="47.25218" lon="4.92913">
        <ele>565.7</ele>
        <time>2013-04-13T07:04:41.000Z</time>
      </trkpt>
      <trkpt lat="47.2522" lon="4.92913">
        <ele>564.3</ele>
        <time>2013-04-13T07:04:42.000Z</time>
      </trkpt>
      <trkpt lat="47.25224" lon="4.92914">
        <ele>564.3</ele>
        <time>2013-04-13T07:04:44.000Z</time>
      </trkpt>
      <trkpt lat="47.25226" lon="4.92914">
        <ele>562.2</ele>
        <time>2013-04-13T07:04:45.000Z</time>
      </trkpt>
      <trkpt lat="47.2523" lon="4.92915">
        <ele>561.8</ele>
        <time>2013-04-13T07:04:48.000Z</time>
      </trkpt>
      <trkpt lat="47.25231" lon="4.92915">
        <ele>562.1</ele>
        <time>2013-04-13T07:04:49.000Z</time>
      </trkpt>
      <trkpt lat="47.25235" lon="4.92915">
        <ele>561.6</ele>
        <time>2013-04-13T07:04:52.000Z</time>
      </trkpt>
      <trkpt lat="47.25237" lon="4.92915">
        <ele>562</ele>
        <time>2013-04-13T07:04:53.000Z</time>
      </trkpt>
      <trkpt lat="47.2524" lon="4.92916">
        <ele>562.7</ele>
        <time>2013-04-13T07:04:55.000Z</time>
      </trkpt>
      <trkpt lat="47.25241" lon="4.92916">
        <ele>562.8</ele>
        <time>2013-04-13T07:04:56.000Z</time>
      </trkpt>
      <trkpt lat="47.25245" lon="4.92916">
        <ele>563.5</ele>
        <time>2013-04-13T07:04:58.000Z</time>
      </trkpt>
      <trkpt lat="47.25246" lon="4.92917">
        <ele>563.4</ele>
        <time>2013-04-13T07:04:59.000Z</time>
      </trkpt>
      <trkpt lat="47.25251" lon="4.92917">
        <ele>563.2</ele>
        <time>2013-04-13T07:05:03.000Z</time>
      </trkpt>
      <trkpt lat="47.25252" lon="4.92917">
        <ele>563.4</ele>
        <time>2013-04-13T07:05:04.000Z</time>
      </trkpt>
      <trkpt lat="47.25256" lon="4.92919">
        <ele>564.2</ele>
        <time>2013-04-13T07:05:07.000Z</time>
      </trkpt>
      <trkpt lat="47.25257" lon="4.92919">
        <ele>564.5</ele>
        <time>2013-04-13T07:05:08.000Z</time>
      </trkpt>
      <trkpt lat="47.25261" lon="4.9292">
        <ele>565.7</ele>
        <time>2013-04-13T07:05:10.000Z</time>
      </trkpt>
      <trkpt lat="47.25263" lon="4.92921">
        <ele>566</ele>
        <time>2013-04-13T07:05:11.000Z</time>
      </trkpt>
      <trkpt lat="47.25266" lon="4.92921">
        <ele>566.3</ele>
        <time>2013-04-13T07:05:13.000Z</time>
      </trkpt>
      <trkpt lat="47.25268" lon="4.92921">
        <ele>566.6</ele>
        <time>2013-04-13T07:05:14.000Z</time>
      </trkpt>
      <trkpt lat="47.25272" lon="4.92921">
        <ele>567.5</ele>
        <time>2013-04-13T07:05:16.000Z</time>
      </trkpt>
      <trkpt lat="47.25274" lon="4.92922">
        <ele>568</ele>
        <time>2013-04-13T07:05:17.000Z</time>
      </trkpt>
      <trkpt lat="47.25277" lon="4.92922">
        <ele>568.4</ele>
        <time>2013-04-13T07:05:19.000Z</time>
      </trkpt>
      <trkpt lat="47.25279" lon="4.92922">
        <ele>568.6</ele>
        <time>2013-04-13T07:05:20.000Z</time>
      </trkpt>
      <trkpt lat="47.25282" lon="4.92922">
        <ele>569.1</ele>
        <time>2013-04-13T07:05:22.000Z</time>
      </trkpt>
      <trkpt lat="47.25284" lon="4.92922">
        <ele>569.9</ele>
        <time>2013-04-13T07:05:23.000Z</time>
      </trkpt>
      <trkpt lat="47.25287" lon="4.92922">
        <ele>569.2</ele>
        <time>2013-04-13T07:05:25.000Z</time>
      </trkpt>
      <trkpt lat="47.25289" lon="4.92922">
        <ele>569.7</ele>
        <time>2013-04-13T07:05:26.000Z</time>
      </trkpt>
      <trkpt lat="47.25292" lon="4.92921">
        <ele>569.1</ele>
        <time>2013-04-13T07:05:28.000Z</time>
      </trkpt>
      <trkpt lat="47.25294" lon="4.92921">
        <ele>569.9</ele>
        <time>2013-04-13T07:05:29.000Z</time>
      </trkpt>
      <trkpt lat="47.25298" lon="4.92921">
        <ele>571</ele>
        <time>2013-04-13T07:05:32.000Z</time>
      </trkpt>
      <trkpt lat="47.253" lon="4.92921">
        <ele>571.5</ele>
        <time>2013-04-13T07:05:33.000Z</time>
      </trkpt>
      <trkpt lat="47.25304" lon="4.92922">
        <ele>572.1</ele>
        <time>2013-04-13T07:05:36.000Z</time>
      </trkpt>
      <trkpt lat="47.25305" lon="4.92923">
        <ele>572.1</ele>
        <time>2013-04-13T07:05:37.000Z</time>
      </trkpt>
      <trkpt lat="47.2531" lon="4.92924">
        <ele>572.5</ele>
        <time>2013-04-13T07:05:40.000Z</time>
      </trkpt>
      <trkpt lat="47.25311" lon="4.92924">
        <ele>572.4</ele>
        <time>2013-04-13T07:05:41.000Z</time>
      </trkpt>
      <trkpt lat="47.25315" lon="4.92924">
        <ele>572.5</ele>
        <time>2013-04-13T07:05:44.000Z</time>
      </trkpt>
      <trkpt lat="47.25317" lon="4.92924">
        <ele>573</ele>
        <time>2013-04-13T07:05:45.000Z</time>
      </trkpt>
      <trkpt lat="47.2532" lon="4.92924">
        <ele>574.2</ele>
        <time>2013-04-13T07:05:47.000Z</time>
      </trkpt>
      <trkpt lat="47.25322" lon="4.92924">
        <ele>574.4</ele>
        <time>2013-04-13T07:05:48.000Z</time>
      </trkpt>
      <trkpt lat="47.25325" lon="4.92925">
        <ele>574.3</ele>
        <time>2013-04-13T07:05:50.000Z</time>
      </trkpt>
      <trkpt lat="47.25326" lon="4.92925">
        <ele>574.4</ele>
        <time>2013-04-13T07:05:51.000Z</time>
      </trkpt>
      <trkpt lat="47.25329" lon="4.92926">
        <ele>574.8</ele>
        <time>2013-04-13T07:05:53.000Z</time>
      </trkpt>
      <trkpt lat="47.25331" lon="4.92926">
        <ele>575.2</ele>
        <time>2013-04-13T07:05:54.000Z</time>
      </trkpt>
      <trkpt lat="47.25334" lon="4.92927">
        <ele>575.4</ele>
        <time>2013-04-13T07:05:56.000Z</time>
      </trkpt>
      <trkpt lat="47.25335" lon="4.92928">
        <ele>576</ele>
        <time>2013-04-13T07:05:57.000Z</time>
      </trkpt>
      <trkpt lat="47.25338" lon="4.92929">
        <ele>576.1</ele>
        <time>2013-04-13T07:05:59.000Z</time>
      </trkpt>
      <trkpt lat="47.2534" lon="4.9293">
        <ele>575.9</ele>
        <time>2013-04-13T07:06:00.000Z</time>
      </trkpt>
      <trkpt lat="47.25343" lon="4.9293">
        <ele>577</ele>
        <time>2013-04-13T07:06:02.000Z</time>
      </trkpt>
      <trkpt lat="47.25344" lon="4.9293">
        <ele>576.8</ele>
        <time>2013-04-13T07:06:03.000Z</time>
      </trkpt>
      <trkpt lat="47.25348" lon="4.9293">
        <ele>577.7</ele>
        <time>2013-04-13T07:06:06.000Z</time>
      </trkpt>
      <trkpt lat="47.2535" lon="4.92931">
        <ele>578</ele>
        <time>2013-04-13T07:06:07.000Z</time>
      </trkpt>
      <trkpt lat="47.25354" lon="4.92932">
        <ele>577.7</ele>
        <time>2013-04-13T07:06:09.000Z</time>
      </trkpt>
      <trkpt lat="47.25356" lon="4.92932">
        <ele>578</ele>
        <time>2013-04-13T07:06:10.000Z</time>
      </trkpt>
      <trkpt lat="47.25358" lon="4.92933">
        <ele>577</ele>
        <time>2013-04-13T07:06:11.000Z</time>
      </trkpt>
      <trkpt lat="47.25361" lon="4.92933">
        <ele>576.7</ele>
        <time>2013-04-13T07:06:12.000Z</time>
      </trkpt>
      <trkpt lat="47.25365" lon="4.92935">
        <ele>577.8</ele>
        <time>2013-04-13T07:06:14.000Z</time>
      </trkpt>
      <trkpt lat="47.25367" lon="4.92937">
        <ele>578.6</ele>
        <time>2013-04-13T07:06:15.000Z</time>
      </trkpt>
      <trkpt lat="47.25371" lon="4.9294">
        <ele>579.9</ele>
        <time>2013-04-13T07:06:18.000Z</time>
      </trkpt>
      <trkpt lat="47.25372" lon="4.9294">
        <ele>579.8</ele>
        <time>2013-04-13T07:06:19.000Z</time>
      </trkpt>
      <trkpt lat="47.25376" lon="4.92942">
        <ele>581.1</ele>
        <time>2013-04-13T07:06:22.000Z</time>
      </trkpt>
      <trkpt lat="47.25377" lon="4.92942">
        <ele>581.5</ele>
        <time>2013-04-13T07:06:23.000Z</time>
      </trkpt>
      <trkpt lat="47.2538" lon="4.92943">
        <ele>580.4</ele>
        <time>2013-04-13T07:06:25.000Z</time>
      </trkpt>
      <trkpt lat="47.25382" lon="4.92943">
        <ele>578.9</ele>
        <time>2013-04-13T07:06:26.000Z</time>
      </trkpt>
      <trkpt lat="47.25385" lon="4.92943">
        <ele>577.6</ele>
        <time>2013-04-13T07:06:28.000Z</time>
      </trkpt>
      <trkpt lat="47.25387" lon="4.92943">
        <ele>578</ele>
        <time>2013-04-13T07:06:29.000Z</time>
      </trkpt>
      <trkpt lat="47.2539" lon="4.92943">
        <ele>578.2</ele>
        <time>2013-04-13T07:06:31.000Z</time>
      </trkpt>
      <trkpt lat="47.25392" lon="4.92943">
        <ele>575.9</ele>
        <time>2013-04-13T07:06:32.000Z</time>
      </trkpt>
      <trkpt lat="47.25395" lon="4.92943">
        <ele>575.6</ele>
        <time>2013-04-13T07:06:34.000Z</time>
      </trkpt>
      <trkpt lat="47.25397" lon="4.92943">
        <ele>575.7</ele>
        <time>2013-04-13T07:06:35.000Z</time>
      </trkpt>
      <trkpt lat="47.254" lon="4.92944">
        <ele>576.5</ele>
        <time>2013-04-13T07:06:37.000Z</time>
      </trkpt>
      <trkpt lat="47.25402" lon="4.92944">
        <ele>576.9</ele>
        <time>2013-04-13T07:06:38.000Z</time>
      </trkpt>
      <trkpt lat="47.25405" lon="4.92944">
        <ele>576.6</ele>
        <time>2013-04-13T07:06:40.000Z</time>
      </trkpt>
      <trkpt lat="47.25406" lon="4.92944">
        <ele>575.7</ele>
        <time>2013-04-13T07:06:41.000Z</time>
      </trkpt>
      <trkpt lat="47.2541" lon="4.92943">
        <ele>575.6</ele>
        <time>2013-04-13T07:06:44.000Z</time>
      </trkpt>
      <trkpt lat="47.25412" lon="4.92943">
        <ele>574.7</ele>
        <time>2013-04-13T07:06:45.000Z</time>
      </trkpt>
      <trkpt lat="47.25415" lon="4.92941">
        <ele>575.8</ele>
        <time>2013-04-13T07:06:49.000Z</time>
      </trkpt>
      <trkpt lat="47.25416" lon="4.92941">
        <ele>576.5</ele>
        <time>2013-04-13T07:06:50.000Z</time>
      </trkpt>
      <trkpt lat="47.2542" lon="4.92941">
        <ele>577</ele>
        <time>2013-04-13T07:07:47.000Z</time>
      </trkpt>
      <trkpt lat="47.2542" lon="4.92941">
        <ele>577.8</ele>
        <time>2013-04-13T07:07:48.000Z</time>
      </trkpt>
      <trkpt lat="47.25424" lon="4.92941">
        <ele>578.7</ele>
        <time>2013-04-13T07:07:52.000Z</time>
      </trkpt>
      <trkpt lat="47.25425" lon="4.92942">
        <ele>578.9</ele>
        <time>2013-04-13T07:07:53.000Z</time>
      </trkpt>
      <trkpt lat="47.25428" lon="4.92941">
        <ele>577.9</ele>
        <time>2013-04-13T07:07:56.000Z</time>
      </trkpt>
      <trkpt lat="47.25429" lon="4.92941">
        <ele>578.8</ele>
        <time>2013-04-13T07:07:57.000Z</time>
      </trkpt>
      <trkpt lat="47.25434" lon="4.92939">
        <ele>580</ele>
        <time>2013-04-13T07:08:01.000Z</time>
      </trkpt>
      <trkpt lat="47.25435" lon="4.92939">
        <ele>579.8</ele>
        <time>2013-04-13T07:08:02.000Z</time>
      </trkpt>
      <trkpt lat="47.25438" lon="4.92937">
        <ele>579.2</ele>
        <time>2013-04-13T07:08:06.000Z</time>
      </trkpt>
      <trkpt lat="47.2544" lon="4.92937">
        <ele>578.1</ele>
        <time>2013-04-13T07:08:07.000Z</time>
      </trkpt>
      <trkpt lat="47.25443" lon="4.92935">
        <ele>578</ele>
        <time>2013-04-13T07:08:09.000Z</time>
      </trkpt>
      <trkpt lat="47.25445" lon="4.92935">
        <ele>578.1</ele>
        <time>2013-04-13T07:08:10.000Z</time>
      </trkpt>
      <trkpt lat="47.25448" lon="4.92934">
        <ele>578.3</ele>
        <time>2013-04-13T07:08:12.000Z</time>
      </trkpt>
      <trkpt lat="47.2545" lon="4.92933">
        <ele>578.2</ele>
        <time>2013-04-13T07:08:13.000Z</time>
      </trkpt>
      <trkpt lat="47.25454" lon="4.92932">
        <ele>578.7</ele>
        <time>2013-04-13T07:08:16.000Z</time>
      </trkpt>
      <trkpt lat="47.25455" lon="4.92932">
        <ele>578.7</ele>
        <time>2013-04-13T07:08:17.000Z</time>
      </trkpt>
      <trkpt lat="47.25458" lon="4.9293">
        <ele>578.4</ele>
        <time>2013-04-13T07:08:20.000Z</time>
      </trkpt>
      <trkpt lat="47.25459" lon="4.92929">
        <ele>578.5</ele>
        <time>2013-04-13T07:08:21.000Z</time>
      </trkpt>
      <trkpt lat="47.25463" lon="4.92927">
        <ele>579.3</ele>
        <time>2013-04-13T07:08:24.000Z</time>
      </trkpt>
      <trkpt lat="47.25464" lon="4.92927">
        <ele>579.1</ele>
        <time>2013-04-13T07:08:25.000Z</time>
      </trkpt>
      <trkpt lat="47.25468" lon="4.92925">
        <ele>578.6</ele>
        <time>2013-04-13T07:08:28.000Z</time>
      </trkpt>
      <trkpt lat="47.25469" lon="4.92924">
        <ele>579.2</ele>
        <time>2013-04-13T07:08:29.000Z</time>
      </trkpt>
      <trkpt lat="47.25473" lon="4.92922">
        <ele>579.1</ele>
        <time>2013-04-13T07:08:33.000Z</time>
      </trkpt>
      <trkpt lat="47.25474" lon="4.92921">
        <ele>580.1</ele>
        <time>2013-04-13T07:08:34.000Z</time>
      </trkpt>
      <trkpt lat="47.25478" lon="4.9292">
        <ele>580.6</ele>
        <time>2013-04-13T07:08:37.000Z</time>
      </trkpt>
      <trkpt lat="47.2548" lon="4.92919">
        <ele>581.1</ele>
        <time>2013-04-13T07:08:38.000Z</time>
      </trkpt>
      <trkpt lat="47.25483" lon="4.92918">
        <ele>581.2</ele>
        <time>2013-04-13T07:08:40.000Z</time>
      </trkpt>
      <trkpt lat="47.25484" lon="4.92918">
        <ele>581.3</ele>
        <time>2013-04-13T07:08:41.000Z</time>
      </trkpt>
      <trkpt lat="47.25488" lon="4.92917">
        <ele>580.9</ele>
        <time>2013-04-13T07:08:43.000Z</time>
      </trkpt>
      <trkpt lat="47.2549" lon="4.92916">
        <ele>580.3</ele>
        <time>2013-04-13T07:08:44.000Z</time>
      </trkpt>
      <trkpt lat="47.25493" lon="4.92915">
        <ele>581.1</ele>
        <time>2013-04-13T07:08:46.000Z</time>
      </trkpt>
      <trkpt lat="47.25495" lon="4.92914">
        <ele>580.3</ele>
        <time>2013-04-13T07:08:47.000Z</time>
      </trkpt>
      <trkpt lat="47.25498" lon="4.92914">
        <ele>580.1</ele>
        <time>2013-04-13T07:08:49.000Z</time>
      </trkpt>
      <trkpt lat="47.255" lon="4.92913">
        <ele>580.1</ele>
        <time>2013-04-13T07:08:50.000Z</time>
      </trkpt>
      <trkpt lat="47.25503" lon="4.92912">
        <ele>580.3</ele>
        <time>2013-04-13T07:08:52.000Z</time>
      </trkpt>
      <trkpt lat="47.25504" lon="4.92912">
        <ele>580.5</ele>
        <time>2013-04-13T07:08:53.000Z</time>
      </trkpt>
      <trkpt lat="47.25507" lon="4.92911">
        <ele>580.2</ele>
        <time>2013-04-13T07:08:55.000Z</time>
      </trkpt>
      <trkpt lat="47.25509" lon="4.92911">
        <ele>579.6</ele>
        <time>2013-04-13T07:08:56.000Z</time>
      </trkpt>
      <trkpt lat="47.25512" lon="4.92911">
        <ele>578.9</ele>
        <time>2013-04-13T07:08:58.000Z</time>
      </trkpt>
      <trkpt lat="47.25514" lon="4.92911">
        <ele>578.7</ele>
        <time>2013-04-13T07:08:59.000Z</time>
      </trkpt>
      <trkpt lat="47.25517" lon="4.92911">
        <ele>578.7</ele>
        <time>2013-04-13T07:09:01.000Z</time>
      </trkpt>
      <trkpt lat="47.25518" lon="4.9291">
        <ele>578.7</ele>
        <time>2013-04-13T07:09:02.000Z</time>
      </trkpt>
      <trkpt lat="47.25522" lon="4.92909">
        <ele>579.8</ele>
        <time>2013-04-13T07:09:04.000Z</time>
      </trkpt>
      <trkpt lat="47.25523" lon="4.92909">
        <ele>580.2</ele>
        <time>2013-04-13T07:09:05.000Z</time>
      </trkpt>
      <trkpt lat="47.25527" lon="4.92908">
        <ele>579.8</ele>
        <time>2013-04-13T07:09:07.000Z</time>
      </trkpt>
      <trkpt lat="47.25528" lon="4.92907">
        <ele>578.9</ele>
        <time>2013-04-13T07:09:08.000Z</time>
      </trkpt>
      <trkpt lat="47.25532" lon="4.92907">
        <ele>580.7</ele>
        <time>2013-04-13T07:09:11.000Z</time>
      </trkpt>
      <trkpt lat="47.25534" lon="4.92906">
        <ele>580.5</ele>
        <time>2013-04-13T07:09:12.000Z</time>
      </trkpt>
      <trkpt lat="47.25538" lon="4.92905">
        <ele>581.2</ele>
        <time>2013-04-13T07:09:15.000Z</time>
      </trkpt>
      <trkpt lat="47.2554" lon="4.92905">
        <ele>581.7</ele>
        <time>2013-04-13T07:09:16.000Z</time>
      </trkpt>
      <trkpt lat="47.25543" lon="4.92905">
        <ele>581.6</ele>
        <time>2013-04-13T07:09:18.000Z</time>
      </trkpt>
      <trkpt lat="47.25545" lon="4.92905">
        <ele>582.6</ele>
        <time>2013-04-13T07:09:19.000Z</time>
      </trkpt>
      <trkpt lat="47.25548" lon="4.92905">
        <ele>582.4</ele>
        <time>2013-04-13T07:09:21.000Z</time>
      </trkpt>
      <trkpt lat="47.25549" lon="4.92904">
        <ele>582.6</ele>
        <time>2013-04-13T07:09:22.000Z</time>
      </trkpt>
      <trkpt lat="47.25553" lon="4.92902">
        <ele>581.9</ele>
        <time>2013-04-13T07:09:24.000Z</time>
      </trkpt>
      <trkpt lat="47.25554" lon="4.92901">
        <ele>582.3</ele>
        <time>2013-04-13T07:09:25.000Z</time>
      </trkpt>
      <trkpt lat="47.25558" lon="4.92899">
        <ele>582.9</ele>
        <time>2013-04-13T07:09:27.000Z</time>
      </trkpt>
      <trkpt lat="47.2556" lon="4.92899">
        <ele>583</ele>
        <time>2013-04-13T07:09:28.000Z</time>
      </trkpt>
      <trkpt lat="47.25563" lon="4.92898">
        <ele>582.8</ele>
        <time>2013-04-13T07:09:30.000Z</time>
      </trkpt>
      <trkpt lat="47.25565" lon="4.92898">
        <ele>582.9</ele>
        <time>2013-04-13T07:09:31.000Z</time>
      </trkpt>
      <trkpt lat="47.25569" lon="4.92898">
        <ele>583.6</ele>
        <time>2013-04-13T07:09:33.000Z</time>
      </trkpt>
      <trkpt lat="47.2557" lon="4.92898">
        <ele>584.2</ele>
        <time>2013-04-13T07:09:34.000Z</time>
      </trkpt>
      <trkpt lat="47.25575" lon="4.92898">
        <ele>583.7</ele>
        <time>2013-04-13T07:09:37.000Z</time>
      </trkpt>
      <trkpt lat="47.25576" lon="4.92898">
        <ele>584.5</ele>
        <time>2013-04-13T07:09:38.000Z</time>
      </trkpt>
      <trkpt lat="47.25579" lon="4.92898">
        <ele>583.8</ele>
        <time>2013-04-13T07:09:40.000Z</time>
      </trkpt>
      <trkpt lat="47.25581" lon="4.92898">
        <ele>583.2</ele>
        <time>2013-04-13T07:09:41.000Z</time>
      </trkpt>
      <trkpt lat="47.25585" lon="4.92897">
        <ele>583.6</ele>
        <time>2013-04-13T07:09:43.000Z</time>
      </trkpt>
      <trkpt lat="47.25586" lon="4.92897">
        <ele>582.7</ele>
        <time>2013-04-13T07:09:44.000Z</time>
      </trkpt>
      <trkpt lat="47.2559" lon="4.92898">
        <ele>582.8</ele>
        <time>2013-04-13T07:09:46.000Z</time>
      </trkpt>
      <trkpt lat="47.25591" lon="4.92898">
        <ele>582.7</ele>
        <time>2013-04-13T07:09:47.000Z</time>
      </trkpt>
      <trkpt lat="47.25596" lon="4.92898">
        <ele>584.2</ele>
        <time>2013-04-13T07:09:50.000Z</time>
      </trkpt>
      <trkpt lat="47.25597" lon="4.92898">
        <ele>584.6</ele>
        <time>2013-04-13T07:09:51.000Z</time>
      </trkpt>
      <trkpt lat="47.256" lon="4.92898">
        <ele>584.5</ele>
        <time>2013-04-13T07:09:53.000Z</time>
      </trkpt>
      <trkpt lat="47.25602" lon="4.92898">
        <ele>584.4</ele>
        <time>2013-04-13T07:09:54.000Z</time>
      </trkpt>
      <trkpt lat="47.25606" lon="4.92898">
        <ele>584.3</ele>
        <time>2013-04-13T07:09:56.000Z</time>
      </trkpt>
      <trkpt lat="47.25608" lon="4.92898">
        <ele>584.2</ele>
        <time>2013-04-13T07:09:57.000Z</time>
      </trkpt>
      <trkpt lat="47.25612" lon="4.92899">
        <ele>585.3</ele>
        <time>2013-04-13T07:09:59.000Z</time>
      </trkpt>
      <trkpt lat="47.25614" lon="4.92899">
        <ele>585.4</ele>
        <time>2013-04-13T07:10:00.000Z</time>
      </trkpt>
      <trkpt lat="47.25618" lon="4.929">
        <ele>583.9</ele>
        <time>2013-04-13T07:10:03.000Z</time>
      </trkpt>
      <trkpt lat="47.25618" lon="4.929">
        <ele>583.7</ele>
        <time>2013-04-13T07:10:04.000Z</time>
      </trkpt>
      <trkpt lat="47.25622" lon="4.929">
        <ele>582.3</ele>
        <time>2013-04-13T07:10:08.000Z</time>
      </trkpt>
      <trkpt lat="47.25623" lon="4.929">
        <ele>582.2</ele>
        <time>2013-04-13T07:10:09.000Z</time>
      </trkpt>
      <trkpt lat="47.25626" lon="4.929">
        <ele>582.5</ele>
        <time>2013-04-13T07:10:11.000Z</time>
      </trkpt>
      <trkpt lat="47.25628" lon="4.929">
        <ele>583</ele>
        <time>2013-04-13T07:10:12.000Z</time>
      </trkpt>
      <trkpt lat="47.25631" lon="4.929">
        <ele>583.7</ele>
        <time>2013-04-13T07:10:14.000Z</time>
      </trkpt>
      <trkpt lat="47.25633" lon="4.929">
        <ele>583.5</ele>
        <time>2013-04-13T07:10:15.000Z</time>
      </trkpt>
      <trkpt lat="47.25637" lon="4.929">
        <ele>583</ele>
        <time>2013-04-13T07:10:17.000Z</time>
      </trkpt>
      <trkpt lat="47.25638" lon="4.929">
        <ele>583</ele>
        <time>2013-04-13T07:10:18.000Z</time>
      </trkpt>
      <trkpt lat="47.25641" lon="4.92901">
        <ele>582.8</ele>
        <time>2013-04-13T07:10:20.000Z</time>
      </trkpt>
      <trkpt lat="47.25643" lon="4.92901">
        <ele>583.1</ele>
        <time>2013-04-13T07:10:21.000Z</time>
      </trkpt>
      <trkpt lat="47.25646" lon="4.92902">
        <ele>582.4</ele>
        <time>2013-04-13T07:10:23.000Z</time>
      </trkpt>
      <trkpt lat="47.25648" lon="4.92902">
        <ele>582.9</ele>
        <time>2013-04-13T07:10:24.000Z</time>
      </trkpt>
      <trkpt lat="47.25651" lon="4.92902">
        <ele>582.2</ele>
        <time>2013-04-13T07:10:26.000Z</time>
      </trkpt>
      <trkpt lat="47.25653" lon="4.92902">
        <ele>581.9</ele>
        <time>2013-04-13T07:10:27.000Z</time>
      </trkpt>
      <trkpt lat="47.25657" lon="4.92903">
        <ele>582.8</ele>
        <time>2013-04-13T07:10:29.000Z</time>
      </trkpt>
      <trkpt lat="47.25658" lon="4.92903">
        <ele>583.5</ele>
        <time>2013-04-13T07:10:30.000Z</time>
      </trkpt>
      <trkpt lat="47.25661" lon="4.92903">
        <ele>584.9</ele>
        <time>2013-04-13T07:10:32.000Z</time>
      </trkpt>
      <trkpt lat="47.25663" lon="4.92903">
        <ele>584.6</ele>
        <time>2013-04-13T07:10:33.000Z</time>
      </trkpt>
      <trkpt lat="47.25666" lon="4.92902">
        <ele>584.6</ele>
        <time>2013-04-13T07:10:35.000Z</time>
      </trkpt>
      <trkpt lat="47.25668" lon="4.92902">
        <ele>583.9</ele>
        <time>2013-04-13T07:10:36.000Z</time>
      </trkpt>
      <trkpt lat="47.25672" lon="4.92902">
        <ele>583.7</ele>
        <time>2013-04-13T07:10:38.000Z</time>
      </trkpt>
      <trkpt lat="47.25673" lon="4.92902">
        <ele>583</ele>
        <time>2013-04-13T07:10:39.000Z</time>
      </trkpt>
      <trkpt lat="47.25677" lon="4.92901">
        <ele>583</ele>
        <time>2013-04-13T07:10:41.000Z</time>
      </trkpt>
      <trkpt lat="47.25679" lon="4.92901">
        <ele>582.7</ele>
        <time>2013-04-13T07:10:42.000Z</time>
      </trkpt>
      <trkpt lat="47.25682" lon="4.929">
        <ele>582.3</ele>
        <time>2013-04-13T07:10:44.000Z</time>
      </trkpt>
      <trkpt lat="47.25683" lon="4.92901">
        <ele>582.2</ele>
        <time>2013-04-13T07:10:45.000Z</time>
      </trkpt>
      <trkpt lat="47.25687" lon="4.92902">
        <ele>582.3</ele>
        <time>2013-04-13T07:10:48.000Z</time>
      </trkpt>
      <trkpt lat="47.25688" lon="4.92902">
        <ele>582.7</ele>
        <time>2013-04-13T07:10:49.000Z</time>
      </trkpt>
      <trkpt lat="47.25691" lon="4.92903">
        <ele>582.8</ele>
        <time>2013-04-13T07:10:52.000Z</time>
      </trkpt>
      <trkpt lat="47.25693" lon="4.92903">
        <ele>583.2</ele>
        <time>2013-04-13T07:10:53.000Z</time>
      </trkpt>
      <trkpt lat="47.25696" lon="4.92904">
        <ele>583.8</ele>
        <time>2013-04-13T07:10:55.000Z</time>
      </trkpt>
      <trkpt lat="47.25698" lon="4.92904">
        <ele>583.3</ele>
        <time>2013-04-13T07:10:56.000Z</time>
      </trkpt>
      <trkpt lat="47.25701" lon="4.92905">
        <ele>583.6</ele>
        <time>2013-04-13T07:10:58.000Z</time>
      </trkpt>
      <trkpt lat="47.25702" lon="4.92905">
        <ele>584.1</ele>
        <time>2013-04-13T07:10:59.000Z</time>
      </trkpt>
      <trkpt lat="47.25706" lon="4.92904">
        <ele>584.6</ele>
        <time>2013-04-13T07:11:02.000Z</time>
      </trkpt>
      <trkpt lat="47.25708" lon="4.92904">
        <ele>585.2</ele>
        <time>2013-04-13T07:11:03.000Z</time>
      </trkpt>
      <trkpt lat="47.25712" lon="4.92904">
        <ele>585.1</ele>
        <time>2013-04-13T07:11:06.000Z</time>
      </trkpt>
      <trkpt lat="47.25714" lon="4.92904">
        <ele>585.2</ele>
        <time>2013-04-13T07:11:07.000Z</time>
      </trkpt>
      <trkpt lat="47.25718" lon="4.92905">
        <ele>584.1</ele>
        <time>2013-04-13T07:11:09.000Z</time>
      </trkpt>
      <trkpt lat="47.2572" lon="4.92905">
        <ele>584.4</ele>
        <time>2013-04-13T07:11:10.000Z</time>
      </trkpt>
      <trkpt lat="47.25724" lon="4.92906">
        <ele>584.2</ele>
        <time>2013-04-13T07:11:12.000Z</time>
      </trkpt>
      <trkpt lat="47.25726" lon="4.92907">
        <ele>584.2</ele>
        <time>2013-04-13T07:11:13.000Z</time>
      </trkpt>
      <trkpt lat="47.2573" lon="4.92908">
        <ele>584.3</ele>
        <time>2013-04-13T07:11:15.000Z</time>
      </trkpt>
      <trkpt lat="47.25732" lon="4.92909">
        <ele>584.8</ele>
        <time>2013-04-13T07:11:16.000Z</time>
      </trkpt>
      <trkpt lat="47.25735" lon="4.92909">
        <ele>584</ele>
        <time>2013-04-13T07:11:18.000Z</time>
      </trkpt>
      <trkpt lat="47.25737" lon="4.92909">
        <ele>584.6</ele>
        <time>2013-04-13T07:11:19.000Z</time>
      </trkpt>
      <trkpt lat="47.2574" lon="4.92909">
        <ele>585.2</ele>
        <time>2013-04-13T07:11:21.000Z</time>
      </trkpt>
      <trkpt lat="47.25741" lon="4.92908">
        <ele>585.3</ele>
        <time>2013-04-13T07:11:22.000Z</time>
      </trkpt>
      <trkpt lat="47.25744" lon="4.92908">
        <ele>585</ele>
        <time>2013-04-13T07:11:24.000Z</time>
      </trkpt>
      <trkpt lat="47.25746" lon="4.92908">
        <ele>585.4</ele>
        <time>2013-04-13T07:11:25.000Z</time>
      </trkpt>
      <trkpt lat="47.2575" lon="4.92908">
        <ele>586.1</ele>
        <time>2013-04-13T07:11:27.000Z</time>
      </trkpt>
      <trkpt lat="47.25752" lon="4.92908">
        <ele>585.8</ele>
        <time>2013-04-13T07:11:28.000Z</time>
      </trkpt>
      <trkpt lat="47.25756" lon="4.92907">
        <ele>585.5</ele>
        <time>2013-04-13T07:11:30.000Z</time>
      </trkpt>
      <trkpt lat="47.25757" lon="4.92907">
        <ele>585.7</ele>
        <time>2013-04-13T07:11:31.000Z</time>
      </trkpt>
      <trkpt lat="47.25761" lon="4.92906">
        <ele>585.8</ele>
        <time>2013-04-13T07:11:33.000Z</time>
      </trkpt>
      <trkpt lat="47.25762" lon="4.92905">
        <ele>585.4</ele>
        <time>2013-04-13T07:11:34.000Z</time>
      </trkpt>
      <trkpt lat="47.25766" lon="4.92905">
        <ele>585.5</ele>
        <time>2013-04-13T07:11:37.000Z</time>
      </trkpt>
      <trkpt lat="47.25767" lon="4.92905">
        <ele>587</ele>
        <time>2013-04-13T07:11:38.000Z</time>
      </trkpt>
      <trkpt lat="47.25771" lon="4.92905">
        <ele>586.9</ele>
        <time>2013-04-13T07:11:42.000Z</time>
      </trkpt>
      <trkpt lat="47.25772" lon="4.92906">
        <ele>586.6</ele>
        <time>2013-04-13T07:11:43.000Z</time>
      </trkpt>
      <trkpt lat="47.25775" lon="4.92906">
        <ele>587.5</ele>
        <time>2013-04-13T07:11:45.000Z</time>
      </trkpt>
      <trkpt lat="47.25777" lon="4.92906">
        <ele>587.2</ele>
        <time>2013-04-13T07:11:46.000Z</time>
      </trkpt>
      <trkpt lat="47.25781" lon="4.92906">
        <ele>586.8</ele>
        <time>2013-04-13T07:11:50.000Z</time>
      </trkpt>
      <trkpt lat="47.25783" lon="4.92907">
        <ele>585.5</ele>
        <time>2013-04-13T07:11:51.000Z</time>
      </trkpt>
      <trkpt lat="47.25786" lon="4.92908">
        <ele>585.5</ele>
        <time>2013-04-13T07:11:55.000Z</time>
      </trkpt>
      <trkpt lat="47.25787" lon="4.92909">
        <ele>585.8</ele>
        <time>2013-04-13T07:11:56.000Z</time>
      </trkpt>
      <trkpt lat="47.25792" lon="4.92909">
        <ele>585.2</ele>
        <time>2013-04-13T07:12:00.000Z</time>
      </trkpt>
      <trkpt lat="47.25793" lon="4.9291">
        <ele>585.2</ele>
        <time>2013-04-13T07:12:01.000Z</time>
      </trkpt>
      <trkpt lat="47.25797" lon="4.9291">
        <ele>584.8</ele>
        <time>2013-04-13T07:12:04.000Z</time>
      </trkpt>
      <trkpt lat="47.25799" lon="4.9291">
        <ele>584.5</ele>
        <time>2013-04-13T07:12:05.000Z</time>
      </trkpt>
      <trkpt lat="47.25802" lon="4.9291">
        <ele>584.8</ele>
        <time>2013-04-13T07:12:07.000Z</time>
      </trkpt>
      <trkpt lat="47.25803" lon="4.9291">
        <ele>584.8</ele>
        <time>2013-04-13T07:12:08.000Z</time>
      </trkpt>
      <trkpt lat="47.25806" lon="4.92909">
        <ele>584.8</ele>
        <time>2013-04-13T07:12:10.000Z</time>
      </trkpt>
      <trkpt lat="47.25808" lon="4.92909">
        <ele>584.9</ele>
        <time>2013-04-13T07:12:11.000Z</time>
      </trkpt>
      <trkpt lat="47.25811" lon="4.92909">
        <ele>584.7</ele>
        <time>2013-04-13T07:12:13.000Z</time>
      </trkpt>
      <trkpt lat="47.25813" lon="4.92909">
        <ele>585.2</ele>
        <time>2013-04-13T07:12:14.000Z</time>
      </trkpt>
      <trkpt lat="47.25816" lon="4.92909">
        <ele>585</ele>
        <time>2013-04-13T07:12:17.000Z</time>
      </trkpt>
      <trkpt lat="47.25817" lon="4.92909">
        <ele>585.3</ele>
        <time>2013-04-13T07:12:18.000Z</time>
      </trkpt>
      <trkpt lat="47.2582" lon="4.9291">
        <ele>585.1</ele>
        <time>2013-04-13T07:12:20.000Z</time>
      </trkpt>
      <trkpt lat="47.25822" lon="4.9291">
        <ele>585</ele>
        <time>2013-04-13T07:12:21.000Z</time>
      </trkpt>
      <trkpt lat="47.25826" lon="4.92911">
        <ele>584.3</ele>
        <time>2013-04-13T07:12:23.000Z</time>
      </trkpt>
      <trkpt lat="47.25828" lon="4.92911">
        <ele>584.3</ele>
        <time>2013-04-13T07:12:24.000Z</time>
      </trkpt>
      <trkpt lat="47.25831" lon="4.92912">
        <ele>583.9</ele>
        <time>2013-04-13T07:12:26.000Z</time>
      </trkpt>
      <trkpt lat="47.25832" lon="4.92912">
        <ele>583.9</ele>
        <time>2013-04-13T07:12:27.000Z</time>
      </trkpt>
      <trkpt lat="47.25836" lon="4.92912">
        <ele>584.3</ele>
        <time>2013-04-13T07:12:30.000Z</time>
      </trkpt>
      <trkpt lat="47.25837" lon="4.92912">
        <ele>584.1</ele>
        <time>2013-04-13T07:12:31.000Z</time>
      </trkpt>
      <trkpt lat="47.2584" lon="4.92911">
        <ele>584.5</ele>
        <time>2013-04-13T07:12:33.000Z</time>
      </trkpt>
      <trkpt lat="47.25842" lon="4.92911">
        <ele>585.2</ele>
        <time>2013-04-13T07:12:34.000Z</time>
      </trkpt>
      <trkpt lat="47.25845" lon="4.9291">
        <ele>584.8</ele>
        <time>2013-04-13T07:12:36.000Z</time>
      </trkpt>
      <trkpt lat="47.25847" lon="4.9291">
        <ele>585</ele>
        <time>2013-04-13T07:12:37.000Z</time>
      </trkpt>
      <trkpt lat="47.25851" lon="4.9291">
        <ele>584.2</ele>
        <time>2013-04-13T07:12:40.000Z</time>
      </trkpt>
      <trkpt lat="47.25852" lon="4.9291">
        <ele>583.6</ele>
        <time>2013-04-13T07:12:41.000Z</time>
      </trkpt>
      <trkpt lat="47.25856" lon="4.92912">
        <ele>584.2</ele>
        <time>2013-04-13T07:12:44.000Z</time>
      </trkpt>
      <trkpt lat="47.25858" lon="4.92912">
        <ele>584.1</ele>
        <time>2013-04-13T07:12:45.000Z</time>
      </trkpt>
      <trkpt lat="47.25861" lon="4.92913">
        <ele>583.3</ele>
        <time>2013-04-13T07:12:47.000Z</time>
      </trkpt>
      <trkpt lat="47.25863" lon="4.92913">
        <ele>583.3</ele>
        <time>2013-04-13T07:12:48.000Z</time>
      </trkpt>
      <trkpt lat="47.25866" lon="4.92915">
        <ele>584.1</ele>
        <time>2013-04-13T07:12:50.000Z</time>
      </trkpt>
      <trkpt lat="47.25868" lon="4.92916">
        <ele>584.4</ele>
        <time>2013-04-13T07:12:51.000Z</time>
      </trkpt>
      <trkpt lat="47.25871" lon="4.92918">
        <ele>584.2</ele>
        <time>2013-04-13T07:12:53.000Z</time>
      </trkpt>
      <trkpt lat="47.25873" lon="4.92918">
        <ele>583.7</ele>
        <time>2013-04-13T07:12:54.000Z</time>
      </trkpt>
      <trkpt lat="47.25876" lon="4.9292">
        <ele>583.1</ele>
        <time>2013-04-13T07:12:56.000Z</time>
      </trkpt>
      <trkpt lat="47.25877" lon="4.92921">
        <ele>583.1</ele>
        <time>2013-04-13T07:12:57.000Z</time>
      </trkpt>
      <trkpt lat="47.2588" lon="4.92924">
        <ele>582</ele>
        <time>2013-04-13T07:13:00.000Z</time>
      </trkpt>
      <trkpt lat="47.25882" lon="4.92925">
        <ele>582.2</ele>
        <time>2013-04-13T07:13:01.000Z</time>
      </trkpt>
      <trkpt lat="47.25885" lon="4.92927">
        <ele>583.7</ele>
        <time>2013-04-13T07:13:04.000Z</time>
      </trkpt>
      <trkpt lat="47.25886" lon="4.92928">
        <ele>583.9</ele>
        <time>2013-04-13T07:13:05.000Z</time>
      </trkpt>
      <trkpt lat="47.2589" lon="4.92931">
        <ele>584.2</ele>
        <time>2013-04-13T07:13:08.000Z</time>
      </trkpt>
      <trkpt lat="47.25891" lon="4.92932">
        <ele>583.8</ele>
        <time>2013-04-13T07:13:09.000Z</time>
      </trkpt>
      <trkpt lat="47.25895" lon="4.92935">
        <ele>583.3</ele>
        <time>2013-04-13T07:13:12.000Z</time>
      </trkpt>
      <trkpt lat="47.25896" lon="4.92936">
        <ele>583.3</ele>
        <time>2013-04-13T07:13:13.000Z</time>
      </trkpt>
      <trkpt lat="47.25899" lon="4.92939">
        <ele>583.4</ele>
        <time>2013-04-13T07:13:15.000Z</time>
      </trkpt>
      <trkpt lat="47.25901" lon="4.9294">
        <ele>583.2</ele>
        <time>2013-04-13T07:13:16.000Z</time>
      </trkpt>
      <trkpt lat="47.25904" lon="4.92943">
        <ele>582.6</ele>
        <time>2013-04-13T07:13:18.000Z</time>
      </trkpt>
      <trkpt lat="47.25905" lon="4.92945">
        <ele>582.7</ele>
        <time>2013-04-13T07:13:19.000Z</time>
      </trkpt>
      <trkpt lat="47.25908" lon="4.92948">
        <ele>583.8</ele>
        <time>2013-04-13T07:13:21.000Z</time>
      </trkpt>
      <trkpt lat="47.25909" lon="4.9295">
        <ele>583</ele>
        <time>2013-04-13T07:13:22.000Z</time>
      </trkpt>
      <trkpt lat="47.25912" lon="4.92953">
        <ele>582.3</ele>
        <time>2013-04-13T07:13:24.000Z</time>
      </trkpt>
      <trkpt lat="47.25913" lon="4.92955">
        <ele>582.3</ele>
        <time>2013-04-13T07:13:25.000Z</time>
      </trkpt>
      <trkpt lat="47.25916" lon="4.92958">
        <ele>582.6</ele>
        <time>2013-04-13T07:13:27.000Z</time>
      </trkpt>
      <trkpt lat="47.25918" lon="4.9296">
        <ele>582.8</ele>
        <time>2013-04-13T07:13:28.000Z</time>
      </trkpt>
      <trkpt lat="47.25922" lon="4.92963">
        <ele>581.9</ele>
        <time>2013-04-13T07:13:30.000Z</time>
      </trkpt>
      <trkpt lat="47.25923" lon="4.92965">
        <ele>581</ele>
        <time>2013-04-13T07:13:31.000Z</time>
      </trkpt>
      <trkpt lat="47.25926" lon="4.92968">
        <ele>580</ele>
        <time>2013-04-13T07:13:33.000Z</time>
      </trkpt>
      <trkpt lat="47.25928" lon="4.9297">
        <ele>579.4</ele>
        <time>2013-04-13T07:13:34.000Z</time>
      </trkpt>
      <trkpt lat="47.25931" lon="4.92973">
        <ele>578.8</ele>
        <time>2013-04-13T07:13:36.000Z</time>
      </trkpt>
      <trkpt lat="47.25933" lon="4.92974">
        <ele>578.5</ele>
        <time>2013-04-13T07:13:37.000Z</time>
      </trkpt>
      <trkpt lat="47.25936" lon="4.92977">
        <ele>577.9</ele>
        <time>2013-04-13T07:13:39.000Z</time>
      </trkpt>
      <trkpt lat="47.25938" lon="4.92978">
        <ele>578.2</ele>
        <time>2013-04-13T07:13:40.000Z</time>
      </trkpt>
      <trkpt lat="47.25941" lon="4.92981">
        <ele>577.7</ele>
        <time>2013-04-13T07:13:42.000Z</time>
      </trkpt>
      <trkpt lat="47.25943" lon="4.92982">
        <ele>577.9</ele>
        <time>2013-04-13T07:13:43.000Z</time>
      </trkpt>
      <trkpt lat="47.25945" lon="4.92983">
        <ele>579.2</ele>
        <time>2013-04-13T07:13:44.000Z</time>
      </trkpt>
      <trkpt lat="47.25947" lon="4.92985">
        <ele>579.1</ele>
        <time>2013-04-13T07:13:45.000Z</time>
      </trkpt>
      <trkpt lat="47.25952" lon="4.92987">
        <ele>576.8</ele>
        <time>2013-04-13T07:13:47.000Z</time>
      </trkpt>
      <trkpt lat="47.25953" lon="4.92987">
        <ele>577.9</ele>
        <time>2013-04-13T07:13:48.000Z</time>
      </trkpt>
      <trkpt lat="47.25958" lon="4.92988">
        <ele>577.9</ele>
        <time>2013-04-13T07:13:51.000Z</time>
      </trkpt>
      <trkpt lat="47.25959" lon="4.92989">
        <ele>579.4</ele>
        <time>2013-04-13T07:13:52.000Z</time>
      </trkpt>
      <trkpt lat="47.25963" lon="4.92991">
        <ele>579.7</ele>
        <time>2013-04-13T07:13:55.000Z</time>
      </trkpt>
      <trkpt lat="47.25964" lon="4.92992">
        <ele>579</ele>
        <time>2013-04-13T07:13:56.000Z</time>
      </trkpt>
      <trkpt lat="47.25967" lon="4.92995">
        <ele>579.7</ele>
        <time>2013-04-13T07:13:59.000Z</time>
      </trkpt>
      <trkpt lat="47.25969" lon="4.92996">
        <ele>580</ele>
        <time>2013-04-13T07:14:00.000Z</time>
      </trkpt>
      <trkpt lat="47.25973" lon="4.92999">
        <ele>580</ele>
        <time>2013-04-13T07:14:03.000Z</time>
      </trkpt>
      <trkpt lat="47.25974" lon="4.93">
        <ele>580.6</ele>
        <time>2013-04-13T07:14:04.000Z</time>
      </trkpt>
      <trkpt lat="47.25977" lon="4.93003">
        <ele>583.9</ele>
        <time>2013-04-13T07:14:07.000Z</time>
      </trkpt>
      <trkpt lat="47.25978" lon="4.93004">
        <ele>584.5</ele>
        <time>2013-04-13T07:14:08.000Z</time>
      </trkpt>
      <trkpt lat="47.25982" lon="4.93006">
        <ele>582.5</ele>
        <time>2013-04-13T07:14:11.000Z</time>
      </trkpt>
      <trkpt lat="47.25983" lon="4.93007">
        <ele>582.4</ele>
        <time>2013-04-13T07:14:12.000Z</time>
      </trkpt>
      <trkpt lat="47.25986" lon="4.93008">
        <ele>581.7</ele>
        <time>2013-04-13T07:14:14.000Z</time>
      </trkpt>
      <trkpt lat="47.25988" lon="4.93009">
        <ele>581.8</ele>
        <time>2013-04-13T07:14:15.000Z</time>
      </trkpt>
      <trkpt lat="47.25991" lon="4.93012">
        <ele>578.8</ele>
        <time>2013-04-13T07:14:18.000Z</time>
      </trkpt>
      <trkpt lat="47.25992" lon="4.93013">
        <ele>578</ele>
        <time>2013-04-13T07:14:19.000Z</time>
      </trkpt>
      <trkpt lat="47.25996" lon="4.93017">
        <ele>578.5</ele>
        <time>2013-04-13T07:14:22.000Z</time>
      </trkpt>
      <trkpt lat="47.25997" lon="4.93018">
        <ele>578.9</ele>
        <time>2013-04-13T07:14:23.000Z</time>
      </trkpt>
      <trkpt lat="47.26" lon="4.93022">
        <ele>575.9</ele>
        <time>2013-04-13T07:14:26.000Z</time>
      </trkpt>
      <trkpt lat="47.26001" lon="4.93023">
        <ele>576</ele>
        <time>2013-04-13T07:14:27.000Z</time>
      </trkpt>
      <trkpt lat="47.26004" lon="4.93025">
        <ele>575.2</ele>
        <time>2013-04-13T07:14:29.000Z</time>
      </trkpt>
      <trkpt lat="47.26005" lon="4.93025">
        <ele>575</ele>
        <time>2013-04-13T07:14:30.000Z</time>
      </trkpt>
      <trkpt lat="47.26008" lon="4.93028">
        <ele>574.6</ele>
        <time>2013-04-13T07:14:32.000Z</time>
      </trkpt>
      <trkpt lat="47.26009" lon="4.93029">
        <ele>574.6</ele>
        <time>2013-04-13T07:14:33.000Z</time>
      </trkpt>
      <trkpt lat="47.26012" lon="4.93032">
        <ele>575.1</ele>
        <time>2013-04-13T07:14:35.000Z</time>
      </trkpt>
      <trkpt lat="47.26013" lon="4.93033">
        <ele>575.1</ele>
        <time>2013-04-13T07:14:36.000Z</time>
      </trkpt>
      <trkpt lat="47.26016" lon="4.93037">
        <ele>573.6</ele>
        <time>2013-04-13T07:14:39.000Z</time>
      </trkpt>
      <trkpt lat="47.26017" lon="4.93038">
        <ele>573.9</ele>
        <time>2013-04-13T07:14:40.000Z</time>
      </trkpt>
      <trkpt lat="47.2602" lon="4.93041">
        <ele>573.1</ele>
        <time>2013-04-13T07:14:42.000Z</time>
      </trkpt>
      <trkpt lat="47.26022" lon="4.93043">
        <ele>572.7</ele>
        <time>2013-04-13T07:14:43.000Z</time>
      </trkpt>
      <trkpt lat="47.26025" lon="4.93046">
        <ele>571.6</ele>
        <time>2013-04-13T07:14:46.000Z</time>
      </trkpt>
      <trkpt lat="47.26026" lon="4.93047">
        <ele>571.1</ele>
        <time>2013-04-13T07:14:47.000Z</time>
      </trkpt>
      <trkpt lat="47.26029" lon="4.93049">
        <ele>573.3</ele>
        <time>2013-04-13T07:14:50.000Z</time>
      </trkpt>
      <trkpt lat="47.2603" lon="4.93049">
        <ele>573.6</ele>
        <time>2013-04-13T07:14:51.000Z</time>
      </trkpt>
      <trkpt lat="47.26033" lon="4.93051">
        <ele>571.7</ele>
        <time>2013-04-13T07:14:54.000Z</time>
      </trkpt>
      <trkpt lat="47.26034" lon="4.93052">
        <ele>571.6</ele>
        <time>2013-04-13T07:14:55.000Z</time>
      </trkpt>
      <trkpt lat="47.26038" lon="4.93054">
        <ele>572.3</ele>
        <time>2013-04-13T07:14:58.000Z</time>
      </trkpt>
      <trkpt lat="47.26039" lon="4.93055">
        <ele>572.7</ele>
        <time>2013-04-13T07:14:59.000Z</time>
      </trkpt>
      <trkpt lat="47.26043" lon="4.93059">
        <ele>571.2</ele>
        <time>2013-04-13T07:15:01.000Z</time>
      </trkpt>
      <trkpt lat="47.26045" lon="4.9306">
        <ele>571.3</ele>
        <time>2013-04-13T07:15:02.000Z</time>
      </trkpt>
      <trkpt lat="47.26048" lon="4.93063">
        <ele>570.1</ele>
        <time>2013-04-13T07:15:04.000Z</time>
      </trkpt>
      <trkpt lat="47.2605" lon="4.93064">
        <ele>570</ele>
        <time>2013-04-13T07:15:05.000Z</time>
      </trkpt>
      <trkpt lat="47.26053" lon="4.93066">
        <ele>570.5</ele>
        <time>2013-04-13T07:15:07.000Z</time>
      </trkpt>
      <trkpt lat="47.26055" lon="4.93067">
        <ele>570.2</ele>
        <time>2013-04-13T07:15:08.000Z</time>
      </trkpt>
      <trkpt lat="47.26058" lon="4.93068">
        <ele>570</ele>
        <time>2013-04-13T07:15:10.000Z</time>
      </trkpt>
      <trkpt lat="47.2606" lon="4.93069">
        <ele>569.7</ele>
        <time>2013-04-13T07:15:11.000Z</time>
      </trkpt>
      <trkpt lat="47.26063" lon="4.93072">
        <ele>569.7</ele>
        <time>2013-04-13T07:15:14.000Z</time>
      </trkpt>
      <trkpt lat="47.26065" lon="4.93073">
        <ele>571.2</ele>
        <time>2013-04-13T07:15:15.000Z</time>
      </trkpt>
      <trkpt lat="47.26068" lon="4.93076">
        <ele>572.9</ele>
        <time>2013-04-13T07:15:17.000Z</time>
      </trkpt>
      <trkpt lat="47.2607" lon="4.93077">
        <ele>570.9</ele>
        <time>2013-04-13T07:15:18.000Z</time>
      </trkpt>
      <trkpt lat="47.26073" lon="4.93079">
        <ele>572.7</ele>
        <time>2013-04-13T07:15:20.000Z</time>
      </trkpt>
      <trkpt lat="47.26074" lon="4.9308">
        <ele>572.9</ele>
        <time>2013-04-13T07:15:21.000Z</time>
      </trkpt>
      <trkpt lat="47.26076" lon="4.93082">
        <ele>572.8</ele>
        <time>2013-04-13T07:15:23.000Z</time>
      </trkpt>
      <trkpt lat="47.26078" lon="4.93083">
        <ele>572</ele>
        <time>2013-04-13T07:15:24.000Z</time>
      </trkpt>
      <trkpt lat="47.2608" lon="4.93086">
        <ele>572</ele>
        <time>2013-04-13T07:15:26.000Z</time>
      </trkpt>
      <trkpt lat="47.26081" lon="4.93088">
        <ele>571.9</ele>
        <time>2013-04-13T07:15:27.000Z</time>
      </trkpt>
      <trkpt lat="47.26084" lon="4.9309">
        <ele>572</ele>
        <time>2013-04-13T07:15:29.000Z</time>
      </trkpt>
      <trkpt lat="47.26085" lon="4.93091">
        <ele>571.9</ele>
        <time>2013-04-13T07:15:30.000Z</time>
      </trkpt>
      <trkpt lat="47.26088" lon="4.93093">
        <ele>571.7</ele>
        <time>2013-04-13T07:15:32.000Z</time>
      </trkpt>
      <trkpt lat="47.2609" lon="4.93093">
        <ele>569.6</ele>
        <time>2013-04-13T07:15:33.000Z</time>
      </trkpt>
      <trkpt lat="47.26094" lon="4.93092">
        <ele>568.8</ele>
        <time>2013-04-13T07:15:35.000Z</time>
      </trkpt>
      <trkpt lat="47.26096" lon="4.93091">
        <ele>568.5</ele>
        <time>2013-04-13T07:15:36.000Z</time>
      </trkpt>
      <trkpt lat="47.261" lon="4.93092">
        <ele>569.7</ele>
        <time>2013-04-13T07:15:38.000Z</time>
      </trkpt>
      <trkpt lat="47.26102" lon="4.93093">
        <ele>569.5</ele>
        <time>2013-04-13T07:15:39.000Z</time>
      </trkpt>
      <trkpt lat="47.26106" lon="4.93096">
        <ele>569.3</ele>
        <time>2013-04-13T07:15:41.000Z</time>
      </trkpt>
      <trkpt lat="47.26107" lon="4.93098">
        <ele>569.8</ele>
        <time>2013-04-13T07:15:42.000Z</time>
      </trkpt>
      <trkpt lat="47.2611" lon="4.931">
        <ele>571.1</ele>
        <time>2013-04-13T07:15:43.000Z</time>
      </trkpt>
      <trkpt lat="47.26112" lon="4.93102">
        <ele>571.5</ele>
        <time>2013-04-13T07:15:44.000Z</time>
      </trkpt>
      <trkpt lat="47.26114" lon="4.93105">
        <ele>572.4</ele>
        <time>2013-04-13T07:15:45.000Z</time>
      </trkpt>
      <trkpt lat="47.26116" lon="4.93107">
        <ele>572.4</ele>
        <time>2013-04-13T07:15:46.000Z</time>
      </trkpt>
      <trkpt lat="47.2612" lon="4.9311">
        <ele>571.9</ele>
        <time>2013-04-13T07:15:48.000Z</time>
      </trkpt>
      <trkpt lat="47.26121" lon="4.93112">
        <ele>571.2</ele>
        <time>2013-04-13T07:15:49.000Z</time>
      </trkpt>
      <trkpt lat="47.26125" lon="4.93115">
        <ele>573.2</ele>
        <time>2013-04-13T07:15:51.000Z</time>
      </trkpt>
      <trkpt lat="47.26127" lon="4.93116">
        <ele>573.2</ele>
        <time>2013-04-13T07:15:52.000Z</time>
      </trkpt>
      <trkpt lat="47.26131" lon="4.93118">
        <ele>574</ele>
        <time>2013-04-13T07:15:54.000Z</time>
      </trkpt>
      <trkpt lat="47.26133" lon="4.93119">
        <ele>573.3</ele>
        <time>2013-04-13T07:15:55.000Z</time>
      </trkpt>
      <trkpt lat="47.26136" lon="4.9312">
        <ele>572.8</ele>
        <time>2013-04-13T07:15:57.000Z</time>
      </trkpt>
      <trkpt lat="47.26138" lon="4.93121">
        <ele>573</ele>
        <time>2013-04-13T07:15:58.000Z</time>
      </trkpt>
      <trkpt lat="47.26142" lon="4.93122">
        <ele>572.5</ele>
        <time>2013-04-13T07:16:00.000Z</time>
      </trkpt>
      <trkpt lat="47.26143" lon="4.93123">
        <ele>572.6</ele>
        <time>2013-04-13T07:16:01.000Z</time>
      </trkpt>
      <trkpt lat="47.26147" lon="4.93124">
        <ele>572.5</ele>
        <time>2013-04-13T07:16:03.000Z</time>
      </trkpt>
      <trkpt lat="47.26149" lon="4.93124">
        <ele>572.6</ele>
        <time>2013-04-13T07:16:04.000Z</time>
      </trkpt>
      <trkpt lat="47.26152" lon="4.93125">
        <ele>572.3</ele>
        <time>2013-04-13T07:16:06.000Z</time>
      </trkpt>
      <trkpt lat="47.26154" lon="4.93125">
        <ele>571.6</ele>
        <time>2013-04-13T07:16:07.000Z</time>
      </trkpt>
      <trkpt lat="47.26158" lon="4.93127">
        <ele>569.4</ele>
        <time>2013-04-13T07:16:09.000Z</time>
      </trkpt>
      <trkpt lat="47.2616" lon="4.93127">
        <ele>569.1</ele>
        <time>2013-04-13T07:16:10.000Z</time>
      </trkpt>
      <trkpt lat="47.26163" lon="4.93128">
        <ele>567.9</ele>
        <time>2013-04-13T07:16:12.000Z</time>
      </trkpt>
      <trkpt lat="47.26165" lon="4.93129">
        <ele>567.6</ele>
        <time>2013-04-13T07:16:13.000Z</time>
      </trkpt>
      <trkpt lat="47.26168" lon="4.9313">
        <ele>566.8</ele>
        <time>2013-04-13T07:16:15.000Z</time>
      </trkpt>
      <trkpt lat="47.2617" lon="4.9313">
        <ele>566.7</ele>
        <time>2013-04-13T07:16:16.000Z</time>
      </trkpt>
      <trkpt lat="47.26173" lon="4.93131">
        <ele>566.3</ele>
        <time>2013-04-13T07:16:18.000Z</time>
      </trkpt>
      <trkpt lat="47.26175" lon="4.93131">
        <ele>566.6</ele>
        <time>2013-04-13T07:16:19.000Z</time>
      </trkpt>
      <trkpt lat="47.26179" lon="4.93133">
        <ele>566</ele>
        <time>2013-04-13T07:16:22.000Z</time>
      </trkpt>
      <trkpt lat="47.2618" lon="4.93133">
        <ele>565.3</ele>
        <time>2013-04-13T07:16:23.000Z</time>
      </trkpt>
      <trkpt lat="47.26183" lon="4.93135">
        <ele>565</ele>
        <time>2013-04-13T07:16:25.000Z</time>
      </trkpt>
      <trkpt lat="47.26185" lon="4.93135">
        <ele>565.3</ele>
        <time>2013-04-13T07:16:26.000Z</time>
      </trkpt>
      <trkpt lat="47.26188" lon="4.93137">
        <ele>564.7</ele>
        <time>2013-04-13T07:16:28.000Z</time>
      </trkpt>
      <trkpt lat="47.2619" lon="4.93137">
        <ele>564.4</ele>
        <time>2013-04-13T07:16:29.000Z</time>
      </trkpt>
      <trkpt lat="47.26193" lon="4.93138">
        <ele>564.5</ele>
        <time>2013-04-13T07:16:31.000Z</time>
      </trkpt>
      <trkpt lat="47.26195" lon="4.93139">
        <ele>565.4</ele>
        <time>2013-04-13T07:16:32.000Z</time>
      </trkpt>
      <trkpt lat="47.26198" lon="4.93139">
        <ele>565.8</ele>
        <time>2013-04-13T07:16:34.000Z</time>
      </trkpt>
      <trkpt lat="47.262" lon="4.93139">
        <ele>565.7</ele>
        <time>2013-04-13T07:16:35.000Z</time>
      </trkpt>
      <trkpt lat="47.26203" lon="4.93139">
        <ele>566.3</ele>
        <time>2013-04-13T07:16:37.000Z</time>
      </trkpt>
      <trkpt lat="47.26205" lon="4.93139">
        <ele>566.1</ele>
        <time>2013-04-13T07:16:38.000Z</time>
      </trkpt>
      <trkpt lat="47.26208" lon="4.9314">
        <ele>565.8</ele>
        <time>2013-04-13T07:16:40.000Z</time>
      </trkpt>
      <trkpt lat="47.2621" lon="4.9314">
        <ele>565.6</ele>
        <time>2013-04-13T07:16:41.000Z</time>
      </trkpt>
      <trkpt lat="47.26212" lon="4.93141">
        <ele>565.6</ele>
        <time>2013-04-13T07:16:43.000Z</time>
      </trkpt>
      <trkpt lat="47.26214" lon="4.93142">
        <ele>566.3</ele>
        <time>2013-04-13T07:16:44.000Z</time>
      </trkpt>
      <trkpt lat="47.26217" lon="4.93142">
        <ele>566.2</ele>
        <time>2013-04-13T07:16:46.000Z</time>
      </trkpt>
      <trkpt lat="47.26219" lon="4.93143">
        <ele>566.1</ele>
        <time>2013-04-13T07:16:47.000Z</time>
      </trkpt>
      <trkpt lat="47.26222" lon="4.93144">
        <ele>565.9</ele>
        <time>2013-04-13T07:16:49.000Z</time>
      </trkpt>
      <trkpt lat="47.26223" lon="4.93144">
        <ele>565.5</ele>
        <time>2013-04-13T07:16:50.000Z</time>
      </trkpt>
      <trkpt lat="47.26227" lon="4.93144">
        <ele>565.9</ele>
        <time>2013-04-13T07:16:52.000Z</time>
      </trkpt>
      <trkpt lat="47.26228" lon="4.93145">
        <ele>566</ele>
        <time>2013-04-13T07:16:53.000Z</time>
      </trkpt>
      <trkpt lat="47.26231" lon="4.93147">
        <ele>564.1</ele>
        <time>2013-04-13T07:16:55.000Z</time>
      </trkpt>
      <trkpt lat="47.26233" lon="4.93148">
        <ele>564.1</ele>
        <time>2013-04-13T07:16:56.000Z</time>
      </trkpt>
      <trkpt lat="47.26236" lon="4.93148">
        <ele>562.3</ele>
        <time>2013-04-13T07:16:59.000Z</time>
      </trkpt>
      <trkpt lat="47.26237" lon="4.93148">
        <ele>562</ele>
        <time>2013-04-13T07:17:00.000Z</time>
      </trkpt>
      <trkpt lat="47.26241" lon="4.93148">
        <ele>561.3</ele>
        <time>2013-04-13T07:17:03.000Z</time>
      </trkpt>
      <trkpt lat="47.26242" lon="4.93149">
        <ele>562.4</ele>
        <time>2013-04-13T07:17:04.000Z</time>
      </trkpt>
      <trkpt lat="47.26246" lon="4.9315">
        <ele>562.4</ele>
        <time>2013-04-13T07:17:06.000Z</time>
      </trkpt>
      <trkpt lat="47.26248" lon="4.93151">
        <ele>562.7</ele>
        <time>2013-04-13T07:17:07.000Z</time>
      </trkpt>
      <trkpt lat="47.26252" lon="4.93152">
        <ele>562.8</ele>
        <time>2013-04-13T07:17:09.000Z</time>
      </trkpt>
      <trkpt lat="47.26253" lon="4.93152">
        <ele>562.8</ele>
        <time>2013-04-13T07:17:10.000Z</time>
      </trkpt>
      <trkpt lat="47.26256" lon="4.93153">
        <ele>562.4</ele>
        <time>2013-04-13T07:17:12.000Z</time>
      </trkpt>
      <trkpt lat="47.26258" lon="4.93153">
        <ele>563.9</ele>
        <time>2013-04-13T07:17:13.000Z</time>
      </trkpt>
      <trkpt lat="47.26263" lon="4.93154">
        <ele>563.2</ele>
        <time>2013-04-13T07:17:15.000Z</time>
      </trkpt>
      <trkpt lat="47.26264" lon="4.93154">
        <ele>562.7</ele>
        <time>2013-04-13T07:17:16.000Z</time>
      </trkpt>
      <trkpt lat="47.26267" lon="4.93154">
        <ele>564.5</ele>
        <time>2013-04-13T07:17:18.000Z</time>
      </trkpt>
      <trkpt lat="47.26269" lon="4.93155">
        <ele>563.3</ele>
        <time>2013-04-13T07:17:19.000Z</time>
      </trkpt>
      <trkpt lat="47.26273" lon="4.93156">
        <ele>561.9</ele>
        <time>2013-04-13T07:17:22.000Z</time>
      </trkpt>
      <trkpt lat="47.26274" lon="4.93156">
        <ele>561.7</ele>
        <time>2013-04-13T07:17:23.000Z</time>
      </trkpt>
      <trkpt lat="47.26279" lon="4.93158">
        <ele>562.4</ele>
        <time>2013-04-13T07:17:26.000Z</time>
      </trkpt>
      <trkpt lat="47.2628" lon="4.93158">
        <ele>561.5</ele>
        <time>2013-04-13T07:17:27.000Z</time>
      </trkpt>
      <trkpt lat="47.26284" lon="4.93158">
        <ele>561.3</ele>
        <time>2013-04-13T07:17:29.000Z</time>
      </trkpt>
      <trkpt lat="47.26286" lon="4.93159">
        <ele>561</ele>
        <time>2013-04-13T07:17:30.000Z</time>
      </trkpt>
      <trkpt lat="47.2629" lon="4.93161">
        <ele>558.5</ele>
        <time>2013-04-13T07:17:33.000Z</time>
      </trkpt>
      <trkpt lat="47.26292" lon="4.93161">
        <ele>556.8</ele>
        <time>2013-04-13T07:17:34.000Z</time>
      </trkpt>
      <trkpt lat="47.26294" lon="4.93162">
        <ele>557.1</ele>
        <time>2013-04-13T07:17:35.000Z</time>
      </trkpt>
      <trkpt lat="47.26296" lon="4.93163">
        <ele>557.9</ele>
        <time>2013-04-13T07:17:36.000Z</time>
      </trkpt>
      <trkpt lat="47.263" lon="4.93165">
        <ele>558.5</ele>
        <time>2013-04-13T07:17:37.999Z</time>
      </trkpt>
      <trkpt lat="47.26301" lon="4.93167">
        <ele>559</ele>
        <time>2013-04-13T07:17:39.000Z</time>
      </trkpt>
      <trkpt lat="47.26305" lon="4.93166">
        <ele>561</ele>
        <time>2013-04-13T07:17:42.000Z</time>
      </trkpt>
      <trkpt lat="47.26307" lon="4.93166">
        <ele>560.3</ele>
        <time>2013-04-13T07:17:43.000Z</time>
      </trkpt>
      <trkpt lat="47.26311" lon="4.93166">
        <ele>559.8</ele>
        <time>2013-04-13T07:17:45.000Z</time>
      </trkpt>
      <trkpt lat="47.26313" lon="4.93167">
        <ele>561.3</ele>
        <time>2013-04-13T07:17:46.000Z</time>
      </trkpt>
      <trkpt lat="47.26317" lon="4.93168">
        <ele>564.7</ele>
        <time>2013-04-13T07:17:48.000Z</time>
      </trkpt>
      <trkpt lat="47.26319" lon="4.93168">
        <ele>564.3</ele>
        <time>2013-04-13T07:17:49.000Z</time>
      </trkpt>
      <trkpt lat="47.26323" lon="4.9317">
        <ele>564.7</ele>
        <time>2013-04-13T07:17:51.000Z</time>
      </trkpt>
      <trkpt lat="47.26325" lon="4.9317">
        <ele>564.5</ele>
        <time>2013-04-13T07:17:52.000Z</time>
      </trkpt>
      <trkpt lat="47.26328" lon="4.93172">
        <ele>564.5</ele>
        <time>2013-04-13T07:17:54.000Z</time>
      </trkpt>
      <trkpt lat="47.26329" lon="4.93173">
        <ele>561.2</ele>
        <time>2013-04-13T07:17:54.999Z</time>
      </trkpt>
      <trkpt lat="47.26332" lon="4.93176">
        <ele>561.4</ele>
        <time>2013-04-13T07:17:59.000Z</time>
      </trkpt>
      <trkpt lat="47.26334" lon="4.93177">
        <ele>561.8</ele>
        <time>2013-04-13T07:17:59.999Z</time>
      </trkpt>
      <trkpt lat="47.26338" lon="4.93178">
        <ele>561.9</ele>
        <time>2013-04-13T07:18:02.000Z</time>
      </trkpt>
      <trkpt lat="47.26339" lon="4.93178">
        <ele>561</ele>
        <time>2013-04-13T07:18:02.999Z</time>
      </trkpt>
      <trkpt lat="47.26342" lon="4.93181">
        <ele>561.6</ele>
        <time>2013-04-13T07:18:08.000Z</time>
      </trkpt>
      <trkpt lat="47.26344" lon="4.93181">
        <ele>564.2</ele>
        <time>2013-04-13T07:18:09.000Z</time>
      </trkpt>
      <trkpt lat="47.26347" lon="4.93181">
        <ele>564.3</ele>
        <time>2013-04-13T07:18:11.000Z</time>
      </trkpt>
      <trkpt lat="47.26349" lon="4.93181">
        <ele>564.5</ele>
        <time>2013-04-13T07:18:12.000Z</time>
      </trkpt>
      <trkpt lat="47.26353" lon="4.93182">
        <ele>563.7</ele>
        <time>2013-04-13T07:18:14.000Z</time>
      </trkpt>
      <trkpt lat="47.26355" lon="4.93182">
        <ele>563.2</ele>
        <time>2013-04-13T07:18:15.000Z</time>
      </trkpt>
      <trkpt lat="47.26359" lon="4.93183">
        <ele>562.8</ele>
        <time>2013-04-13T07:18:17.000Z</time>
      </trkpt>
      <trkpt lat="47.2636" lon="4.93184">
        <ele>561.8</ele>
        <time>2013-04-13T07:18:18.000Z</time>
      </trkpt>
      <trkpt lat="47.26363" lon="4.93184">
        <ele>561.1</ele>
        <time>2013-04-13T07:18:20.000Z</time>
      </trkpt>
      <trkpt lat="47.26365" lon="4.93185">
        <ele>562.1</ele>
        <time>2013-04-13T07:18:21.000Z</time>
      </trkpt>
      <trkpt lat="47.26368" lon="4.93186">
        <ele>563.3</ele>
        <time>2013-04-13T07:18:23.000Z</time>
      </trkpt>
      <trkpt lat="47.2637" lon="4.93187">
        <ele>563.9</ele>
        <time>2013-04-13T07:18:24.000Z</time>
      </trkpt>
      <trkpt lat="47.26373" lon="4.93189">
        <ele>564.6</ele>
        <time>2013-04-13T07:18:26.000Z</time>
      </trkpt>
      <trkpt lat="47.26374" lon="4.9319">
        <ele>565</ele>
        <time>2013-04-13T07:18:27.000Z</time>
      </trkpt>
      <trkpt lat="47.26377" lon="4.93193">
        <ele>566.4</ele>
        <time>2013-04-13T07:18:29.000Z</time>
      </trkpt>
      <trkpt lat="47.26379" lon="4.93194">
        <ele>566.3</ele>
        <time>2013-04-13T07:18:30.000Z</time>
      </trkpt>
      <trkpt lat="47.26382" lon="4.93197">
        <ele>566.4</ele>
        <time>2013-04-13T07:18:32.000Z</time>
      </trkpt>
      <trkpt lat="47.26383" lon="4.93198">
        <ele>566.2</ele>
        <time>2013-04-13T07:18:33.000Z</time>
      </trkpt>
      <trkpt lat="47.26385" lon="4.93201">
        <ele>567.9</ele>
        <time>2013-04-13T07:18:35.000Z</time>
      </trkpt>
      <trkpt lat="47.26386" lon="4.93203">
        <ele>566.8</ele>
        <time>2013-04-13T07:18:36.000Z</time>
      </trkpt>
      <trkpt lat="47.26389" lon="4.93206">
        <ele>568</ele>
        <time>2013-04-13T07:18:38.000Z</time>
      </trkpt>
      <trkpt lat="47.2639" lon="4.93207">
        <ele>569.6</ele>
        <time>2013-04-13T07:18:39.000Z</time>
      </trkpt>
      <trkpt lat="47.26393" lon="4.9321">
        <ele>570.6</ele>
        <time>2013-04-13T07:18:41.000Z</time>
      </trkpt>
      <trkpt lat="47.26395" lon="4.93211">
        <ele>571</ele>
        <time>2013-04-13T07:18:42.000Z</time>
      </trkpt>
      <trkpt lat="47.26399" lon="4.93215">
        <ele>571.6</ele>
        <time>2013-04-13T07:18:45.000Z</time>
      </trkpt>
      <trkpt lat="47.264" lon="4.93216">
        <ele>572.3</ele>
        <time>2013-04-13T07:18:46.000Z</time>
      </trkpt>
      <trkpt lat="47.26403" lon="4.93218">
        <ele>572.8</ele>
        <time>2013-04-13T07:18:48.000Z</time>
      </trkpt>
      <trkpt lat="47.26404" lon="4.93219">
        <ele>572.7</ele>
        <time>2013-04-13T07:18:49.000Z</time>
      </trkpt>
      <trkpt lat="47.26407" lon="4.93223">
        <ele>572.1</ele>
        <time>2013-04-13T07:18:52.000Z</time>
      </trkpt>
      <trkpt lat="47.26408" lon="4.93224">
        <ele>570.2</ele>
        <time>2013-04-13T07:18:53.000Z</time>
      </trkpt>
      <trkpt lat="47.2641" lon="4.93227">
        <ele>572.4</ele>
        <time>2013-04-13T07:18:56.000Z</time>
      </trkpt>
      <trkpt lat="47.26411" lon="4.93228">
        <ele>572.6</ele>
        <time>2013-04-13T07:18:57.000Z</time>
      </trkpt>
      <trkpt lat="47.26415" lon="4.93232">
        <ele>572.9</ele>
        <time>2013-04-13T07:19:00.000Z</time>
      </trkpt>
      <trkpt lat="47.26416" lon="4.93234">
        <ele>572.8</ele>
        <time>2013-04-13T07:19:01.000Z</time>
      </trkpt>
      <trkpt lat="47.26419" lon="4.93238">
        <ele>572.2</ele>
        <time>2013-04-13T07:19:04.000Z</time>
      </trkpt>
      <trkpt lat="47.2642" lon="4.9324">
        <ele>572.7</ele>
        <time>2013-04-13T07:19:05.000Z</time>
      </trkpt>
      <trkpt lat="47.26423" lon="4.93245">
        <ele>571.3</ele>
        <time>2013-04-13T07:19:08.000Z</time>
      </trkpt>
      <trkpt lat="47.26424" lon="4.93246">
        <ele>570.8</ele>
        <time>2013-04-13T07:19:09.000Z</time>
      </trkpt>
      <trkpt lat="47.26427" lon="4.9325">
        <ele>569.7</ele>
        <time>2013-04-13T07:19:12.000Z</time>
      </trkpt>
      <trkpt lat="47.26428" lon="4.93251">
        <ele>569.6</ele>
        <time>2013-04-13T07:19:13.000Z</time>
      </trkpt>
      <trkpt lat="47.26431" lon="4.93254">
        <ele>569.3</ele>
        <time>2013-04-13T07:19:15.000Z</time>
      </trkpt>
      <trkpt lat="47.26432" lon="4.93255">
        <ele>569.9</ele>
        <time>2013-04-13T07:19:16.000Z</time>
      </trkpt>
      <trkpt lat="47.26436" lon="4.93257">
        <ele>570.1</ele>
        <time>2013-04-13T07:19:18.000Z</time>
      </trkpt>
      <trkpt lat="47.26437" lon="4.93258">
        <ele>569.9</ele>
        <time>2013-04-13T07:19:19.000Z</time>
      </trkpt>
      <trkpt lat="47.26441" lon="4.9326">
        <ele>570</ele>
        <time>2013-04-13T07:19:22.000Z</time>
      </trkpt>
      <trkpt lat="47.26442" lon="4.93261">
        <ele>568.5</ele>
        <time>2013-04-13T07:19:23.000Z</time>
      </trkpt>
      <trkpt lat="47.26444" lon="4.93266">
        <ele>568.5</ele>
        <time>2013-04-13T07:19:26.000Z</time>
      </trkpt>
      <trkpt lat="47.26446" lon="4.93267">
        <ele>568</ele>
        <time>2013-04-13T07:19:27.000Z</time>
      </trkpt>
      <trkpt lat="47.26448" lon="4.9327">
        <ele>566.3</ele>
        <time>2013-04-13T07:19:30.000Z</time>
      </trkpt>
      <trkpt lat="47.26449" lon="4.93272">
        <ele>566.3</ele>
        <time>2013-04-13T07:19:31.000Z</time>
      </trkpt>
      <trkpt lat="47.26451" lon="4.93275">
        <ele>566.7</ele>
        <time>2013-04-13T07:19:33.000Z</time>
      </trkpt>
      <trkpt lat="47.26452" lon="4.93276">
        <ele>566.5</ele>
        <time>2013-04-13T07:19:34.000Z</time>
      </trkpt>
      <trkpt lat="47.26454" lon="4.93279">
        <ele>566.6</ele>
        <time>2013-04-13T07:19:36.000Z</time>
      </trkpt>
      <trkpt lat="47.26455" lon="4.93281">
        <ele>566.7</ele>
        <time>2013-04-13T07:19:37.000Z</time>
      </trkpt>
      <trkpt lat="47.26458" lon="4.93285">
        <ele>567.8</ele>
        <time>2013-04-13T07:19:39.000Z</time>
      </trkpt>
      <trkpt lat="47.26459" lon="4.93287">
        <ele>567.6</ele>
        <time>2013-04-13T07:19:40.000Z</time>
      </trkpt>
      <trkpt lat="47.26462" lon="4.93291">
        <ele>567.7</ele>
        <time>2013-04-13T07:19:42.000Z</time>
      </trkpt>
      <trkpt lat="47.26463" lon="4.93292">
        <ele>568.5</ele>
        <time>2013-04-13T07:19:43.000Z</time>
      </trkpt>
      <trkpt lat="47.26467" lon="4.93296">
        <ele>569.6</ele>
        <time>2013-04-13T07:19:45.000Z</time>
      </trkpt>
      <trkpt lat="47.26468" lon="4.93297">
        <ele>569.8</ele>
        <time>2013-04-13T07:19:46.000Z</time>
      </trkpt>
      <trkpt lat="47.26471" lon="4.933">
        <ele>569.9</ele>
        <time>2013-04-13T07:19:48.000Z</time>
      </trkpt>
      <trkpt lat="47.26473" lon="4.93302">
        <ele>569.5</ele>
        <time>2013-04-13T07:19:49.000Z</time>
      </trkpt>
      <trkpt lat="47.26475" lon="4.93304">
        <ele>570.7</ele>
        <time>2013-04-13T07:19:51.000Z</time>
      </trkpt>
      <trkpt lat="47.26476" lon="4.93306">
        <ele>570.6</ele>
        <time>2013-04-13T07:19:52.000Z</time>
      </trkpt>
      <trkpt lat="47.26479" lon="4.93309">
        <ele>569</ele>
        <time>2013-04-13T07:19:54.000Z</time>
      </trkpt>
      <trkpt lat="47.2648" lon="4.9331">
        <ele>568.4</ele>
        <time>2013-04-13T07:19:55.000Z</time>
      </trkpt>
      <trkpt lat="47.26483" lon="4.93312">
        <ele>568</ele>
        <time>2013-04-13T07:19:57.000Z</time>
      </trkpt>
      <trkpt lat="47.26484" lon="4.93313">
        <ele>567.9</ele>
        <time>2013-04-13T07:19:58.000Z</time>
      </trkpt>
      <trkpt lat="47.26487" lon="4.93317">
        <ele>564.5</ele>
        <time>2013-04-13T07:20:02.000Z</time>
      </trkpt>
      <trkpt lat="47.26487" lon="4.93318">
        <ele>565.1</ele>
        <time>2013-04-13T07:20:03.000Z</time>
      </trkpt>
      <trkpt lat="47.2649" lon="4.93322">
        <ele>564</ele>
        <time>2013-04-13T07:20:05.000Z</time>
      </trkpt>
      <trkpt lat="47.26491" lon="4.93323">
        <ele>563.4</ele>
        <time>2013-04-13T07:20:06.000Z</time>
      </trkpt>
      <trkpt lat="47.26494" lon="4.93326">
        <ele>561.5</ele>
        <time>2013-04-13T07:20:09.000Z</time>
      </trkpt>
      <trkpt lat="47.26495" lon="4.93328">
        <ele>560.5</ele>
        <time>2013-04-13T07:20:10.000Z</time>
      </trkpt>
      <trkpt lat="47.26499" lon="4.93329">
        <ele>558.4</ele>
        <time>2013-04-13T07:20:13.000Z</time>
      </trkpt>
      <trkpt lat="47.265" lon="4.93329">
        <ele>553.4</ele>
        <time>2013-04-13T07:20:14.000Z</time>
      </trkpt>
      <trkpt lat="47.26503" lon="4.93331">
        <ele>554.2</ele>
        <time>2013-04-13T07:20:16.000Z</time>
      </trkpt>
      <trkpt lat="47.26504" lon="4.93332">
        <ele>554</ele>
        <time>2013-04-13T07:20:17.000Z</time>
      </trkpt>
      <trkpt lat="47.26507" lon="4.93335">
        <ele>554.3</ele>
        <time>2013-04-13T07:20:19.000Z</time>
      </trkpt>
      <trkpt lat="47.26509" lon="4.93336">
        <ele>554.4</ele>
        <time>2013-04-13T07:20:20.000Z</time>
      </trkpt>
      <trkpt lat="47.26512" lon="4.9334">
        <ele>556.4</ele>
        <time>2013-04-13T07:20:22.000Z</time>
      </trkpt>
      <trkpt lat="47.26514" lon="4.93342">
        <ele>554.8</ele>
        <time>2013-04-13T07:20:23.000Z</time>
      </trkpt>
      <trkpt lat="47.26516" lon="4.93344">
        <ele>554.2</ele>
        <time>2013-04-13T07:20:24.000Z</time>
      </trkpt>
      <trkpt lat="47.26518" lon="4.93346">
        <ele>554</ele>
        <time>2013-04-13T07:20:25.000Z</time>
      </trkpt>
      <trkpt lat="47.2652" lon="4.93347">
        <ele>555.9</ele>
        <time>2013-04-13T07:20:26.000Z</time>
      </trkpt>
      <trkpt lat="47.26522" lon="4.93349">
        <ele>556.7</ele>
        <time>2013-04-13T07:20:27.000Z</time>
      </trkpt>
      <trkpt lat="47.26524" lon="4.93351">
        <ele>557.1</ele>
        <time>2013-04-13T07:20:28.000Z</time>
      </trkpt>
      <trkpt lat="47.26526" lon="4.93353">
        <ele>557.4</ele>
        <time>2013-04-13T07:20:29.000Z</time>
      </trkpt>
      <trkpt lat="47.26529" lon="4.93357">
        <ele>557</ele>
        <time>2013-04-13T07:20:31.000Z</time>
      </trkpt>
      <trkpt lat="47.2653" lon="4.93359">
        <ele>557.4</ele>
        <time>2013-04-13T07:20:32.000Z</time>
      </trkpt>
      <trkpt lat="47.26533" lon="4.93361">
        <ele>557.7</ele>
        <time>2013-04-13T07:20:34.000Z</time>
      </trkpt>
      <trkpt lat="47.26534" lon="4.93363">
        <ele>558.3</ele>
        <time>2013-04-13T07:20:35.000Z</time>
      </trkpt>
      <trkpt lat="47.26536" lon="4.93366">
        <ele>559.2</ele>
        <time>2013-04-13T07:20:37.000Z</time>
      </trkpt>
      <trkpt lat="47.26537" lon="4.93368">
        <ele>556.5</ele>
        <time>2013-04-13T07:20:38.000Z</time>
      </trkpt>
      <trkpt lat="47.2654" lon="4.93373">
        <ele>555.4</ele>
        <time>2013-04-13T07:20:41.000Z</time>
      </trkpt>
      <trkpt lat="47.26541" lon="4.93375">
        <ele>554.8</ele>
        <time>2013-04-13T07:20:42.000Z</time>
      </trkpt>
      <trkpt lat="47.26544" lon="4.93379">
        <ele>553.3</ele>
        <time>2013-04-13T07:20:45.000Z</time>
      </trkpt>
      <trkpt lat="47.26545" lon="4.9338">
        <ele>553.7</ele>
        <time>2013-04-13T07:20:46.000Z</time>
      </trkpt>
      <trkpt lat="47.26547" lon="4.93384">
        <ele>553.8</ele>
        <time>2013-04-13T07:20:48.000Z</time>
      </trkpt>
      <trkpt lat="47.26548" lon="4.93385">
        <ele>554.3</ele>
        <time>2013-04-13T07:20:49.000Z</time>
      </trkpt>
      <trkpt lat="47.26551" lon="4.93388">
        <ele>553.7</ele>
        <time>2013-04-13T07:20:51.000Z</time>
      </trkpt>
      <trkpt lat="47.26553" lon="4.9339">
        <ele>553.7</ele>
        <time>2013-04-13T07:20:52.000Z</time>
      </trkpt>
      <trkpt lat="47.26555" lon="4.93394">
        <ele>553.8</ele>
        <time>2013-04-13T07:20:54.000Z</time>
      </trkpt>
      <trkpt lat="47.26556" lon="4.93396">
        <ele>554.6</ele>
        <time>2013-04-13T07:20:55.000Z</time>
      </trkpt>
      <trkpt lat="47.2656" lon="4.93399">
        <ele>554.1</ele>
        <time>2013-04-13T07:20:57.000Z</time>
      </trkpt>
      <trkpt lat="47.26561" lon="4.934">
        <ele>555.2</ele>
        <time>2013-04-13T07:20:58.000Z</time>
      </trkpt>
      <trkpt lat="47.26564" lon="4.93403">
        <ele>554.5</ele>
        <time>2013-04-13T07:21:00.000Z</time>
      </trkpt>
      <trkpt lat="47.26565" lon="4.93404">
        <ele>552.5</ele>
        <time>2013-04-13T07:21:01.000Z</time>
      </trkpt>
      <trkpt lat="47.26568" lon="4.93408">
        <ele>552.9</ele>
        <time>2013-04-13T07:21:04.000Z</time>
      </trkpt>
      <trkpt lat="47.26569" lon="4.9341">
        <ele>552.7</ele>
        <time>2013-04-13T07:21:05.000Z</time>
      </trkpt>
      <trkpt lat="47.26572" lon="4.93413">
        <ele>551.8</ele>
        <time>2013-04-13T07:21:07.000Z</time>
      </trkpt>
      <trkpt lat="47.26574" lon="4.93413">
        <ele>551.7</ele>
        <time>2013-04-13T07:21:08.000Z</time>
      </trkpt>
      <trkpt lat="47.26577" lon="4.93414">
        <ele>551.7</ele>
        <time>2013-04-13T07:21:10.000Z</time>
      </trkpt>
      <trkpt lat="47.26579" lon="4.93415">
        <ele>552.4</ele>
        <time>2013-04-13T07:21:11.000Z</time>
      </trkpt>
      <trkpt lat="47.26582" lon="4.93418">
        <ele>553.7</ele>
        <time>2013-04-13T07:21:13.000Z</time>
      </trkpt>
      <trkpt lat="47.26584" lon="4.9342">
        <ele>552.3</ele>
        <time>2013-04-13T07:21:14.000Z</time>
      </trkpt>
      <trkpt lat="47.26586" lon="4.93423">
        <ele>552.4</ele>
        <time>2013-04-13T07:21:16.000Z</time>
      </trkpt>
      <trkpt lat="47.26588" lon="4.93425">
        <ele>552.2</ele>
        <time>2013-04-13T07:21:17.000Z</time>
      </trkpt>
      <trkpt lat="47.2659" lon="4.93428">
        <ele>552.4</ele>
        <time>2013-04-13T07:21:19.000Z</time>
      </trkpt>
      <trkpt lat="47.26591" lon="4.93429">
        <ele>552.5</ele>
        <time>2013-04-13T07:21:20.000Z</time>
      </trkpt>
      <trkpt lat="47.26593" lon="4.93433">
        <ele>551.1</ele>
        <time>2013-04-13T07:21:22.000Z</time>
      </trkpt>
      <trkpt lat="47.26594" lon="4.93435">
        <ele>551.1</ele>
        <time>2013-04-13T07:21:23.000Z</time>
      </trkpt>
      <trkpt lat="47.26597" lon="4.93438">
        <ele>550.4</ele>
        <time>2013-04-13T07:21:25.000Z</time>
      </trkpt>
      <trkpt lat="47.26598" lon="4.93439">
        <ele>550.5</ele>
        <time>2013-04-13T07:21:26.000Z</time>
      </trkpt>
      <trkpt lat="47.26602" lon="4.9344">
        <ele>550.8</ele>
        <time>2013-04-13T07:21:28.000Z</time>
      </trkpt>
      <trkpt lat="47.26603" lon="4.93441">
        <ele>550.6</ele>
        <time>2013-04-13T07:21:29.000Z</time>
      </trkpt>
      <trkpt lat="47.26606" lon="4.93444">
        <ele>550.7</ele>
        <time>2013-04-13T07:21:31.000Z</time>
      </trkpt>
      <trkpt lat="47.26608" lon="4.93446">
        <ele>550.6</ele>
        <time>2013-04-13T07:21:32.000Z</time>
      </trkpt>
      <trkpt lat="47.26611" lon="4.93449">
        <ele>550.7</ele>
        <time>2013-04-13T07:21:34.000Z</time>
      </trkpt>
      <trkpt lat="47.26612" lon="4.9345">
        <ele>550.6</ele>
        <time>2013-04-13T07:21:35.000Z</time>
      </trkpt>
      <trkpt lat="47.26615" lon="4.93453">
        <ele>550.7</ele>
        <time>2013-04-13T07:21:37.000Z</time>
      </trkpt>
      <trkpt lat="47.26617" lon="4.93454">
        <ele>551.2</ele>
        <time>2013-04-13T07:21:38.000Z</time>
      </trkpt>
      <trkpt lat="47.2662" lon="4.93458">
        <ele>551.9</ele>
        <time>2013-04-13T07:21:40.000Z</time>
      </trkpt>
      <trkpt lat="47.26621" lon="4.9346">
        <ele>551.3</ele>
        <time>2013-04-13T07:21:41.000Z</time>
      </trkpt>
      <trkpt lat="47.26623" lon="4.93464">
        <ele>551.6</ele>
        <time>2013-04-13T07:21:43.000Z</time>
      </trkpt>
      <trkpt lat="47.26624" lon="4.93467">
        <ele>551.8</ele>
        <time>2013-04-13T07:21:44.000Z</time>
      </trkpt>
      <trkpt lat="47.26625" lon="4.93471">
        <ele>552.5</ele>
        <time>2013-04-13T07:21:46.000Z</time>
      </trkpt>
      <trkpt lat="47.26626" lon="4.93473">
        <ele>552.8</ele>
        <time>2013-04-13T07:21:47.000Z</time>
      </trkpt>
      <trkpt lat="47.26629" lon="4.93476">
        <ele>553.9</ele>
        <time>2013-04-13T07:21:49.000Z</time>
      </trkpt>
      <trkpt lat="47.2663" lon="4.93478">
        <ele>554.1</ele>
        <time>2013-04-13T07:21:50.000Z</time>
      </trkpt>
      <trkpt lat="47.26633" lon="4.9348">
        <ele>553.4</ele>
        <time>2013-04-13T07:21:52.000Z</time>
      </trkpt>
      <trkpt lat="47.26634" lon="4.93481">
        <ele>552.3</ele>
        <time>2013-04-13T07:21:53.000Z</time>
      </trkpt>
      <trkpt lat="47.26637" lon="4.93483">
        <ele>555.1</ele>
        <time>2013-04-13T07:21:55.000Z</time>
      </trkpt>
      <trkpt lat="47.26639" lon="4.93484">
        <ele>555.3</ele>
        <time>2013-04-13T07:21:56.000Z</time>
      </trkpt>
      <trkpt lat="47.26642" lon="4.93487">
        <ele>556.1</ele>
        <time>2013-04-13T07:21:58.000Z</time>
      </trkpt>
      <trkpt lat="47.26644" lon="4.93488">
        <ele>556.3</ele>
        <time>2013-04-13T07:21:59.000Z</time>
      </trkpt>
      <trkpt lat="47.26647" lon="4.9349">
        <ele>557.9</ele>
        <time>2013-04-13T07:22:01.000Z</time>
      </trkpt>
      <trkpt lat="47.26649" lon="4.93492">
        <ele>558.2</ele>
        <time>2013-04-13T07:22:02.000Z</time>
      </trkpt>
      <trkpt lat="47.26652" lon="4.93496">
        <ele>559.1</ele>
        <time>2013-04-13T07:22:04.000Z</time>
      </trkpt>
      <trkpt lat="47.26654" lon="4.93498">
        <ele>559.8</ele>
        <time>2013-04-13T07:22:05.000Z</time>
      </trkpt>
      <trkpt lat="47.26657" lon="4.93501">
        <ele>560.3</ele>
        <time>2013-04-13T07:22:07.000Z</time>
      </trkpt>
      <trkpt lat="47.26658" lon="4.93503">
        <ele>560.2</ele>
        <time>2013-04-13T07:22:08.000Z</time>
      </trkpt>
      <trkpt lat="47.2666" lon="4.93506">
        <ele>560.9</ele>
        <time>2013-04-13T07:22:10.000Z</time>
      </trkpt>
      <trkpt lat="47.26661" lon="4.93507">
        <ele>561.4</ele>
        <time>2013-04-13T07:22:11.000Z</time>
      </trkpt>
      <trkpt lat="47.26664" lon="4.93511">
        <ele>561.3</ele>
        <time>2013-04-13T07:22:13.000Z</time>
      </trkpt>
      <trkpt lat="47.26666" lon="4.93513">
        <ele>561.6</ele>
        <time>2013-04-13T07:22:14.000Z</time>
      </trkpt>
      <trkpt lat="47.26669" lon="4.93516">
        <ele>560</ele>
        <time>2013-04-13T07:22:16.000Z</time>
      </trkpt>
      <trkpt lat="47.2667" lon="4.93517">
        <ele>560.3</ele>
        <time>2013-04-13T07:22:17.000Z</time>
      </trkpt>
      <trkpt lat="47.26674" lon="4.9352">
        <ele>560.8</ele>
        <time>2013-04-13T07:22:19.000Z</time>
      </trkpt>
      <trkpt lat="47.26676" lon="4.93522">
        <ele>561.2</ele>
        <time>2013-04-13T07:22:20.000Z</time>
      </trkpt>
      <trkpt lat="47.26678" lon="4.93524">
        <ele>561.8</ele>
        <time>2013-04-13T07:22:21.000Z</time>
      </trkpt>
      <trkpt lat="47.26679" lon="4.93526">
        <ele>561.6</ele>
        <time>2013-04-13T07:22:22.000Z</time>
      </trkpt>
      <trkpt lat="47.26682" lon="4.93529">
        <ele>560.8</ele>
        <time>2013-04-13T07:22:24.000Z</time>
      </trkpt>
      <trkpt lat="47.26684" lon="4.93531">
        <ele>560.7</ele>
        <time>2013-04-13T07:22:25.000Z</time>
      </trkpt>
      <trkpt lat="47.26687" lon="4.93534">
        <ele>561.4</ele>
        <time>2013-04-13T07:22:27.000Z</time>
      </trkpt>
      <trkpt lat="47.26689" lon="4.93536">
        <ele>561.6</ele>
        <time>2013-04-13T07:22:28.000Z</time>
      </trkpt>
      <trkpt lat="47.26691" lon="4.93539">
        <ele>561.7</ele>
        <time>2013-04-13T07:22:30.000Z</time>
      </trkpt>
      <trkpt lat="47.26692" lon="4.9354">
        <ele>561.3</ele>
        <time>2013-04-13T07:22:31.000Z</time>
      </trkpt>
      <trkpt lat="47.26695" lon="4.93543">
        <ele>560.8</ele>
        <time>2013-04-13T07:22:33.000Z</time>
      </trkpt>
      <trkpt lat="47.26696" lon="4.93544">
        <ele>559.2</ele>
        <time>2013-04-13T07:22:34.000Z</time>
      </trkpt>
      <trkpt lat="47.26699" lon="4.93547">
        <ele>560.1</ele>
        <time>2013-04-13T07:22:36.000Z</time>
      </trkpt>
      <trkpt lat="47.267" lon="4.93548">
        <ele>559.5</ele>
        <time>2013-04-13T07:22:37.000Z</time>
      </trkpt>
      <trkpt lat="47.26703" lon="4.93552">
        <ele>558.7</ele>
        <time>2013-04-13T07:22:39.000Z</time>
      </trkpt>
      <trkpt lat="47.26705" lon="4.93554">
        <ele>558.8</ele>
        <time>2013-04-13T07:22:40.000Z</time>
      </trkpt>
      <trkpt lat="47.26707" lon="4.93558">
        <ele>557</ele>
        <time>2013-04-13T07:22:42.000Z</time>
      </trkpt>
      <trkpt lat="47.26707" lon="4.9356">
        <ele>556.6</ele>
        <time>2013-04-13T07:22:43.000Z</time>
      </trkpt>
      <trkpt lat="47.2671" lon="4.93565">
        <ele>554.8</ele>
        <time>2013-04-13T07:22:46.000Z</time>
      </trkpt>
      <trkpt lat="47.26711" lon="4.93566">
        <ele>554.5</ele>
        <time>2013-04-13T07:22:47.000Z</time>
      </trkpt>
      <trkpt lat="47.26714" lon="4.93569">
        <ele>552.7</ele>
        <time>2013-04-13T07:22:50.000Z</time>
      </trkpt>
      <trkpt lat="47.26715" lon="4.93571">
        <ele>552.3</ele>
        <time>2013-04-13T07:22:51.000Z</time>
      </trkpt>
      <trkpt lat="47.26718" lon="4.93574">
        <ele>551.8</ele>
        <time>2013-04-13T07:22:53.000Z</time>
      </trkpt>
      <trkpt lat="47.26719" lon="4.93576">
        <ele>552.5</ele>
        <time>2013-04-13T07:22:54.000Z</time>
      </trkpt>
      <trkpt lat="47.26722" lon="4.93579">
        <ele>553</ele>
        <time>2013-04-13T07:22:56.000Z</time>
      </trkpt>
      <trkpt lat="47.26723" lon="4.93581">
        <ele>553.3</ele>
        <time>2013-04-13T07:22:57.000Z</time>
      </trkpt>
      <trkpt lat="47.26726" lon="4.93583">
        <ele>553</ele>
        <time>2013-04-13T07:22:59.000Z</time>
      </trkpt>
      <trkpt lat="47.26727" lon="4.93584">
        <ele>553.2</ele>
        <time>2013-04-13T07:23:00.000Z</time>
      </trkpt>
      <trkpt lat="47.26731" lon="4.93586">
        <ele>553.3</ele>
        <time>2013-04-13T07:23:02.000Z</time>
      </trkpt>
      <trkpt lat="47.26733" lon="4.93586">
        <ele>553.3</ele>
        <time>2013-04-13T07:23:03.000Z</time>
      </trkpt>
      <trkpt lat="47.26737" lon="4.93589">
        <ele>552.3</ele>
        <time>2013-04-13T07:23:06.000Z</time>
      </trkpt>
      <trkpt lat="47.26738" lon="4.93591">
        <ele>553</ele>
        <time>2013-04-13T07:23:07.000Z</time>
      </trkpt>
      <trkpt lat="47.2674" lon="4.93594">
        <ele>549.9</ele>
        <time>2013-04-13T07:23:09.000Z</time>
      </trkpt>
      <trkpt lat="47.26741" lon="4.93596">
        <ele>549.9</ele>
        <time>2013-04-13T07:23:10.000Z</time>
      </trkpt>
      <trkpt lat="47.26742" lon="4.936">
        <ele>551.1</ele>
        <time>2013-04-13T07:23:12.000Z</time>
      </trkpt>
      <trkpt lat="47.26744" lon="4.93602">
        <ele>552.3</ele>
        <time>2013-04-13T07:23:13.000Z</time>
      </trkpt>
      <trkpt lat="47.26746" lon="4.93606">
        <ele>552.9</ele>
        <time>2013-04-13T07:23:15.000Z</time>
      </trkpt>
      <trkpt lat="47.26748" lon="4.93608">
        <ele>553.1</ele>
        <time>2013-04-13T07:23:16.000Z</time>
      </trkpt>
      <trkpt lat="47.26751" lon="4.93612">
        <ele>555.6</ele>
        <time>2013-04-13T07:23:18.000Z</time>
      </trkpt>
      <trkpt lat="47.26753" lon="4.93614">
        <ele>556.4</ele>
        <time>2013-04-13T07:23:19.000Z</time>
      </trkpt>
      <trkpt lat="47.26755" lon="4.93616">
        <ele>557.2</ele>
        <time>2013-04-13T07:23:20.000Z</time>
      </trkpt>
      <trkpt lat="47.26757" lon="4.93618">
        <ele>558.1</ele>
        <time>2013-04-13T07:23:21.000Z</time>
      </trkpt>
      <trkpt lat="47.26759" lon="4.9362">
        <ele>558.5</ele>
        <time>2013-04-13T07:23:22.000Z</time>
      </trkpt>
      <trkpt lat="47.26761" lon="4.93621">
        <ele>559.6</ele>
        <time>2013-04-13T07:23:23.000Z</time>
      </trkpt>
      <trkpt lat="47.26763" lon="4.93623">
        <ele>560.1</ele>
        <time>2013-04-13T07:23:24.000Z</time>
      </trkpt>
      <trkpt lat="47.26765" lon="4.93625">
        <ele>560.2</ele>
        <time>2013-04-13T07:23:25.000Z</time>
      </trkpt>
      <trkpt lat="47.26768" lon="4.93629">
        <ele>561.1</ele>
        <time>2013-04-13T07:23:27.000Z</time>
      </trkpt>
      <trkpt lat="47.26769" lon="4.93631">
        <ele>561.2</ele>
        <time>2013-04-13T07:23:28.000Z</time>
      </trkpt>
      <trkpt lat="47.26773" lon="4.93635">
        <ele>561.4</ele>
        <time>2013-04-13T07:23:30.000Z</time>
      </trkpt>
      <trkpt lat="47.26774" lon="4.93636">
        <ele>561.2</ele>
        <time>2013-04-13T07:23:31.000Z</time>
      </trkpt>
      <trkpt lat="47.26777" lon="4.93639">
        <ele>560.7</ele>
        <time>2013-04-13T07:23:33.000Z</time>
      </trkpt>
      <trkpt lat="47.26779" lon="4.93641">
        <ele>561.3</ele>
        <time>2013-04-13T07:23:34.000Z</time>
      </trkpt>
      <trkpt lat="47.26782" lon="4.93643">
        <ele>561.4</ele>
        <time>2013-04-13T07:23:36.000Z</time>
      </trkpt>
      <trkpt lat="47.26784" lon="4.93645">
        <ele>561.6</ele>
        <time>2013-04-13T07:23:37.000Z</time>
      </trkpt>
      <trkpt lat="47.26786" lon="4.93647">
        <ele>561.5</ele>
        <time>2013-04-13T07:23:39.000Z</time>
      </trkpt>
      <trkpt lat="47.26787" lon="4.93648">
        <ele>561.8</ele>
        <time>2013-04-13T07:23:40.000Z</time>
      </trkpt>
      <trkpt lat="47.2679" lon="4.93651">
        <ele>561.4</ele>
        <time>2013-04-13T07:23:42.000Z</time>
      </trkpt>
      <trkpt lat="47.26792" lon="4.93652">
        <ele>561.5</ele>
        <time>2013-04-13T07:23:43.000Z</time>
      </trkpt>
      <trkpt lat="47.26795" lon="4.93654">
        <ele>561.9</ele>
        <time>2013-04-13T07:23:45.000Z</time>
      </trkpt>
      <trkpt lat="47.26796" lon="4.93656">
        <ele>562</ele>
        <time>2013-04-13T07:23:46.000Z</time>
      </trkpt>
      <trkpt lat="47.26799" lon="4.93659">
        <ele>560.9</ele>
        <time>2013-04-13T07:23:48.000Z</time>
      </trkpt>
      <trkpt lat="47.268" lon="4.9366">
        <ele>560.7</ele>
        <time>2013-04-13T07:23:49.000Z</time>
      </trkpt>
      <trkpt lat="47.26802" lon="4.93663">
        <ele>560.7</ele>
        <time>2013-04-13T07:23:51.000Z</time>
      </trkpt>
      <trkpt lat="47.26804" lon="4.93664">
        <ele>561</ele>
        <time>2013-04-13T07:23:52.000Z</time>
      </trkpt>
      <trkpt lat="47.26807" lon="4.93667">
        <ele>560.6</ele>
        <time>2013-04-13T07:23:54.000Z</time>
      </trkpt>
      <trkpt lat="47.26808" lon="4.93669">
        <ele>560.7</ele>
        <time>2013-04-13T07:23:55.000Z</time>
      </trkpt>
      <trkpt lat="47.26811" lon="4.93672">
        <ele>561.1</ele>
        <time>2013-04-13T07:23:57.000Z</time>
      </trkpt>
      <trkpt lat="47.26812" lon="4.93674">
        <ele>560.5</ele>
        <time>2013-04-13T07:23:58.000Z</time>
      </trkpt>
      <trkpt lat="47.26815" lon="4.93677">
        <ele>560.3</ele>
        <time>2013-04-13T07:24:00.000Z</time>
      </trkpt>
      <trkpt lat="47.26816" lon="4.93679">
        <ele>560.3</ele>
        <time>2013-04-13T07:24:01.000Z</time>
      </trkpt>
      <trkpt lat="47.26819" lon="4.93682">
        <ele>559.6</ele>
        <time>2013-04-13T07:24:03.000Z</time>
      </trkpt>
      <trkpt lat="47.2682" lon="4.93684">
        <ele>559.2</ele>
        <time>2013-04-13T07:24:04.000Z</time>
      </trkpt>
      <trkpt lat="47.26822" lon="4.93687">
        <ele>559</ele>
        <time>2013-04-13T07:24:06.000Z</time>
      </trkpt>
      <trkpt lat="47.26823" lon="4.93689">
        <ele>558.2</ele>
        <time>2013-04-13T07:24:07.000Z</time>
      </trkpt>
      <trkpt lat="47.26825" lon="4.93693">
        <ele>557.9</ele>
        <time>2013-04-13T07:24:09.000Z</time>
      </trkpt>
      <trkpt lat="47.26827" lon="4.93694">
        <ele>557.6</ele>
        <time>2013-04-13T07:24:10.000Z</time>
      </trkpt>
      <trkpt lat="47.26829" lon="4.93697">
        <ele>558.4</ele>
        <time>2013-04-13T07:24:12.000Z</time>
      </trkpt>
      <trkpt lat="47.26831" lon="4.93699">
        <ele>559</ele>
        <time>2013-04-13T07:24:13.000Z</time>
      </trkpt>
      <trkpt lat="47.26834" lon="4.93702">
        <ele>558.1</ele>
        <time>2013-04-13T07:24:15.000Z</time>
      </trkpt>
      <trkpt lat="47.26836" lon="4.93703">
        <ele>557.5</ele>
        <time>2013-04-13T07:24:16.000Z</time>
      </trkpt>
      <trkpt lat="47.26839" lon="4.93706">
        <ele>557.4</ele>
        <time>2013-04-13T07:24:18.000Z</time>
      </trkpt>
      <trkpt lat="47.2684" lon="4.93707">
        <ele>557.3</ele>
        <time>2013-04-13T07:24:19.000Z</time>
      </trkpt>
      <trkpt lat="47.26843" lon="4.9371">
        <ele>557</ele>
        <time>2013-04-13T07:24:21.000Z</time>
      </trkpt>
      <trkpt lat="47.26845" lon="4.93711">
        <ele>557.3</ele>
        <time>2013-04-13T07:24:22.000Z</time>
      </trkpt>
      <trkpt lat="47.26848" lon="4.93714">
        <ele>556.3</ele>
        <time>2013-04-13T07:24:24.000Z</time>
      </trkpt>
      <trkpt lat="47.2685" lon="4.93715">
        <ele>556.2</ele>
        <time>2013-04-13T07:24:25.000Z</time>
      </trkpt>
      <trkpt lat="47.26853" lon="4.93718">
        <ele>556.2</ele>
        <time>2013-04-13T07:24:27.000Z</time>
      </trkpt>
      <trkpt lat="47.26855" lon="4.93719">
        <ele>556.4</ele>
        <time>2013-04-13T07:24:28.000Z</time>
      </trkpt>
      <trkpt lat="47.26857" lon="4.93721">
        <ele>556.6</ele>
        <time>2013-04-13T07:24:29.000Z</time>
      </trkpt>
      <trkpt lat="47.26859" lon="4.93722">
        <ele>556.8</ele>
        <time>2013-04-13T07:24:30.000Z</time>
      </trkpt>
      <trkpt lat="47.26863" lon="4.93723">
        <ele>556.5</ele>
        <time>2013-04-13T07:24:32.000Z</time>
      </trkpt>
      <trkpt lat="47.26865" lon="4.93724">
        <ele>555.3</ele>
        <time>2013-04-13T07:24:33.000Z</time>
      </trkpt>
      <trkpt lat="47.26869" lon="4.93725">
        <ele>554.9</ele>
        <time>2013-04-13T07:24:36.000Z</time>
      </trkpt>
      <trkpt lat="47.2687" lon="4.93726">
        <ele>554.8</ele>
        <time>2013-04-13T07:24:37.000Z</time>
      </trkpt>
      <trkpt lat="47.26873" lon="4.93728">
        <ele>554.8</ele>
        <time>2013-04-13T07:24:39.000Z</time>
      </trkpt>
      <trkpt lat="47.26875" lon="4.93729">
        <ele>555.1</ele>
        <time>2013-04-13T07:24:40.000Z</time>
      </trkpt>
      <trkpt lat="47.26878" lon="4.9373">
        <ele>555.6</ele>
        <time>2013-04-13T07:24:42.000Z</time>
      </trkpt>
      <trkpt lat="47.26879" lon="4.9373">
        <ele>556.2</ele>
        <time>2013-04-13T07:24:43.000Z</time>
      </trkpt>
      <trkpt lat="47.26883" lon="4.9373">
        <ele>557.2</ele>
        <time>2013-04-13T07:24:45.000Z</time>
      </trkpt>
      <trkpt lat="47.26884" lon="4.9373">
        <ele>557.6</ele>
        <time>2013-04-13T07:24:46.000Z</time>
      </trkpt>
      <trkpt lat="47.26888" lon="4.93731">
        <ele>557.9</ele>
        <time>2013-04-13T07:24:48.000Z</time>
      </trkpt>
      <trkpt lat="47.26889" lon="4.93731">
        <ele>558.1</ele>
        <time>2013-04-13T07:24:49.000Z</time>
      </trkpt>
      <trkpt lat="47.26892" lon="4.93731">
        <ele>558.5</ele>
        <time>2013-04-13T07:24:51.000Z</time>
      </trkpt>
      <trkpt lat="47.26894" lon="4.93731">
        <ele>558.7</ele>
        <time>2013-04-13T07:24:52.000Z</time>
      </trkpt>
      <trkpt lat="47.26898" lon="4.93731">
        <ele>558.5</ele>
        <time>2013-04-13T07:24:54.000Z</time>
      </trkpt>
      <trkpt lat="47.269" lon="4.93731">
        <ele>558.5</ele>
        <time>2013-04-13T07:24:55.000Z</time>
      </trkpt>
      <trkpt lat="47.26903" lon="4.9373">
        <ele>559.3</ele>
        <time>2013-04-13T07:24:57.000Z</time>
      </trkpt>
      <trkpt lat="47.26905" lon="4.93731">
        <ele>559.2</ele>
        <time>2013-04-13T07:24:58.000Z</time>
      </trkpt>
      <trkpt lat="47.26907" lon="4.93731">
        <ele>559.1</ele>
        <time>2013-04-13T07:25:00.000Z</time>
      </trkpt>
      <trkpt lat="47.26909" lon="4.93731">
        <ele>558.8</ele>
        <time>2013-04-13T07:25:01.000Z</time>
      </trkpt>
      <trkpt lat="47.26913" lon="4.93732">
        <ele>558.5</ele>
        <time>2013-04-13T07:25:04.000Z</time>
      </trkpt>
      <trkpt lat="47.26915" lon="4.93732">
        <ele>558.7</ele>
        <time>2013-04-13T07:25:05.000Z</time>
      </trkpt>
      <trkpt lat="47.26919" lon="4.93732">
        <ele>559.5</ele>
        <time>2013-04-13T07:25:08.000Z</time>
      </trkpt>
      <trkpt lat="47.2692" lon="4.93732">
        <ele>560.4</ele>
        <time>2013-04-13T07:25:09.000Z</time>
      </trkpt>
      <trkpt lat="47.26924" lon="4.93733">
        <ele>559.5</ele>
        <time>2013-04-13T07:25:11.000Z</time>
      </trkpt>
      <trkpt lat="47.26925" lon="4.93734">
        <ele>559.2</ele>
        <time>2013-04-13T07:25:12.000Z</time>
      </trkpt>
      <trkpt lat="47.26928" lon="4.93735">
        <ele>559</ele>
        <time>2013-04-13T07:25:14.000Z</time>
      </trkpt>
      <trkpt lat="47.2693" lon="4.93736">
        <ele>559.1</ele>
        <time>2013-04-13T07:25:15.000Z</time>
      </trkpt>
      <trkpt lat="47.26933" lon="4.93737">
        <ele>559.9</ele>
        <time>2013-04-13T07:25:17.000Z</time>
      </trkpt>
      <trkpt lat="47.26935" lon="4.93737">
        <ele>560.5</ele>
        <time>2013-04-13T07:25:18.000Z</time>
      </trkpt>
      <trkpt lat="47.26938" lon="4.93739">
        <ele>560.9</ele>
        <time>2013-04-13T07:25:20.000Z</time>
      </trkpt>
      <trkpt lat="47.26939" lon="4.93739">
        <ele>560.9</ele>
        <time>2013-04-13T07:25:21.000Z</time>
      </trkpt>
      <trkpt lat="47.26943" lon="4.93741">
        <ele>560.8</ele>
        <time>2013-04-13T07:25:23.000Z</time>
      </trkpt>
      <trkpt lat="47.26945" lon="4.93742">
        <ele>561.4</ele>
        <time>2013-04-13T07:25:24.000Z</time>
      </trkpt>
      <trkpt lat="47.26948" lon="4.93744">
        <ele>561.8</ele>
        <time>2013-04-13T07:25:26.000Z</time>
      </trkpt>
      <trkpt lat="47.26949" lon="4.93746">
        <ele>561.8</ele>
        <time>2013-04-13T07:25:27.000Z</time>
      </trkpt>
      <trkpt lat="47.26952" lon="4.93747">
        <ele>561.9</ele>
        <time>2013-04-13T07:25:29.000Z</time>
      </trkpt>
      <trkpt lat="47.26954" lon="4.93748">
        <ele>561.4</ele>
        <time>2013-04-13T07:25:30.000Z</time>
      </trkpt>
      <trkpt lat="47.26957" lon="4.9375">
        <ele>560.6</ele>
        <time>2013-04-13T07:25:32.000Z</time>
      </trkpt>
      <trkpt lat="47.26958" lon="4.9375">
        <ele>560.1</ele>
        <time>2013-04-13T07:25:33.000Z</time>
      </trkpt>
      <trkpt lat="47.26961" lon="4.93751">
        <ele>562.2</ele>
        <time>2013-04-13T07:25:35.000Z</time>
      </trkpt>
      <trkpt lat="47.26963" lon="4.93751">
        <ele>561.6</ele>
        <time>2013-04-13T07:25:36.000Z</time>
      </trkpt>
      <trkpt lat="47.26965" lon="4.93753">
        <ele>562.3</ele>
        <time>2013-04-13T07:25:38.000Z</time>
      </trkpt>
      <trkpt lat="47.26967" lon="4.93754">
        <ele>562.4</ele>
        <time>2013-04-13T07:25:39.000Z</time>
      </trkpt>
      <trkpt lat="47.2697" lon="4.93756">
        <ele>562.2</ele>
        <time>2013-04-13T07:25:41.000Z</time>
      </trkpt>
      <trkpt lat="47.26971" lon="4.93757">
        <ele>561.5</ele>
        <time>2013-04-13T07:25:42.000Z</time>
      </trkpt>
      <trkpt lat="47.26975" lon="4.93759">
        <ele>561.9</ele>
        <time>2013-04-13T07:25:44.000Z</time>
      </trkpt>
      <trkpt lat="47.26976" lon="4.93759">
        <ele>561.9</ele>
        <time>2013-04-13T07:25:45.000Z</time>
      </trkpt>
      <trkpt lat="47.26979" lon="4.93761">
        <ele>562</ele>
        <time>2013-04-13T07:25:47.000Z</time>
      </trkpt>
      <trkpt lat="47.26981" lon="4.93761">
        <ele>562</ele>
        <time>2013-04-13T07:25:48.000Z</time>
      </trkpt>
      <trkpt lat="47.26984" lon="4.93763">
        <ele>562.2</ele>
        <time>2013-04-13T07:25:50.000Z</time>
      </trkpt>
      <trkpt lat="47.26986" lon="4.93763">
        <ele>562.9</ele>
        <time>2013-04-13T07:25:51.000Z</time>
      </trkpt>
      <trkpt lat="47.26989" lon="4.93764">
        <ele>562.8</ele>
        <time>2013-04-13T07:25:53.000Z</time>
      </trkpt>
      <trkpt lat="47.26991" lon="4.93764">
        <ele>562.2</ele>
        <time>2013-04-13T07:25:54.000Z</time>
      </trkpt>
      <trkpt lat="47.26994" lon="4.93766">
        <ele>561.8</ele>
        <time>2013-04-13T07:25:56.000Z</time>
      </trkpt>
      <trkpt lat="47.26995" lon="4.93768">
        <ele>562.5</ele>
        <time>2013-04-13T07:25:57.000Z</time>
      </trkpt>
      <trkpt lat="47.26998" lon="4.9377">
        <ele>561.9</ele>
        <time>2013-04-13T07:25:59.000Z</time>
      </trkpt>
      <trkpt lat="47.27" lon="4.9377">
        <ele>561.8</ele>
        <time>2013-04-13T07:26:00.000Z</time>
      </trkpt>
      <trkpt lat="47.27003" lon="4.93772">
        <ele>562.7</ele>
        <time>2013-04-13T07:26:03.000Z</time>
      </trkpt>
      <trkpt lat="47.27005" lon="4.93773">
        <ele>562.6</ele>
        <time>2013-04-13T07:26:04.000Z</time>
      </trkpt>
      <trkpt lat="47.27009" lon="4.93775">
        <ele>563</ele>
        <time>2013-04-13T07:26:07.000Z</time>
      </trkpt>
      <trkpt lat="47.2701" lon="4.93776">
        <ele>562.8</ele>
        <time>2013-04-13T07:26:08.000Z</time>
      </trkpt>
      <trkpt lat="47.27013" lon="4.93778">
        <ele>562.1</ele>
        <time>2013-04-13T07:26:11.000Z</time>
      </trkpt>
      <trkpt lat="47.27015" lon="4.93779">
        <ele>561.9</ele>
        <time>2013-04-13T07:26:12.000Z</time>
      </trkpt>
      <trkpt lat="47.27018" lon="4.93781">
        <ele>561.8</ele>
        <time>2013-04-13T07:26:14.000Z</time>
      </trkpt>
      <trkpt lat="47.2702" lon="4.93782">
        <ele>563.2</ele>
        <time>2013-04-13T07:26:15.000Z</time>
      </trkpt>
      <trkpt lat="47.27024" lon="4.93783">
        <ele>563.7</ele>
        <time>2013-04-13T07:26:17.000Z</time>
      </trkpt>
      <trkpt lat="47.27026" lon="4.93783">
        <ele>563.8</ele>
        <time>2013-04-13T07:26:18.000Z</time>
      </trkpt>
      <trkpt lat="47.27029" lon="4.93785">
        <ele>563.4</ele>
        <time>2013-04-13T07:26:20.000Z</time>
      </trkpt>
      <trkpt lat="47.2703" lon="4.93785">
        <ele>563.5</ele>
        <time>2013-04-13T07:26:21.000Z</time>
      </trkpt>
      <trkpt lat="47.27034" lon="4.93787">
        <ele>563.9</ele>
        <time>2013-04-13T07:26:23.000Z</time>
      </trkpt>
      <trkpt lat="47.27036" lon="4.93788">
        <ele>563.9</ele>
        <time>2013-04-13T07:26:24.000Z</time>
      </trkpt>
      <trkpt lat="47.27038" lon="4.9379">
        <ele>563.2</ele>
        <time>2013-04-13T07:26:26.000Z</time>
      </trkpt>
      <trkpt lat="47.2704" lon="4.9379">
        <ele>563.2</ele>
        <time>2013-04-13T07:26:27.000Z</time>
      </trkpt>
      <trkpt lat="47.27043" lon="4.93792">
        <ele>563</ele>
        <time>2013-04-13T07:26:29.000Z</time>
      </trkpt>
      <trkpt lat="47.27044" lon="4.93792">
        <ele>563.1</ele>
        <time>2013-04-13T07:26:30.000Z</time>
      </trkpt>
      <trkpt lat="47.27047" lon="4.93794">
        <ele>563.2</ele>
        <time>2013-04-13T07:26:32.000Z</time>
      </trkpt>
      <trkpt lat="47.27049" lon="4.93794">
        <ele>563.1</ele>
        <time>2013-04-13T07:26:33.000Z</time>
      </trkpt>
      <trkpt lat="47.27052" lon="4.93796">
        <ele>562.8</ele>
        <time>2013-04-13T07:26:35.000Z</time>
      </trkpt>
      <trkpt lat="47.27054" lon="4.93796">
        <ele>563</ele>
        <time>2013-04-13T07:26:36.000Z</time>
      </trkpt>
      <trkpt lat="47.27057" lon="4.93797">
        <ele>563</ele>
        <time>2013-04-13T07:26:38.000Z</time>
      </trkpt>
      <trkpt lat="47.27059" lon="4.93798">
        <ele>562.9</ele>
        <time>2013-04-13T07:26:39.000Z</time>
      </trkpt>
      <trkpt lat="47.27062" lon="4.93799">
        <ele>562.5</ele>
        <time>2013-04-13T07:26:41.000Z</time>
      </trkpt>
      <trkpt lat="47.27064" lon="4.938">
        <ele>562.8</ele>
        <time>2013-04-13T07:26:42.000Z</time>
      </trkpt>
      <trkpt lat="47.27067" lon="4.93801">
        <ele>561.7</ele>
        <time>2013-04-13T07:26:44.000Z</time>
      </trkpt>
      <trkpt lat="47.27069" lon="4.93802">
        <ele>561.5</ele>
        <time>2013-04-13T07:26:45.000Z</time>
      </trkpt>
      <trkpt lat="47.27072" lon="4.93803">
        <ele>561.4</ele>
        <time>2013-04-13T07:26:47.000Z</time>
      </trkpt>
      <trkpt lat="47.27073" lon="4.93804">
        <ele>560.8</ele>
        <time>2013-04-13T07:26:48.000Z</time>
      </trkpt>
      <trkpt lat="47.27076" lon="4.93805">
        <ele>561.6</ele>
        <time>2013-04-13T07:26:50.000Z</time>
      </trkpt>
      <trkpt lat="47.27078" lon="4.93805">
        <ele>561.7</ele>
        <time>2013-04-13T07:26:51.000Z</time>
      </trkpt>
      <trkpt lat="47.27082" lon="4.93807">
        <ele>562.2</ele>
        <time>2013-04-13T07:26:53.000Z</time>
      </trkpt>
      <trkpt lat="47.27083" lon="4.93807">
        <ele>562.4</ele>
        <time>2013-04-13T07:26:54.000Z</time>
      </trkpt>
      <trkpt lat="47.27087" lon="4.93809">
        <ele>560.8</ele>
        <time>2013-04-13T07:26:56.000Z</time>
      </trkpt>
      <trkpt lat="47.27089" lon="4.9381">
        <ele>560.5</ele>
        <time>2013-04-13T07:26:57.000Z</time>
      </trkpt>
      <trkpt lat="47.27092" lon="4.93812">
        <ele>559.4</ele>
        <time>2013-04-13T07:26:59.000Z</time>
      </trkpt>
      <trkpt lat="47.27094" lon="4.93813">
        <ele>559.4</ele>
        <time>2013-04-13T07:27:00.000Z</time>
      </trkpt>
      <trkpt lat="47.27098" lon="4.93814">
        <ele>559.2</ele>
        <time>2013-04-13T07:27:03.000Z</time>
      </trkpt>
      <trkpt lat="47.271" lon="4.93815">
        <ele>559</ele>
        <time>2013-04-13T07:27:04.000Z</time>
      </trkpt>
      <trkpt lat="47.27103" lon="4.93816">
        <ele>558.7</ele>
        <time>2013-04-13T07:27:06.000Z</time>
      </trkpt>
      <trkpt lat="47.27104" lon="4.93817">
        <ele>558.9</ele>
        <time>2013-04-13T07:27:07.000Z</time>
      </trkpt>
      <trkpt lat="47.27106" lon="4.93818">
        <ele>560.7</ele>
        <time>2013-04-13T07:27:08.000Z</time>
      </trkpt>
      <trkpt lat="47.27109" lon="4.93818">
        <ele>561.2</ele>
        <time>2013-04-13T07:27:09.000Z</time>
      </trkpt>
      <trkpt lat="47.27112" lon="4.93819">
        <ele>560.9</ele>
        <time>2013-04-13T07:27:10.000Z</time>
      </trkpt>
      <trkpt lat="47.27114" lon="4.93819">
        <ele>560.3</ele>
        <time>2013-04-13T07:27:11.000Z</time>
      </trkpt>
      <trkpt lat="47.27118" lon="4.93821">
        <ele>560.7</ele>
        <time>2013-04-13T07:27:13.000Z</time>
      </trkpt>
      <trkpt lat="47.27119" lon="4.93822">
        <ele>560.8</ele>
        <time>2013-04-13T07:27:14.000Z</time>
      </trkpt>
      <trkpt lat="47.27123" lon="4.93823">
        <ele>562</ele>
        <time>2013-04-13T07:27:16.000Z</time>
      </trkpt>
      <trkpt lat="47.27125" lon="4.93823">
        <ele>562.6</ele>
        <time>2013-04-13T07:27:17.000Z</time>
      </trkpt>
      <trkpt lat="47.27129" lon="4.93824">
        <ele>562.7</ele>
        <time>2013-04-13T07:27:19.000Z</time>
      </trkpt>
      <trkpt lat="47.27131" lon="4.93825">
        <ele>562.9</ele>
        <time>2013-04-13T07:27:20.000Z</time>
      </trkpt>
      <trkpt lat="47.27133" lon="4.93827">
        <ele>562.6</ele>
        <time>2013-04-13T07:27:22.000Z</time>
      </trkpt>
      <trkpt lat="47.27135" lon="4.93827">
        <ele>562.6</ele>
        <time>2013-04-13T07:27:23.000Z</time>
      </trkpt>
      <trkpt lat="47.27138" lon="4.93829">
        <ele>562.4</ele>
        <time>2013-04-13T07:27:25.000Z</time>
      </trkpt>
      <trkpt lat="47.27139" lon="4.9383">
        <ele>562.7</ele>
        <time>2013-04-13T07:27:26.000Z</time>
      </trkpt>
      <trkpt lat="47.27142" lon="4.93831">
        <ele>562.9</ele>
        <time>2013-04-13T07:27:28.000Z</time>
      </trkpt>
      <trkpt lat="47.27144" lon="4.93832">
        <ele>562.7</ele>
        <time>2013-04-13T07:27:29.000Z</time>
      </trkpt>
      <trkpt lat="47.27147" lon="4.93834">
        <ele>562.8</ele>
        <time>2013-04-13T07:27:31.000Z</time>
      </trkpt>
      <trkpt lat="47.27148" lon="4.93835">
        <ele>562.3</ele>
        <time>2013-04-13T07:27:32.000Z</time>
      </trkpt>
      <trkpt lat="47.27152" lon="4.93838">
        <ele>561.7</ele>
        <time>2013-04-13T07:27:35.000Z</time>
      </trkpt>
      <trkpt lat="47.27153" lon="4.93839">
        <ele>561.6</ele>
        <time>2013-04-13T07:27:36.000Z</time>
      </trkpt>
      <trkpt lat="47.27157" lon="4.93841">
        <ele>561.2</ele>
        <time>2013-04-13T07:27:38.000Z</time>
      </trkpt>
      <trkpt lat="47.27158" lon="4.93842">
        <ele>561.1</ele>
        <time>2013-04-13T07:27:39.000Z</time>
      </trkpt>
      <trkpt lat="47.27161" lon="4.93845">
        <ele>557.8</ele>
        <time>2013-04-13T07:27:43.000Z</time>
      </trkpt>
      <trkpt lat="47.27162" lon="4.93846">
        <ele>558.4</ele>
        <time>2013-04-13T07:27:44.000Z</time>
      </trkpt>
      <trkpt lat="47.27163" lon="4.9385">
        <ele>557.6</ele>
        <time>2013-04-13T07:30:58.000Z</time>
      </trkpt>
      <trkpt lat="47.27164" lon="4.93852">
        <ele>557.2</ele>
        <time>2013-04-13T07:30:59.000Z</time>
      </trkpt>
      <trkpt lat="47.27165" lon="4.93858">
        <ele>556.2</ele>
        <time>2013-04-13T07:31:02.000Z</time>
      </trkpt>
      <trkpt lat="47.27165" lon="4.9386">
        <ele>556.3</ele>
        <time>2013-04-13T07:31:03.000Z</time>
      </trkpt>
      <trkpt lat="47.27163" lon="4.93866">
        <ele>554.1</ele>
        <time>2013-04-13T07:31:06.000Z</time>
      </trkpt>
      <trkpt lat="47.27163" lon="4.93868">
        <ele>554.3</ele>
        <time>2013-04-13T07:31:07.000Z</time>
      </trkpt>
      <trkpt lat="47.27161" lon="4.93872">
        <ele>554.2</ele>
        <time>2013-04-13T07:31:09.000Z</time>
      </trkpt>
      <trkpt lat="47.2716" lon="4.93874">
        <ele>554.1</ele>
        <time>2013-04-13T07:31:10.000Z</time>
      </trkpt>
      <trkpt lat="47.27158" lon="4.9388">
        <ele>555</ele>
        <time>2013-04-13T07:31:13.000Z</time>
      </trkpt>
      <trkpt lat="47.27157" lon="4.93882">
        <ele>555.1</ele>
        <time>2013-04-13T07:31:14.000Z</time>
      </trkpt>
      <trkpt lat="47.27156" lon="4.93886">
        <ele>556.4</ele>
        <time>2013-04-13T07:31:16.000Z</time>
      </trkpt>
      <trkpt lat="47.27155" lon="4.93888">
        <ele>556</ele>
        <time>2013-04-13T07:31:17.000Z</time>
      </trkpt>
      <trkpt lat="47.27154" lon="4.93893">
        <ele>557.2</ele>
        <time>2013-04-13T07:31:19.000Z</time>
      </trkpt>
      <trkpt lat="47.27153" lon="4.93895">
        <ele>557.1</ele>
        <time>2013-04-13T07:31:20.000Z</time>
      </trkpt>
      <trkpt lat="47.27152" lon="4.93899">
        <ele>557.9</ele>
        <time>2013-04-13T07:31:22.000Z</time>
      </trkpt>
      <trkpt lat="47.27151" lon="4.93901">
        <ele>558.2</ele>
        <time>2013-04-13T07:31:23.000Z</time>
      </trkpt>
      <trkpt lat="47.27148" lon="4.93905">
        <ele>558.4</ele>
        <time>2013-04-13T07:31:25.000Z</time>
      </trkpt>
      <trkpt lat="47.27147" lon="4.93908">
        <ele>557.3</ele>
        <time>2013-04-13T07:31:26.000Z</time>
      </trkpt>
      <trkpt lat="47.27145" lon="4.93912">
        <ele>556</ele>
        <time>2013-04-13T07:31:28.000Z</time>
      </trkpt>
      <trkpt lat="47.27144" lon="4.93914">
        <ele>555.9</ele>
        <time>2013-04-13T07:31:29.000Z</time>
      </trkpt>
      <trkpt lat="47.27142" lon="4.93918">
        <ele>555</ele>
        <time>2013-04-13T07:31:31.000Z</time>
      </trkpt>
      <trkpt lat="47.27141" lon="4.93919">
        <ele>554.4</ele>
        <time>2013-04-13T07:31:32.000Z</time>
      </trkpt>
      <trkpt lat="47.27138" lon="4.93923">
        <ele>553.6</ele>
        <time>2013-04-13T07:31:34.000Z</time>
      </trkpt>
      <trkpt lat="47.27137" lon="4.93925">
        <ele>553.1</ele>
        <time>2013-04-13T07:31:35.000Z</time>
      </trkpt>
      <trkpt lat="47.27135" lon="4.9393">
        <ele>553.3</ele>
        <time>2013-04-13T07:31:37.000Z</time>
      </trkpt>
      <trkpt lat="47.27134" lon="4.93933">
        <ele>553.2</ele>
        <time>2013-04-13T07:31:38.000Z</time>
      </trkpt>
      <trkpt lat="47.27132" lon="4.93937">
        <ele>552.9</ele>
        <time>2013-04-13T07:31:40.000Z</time>
      </trkpt>
      <trkpt lat="47.27131" lon="4.93939">
        <ele>552.6</ele>
        <time>2013-04-13T07:31:41.000Z</time>
      </trkpt>
      <trkpt lat="47.2713" lon="4.93943">
        <ele>552.7</ele>
        <time>2013-04-13T07:31:43.000Z</time>
      </trkpt>
      <trkpt lat="47.27129" lon="4.93945">
        <ele>553.2</ele>
        <time>2013-04-13T07:31:44.000Z</time>
      </trkpt>
      <trkpt lat="47.27127" lon="4.9395">
        <ele>553.1</ele>
        <time>2013-04-13T07:31:46.000Z</time>
      </trkpt>
      <trkpt lat="47.27127" lon="4.93952">
        <ele>553</ele>
        <time>2013-04-13T07:31:47.000Z</time>
      </trkpt>
      <trkpt lat="47.27125" lon="4.93956">
        <ele>552.7</ele>
        <time>2013-04-13T07:31:49.000Z</time>
      </trkpt>
      <trkpt lat="47.27124" lon="4.93959">
        <ele>552.4</ele>
        <time>2013-04-13T07:31:50.000Z</time>
      </trkpt>
      <trkpt lat="47.27122" lon="4.93963">
        <ele>551.3</ele>
        <time>2013-04-13T07:31:52.000Z</time>
      </trkpt>
      <trkpt lat="47.2712" lon="4.93965">
        <ele>549.7</ele>
        <time>2013-04-13T07:31:53.000Z</time>
      </trkpt>
      <trkpt lat="47.27118" lon="4.93968">
        <ele>549.6</ele>
        <time>2013-04-13T07:31:55.000Z</time>
      </trkpt>
      <trkpt lat="47.27117" lon="4.93969">
        <ele>549.7</ele>
        <time>2013-04-13T07:31:56.000Z</time>
      </trkpt>
      <trkpt lat="47.27114" lon="4.93975">
        <ele>549.6</ele>
        <time>2013-04-13T07:31:59.000Z</time>
      </trkpt>
      <trkpt lat="47.27114" lon="4.93977">
        <ele>549.2</ele>
        <time>2013-04-13T07:32:00.000Z</time>
      </trkpt>
      <trkpt lat="47.27112" lon="4.93981">
        <ele>549.1</ele>
        <time>2013-04-13T07:32:02.000Z</time>
      </trkpt>
      <trkpt lat="47.27111" lon="4.93984">
        <ele>549.2</ele>
        <time>2013-04-13T07:32:03.000Z</time>
      </trkpt>
      <trkpt lat="47.2711" lon="4.93988">
        <ele>548.9</ele>
        <time>2013-04-13T07:32:05.000Z</time>
      </trkpt>
      <trkpt lat="47.27109" lon="4.9399">
        <ele>548.9</ele>
        <time>2013-04-13T07:32:06.000Z</time>
      </trkpt>
      <trkpt lat="47.27107" lon="4.93994">
        <ele>547.9</ele>
        <time>2013-04-13T07:32:08.000Z</time>
      </trkpt>
      <trkpt lat="47.27106" lon="4.93996">
        <ele>548</ele>
        <time>2013-04-13T07:32:09.000Z</time>
      </trkpt>
      <trkpt lat="47.27104" lon="4.94">
        <ele>547.4</ele>
        <time>2013-04-13T07:32:11.000Z</time>
      </trkpt>
      <trkpt lat="47.27103" lon="4.94003">
        <ele>547</ele>
        <time>2013-04-13T07:32:12.000Z</time>
      </trkpt>
      <trkpt lat="47.27101" lon="4.94007">
        <ele>546.3</ele>
        <time>2013-04-13T07:32:14.000Z</time>
      </trkpt>
      <trkpt lat="47.271" lon="4.9401">
        <ele>546.4</ele>
        <time>2013-04-13T07:32:15.000Z</time>
      </trkpt>
      <trkpt lat="47.27098" lon="4.94014">
        <ele>545.2</ele>
        <time>2013-04-13T07:32:17.000Z</time>
      </trkpt>
      <trkpt lat="47.27097" lon="4.94016">
        <ele>544.8</ele>
        <time>2013-04-13T07:32:18.000Z</time>
      </trkpt>
      <trkpt lat="47.27095" lon="4.94021">
        <ele>547</ele>
        <time>2013-04-13T07:32:20.000Z</time>
      </trkpt>
      <trkpt lat="47.27094" lon="4.94023">
        <ele>546.8</ele>
        <time>2013-04-13T07:32:21.000Z</time>
      </trkpt>
      <trkpt lat="47.27092" lon="4.94027">
        <ele>546.6</ele>
        <time>2013-04-13T07:32:23.000Z</time>
      </trkpt>
      <trkpt lat="47.27091" lon="4.9403">
        <ele>547.3</ele>
        <time>2013-04-13T07:32:24.000Z</time>
      </trkpt>
      <trkpt lat="47.27089" lon="4.94035">
        <ele>546.8</ele>
        <time>2013-04-13T07:32:26.000Z</time>
      </trkpt>
      <trkpt lat="47.27088" lon="4.94037">
        <ele>547.1</ele>
        <time>2013-04-13T07:32:27.000Z</time>
      </trkpt>
      <trkpt lat="47.27085" lon="4.94041">
        <ele>547.6</ele>
        <time>2013-04-13T07:32:29.000Z</time>
      </trkpt>
      <trkpt lat="47.27084" lon="4.94043">
        <ele>547.7</ele>
        <time>2013-04-13T07:32:30.000Z</time>
      </trkpt>
      <trkpt lat="47.27082" lon="4.94047">
        <ele>547.2</ele>
        <time>2013-04-13T07:32:32.000Z</time>
      </trkpt>
      <trkpt lat="47.27081" lon="4.94049">
        <ele>547.2</ele>
        <time>2013-04-13T07:32:33.000Z</time>
      </trkpt>
      <trkpt lat="47.27079" lon="4.94053">
        <ele>547.6</ele>
        <time>2013-04-13T07:32:35.000Z</time>
      </trkpt>
      <trkpt lat="47.27077" lon="4.94056">
        <ele>547.7</ele>
        <time>2013-04-13T07:32:36.000Z</time>
      </trkpt>
      <trkpt lat="47.27075" lon="4.9406">
        <ele>547.3</ele>
        <time>2013-04-13T07:32:38.000Z</time>
      </trkpt>
      <trkpt lat="47.27074" lon="4.94063">
        <ele>547.3</ele>
        <time>2013-04-13T07:32:39.000Z</time>
      </trkpt>
      <trkpt lat="47.27072" lon="4.94067">
        <ele>547.4</ele>
        <time>2013-04-13T07:32:41.000Z</time>
      </trkpt>
      <trkpt lat="47.27071" lon="4.94069">
        <ele>548.9</ele>
        <time>2013-04-13T07:32:42.000Z</time>
      </trkpt>
      <trkpt lat="47.27068" lon="4.94072">
        <ele>549.5</ele>
        <time>2013-04-13T07:32:44.000Z</time>
      </trkpt>
      <trkpt lat="47.27067" lon="4.94073">
        <ele>549.7</ele>
        <time>2013-04-13T07:32:45.000Z</time>
      </trkpt>
      <trkpt lat="47.27066" lon="4.94077">
        <ele>550.6</ele>
        <time>2013-04-13T07:32:47.000Z</time>
      </trkpt>
      <trkpt lat="47.27065" lon="4.94079">
        <ele>550.4</ele>
        <time>2013-04-13T07:32:48.000Z</time>
      </trkpt>
      <trkpt lat="47.27063" lon="4.94083">
        <ele>550.6</ele>
        <time>2013-04-13T07:32:50.000Z</time>
      </trkpt>
      <trkpt lat="47.27062" lon="4.94085">
        <ele>550.6</ele>
        <time>2013-04-13T07:32:51.000Z</time>
      </trkpt>
      <trkpt lat="47.27059" lon="4.94089">
        <ele>550.7</ele>
        <time>2013-04-13T07:32:53.000Z</time>
      </trkpt>
      <trkpt lat="47.27059" lon="4.94091">
        <ele>551</ele>
        <time>2013-04-13T07:32:54.000Z</time>
      </trkpt>
      <trkpt lat="47.27057" lon="4.94096">
        <ele>550.3</ele>
        <time>2013-04-13T07:32:56.000Z</time>
      </trkpt>
      <trkpt lat="47.27056" lon="4.94098">
        <ele>550.6</ele>
        <time>2013-04-13T07:32:57.000Z</time>
      </trkpt>
      <trkpt lat="47.27055" lon="4.94103">
        <ele>549.2</ele>
        <time>2013-04-13T07:32:59.000Z</time>
      </trkpt>
      <trkpt lat="47.27054" lon="4.94106">
        <ele>549.4</ele>
        <time>2013-04-13T07:33:00.000Z</time>
      </trkpt>
      <trkpt lat="47.27053" lon="4.94112">
        <ele>546.4</ele>
        <time>2013-04-13T07:33:02.000Z</time>
      </trkpt>
      <trkpt lat="47.27053" lon="4.94114">
        <ele>546.2</ele>
        <time>2013-04-13T07:33:03.000Z</time>
      </trkpt>
      <trkpt lat="47.27052" lon="4.94119">
        <ele>546</ele>
        <time>2013-04-13T07:33:05.000Z</time>
      </trkpt>
      <trkpt lat="47.27052" lon="4.94122">
        <ele>546.1</ele>
        <time>2013-04-13T07:33:06.000Z</time>
      </trkpt>
      <trkpt lat="47.27051" lon="4.94126">
        <ele>545.3</ele>
        <time>2013-04-13T07:33:08.000Z</time>
      </trkpt>
      <trkpt lat="47.27051" lon="4.94129">
        <ele>545</ele>
        <time>2013-04-13T07:33:09.000Z</time>
      </trkpt>
      <trkpt lat="47.27051" lon="4.94134">
        <ele>541.4</ele>
        <time>2013-04-13T07:33:11.000Z</time>
      </trkpt>
      <trkpt lat="47.27051" lon="4.94136">
        <ele>540.7</ele>
        <time>2013-04-13T07:33:12.000Z</time>
      </trkpt>
      <trkpt lat="47.27051" lon="4.94142">
        <ele>542</ele>
        <time>2013-04-13T07:33:15.000Z</time>
      </trkpt>
      <trkpt lat="47.2705" lon="4.94144">
        <ele>542.1</ele>
        <time>2013-04-13T07:33:16.000Z</time>
      </trkpt>
      <trkpt lat="47.2705" lon="4.94149">
        <ele>539</ele>
        <time>2013-04-13T07:33:18.000Z</time>
      </trkpt>
      <trkpt lat="47.2705" lon="4.94152">
        <ele>539.6</ele>
        <time>2013-04-13T07:33:19.000Z</time>
      </trkpt>
      <trkpt lat="47.27049" lon="4.94157">
        <ele>539.9</ele>
        <time>2013-04-13T07:33:21.000Z</time>
      </trkpt>
      <trkpt lat="47.27049" lon="4.94159">
        <ele>539.1</ele>
        <time>2013-04-13T07:33:22.000Z</time>
      </trkpt>
      <trkpt lat="47.27049" lon="4.94164">
        <ele>538.4</ele>
        <time>2013-04-13T07:33:24.000Z</time>
      </trkpt>
      <trkpt lat="47.27049" lon="4.94167">
        <ele>538.5</ele>
        <time>2013-04-13T07:33:25.000Z</time>
      </trkpt>
      <trkpt lat="47.27049" lon="4.94172">
        <ele>538.3</ele>
        <time>2013-04-13T07:33:27.000Z</time>
      </trkpt>
      <trkpt lat="47.27048" lon="4.94175">
        <ele>538.1</ele>
        <time>2013-04-13T07:33:28.000Z</time>
      </trkpt>
      <trkpt lat="47.27048" lon="4.94181">
        <ele>538.1</ele>
        <time>2013-04-13T07:33:30.000Z</time>
      </trkpt>
      <trkpt lat="47.27047" lon="4.94184">
        <ele>539.4</ele>
        <time>2013-04-13T07:33:31.000Z</time>
      </trkpt>
      <trkpt lat="47.27046" lon="4.9419">
        <ele>537.9</ele>
        <time>2013-04-13T07:33:33.000Z</time>
      </trkpt>
      <trkpt lat="47.27046" lon="4.94192">
        <ele>538</ele>
        <time>2013-04-13T07:33:34.000Z</time>
      </trkpt>
      <trkpt lat="47.27046" lon="4.94196">
        <ele>537.7</ele>
        <time>2013-04-13T07:33:36.000Z</time>
      </trkpt>
      <trkpt lat="47.27045" lon="4.94199">
        <ele>537.9</ele>
        <time>2013-04-13T07:33:37.000Z</time>
      </trkpt>
      <trkpt lat="47.27045" lon="4.94203">
        <ele>537.3</ele>
        <time>2013-04-13T07:33:39.000Z</time>
      </trkpt>
      <trkpt lat="47.27044" lon="4.94206">
        <ele>538.5</ele>
        <time>2013-04-13T07:33:40.000Z</time>
      </trkpt>
      <trkpt lat="47.27044" lon="4.94212">
        <ele>539</ele>
        <time>2013-04-13T07:33:42.000Z</time>
      </trkpt>
      <trkpt lat="47.27043" lon="4.94215">
        <ele>540.4</ele>
        <time>2013-04-13T07:33:43.000Z</time>
      </trkpt>
      <trkpt lat="47.27042" lon="4.9422">
        <ele>541.1</ele>
        <time>2013-04-13T07:33:45.000Z</time>
      </trkpt>
      <trkpt lat="47.27041" lon="4.94222">
        <ele>540.7</ele>
        <time>2013-04-13T07:33:46.000Z</time>
      </trkpt>
      <trkpt lat="47.27041" lon="4.94228">
        <ele>540.4</ele>
        <time>2013-04-13T07:33:48.000Z</time>
      </trkpt>
      <trkpt lat="47.2704" lon="4.9423">
        <ele>540.6</ele>
        <time>2013-04-13T07:33:49.000Z</time>
      </trkpt>
      <trkpt lat="47.2704" lon="4.94237">
        <ele>541.2</ele>
        <time>2013-04-13T07:33:51.000Z</time>
      </trkpt>
      <trkpt lat="47.2704" lon="4.94239">
        <ele>541.1</ele>
        <time>2013-04-13T07:33:52.000Z</time>
      </trkpt>
      <trkpt lat="47.2704" lon="4.94245">
        <ele>542.1</ele>
        <time>2013-04-13T07:33:54.000Z</time>
      </trkpt>
      <trkpt lat="47.2704" lon="4.94247">
        <ele>540.9</ele>
        <time>2013-04-13T07:33:55.000Z</time>
      </trkpt>
      <trkpt lat="47.2704" lon="4.94252">
        <ele>541.1</ele>
        <time>2013-04-13T07:33:57.000Z</time>
      </trkpt>
      <trkpt lat="47.2704" lon="4.94254">
        <ele>541.2</ele>
        <time>2013-04-13T07:33:58.000Z</time>
      </trkpt>
      <trkpt lat="47.2704" lon="4.94258">
        <ele>540.8</ele>
        <time>2013-04-13T07:33:59.000Z</time>
      </trkpt>
      <trkpt lat="47.27039" lon="4.94261">
        <ele>540.4</ele>
        <time>2013-04-13T07:34:00.000Z</time>
      </trkpt>
      <trkpt lat="47.27039" lon="4.94264">
        <ele>540.2</ele>
        <time>2013-04-13T07:34:01.000Z</time>
      </trkpt>
      <trkpt lat="47.27039" lon="4.94268">
        <ele>540.1</ele>
        <time>2013-04-13T07:34:02.000Z</time>
      </trkpt>
      <trkpt lat="47.27039" lon="4.94274">
        <ele>540.3</ele>
        <time>2013-04-13T07:34:04.000Z</time>
      </trkpt>
      <trkpt lat="47.27038" lon="4.94277">
        <ele>540.5</ele>
        <time>2013-04-13T07:34:05.000Z</time>
      </trkpt>
      <trkpt lat="47.27038" lon="4.94282">
        <ele>539.9</ele>
        <time>2013-04-13T07:34:07.000Z</time>
      </trkpt>
      <trkpt lat="47.27038" lon="4.94285">
        <ele>540.5</ele>
        <time>2013-04-13T07:34:08.000Z</time>
      </trkpt>
      <trkpt lat="47.27038" lon="4.9429">
        <ele>539</ele>
        <time>2013-04-13T07:34:10.000Z</time>
      </trkpt>
      <trkpt lat="47.27038" lon="4.94293">
        <ele>538.1</ele>
        <time>2013-04-13T07:34:11.000Z</time>
      </trkpt>
      <trkpt lat="47.27039" lon="4.94299">
        <ele>538.1</ele>
        <time>2013-04-13T07:34:13.000Z</time>
      </trkpt>
      <trkpt lat="47.27039" lon="4.94302">
        <ele>538</ele>
        <time>2013-04-13T07:34:14.000Z</time>
      </trkpt>
      <trkpt lat="47.27039" lon="4.94307">
        <ele>537.5</ele>
        <time>2013-04-13T07:34:16.000Z</time>
      </trkpt>
      <trkpt lat="47.27039" lon="4.9431">
        <ele>538.5</ele>
        <time>2013-04-13T07:34:17.000Z</time>
      </trkpt>
      <trkpt lat="47.27039" lon="4.94316">
        <ele>537.5</ele>
        <time>2013-04-13T07:34:19.000Z</time>
      </trkpt>
      <trkpt lat="47.27038" lon="4.94319">
        <ele>537.2</ele>
        <time>2013-04-13T07:34:20.000Z</time>
      </trkpt>
      <trkpt lat="47.27038" lon="4.94325">
        <ele>536</ele>
        <time>2013-04-13T07:34:22.000Z</time>
      </trkpt>
      <trkpt lat="47.27037" lon="4.94328">
        <ele>536.6</ele>
        <time>2013-04-13T07:34:23.000Z</time>
      </trkpt>
      <trkpt lat="47.27037" lon="4.94332">
        <ele>536.3</ele>
        <time>2013-04-13T07:34:25.000Z</time>
      </trkpt>
      <trkpt lat="47.27037" lon="4.94335">
        <ele>536</ele>
        <time>2013-04-13T07:34:26.000Z</time>
      </trkpt>
      <trkpt lat="47.27037" lon="4.9434">
        <ele>535.5</ele>
        <time>2013-04-13T07:34:28.000Z</time>
      </trkpt>
      <trkpt lat="47.27037" lon="4.94343">
        <ele>535.5</ele>
        <time>2013-04-13T07:34:29.000Z</time>
      </trkpt>
      <trkpt lat="47.27037" lon="4.94348">
        <ele>535.2</ele>
        <time>2013-04-13T07:34:31.000Z</time>
      </trkpt>
      <trkpt lat="47.27036" lon="4.94351">
        <ele>535.3</ele>
        <time>2013-04-13T07:34:32.000Z</time>
      </trkpt>
      <trkpt lat="47.27036" lon="4.94357">
        <ele>535.6</ele>
        <time>2013-04-13T07:34:34.000Z</time>
      </trkpt>
      <trkpt lat="47.27036" lon="4.94359">
        <ele>535.7</ele>
        <time>2013-04-13T07:34:35.000Z</time>
      </trkpt>
      <trkpt lat="47.27036" lon="4.94365">
        <ele>535.5</ele>
        <time>2013-04-13T07:34:37.000Z</time>
      </trkpt>
      <trkpt lat="47.27036" lon="4.94368">
        <ele>535.9</ele>
        <time>2013-04-13T07:34:38.000Z</time>
      </trkpt>
      <trkpt lat="47.27035" lon="4.94374">
        <ele>533.7</ele>
        <time>2013-04-13T07:34:40.000Z</time>
      </trkpt>
      <trkpt lat="47.27035" lon="4.94376">
        <ele>534.2</ele>
        <time>2013-04-13T07:34:41.000Z</time>
      </trkpt>
      <trkpt lat="47.27035" lon="4.94382">
        <ele>534</ele>
        <time>2013-04-13T07:34:43.000Z</time>
      </trkpt>
      <trkpt lat="47.27035" lon="4.94385">
        <ele>534</ele>
        <time>2013-04-13T07:34:44.000Z</time>
      </trkpt>
      <trkpt lat="47.27034" lon="4.9439">
        <ele>533.8</ele>
        <time>2013-04-13T07:34:46.000Z</time>
      </trkpt>
      <trkpt lat="47.27034" lon="4.94393">
        <ele>533.4</ele>
        <time>2013-04-13T07:34:47.000Z</time>
      </trkpt>
      <trkpt lat="47.27034" lon="4.944">
        <ele>532.5</ele>
        <time>2013-04-13T07:34:49.000Z</time>
      </trkpt>
      <trkpt lat="47.27034" lon="4.94403">
        <ele>532.2</ele>
        <time>2013-04-13T07:34:50.000Z</time>
      </trkpt>
      <trkpt lat="47.27034" lon="4.94406">
        <ele>532.5</ele>
        <time>2013-04-13T07:34:51.000Z</time>
      </trkpt>
      <trkpt lat="47.27033" lon="4.94409">
        <ele>532.7</ele>
        <time>2013-04-13T07:34:52.000Z</time>
      </trkpt>
      <trkpt lat="47.27033" lon="4.94413">
        <ele>532.9</ele>
        <time>2013-04-13T07:34:53.000Z</time>
      </trkpt>
      <trkpt lat="47.27033" lon="4.94416">
        <ele>533.6</ele>
        <time>2013-04-13T07:34:54.000Z</time>
      </trkpt>
      <trkpt lat="47.27033" lon="4.94422">
        <ele>533.7</ele>
        <time>2013-04-13T07:34:56.000Z</time>
      </trkpt>
      <trkpt lat="47.27033" lon="4.94424">
        <ele>532.8</ele>
        <time>2013-04-13T07:34:57.000Z</time>
      </trkpt>
      <trkpt lat="47.27034" lon="4.9443">
        <ele>533.2</ele>
        <time>2013-04-13T07:34:59.000Z</time>
      </trkpt>
      <trkpt lat="47.27034" lon="4.94433">
        <ele>532.7</ele>
        <time>2013-04-13T07:35:00.000Z</time>
      </trkpt>
      <trkpt lat="47.27034" lon="4.94438">
        <ele>532.8</ele>
        <time>2013-04-13T07:35:02.000Z</time>
      </trkpt>
      <trkpt lat="47.27034" lon="4.9444">
        <ele>533.7</ele>
        <time>2013-04-13T07:35:03.000Z</time>
      </trkpt>
      <trkpt lat="47.27033" lon="4.94445">
        <ele>532.6</ele>
        <time>2013-04-13T07:35:05.000Z</time>
      </trkpt>
      <trkpt lat="47.27033" lon="4.94448">
        <ele>533</ele>
        <time>2013-04-13T07:35:06.000Z</time>
      </trkpt>
      <trkpt lat="47.27032" lon="4.94453">
        <ele>532.9</ele>
        <time>2013-04-13T07:35:08.000Z</time>
      </trkpt>
      <trkpt lat="47.27032" lon="4.94455">
        <ele>533.2</ele>
        <time>2013-04-13T07:35:09.000Z</time>
      </trkpt>
      <trkpt lat="47.27032" lon="4.94461">
        <ele>531.9</ele>
        <time>2013-04-13T07:35:11.000Z</time>
      </trkpt>
      <trkpt lat="47.27031" lon="4.94463">
        <ele>531.9</ele>
        <time>2013-04-13T07:35:12.000Z</time>
      </trkpt>
      <trkpt lat="47.2703" lon="4.94469">
        <ele>531.4</ele>
        <time>2013-04-13T07:35:14.000Z</time>
      </trkpt>
      <trkpt lat="47.2703" lon="4.94471">
        <ele>531.2</ele>
        <time>2013-04-13T07:35:15.000Z</time>
      </trkpt>
      <trkpt lat="47.27029" lon="4.94477">
        <ele>530.9</ele>
        <time>2013-04-13T07:35:17.000Z</time>
      </trkpt>
      <trkpt lat="47.27028" lon="4.9448">
        <ele>531.7</ele>
        <time>2013-04-13T07:35:18.000Z</time>
      </trkpt>
      <trkpt lat="47.27027" lon="4.94485">
        <ele>532.6</ele>
        <time>2013-04-13T07:35:20.000Z</time>
      </trkpt>
      <trkpt lat="47.27026" lon="4.94487">
        <ele>531.5</ele>
        <time>2013-04-13T07:35:21.000Z</time>
      </trkpt>
      <trkpt lat="47.27025" lon="4.94492">
        <ele>531.2</ele>
        <time>2013-04-13T07:35:23.000Z</time>
      </trkpt>
      <trkpt lat="47.27024" lon="4.94495">
        <ele>530.9</ele>
        <time>2013-04-13T07:35:24.000Z</time>
      </trkpt>
      <trkpt lat="47.27023" lon="4.945">
        <ele>531.6</ele>
        <time>2013-04-13T07:35:26.000Z</time>
      </trkpt>
      <trkpt lat="47.27023" lon="4.94503">
        <ele>531.5</ele>
        <time>2013-04-13T07:35:27.000Z</time>
      </trkpt>
      <trkpt lat="47.27022" lon="4.94508">
        <ele>530.8</ele>
        <time>2013-04-13T07:35:29.000Z</time>
      </trkpt>
      <trkpt lat="47.27021" lon="4.94511">
        <ele>530.4</ele>
        <time>2013-04-13T07:35:30.000Z</time>
      </trkpt>
      <trkpt lat="47.2702" lon="4.94516">
        <ele>530.3</ele>
        <time>2013-04-13T07:35:32.000Z</time>
      </trkpt>
      <trkpt lat="47.27019" lon="4.94518">
        <ele>530</ele>
        <time>2013-04-13T07:35:33.000Z</time>
      </trkpt>
      <trkpt lat="47.27017" lon="4.94523">
        <ele>529.9</ele>
        <time>2013-04-13T07:35:35.000Z</time>
      </trkpt>
      <trkpt lat="47.27016" lon="4.94526">
        <ele>529.1</ele>
        <time>2013-04-13T07:35:36.000Z</time>
      </trkpt>
      <trkpt lat="47.27015" lon="4.94531">
        <ele>529.2</ele>
        <time>2013-04-13T07:35:38.000Z</time>
      </trkpt>
      <trkpt lat="47.27014" lon="4.94533">
        <ele>529.3</ele>
        <time>2013-04-13T07:35:39.000Z</time>
      </trkpt>
      <trkpt lat="47.27012" lon="4.94538">
        <ele>529.2</ele>
        <time>2013-04-13T07:35:41.000Z</time>
      </trkpt>
      <trkpt lat="47.27011" lon="4.9454">
        <ele>528.8</ele>
        <time>2013-04-13T07:35:42.000Z</time>
      </trkpt>
      <trkpt lat="47.27009" lon="4.94545">
        <ele>528.1</ele>
        <time>2013-04-13T07:35:44.000Z</time>
      </trkpt>
      <trkpt lat="47.27008" lon="4.94547">
        <ele>527.5</ele>
        <time>2013-04-13T07:35:45.000Z</time>
      </trkpt>
      <trkpt lat="47.27007" lon="4.94552">
        <ele>529.4</ele>
        <time>2013-04-13T07:35:47.000Z</time>
      </trkpt>
      <trkpt lat="47.27006" lon="4.94554">
        <ele>529.1</ele>
        <time>2013-04-13T07:35:48.000Z</time>
      </trkpt>
      <trkpt lat="47.27005" lon="4.94559">
        <ele>527.4</ele>
        <time>2013-04-13T07:35:50.000Z</time>
      </trkpt>
      <trkpt lat="47.27004" lon="4.94561">
        <ele>527.7</ele>
        <time>2013-04-13T07:35:51.000Z</time>
      </trkpt>
      <trkpt lat="47.27003" lon="4.94565">
        <ele>527.5</ele>
        <time>2013-04-13T07:35:53.000Z</time>
      </trkpt>
      <trkpt lat="47.27002" lon="4.94568">
        <ele>527.4</ele>
        <time>2013-04-13T07:35:54.000Z</time>
      </trkpt>
      <trkpt lat="47.27" lon="4.94573">
        <ele>524.7</ele>
        <time>2013-04-13T07:35:56.000Z</time>
      </trkpt>
      <trkpt lat="47.26999" lon="4.94575">
        <ele>524.8</ele>
        <time>2013-04-13T07:35:57.000Z</time>
      </trkpt>
      <trkpt lat="47.26996" lon="4.9458">
        <ele>526</ele>
        <time>2013-04-13T07:35:59.000Z</time>
      </trkpt>
      <trkpt lat="47.26994" lon="4.94582">
        <ele>526.2</ele>
        <time>2013-04-13T07:36:00.000Z</time>
      </trkpt>
      <trkpt lat="47.26993" lon="4.94587">
        <ele>525.4</ele>
        <time>2013-04-13T07:36:02.000Z</time>
      </trkpt>
      <trkpt lat="47.26992" lon="4.94589">
        <ele>524.8</ele>
        <time>2013-04-13T07:36:03.000Z</time>
      </trkpt>
      <trkpt lat="47.2699" lon="4.94594">
        <ele>523.9</ele>
        <time>2013-04-13T07:36:05.000Z</time>
      </trkpt>
      <trkpt lat="47.26989" lon="4.94596">
        <ele>524</ele>
        <time>2013-04-13T07:36:06.000Z</time>
      </trkpt>
      <trkpt lat="47.26988" lon="4.946">
        <ele>524.1</ele>
        <time>2013-04-13T07:36:08.000Z</time>
      </trkpt>
      <trkpt lat="47.26987" lon="4.94602">
        <ele>523.9</ele>
        <time>2013-04-13T07:36:09.000Z</time>
      </trkpt>
      <trkpt lat="47.26985" lon="4.94606">
        <ele>523.4</ele>
        <time>2013-04-13T07:36:11.000Z</time>
      </trkpt>
      <trkpt lat="47.26984" lon="4.94609">
        <ele>522.3</ele>
        <time>2013-04-13T07:36:12.000Z</time>
      </trkpt>
      <trkpt lat="47.26981" lon="4.94614">
        <ele>521.3</ele>
        <time>2013-04-13T07:36:14.000Z</time>
      </trkpt>
      <trkpt lat="47.26979" lon="4.94616">
        <ele>521.9</ele>
        <time>2013-04-13T07:36:15.000Z</time>
      </trkpt>
      <trkpt lat="47.26977" lon="4.9462">
        <ele>521.2</ele>
        <time>2013-04-13T07:36:17.000Z</time>
      </trkpt>
      <trkpt lat="47.26976" lon="4.94623">
        <ele>521.7</ele>
        <time>2013-04-13T07:36:18.000Z</time>
      </trkpt>
      <trkpt lat="47.26974" lon="4.94627">
        <ele>521.4</ele>
        <time>2013-04-13T07:36:20.000Z</time>
      </trkpt>
      <trkpt lat="47.26974" lon="4.9463">
        <ele>521.9</ele>
        <time>2013-04-13T07:36:21.000Z</time>
      </trkpt>
      <trkpt lat="47.26972" lon="4.94635">
        <ele>522.7</ele>
        <time>2013-04-13T07:36:23.000Z</time>
      </trkpt>
      <trkpt lat="47.26972" lon="4.94637">
        <ele>522.8</ele>
        <time>2013-04-13T07:36:24.000Z</time>
      </trkpt>
      <trkpt lat="47.2697" lon="4.94643">
        <ele>523.1</ele>
        <time>2013-04-13T07:36:26.000Z</time>
      </trkpt>
      <trkpt lat="47.26969" lon="4.94645">
        <ele>523.2</ele>
        <time>2013-04-13T07:36:27.000Z</time>
      </trkpt>
      <trkpt lat="47.26967" lon="4.94651">
        <ele>521.4</ele>
        <time>2013-04-13T07:36:29.000Z</time>
      </trkpt>
      <trkpt lat="47.26966" lon="4.94654">
        <ele>521.6</ele>
        <time>2013-04-13T07:36:30.000Z</time>
      </trkpt>
      <trkpt lat="47.26965" lon="4.94657">
        <ele>521.7</ele>
        <time>2013-04-13T07:36:31.000Z</time>
      </trkpt>
      <trkpt lat="47.26964" lon="4.9466">
        <ele>521.4</ele>
        <time>2013-04-13T07:36:32.000Z</time>
      </trkpt>
      <trkpt lat="47.26963" lon="4.94665">
        <ele>521.3</ele>
        <time>2013-04-13T07:36:34.000Z</time>
      </trkpt>
      <trkpt lat="47.26962" lon="4.94667">
        <ele>521.7</ele>
        <time>2013-04-13T07:36:35.000Z</time>
      </trkpt>
      <trkpt lat="47.26961" lon="4.94671">
        <ele>522.3</ele>
        <time>2013-04-13T07:36:37.000Z</time>
      </trkpt>
      <trkpt lat="47.26961" lon="4.94674">
        <ele>522.8</ele>
        <time>2013-04-13T07:36:38.000Z</time>
      </trkpt>
      <trkpt lat="47.2696" lon="4.9468">
        <ele>522.5</ele>
        <time>2013-04-13T07:36:40.000Z</time>
      </trkpt>
      <trkpt lat="47.26959" lon="4.94682">
        <ele>522.4</ele>
        <time>2013-04-13T07:36:41.000Z</time>
      </trkpt>
      <trkpt lat="47.26957" lon="4.94687">
        <ele>522.1</ele>
        <time>2013-04-13T07:36:43.000Z</time>
      </trkpt>
      <trkpt lat="47.26956" lon="4.9469">
        <ele>522</ele>
        <time>2013-04-13T07:36:44.000Z</time>
      </trkpt>
      <trkpt lat="47.26954" lon="4.94696">
        <ele>520.8</ele>
        <time>2013-04-13T07:36:46.000Z</time>
      </trkpt>
      <trkpt lat="47.26953" lon="4.94699">
        <ele>522.2</ele>
        <time>2013-04-13T07:36:47.000Z</time>
      </trkpt>
      <trkpt lat="47.26951" lon="4.94704">
        <ele>521.2</ele>
        <time>2013-04-13T07:36:49.000Z</time>
      </trkpt>
      <trkpt lat="47.2695" lon="4.94707">
        <ele>520.9</ele>
        <time>2013-04-13T07:36:50.000Z</time>
      </trkpt>
      <trkpt lat="47.26949" lon="4.94712">
        <ele>520.8</ele>
        <time>2013-04-13T07:36:52.000Z</time>
      </trkpt>
      <trkpt lat="47.26948" lon="4.94714">
        <ele>520.5</ele>
        <time>2013-04-13T07:36:53.000Z</time>
      </trkpt>
      <trkpt lat="47.26946" lon="4.94719">
        <ele>519.4</ele>
        <time>2013-04-13T07:36:55.000Z</time>
      </trkpt>
      <trkpt lat="47.26945" lon="4.94722">
        <ele>520</ele>
        <time>2013-04-13T07:36:56.000Z</time>
      </trkpt>
      <trkpt lat="47.26943" lon="4.94726">
        <ele>519.6</ele>
        <time>2013-04-13T07:36:58.000Z</time>
      </trkpt>
      <trkpt lat="47.26942" lon="4.94728">
        <ele>519.2</ele>
        <time>2013-04-13T07:36:59.000Z</time>
      </trkpt>
      <trkpt lat="47.26941" lon="4.94731">
        <ele>519.4</ele>
        <time>2013-04-13T07:37:01.000Z</time>
      </trkpt>
      <trkpt lat="47.2694" lon="4.94733">
        <ele>518.9</ele>
        <time>2013-04-13T07:37:02.000Z</time>
      </trkpt>
      <trkpt lat="47.26937" lon="4.94738">
        <ele>519.9</ele>
        <time>2013-04-13T07:37:05.000Z</time>
      </trkpt>
      <trkpt lat="47.26937" lon="4.9474">
        <ele>519.9</ele>
        <time>2013-04-13T07:37:06.000Z</time>
      </trkpt>
      <trkpt lat="47.26935" lon="4.94745">
        <ele>520</ele>
        <time>2013-04-13T07:37:08.000Z</time>
      </trkpt>
      <trkpt lat="47.26934" lon="4.94747">
        <ele>520.3</ele>
        <time>2013-04-13T07:37:09.000Z</time>
      </trkpt>
      <trkpt lat="47.26932" lon="4.94752">
        <ele>521.1</ele>
        <time>2013-04-13T07:37:11.000Z</time>
      </trkpt>
      <trkpt lat="47.26931" lon="4.94755">
        <ele>520.7</ele>
        <time>2013-04-13T07:37:12.000Z</time>
      </trkpt>
      <trkpt lat="47.2693" lon="4.9476">
        <ele>519.9</ele>
        <time>2013-04-13T07:37:14.000Z</time>
      </trkpt>
      <trkpt lat="47.2693" lon="4.94762">
        <ele>519.6</ele>
        <time>2013-04-13T07:37:15.000Z</time>
      </trkpt>
      <trkpt lat="47.26928" lon="4.94768">
        <ele>520</ele>
        <time>2013-04-13T07:37:17.000Z</time>
      </trkpt>
      <trkpt lat="47.26927" lon="4.9477">
        <ele>519.4</ele>
        <time>2013-04-13T07:37:18.000Z</time>
      </trkpt>
      <trkpt lat="47.26926" lon="4.94776">
        <ele>519</ele>
        <time>2013-04-13T07:37:20.000Z</time>
      </trkpt>
      <trkpt lat="47.26925" lon="4.94778">
        <ele>518.5</ele>
        <time>2013-04-13T07:37:21.000Z</time>
      </trkpt>
      <trkpt lat="47.26924" lon="4.94783">
        <ele>518.5</ele>
        <time>2013-04-13T07:37:23.000Z</time>
      </trkpt>
      <trkpt lat="47.26923" lon="4.94786">
        <ele>519.3</ele>
        <time>2013-04-13T07:37:24.000Z</time>
      </trkpt>
      <trkpt lat="47.26921" lon="4.94791">
        <ele>518.3</ele>
        <time>2013-04-13T07:37:26.000Z</time>
      </trkpt>
      <trkpt lat="47.2692" lon="4.94793">
        <ele>517.7</ele>
        <time>2013-04-13T07:37:27.000Z</time>
      </trkpt>
      <trkpt lat="47.26918" lon="4.94798">
        <ele>517.7</ele>
        <time>2013-04-13T07:37:29.000Z</time>
      </trkpt>
      <trkpt lat="47.26917" lon="4.948">
        <ele>517.6</ele>
        <time>2013-04-13T07:37:30.000Z</time>
      </trkpt>
      <trkpt lat="47.26915" lon="4.94806">
        <ele>516.7</ele>
        <time>2013-04-13T07:37:32.000Z</time>
      </trkpt>
      <trkpt lat="47.26914" lon="4.94809">
        <ele>515.9</ele>
        <time>2013-04-13T07:37:33.000Z</time>
      </trkpt>
      <trkpt lat="47.26912" lon="4.94814">
        <ele>515.6</ele>
        <time>2013-04-13T07:37:35.000Z</time>
      </trkpt>
      <trkpt lat="47.26911" lon="4.94817">
        <ele>514.5</ele>
        <time>2013-04-13T07:37:36.000Z</time>
      </trkpt>
      <trkpt lat="47.2691" lon="4.94823">
        <ele>515.2</ele>
        <time>2013-04-13T07:37:38.000Z</time>
      </trkpt>
      <trkpt lat="47.26909" lon="4.94825">
        <ele>515.4</ele>
        <time>2013-04-13T07:37:39.000Z</time>
      </trkpt>
      <trkpt lat="47.26907" lon="4.94831">
        <ele>515.3</ele>
        <time>2013-04-13T07:37:41.000Z</time>
      </trkpt>
      <trkpt lat="47.26906" lon="4.94833">
        <ele>515.1</ele>
        <time>2013-04-13T07:37:42.000Z</time>
      </trkpt>
      <trkpt lat="47.26904" lon="4.94839">
        <ele>514.2</ele>
        <time>2013-04-13T07:37:44.000Z</time>
      </trkpt>
      <trkpt lat="47.26903" lon="4.94842">
        <ele>513.8</ele>
        <time>2013-04-13T07:37:45.000Z</time>
      </trkpt>
      <trkpt lat="47.26901" lon="4.94847">
        <ele>513.9</ele>
        <time>2013-04-13T07:37:47.000Z</time>
      </trkpt>
      <trkpt lat="47.26901" lon="4.9485">
        <ele>513.6</ele>
        <time>2013-04-13T07:37:48.000Z</time>
      </trkpt>
      <trkpt lat="47.26899" lon="4.94855">
        <ele>513.4</ele>
        <time>2013-04-13T07:37:50.000Z</time>
      </trkpt>
      <trkpt lat="47.26898" lon="4.94857">
        <ele>513.4</ele>
        <time>2013-04-13T07:37:51.000Z</time>
      </trkpt>
      <trkpt lat="47.26897" lon="4.94863">
        <ele>512.8</ele>
        <time>2013-04-13T07:37:53.000Z</time>
      </trkpt>
      <trkpt lat="47.26896" lon="4.94865">
        <ele>512.7</ele>
        <time>2013-04-13T07:37:54.000Z</time>
      </trkpt>
      <trkpt lat="47.26894" lon="4.9487">
        <ele>513.2</ele>
        <time>2013-04-13T07:37:56.000Z</time>
      </trkpt>
      <trkpt lat="47.26893" lon="4.94872">
        <ele>513.3</ele>
        <time>2013-04-13T07:37:57.000Z</time>
      </trkpt>
      <trkpt lat="47.26892" lon="4.94876">
        <ele>513.2</ele>
        <time>2013-04-13T07:37:59.000Z</time>
      </trkpt>
      <trkpt lat="47.26891" lon="4.94879">
        <ele>513.8</ele>
        <time>2013-04-13T07:38:00.000Z</time>
      </trkpt>
      <trkpt lat="47.26889" lon="4.94883">
        <ele>513.5</ele>
        <time>2013-04-13T07:38:02.000Z</time>
      </trkpt>
      <trkpt lat="47.26889" lon="4.94886">
        <ele>513.3</ele>
        <time>2013-04-13T07:38:03.000Z</time>
      </trkpt>
      <trkpt lat="47.26886" lon="4.94891">
        <ele>513.2</ele>
        <time>2013-04-13T07:38:05.000Z</time>
      </trkpt>
      <trkpt lat="47.26885" lon="4.94893">
        <ele>510.9</ele>
        <time>2013-04-13T07:38:06.000Z</time>
      </trkpt>
      <trkpt lat="47.26884" lon="4.94898">
        <ele>510.5</ele>
        <time>2013-04-13T07:38:08.000Z</time>
      </trkpt>
      <trkpt lat="47.26883" lon="4.949">
        <ele>510.5</ele>
        <time>2013-04-13T07:38:09.000Z</time>
      </trkpt>
      <trkpt lat="47.26882" lon="4.94906">
        <ele>511.1</ele>
        <time>2013-04-13T07:38:11.000Z</time>
      </trkpt>
      <trkpt lat="47.26881" lon="4.9491">
        <ele>511.5</ele>
        <time>2013-04-13T07:38:12.000Z</time>
      </trkpt>
      <trkpt lat="47.2688" lon="4.94913">
        <ele>510.9</ele>
        <time>2013-04-13T07:38:13.000Z</time>
      </trkpt>
      <trkpt lat="47.2688" lon="4.94917">
        <ele>510.9</ele>
        <time>2013-04-13T07:38:14.000Z</time>
      </trkpt>
      <trkpt lat="47.26878" lon="4.94921">
        <ele>511.2</ele>
        <time>2013-04-13T07:38:16.000Z</time>
      </trkpt>
      <trkpt lat="47.26878" lon="4.94923">
        <ele>511.3</ele>
        <time>2013-04-13T07:38:17.000Z</time>
      </trkpt>
      <trkpt lat="47.26876" lon="4.94927">
        <ele>511.6</ele>
        <time>2013-04-13T07:38:19.000Z</time>
      </trkpt>
      <trkpt lat="47.26875" lon="4.9493">
        <ele>511.7</ele>
        <time>2013-04-13T07:38:20.000Z</time>
      </trkpt>
      <trkpt lat="47.26874" lon="4.94935">
        <ele>510.8</ele>
        <time>2013-04-13T07:38:22.000Z</time>
      </trkpt>
      <trkpt lat="47.26873" lon="4.94937">
        <ele>509.2</ele>
        <time>2013-04-13T07:38:23.000Z</time>
      </trkpt>
      <trkpt lat="47.26871" lon="4.94943">
        <ele>508.8</ele>
        <time>2013-04-13T07:38:25.000Z</time>
      </trkpt>
      <trkpt lat="47.26871" lon="4.94945">
        <ele>508.6</ele>
        <time>2013-04-13T07:38:26.000Z</time>
      </trkpt>
      <trkpt lat="47.26869" lon="4.9495">
        <ele>508.8</ele>
        <time>2013-04-13T07:38:28.000Z</time>
      </trkpt>
      <trkpt lat="47.26869" lon="4.94953">
        <ele>508.6</ele>
        <time>2013-04-13T07:38:29.000Z</time>
      </trkpt>
      <trkpt lat="47.26867" lon="4.94958">
        <ele>509.5</ele>
        <time>2013-04-13T07:38:31.000Z</time>
      </trkpt>
      <trkpt lat="47.26866" lon="4.9496">
        <ele>508.8</ele>
        <time>2013-04-13T07:38:32.000Z</time>
      </trkpt>
      <trkpt lat="47.26864" lon="4.94965">
        <ele>509</ele>
        <time>2013-04-13T07:38:34.000Z</time>
      </trkpt>
      <trkpt lat="47.26863" lon="4.94968">
        <ele>509.3</ele>
        <time>2013-04-13T07:38:35.000Z</time>
      </trkpt>
      <trkpt lat="47.26861" lon="4.94972">
        <ele>509</ele>
        <time>2013-04-13T07:38:37.000Z</time>
      </trkpt>
      <trkpt lat="47.26861" lon="4.94974">
        <ele>509</ele>
        <time>2013-04-13T07:38:38.000Z</time>
      </trkpt>
      <trkpt lat="47.26859" lon="4.9498">
        <ele>508.1</ele>
        <time>2013-04-13T07:38:40.000Z</time>
      </trkpt>
      <trkpt lat="47.26858" lon="4.94983">
        <ele>508.1</ele>
        <time>2013-04-13T07:38:41.000Z</time>
      </trkpt>
      <trkpt lat="47.26857" lon="4.94989">
        <ele>509</ele>
        <time>2013-04-13T07:38:43.000Z</time>
      </trkpt>
      <trkpt lat="47.26857" lon="4.94992">
        <ele>509.4</ele>
        <time>2013-04-13T07:38:44.000Z</time>
      </trkpt>
      <trkpt lat="47.26855" lon="4.94997">
        <ele>509.3</ele>
        <time>2013-04-13T07:38:46.000Z</time>
      </trkpt>
      <trkpt lat="47.26855" lon="4.94999">
        <ele>509.2</ele>
        <time>2013-04-13T07:38:47.000Z</time>
      </trkpt>
      <trkpt lat="47.26854" lon="4.95003">
        <ele>510</ele>
        <time>2013-04-13T07:38:49.000Z</time>
      </trkpt>
      <trkpt lat="47.26853" lon="4.95005">
        <ele>510.2</ele>
        <time>2013-04-13T07:38:50.000Z</time>
      </trkpt>
      <trkpt lat="47.26852" lon="4.95009">
        <ele>509.7</ele>
        <time>2013-04-13T07:38:52.000Z</time>
      </trkpt>
      <trkpt lat="47.26851" lon="4.95012">
        <ele>509.5</ele>
        <time>2013-04-13T07:38:53.000Z</time>
      </trkpt>
      <trkpt lat="47.26851" lon="4.95016">
        <ele>509.5</ele>
        <time>2013-04-13T07:38:55.000Z</time>
      </trkpt>
      <trkpt lat="47.2685" lon="4.95018">
        <ele>509.6</ele>
        <time>2013-04-13T07:38:56.000Z</time>
      </trkpt>
      <trkpt lat="47.26849" lon="4.95023">
        <ele>509.5</ele>
        <time>2013-04-13T07:38:58.000Z</time>
      </trkpt>
      <trkpt lat="47.26849" lon="4.95026">
        <ele>509.4</ele>
        <time>2013-04-13T07:38:59.000Z</time>
      </trkpt>
      <trkpt lat="47.26847" lon="4.95031">
        <ele>511.7</ele>
        <time>2013-04-13T07:39:01.000Z</time>
      </trkpt>
      <trkpt lat="47.26847" lon="4.95034">
        <ele>511.7</ele>
        <time>2013-04-13T07:39:02.000Z</time>
      </trkpt>
      <trkpt lat="47.26846" lon="4.9504">
        <ele>511.8</ele>
        <time>2013-04-13T07:39:04.000Z</time>
      </trkpt>
      <trkpt lat="47.26845" lon="4.95042">
        <ele>511.8</ele>
        <time>2013-04-13T07:39:05.000Z</time>
      </trkpt>
      <trkpt lat="47.26844" lon="4.95047">
        <ele>512.2</ele>
        <time>2013-04-13T07:39:07.000Z</time>
      </trkpt>
      <trkpt lat="47.26843" lon="4.9505">
        <ele>512.1</ele>
        <time>2013-04-13T07:39:08.000Z</time>
      </trkpt>
      <trkpt lat="47.26841" lon="4.95055">
        <ele>512.2</ele>
        <time>2013-04-13T07:39:10.000Z</time>
      </trkpt>
      <trkpt lat="47.26841" lon="4.95058">
        <ele>512.5</ele>
        <time>2013-04-13T07:39:11.000Z</time>
      </trkpt>
      <trkpt lat="47.2684" lon="4.95063">
        <ele>511.9</ele>
        <time>2013-04-13T07:39:13.000Z</time>
      </trkpt>
      <trkpt lat="47.26839" lon="4.95066">
        <ele>511.8</ele>
        <time>2013-04-13T07:39:14.000Z</time>
      </trkpt>
      <trkpt lat="47.26838" lon="4.95071">
        <ele>511.9</ele>
        <time>2013-04-13T07:39:16.000Z</time>
      </trkpt>
      <trkpt lat="47.26838" lon="4.95074">
        <ele>511.8</ele>
        <time>2013-04-13T07:39:17.000Z</time>
      </trkpt>
      <trkpt lat="47.26837" lon="4.95078">
        <ele>512.7</ele>
        <time>2013-04-13T07:39:19.000Z</time>
      </trkpt>
      <trkpt lat="47.26837" lon="4.95081">
        <ele>512.6</ele>
        <time>2013-04-13T07:39:20.000Z</time>
      </trkpt>
      <trkpt lat="47.26836" lon="4.95087">
        <ele>512.3</ele>
        <time>2013-04-13T07:39:22.000Z</time>
      </trkpt>
      <trkpt lat="47.26835" lon="4.9509">
        <ele>512.5</ele>
        <time>2013-04-13T07:39:23.000Z</time>
      </trkpt>
      <trkpt lat="47.26834" lon="4.95093">
        <ele>511.3</ele>
        <time>2013-04-13T07:39:24.000Z</time>
      </trkpt>
      <trkpt lat="47.26834" lon="4.95097">
        <ele>511</ele>
        <time>2013-04-13T07:39:25.000Z</time>
      </trkpt>
      <trkpt lat="47.26833" lon="4.95103">
        <ele>511.2</ele>
        <time>2013-04-13T07:39:27.000Z</time>
      </trkpt>
      <trkpt lat="47.26832" lon="4.95106">
        <ele>510.8</ele>
        <time>2013-04-13T07:39:28.000Z</time>
      </trkpt>
      <trkpt lat="47.26832" lon="4.95111">
        <ele>510.9</ele>
        <time>2013-04-13T07:39:30.000Z</time>
      </trkpt>
      <trkpt lat="47.26831" lon="4.95113">
        <ele>510.7</ele>
        <time>2013-04-13T07:39:31.000Z</time>
      </trkpt>
      <trkpt lat="47.26831" lon="4.95118">
        <ele>510.9</ele>
        <time>2013-04-13T07:39:33.000Z</time>
      </trkpt>
      <trkpt lat="47.2683" lon="4.95121">
        <ele>510.9</ele>
        <time>2013-04-13T07:39:34.000Z</time>
      </trkpt>
      <trkpt lat="47.2683" lon="4.95126">
        <ele>510.9</ele>
        <time>2013-04-13T07:39:36.000Z</time>
      </trkpt>
      <trkpt lat="47.2683" lon="4.95129">
        <ele>510.7</ele>
        <time>2013-04-13T07:39:37.000Z</time>
      </trkpt>
      <trkpt lat="47.26829" lon="4.95134">
        <ele>510.9</ele>
        <time>2013-04-13T07:39:39.000Z</time>
      </trkpt>
      <trkpt lat="47.26828" lon="4.95136">
        <ele>511.1</ele>
        <time>2013-04-13T07:39:40.000Z</time>
      </trkpt>
      <trkpt lat="47.26828" lon="4.95141">
        <ele>511.1</ele>
        <time>2013-04-13T07:39:42.000Z</time>
      </trkpt>
      <trkpt lat="47.26827" lon="4.95143">
        <ele>510.8</ele>
        <time>2013-04-13T07:39:43.000Z</time>
      </trkpt>
      <trkpt lat="47.26827" lon="4.95149">
        <ele>511.4</ele>
        <time>2013-04-13T07:39:45.000Z</time>
      </trkpt>
      <trkpt lat="47.26827" lon="4.95151">
        <ele>510.9</ele>
        <time>2013-04-13T07:39:46.000Z</time>
      </trkpt>
      <trkpt lat="47.26826" lon="4.95157">
        <ele>511.1</ele>
        <time>2013-04-13T07:39:48.000Z</time>
      </trkpt>
      <trkpt lat="47.26826" lon="4.95159">
        <ele>511.1</ele>
        <time>2013-04-13T07:39:49.000Z</time>
      </trkpt>
      <trkpt lat="47.26825" lon="4.95164">
        <ele>511.1</ele>
        <time>2013-04-13T07:39:51.000Z</time>
      </trkpt>
      <trkpt lat="47.26825" lon="4.95167">
        <ele>509.9</ele>
        <time>2013-04-13T07:39:52.000Z</time>
      </trkpt>
      <trkpt lat="47.26824" lon="4.95172">
        <ele>510.1</ele>
        <time>2013-04-13T07:39:54.000Z</time>
      </trkpt>
      <trkpt lat="47.26824" lon="4.95174">
        <ele>510.5</ele>
        <time>2013-04-13T07:39:55.000Z</time>
      </trkpt>
      <trkpt lat="47.26823" lon="4.95179">
        <ele>510.5</ele>
        <time>2013-04-13T07:39:57.000Z</time>
      </trkpt>
      <trkpt lat="47.26823" lon="4.95182">
        <ele>510.5</ele>
        <time>2013-04-13T07:39:58.000Z</time>
      </trkpt>
      <trkpt lat="47.26822" lon="4.95187">
        <ele>511.2</ele>
        <time>2013-04-13T07:40:00.000Z</time>
      </trkpt>
      <trkpt lat="47.26822" lon="4.9519">
        <ele>511</ele>
        <time>2013-04-13T07:40:01.000Z</time>
      </trkpt>
      <trkpt lat="47.26821" lon="4.95196">
        <ele>511.2</ele>
        <time>2013-04-13T07:40:03.000Z</time>
      </trkpt>
      <trkpt lat="47.26821" lon="4.95199">
        <ele>511.5</ele>
        <time>2013-04-13T07:40:04.000Z</time>
      </trkpt>
      <trkpt lat="47.2682" lon="4.95205">
        <ele>511.2</ele>
        <time>2013-04-13T07:40:06.000Z</time>
      </trkpt>
      <trkpt lat="47.26819" lon="4.95207">
        <ele>511</ele>
        <time>2013-04-13T07:40:07.000Z</time>
      </trkpt>
      <trkpt lat="47.26818" lon="4.95212">
        <ele>511.4</ele>
        <time>2013-04-13T07:40:09.000Z</time>
      </trkpt>
      <trkpt lat="47.26818" lon="4.95215">
        <ele>511.5</ele>
        <time>2013-04-13T07:40:10.000Z</time>
      </trkpt>
      <trkpt lat="47.26817" lon="4.95221">
        <ele>511.5</ele>
        <time>2013-04-13T07:40:12.000Z</time>
      </trkpt>
      <trkpt lat="47.26817" lon="4.95224">
        <ele>511.9</ele>
        <time>2013-04-13T07:40:13.000Z</time>
      </trkpt>
      <trkpt lat="47.26816" lon="4.95229">
        <ele>512.1</ele>
        <time>2013-04-13T07:40:15.000Z</time>
      </trkpt>
      <trkpt lat="47.26816" lon="4.95232">
        <ele>511.9</ele>
        <time>2013-04-13T07:40:16.000Z</time>
      </trkpt>
      <trkpt lat="47.26815" lon="4.95238">
        <ele>511.4</ele>
        <time>2013-04-13T07:40:18.000Z</time>
      </trkpt>
      <trkpt lat="47.26815" lon="4.95241">
        <ele>512.2</ele>
        <time>2013-04-13T07:40:19.000Z</time>
      </trkpt>
      <trkpt lat="47.26814" lon="4.95247">
        <ele>512.4</ele>
        <time>2013-04-13T07:40:21.000Z</time>
      </trkpt>
      <trkpt lat="47.26813" lon="4.9525">
        <ele>512.5</ele>
        <time>2013-04-13T07:40:22.000Z</time>
      </trkpt>
      <trkpt lat="47.26813" lon="4.95255">
        <ele>512.7</ele>
        <time>2013-04-13T07:40:24.000Z</time>
      </trkpt>
      <trkpt lat="47.26813" lon="4.95257">
        <ele>512.6</ele>
        <time>2013-04-13T07:40:25.000Z</time>
      </trkpt>
      <trkpt lat="47.26812" lon="4.95262">
        <ele>511.7</ele>
        <time>2013-04-13T07:40:27.000Z</time>
      </trkpt>
      <trkpt lat="47.26812" lon="4.95264">
        <ele>512.8</ele>
        <time>2013-04-13T07:40:28.000Z</time>
      </trkpt>
      <trkpt lat="47.26812" lon="4.9527">
        <ele>512.9</ele>
        <time>2013-04-13T07:40:30.000Z</time>
      </trkpt>
      <trkpt lat="47.26812" lon="4.95272">
        <ele>512.9</ele>
        <time>2013-04-13T07:40:31.000Z</time>
      </trkpt>
      <trkpt lat="47.26811" lon="4.95278">
        <ele>512.8</ele>
        <time>2013-04-13T07:40:33.000Z</time>
      </trkpt>
      <trkpt lat="47.26811" lon="4.95281">
        <ele>512.9</ele>
        <time>2013-04-13T07:40:34.000Z</time>
      </trkpt>
      <trkpt lat="47.2681" lon="4.95285">
        <ele>511.7</ele>
        <time>2013-04-13T07:40:36.000Z</time>
      </trkpt>
      <trkpt lat="47.2681" lon="4.95287">
        <ele>511.3</ele>
        <time>2013-04-13T07:40:37.000Z</time>
      </trkpt>
      <trkpt lat="47.2681" lon="4.95292">
        <ele>511</ele>
        <time>2013-04-13T07:40:39.000Z</time>
      </trkpt>
      <trkpt lat="47.26809" lon="4.95295">
        <ele>511.4</ele>
        <time>2013-04-13T07:40:40.000Z</time>
      </trkpt>
      <trkpt lat="47.26808" lon="4.953">
        <ele>511.3</ele>
        <time>2013-04-13T07:40:42.000Z</time>
      </trkpt>
      <trkpt lat="47.26808" lon="4.95302">
        <ele>511.1</ele>
        <time>2013-04-13T07:40:43.000Z</time>
      </trkpt>
      <trkpt lat="47.26807" lon="4.95308">
        <ele>510.5</ele>
        <time>2013-04-13T07:40:45.000Z</time>
      </trkpt>
      <trkpt lat="47.26807" lon="4.95311">
        <ele>510.4</ele>
        <time>2013-04-13T07:40:46.000Z</time>
      </trkpt>
      <trkpt lat="47.26806" lon="4.95317">
        <ele>510.7</ele>
        <time>2013-04-13T07:40:48.000Z</time>
      </trkpt>
      <trkpt lat="47.26806" lon="4.9532">
        <ele>509.8</ele>
        <time>2013-04-13T07:40:49.000Z</time>
      </trkpt>
      <trkpt lat="47.26805" lon="4.95325">
        <ele>510.7</ele>
        <time>2013-04-13T07:40:51.000Z</time>
      </trkpt>
      <trkpt lat="47.26805" lon="4.95328">
        <ele>511.5</ele>
        <time>2013-04-13T07:40:52.000Z</time>
      </trkpt>
      <trkpt lat="47.26804" lon="4.95335">
        <ele>511.3</ele>
        <time>2013-04-13T07:40:54.000Z</time>
      </trkpt>
      <trkpt lat="47.26804" lon="4.95337">
        <ele>511.3</ele>
        <time>2013-04-13T07:40:55.000Z</time>
      </trkpt>
      <trkpt lat="47.26803" lon="4.95343">
        <ele>511.8</ele>
        <time>2013-04-13T07:40:57.000Z</time>
      </trkpt>
      <trkpt lat="47.26802" lon="4.95346">
        <ele>511.6</ele>
        <time>2013-04-13T07:40:58.000Z</time>
      </trkpt>
      <trkpt lat="47.26802" lon="4.95351">
        <ele>511.4</ele>
        <time>2013-04-13T07:41:00.000Z</time>
      </trkpt>
      <trkpt lat="47.26801" lon="4.95354">
        <ele>511.4</ele>
        <time>2013-04-13T07:41:01.000Z</time>
      </trkpt>
      <trkpt lat="47.26801" lon="4.95359">
        <ele>510.6</ele>
        <time>2013-04-13T07:41:03.000Z</time>
      </trkpt>
      <trkpt lat="47.268" lon="4.95361">
        <ele>510.5</ele>
        <time>2013-04-13T07:41:04.000Z</time>
      </trkpt>
      <trkpt lat="47.268" lon="4.95366">
        <ele>509.5</ele>
        <time>2013-04-13T07:41:06.000Z</time>
      </trkpt>
      <trkpt lat="47.268" lon="4.95368">
        <ele>509.6</ele>
        <time>2013-04-13T07:41:07.000Z</time>
      </trkpt>
      <trkpt lat="47.268" lon="4.95372">
        <ele>509.3</ele>
        <time>2013-04-13T07:41:09.000Z</time>
      </trkpt>
      <trkpt lat="47.268" lon="4.95374">
        <ele>508.8</ele>
        <time>2013-04-13T07:41:10.000Z</time>
      </trkpt>
      <trkpt lat="47.26799" lon="4.9538">
        <ele>508.3</ele>
        <time>2013-04-13T07:41:12.000Z</time>
      </trkpt>
      <trkpt lat="47.26799" lon="4.95382">
        <ele>508.5</ele>
        <time>2013-04-13T07:41:13.000Z</time>
      </trkpt>
      <trkpt lat="47.26799" lon="4.95388">
        <ele>509</ele>
        <time>2013-04-13T07:41:15.000Z</time>
      </trkpt>
      <trkpt lat="47.26798" lon="4.9539">
        <ele>509.2</ele>
        <time>2013-04-13T07:41:16.000Z</time>
      </trkpt>
      <trkpt lat="47.26798" lon="4.95396">
        <ele>508.9</ele>
        <time>2013-04-13T07:41:19.000Z</time>
      </trkpt>
      <trkpt lat="47.26798" lon="4.95398">
        <ele>508.8</ele>
        <time>2013-04-13T07:41:20.000Z</time>
      </trkpt>
      <trkpt lat="47.26798" lon="4.95404">
        <ele>508.3</ele>
        <time>2013-04-13T07:41:22.000Z</time>
      </trkpt>
      <trkpt lat="47.26798" lon="4.95406">
        <ele>508.3</ele>
        <time>2013-04-13T07:41:23.000Z</time>
      </trkpt>
      <trkpt lat="47.26797" lon="4.95412">
        <ele>509</ele>
        <time>2013-04-13T07:41:25.000Z</time>
      </trkpt>
      <trkpt lat="47.26797" lon="4.95415">
        <ele>509.4</ele>
        <time>2013-04-13T07:41:26.000Z</time>
      </trkpt>
      <trkpt lat="47.26797" lon="4.9542">
        <ele>509.1</ele>
        <time>2013-04-13T07:41:28.000Z</time>
      </trkpt>
      <trkpt lat="47.26797" lon="4.95423">
        <ele>509.5</ele>
        <time>2013-04-13T07:41:29.000Z</time>
      </trkpt>
      <trkpt lat="47.26796" lon="4.95429">
        <ele>510.2</ele>
        <time>2013-04-13T07:41:31.000Z</time>
      </trkpt>
      <trkpt lat="47.26796" lon="4.95432">
        <ele>510.3</ele>
        <time>2013-04-13T07:41:32.000Z</time>
      </trkpt>
      <trkpt lat="47.26796" lon="4.95437">
        <ele>510.4</ele>
        <time>2013-04-13T07:41:34.000Z</time>
      </trkpt>
      <trkpt lat="47.26796" lon="4.95439">
        <ele>511</ele>
        <time>2013-04-13T07:41:35.000Z</time>
      </trkpt>
      <trkpt lat="47.26796" lon="4.95444">
        <ele>511.1</ele>
        <time>2013-04-13T07:41:37.000Z</time>
      </trkpt>
      <trkpt lat="47.26796" lon="4.95446">
        <ele>511.8</ele>
        <time>2013-04-13T07:41:38.000Z</time>
      </trkpt>
      <trkpt lat="47.26796" lon="4.95452">
        <ele>511.1</ele>
        <time>2013-04-13T07:41:41.000Z</time>
      </trkpt>
      <trkpt lat="47.26796" lon="4.95455">
        <ele>511.8</ele>
        <time>2013-04-13T07:41:42.000Z</time>
      </trkpt>
      <trkpt lat="47.26795" lon="4.9546">
        <ele>511</ele>
        <time>2013-04-13T07:41:44.000Z</time>
      </trkpt>
      <trkpt lat="47.26795" lon="4.95463">
        <ele>510.6</ele>
        <time>2013-04-13T07:41:45.000Z</time>
      </trkpt>
      <trkpt lat="47.26795" lon="4.95469">
        <ele>511.3</ele>
        <time>2013-04-13T07:41:47.000Z</time>
      </trkpt>
      <trkpt lat="47.26795" lon="4.95472">
        <ele>511.2</ele>
        <time>2013-04-13T07:41:48.000Z</time>
      </trkpt>
      <trkpt lat="47.26795" lon="4.95478">
        <ele>510.6</ele>
        <time>2013-04-13T07:41:50.000Z</time>
      </trkpt>
      <trkpt lat="47.26795" lon="4.9548">
        <ele>510.7</ele>
        <time>2013-04-13T07:41:51.000Z</time>
      </trkpt>
      <trkpt lat="47.26795" lon="4.95486">
        <ele>508.9</ele>
        <time>2013-04-13T07:41:53.000Z</time>
      </trkpt>
      <trkpt lat="47.26795" lon="4.9549">
        <ele>508.2</ele>
        <time>2013-04-13T07:41:54.000Z</time>
      </trkpt>
      <trkpt lat="47.26794" lon="4.95497">
        <ele>508.5</ele>
        <time>2013-04-13T07:41:56.000Z</time>
      </trkpt>
      <trkpt lat="47.26795" lon="4.95499">
        <ele>507.9</ele>
        <time>2013-04-13T07:41:57.000Z</time>
      </trkpt>
      <trkpt lat="47.26795" lon="4.95504">
        <ele>508.2</ele>
        <time>2013-04-13T07:41:59.000Z</time>
      </trkpt>
      <trkpt lat="47.26795" lon="4.95507">
        <ele>508.3</ele>
        <time>2013-04-13T07:42:00.000Z</time>
      </trkpt>
      <trkpt lat="47.26795" lon="4.95512">
        <ele>509.9</ele>
        <time>2013-04-13T07:42:02.000Z</time>
      </trkpt>
      <trkpt lat="47.26795" lon="4.95514">
        <ele>509.9</ele>
        <time>2013-04-13T07:42:03.000Z</time>
      </trkpt>
      <trkpt lat="47.26794" lon="4.9552">
        <ele>510</ele>
        <time>2013-04-13T07:42:05.000Z</time>
      </trkpt>
      <trkpt lat="47.26794" lon="4.95523">
        <ele>510</ele>
        <time>2013-04-13T07:42:06.000Z</time>
      </trkpt>
      <trkpt lat="47.26794" lon="4.95528">
        <ele>509.4</ele>
        <time>2013-04-13T07:42:08.000Z</time>
      </trkpt>
      <trkpt lat="47.26794" lon="4.95531">
        <ele>508.5</ele>
        <time>2013-04-13T07:42:09.000Z</time>
      </trkpt>
      <trkpt lat="47.26793" lon="4.95536">
        <ele>508.3</ele>
        <time>2013-04-13T07:42:11.000Z</time>
      </trkpt>
      <trkpt lat="47.26793" lon="4.95539">
        <ele>508</ele>
        <time>2013-04-13T07:42:12.000Z</time>
      </trkpt>
      <trkpt lat="47.26793" lon="4.95544">
        <ele>507.8</ele>
        <time>2013-04-13T07:42:14.000Z</time>
      </trkpt>
      <trkpt lat="47.26793" lon="4.95547">
        <ele>507.4</ele>
        <time>2013-04-13T07:42:15.000Z</time>
      </trkpt>
      <trkpt lat="47.26793" lon="4.95552">
        <ele>508.1</ele>
        <time>2013-04-13T07:42:17.000Z</time>
      </trkpt>
      <trkpt lat="47.26793" lon="4.95555">
        <ele>508.4</ele>
        <time>2013-04-13T07:42:18.000Z</time>
      </trkpt>
      <trkpt lat="47.26793" lon="4.95561">
        <ele>504</ele>
        <time>2013-04-13T07:42:20.000Z</time>
      </trkpt>
      <trkpt lat="47.26792" lon="4.95564">
        <ele>503.5</ele>
        <time>2013-04-13T07:42:21.000Z</time>
      </trkpt>
      <trkpt lat="47.26793" lon="4.95569">
        <ele>502.7</ele>
        <time>2013-04-13T07:42:23.000Z</time>
      </trkpt>
      <trkpt lat="47.26793" lon="4.95571">
        <ele>502.4</ele>
        <time>2013-04-13T07:42:24.000Z</time>
      </trkpt>
      <trkpt lat="47.26793" lon="4.95577">
        <ele>501.9</ele>
        <time>2013-04-13T07:42:27.000Z</time>
      </trkpt>
      <trkpt lat="47.26793" lon="4.95579">
        <ele>502.3</ele>
        <time>2013-04-13T07:42:28.000Z</time>
      </trkpt>
      <trkpt lat="47.26792" lon="4.95584">
        <ele>500.5</ele>
        <time>2013-04-13T07:42:30.000Z</time>
      </trkpt>
      <trkpt lat="47.26792" lon="4.95587">
        <ele>500.9</ele>
        <time>2013-04-13T07:42:31.000Z</time>
      </trkpt>
      <trkpt lat="47.26792" lon="4.95591">
        <ele>501.8</ele>
        <time>2013-04-13T07:42:33.000Z</time>
      </trkpt>
      <trkpt lat="47.26792" lon="4.95594">
        <ele>502.2</ele>
        <time>2013-04-13T07:42:34.000Z</time>
      </trkpt>
      <trkpt lat="47.26791" lon="4.95599">
        <ele>503.5</ele>
        <time>2013-04-13T07:42:36.000Z</time>
      </trkpt>
      <trkpt lat="47.2679" lon="4.95602">
        <ele>503.5</ele>
        <time>2013-04-13T07:42:37.000Z</time>
      </trkpt>
      <trkpt lat="47.26789" lon="4.95608">
        <ele>502.9</ele>
        <time>2013-04-13T07:42:39.000Z</time>
      </trkpt>
      <trkpt lat="47.26788" lon="4.9561">
        <ele>502.3</ele>
        <time>2013-04-13T07:42:40.000Z</time>
      </trkpt>
      <trkpt lat="47.26787" lon="4.95615">
        <ele>501.7</ele>
        <time>2013-04-13T07:42:42.000Z</time>
      </trkpt>
      <trkpt lat="47.26787" lon="4.95617">
        <ele>501.4</ele>
        <time>2013-04-13T07:42:43.000Z</time>
      </trkpt>
      <trkpt lat="47.26788" lon="4.95621">
        <ele>501.2</ele>
        <time>2013-04-13T07:42:45.000Z</time>
      </trkpt>
      <trkpt lat="47.26789" lon="4.95623">
        <ele>501.4</ele>
        <time>2013-04-13T07:42:46.000Z</time>
      </trkpt>
      <trkpt lat="47.26788" lon="4.95629">
        <ele>502.4</ele>
        <time>2013-04-13T07:42:49.000Z</time>
      </trkpt>
      <trkpt lat="47.26787" lon="4.95631">
        <ele>502.7</ele>
        <time>2013-04-13T07:42:50.000Z</time>
      </trkpt>
      <trkpt lat="47.26785" lon="4.95636">
        <ele>503.3</ele>
        <time>2013-04-13T07:42:52.000Z</time>
      </trkpt>
      <trkpt lat="47.26784" lon="4.95638">
        <ele>502.1</ele>
        <time>2013-04-13T07:42:53.000Z</time>
      </trkpt>
      <trkpt lat="47.26782" lon="4.95642">
        <ele>501.5</ele>
        <time>2013-04-13T07:42:55.000Z</time>
      </trkpt>
      <trkpt lat="47.26781" lon="4.95644">
        <ele>501.3</ele>
        <time>2013-04-13T07:42:56.000Z</time>
      </trkpt>
      <trkpt lat="47.26779" lon="4.95648">
        <ele>501.3</ele>
        <time>2013-04-13T07:42:58.000Z</time>
      </trkpt>
      <trkpt lat="47.26778" lon="4.9565">
        <ele>501.1</ele>
        <time>2013-04-13T07:42:59.000Z</time>
      </trkpt>
      <trkpt lat="47.26776" lon="4.95654">
        <ele>501.5</ele>
        <time>2013-04-13T07:43:01.000Z</time>
      </trkpt>
      <trkpt lat="47.26775" lon="4.95657">
        <ele>500.7</ele>
        <time>2013-04-13T07:43:02.000Z</time>
      </trkpt>
      <trkpt lat="47.26773" lon="4.95662">
        <ele>499.9</ele>
        <time>2013-04-13T07:43:04.000Z</time>
      </trkpt>
      <trkpt lat="47.26772" lon="4.95665">
        <ele>498.4</ele>
        <time>2013-04-13T07:43:05.000Z</time>
      </trkpt>
      <trkpt lat="47.2677" lon="4.9567">
        <ele>498.8</ele>
        <time>2013-04-13T07:43:07.000Z</time>
      </trkpt>
      <trkpt lat="47.26769" lon="4.95673">
        <ele>498.1</ele>
        <time>2013-04-13T07:43:08.000Z</time>
      </trkpt>
      <trkpt lat="47.26767" lon="4.95678">
        <ele>498.2</ele>
        <time>2013-04-13T07:43:10.000Z</time>
      </trkpt>
      <trkpt lat="47.26767" lon="4.95681">
        <ele>497.9</ele>
        <time>2013-04-13T07:43:11.000Z</time>
      </trkpt>
      <trkpt lat="47.26766" lon="4.95683">
        <ele>497.6</ele>
        <time>2013-04-13T07:43:12.000Z</time>
      </trkpt>
      <trkpt lat="47.2676" lon="4.95691">
        <ele>498.6</ele>
        <time>2013-04-13T07:43:12.528Z</time>
      </trkpt>
      <trkpt lat="47.26762" lon="4.95698">
        <ele>510.2</ele>
        <time>2013-04-13T07:43:14.528Z</time>
      </trkpt>
      <trkpt lat="47.26763" lon="4.9569">
        <ele>497.2</ele>
        <time>2013-04-13T07:43:15.000Z</time>
      </trkpt>
      <trkpt lat="47.26762" lon="4.95694">
        <ele>497.8</ele>
        <time>2013-04-13T07:43:17.000Z</time>
      </trkpt>
      <trkpt lat="47.26761" lon="4.95696">
        <ele>497.9</ele>
        <time>2013-04-13T07:43:18.000Z</time>
      </trkpt>
      <trkpt lat="47.26759" lon="4.95701">
        <ele>494.8</ele>
        <time>2013-04-13T07:43:20.000Z</time>
      </trkpt>
      <trkpt lat="47.26759" lon="4.95704">
        <ele>494.5</ele>
        <time>2013-04-13T07:43:21.000Z</time>
      </trkpt>
      <trkpt lat="47.26758" lon="4.95709">
        <ele>494.3</ele>
        <time>2013-04-13T07:43:23.000Z</time>
      </trkpt>
      <trkpt lat="47.26757" lon="4.95711">
        <ele>494.2</ele>
        <time>2013-04-13T07:43:24.000Z</time>
      </trkpt>
      <trkpt lat="47.26756" lon="4.95714">
        <ele>495.1</ele>
        <time>2013-04-13T07:43:25.000Z</time>
      </trkpt>
      <trkpt lat="47.26555" lon="4.96363">
        <ele>491.8</ele>
        <time>2013-04-13T07:47:51.610Z</time>
      </trkpt>
      <trkpt lat="47.26555" lon="4.96365">
        <ele>490.9</ele>
        <time>2013-04-13T07:47:52.524Z</time>
      </trkpt>
      <trkpt lat="47.26553" lon="4.9637">
        <ele>494.3</ele>
        <time>2013-04-13T07:47:53.000Z</time>
      </trkpt>
      <trkpt lat="47.26552" lon="4.96374">
        <ele>493.1</ele>
        <time>2013-04-13T07:47:55.000Z</time>
      </trkpt>
      <trkpt lat="47.26552" lon="4.96377">
        <ele>492.8</ele>
        <time>2013-04-13T07:47:56.000Z</time>
      </trkpt>
      <trkpt lat="47.26552" lon="4.96381">
        <ele>491.1</ele>
        <time>2013-04-13T07:47:58.000Z</time>
      </trkpt>
      <trkpt lat="47.26551" lon="4.96383">
        <ele>490.8</ele>
        <time>2013-04-13T07:47:59.000Z</time>
      </trkpt>
      <trkpt lat="47.2655" lon="4.96387">
        <ele>488.4</ele>
        <time>2013-04-13T07:48:01.000Z</time>
      </trkpt>
      <trkpt lat="47.26549" lon="4.9639">
        <ele>487.8</ele>
        <time>2013-04-13T07:48:02.000Z</time>
      </trkpt>
      <trkpt lat="47.26547" lon="4.96395">
        <ele>489.2</ele>
        <time>2013-04-13T07:48:04.000Z</time>
      </trkpt>
      <trkpt lat="47.26546" lon="4.96397">
        <ele>489.2</ele>
        <time>2013-04-13T07:48:05.000Z</time>
      </trkpt>
      <trkpt lat="47.26545" lon="4.96402">
        <ele>487.7</ele>
        <time>2013-04-13T07:48:07.000Z</time>
      </trkpt>
      <trkpt lat="47.26544" lon="4.96404">
        <ele>487.6</ele>
        <time>2013-04-13T07:48:08.000Z</time>
      </trkpt>
      <trkpt lat="47.26544" lon="4.96409">
        <ele>487.1</ele>
        <time>2013-04-13T07:48:11.000Z</time>
      </trkpt>
      <trkpt lat="47.26543" lon="4.96411">
        <ele>486.9</ele>
        <time>2013-04-13T07:48:12.000Z</time>
      </trkpt>
      <trkpt lat="47.26542" lon="4.96415">
        <ele>486.8</ele>
        <time>2013-04-13T07:48:14.000Z</time>
      </trkpt>
      <trkpt lat="47.26542" lon="4.96418">
        <ele>486.8</ele>
        <time>2013-04-13T07:48:15.000Z</time>
      </trkpt>
      <trkpt lat="47.26541" lon="4.96422">
        <ele>486.7</ele>
        <time>2013-04-13T07:48:17.000Z</time>
      </trkpt>
      <trkpt lat="47.26541" lon="4.96425">
        <ele>486.7</ele>
        <time>2013-04-13T07:48:18.000Z</time>
      </trkpt>
      <trkpt lat="47.2654" lon="4.9643">
        <ele>486</ele>
        <time>2013-04-13T07:48:20.000Z</time>
      </trkpt>
      <trkpt lat="47.26539" lon="4.96432">
        <ele>485.7</ele>
        <time>2013-04-13T07:48:21.000Z</time>
      </trkpt>
      <trkpt lat="47.26537" lon="4.96436">
        <ele>485.5</ele>
        <time>2013-04-13T07:48:23.000Z</time>
      </trkpt>
      <trkpt lat="47.26536" lon="4.96439">
        <ele>485.5</ele>
        <time>2013-04-13T07:48:24.000Z</time>
      </trkpt>
      <trkpt lat="47.26534" lon="4.96443">
        <ele>486</ele>
        <time>2013-04-13T07:48:26.000Z</time>
      </trkpt>
      <trkpt lat="47.26533" lon="4.96445">
        <ele>486.1</ele>
        <time>2013-04-13T07:48:27.000Z</time>
      </trkpt>
      <trkpt lat="47.26531" lon="4.96449">
        <ele>486</ele>
        <time>2013-04-13T07:48:29.000Z</time>
      </trkpt>
      <trkpt lat="47.2653" lon="4.9645">
        <ele>485.5</ele>
        <time>2013-04-13T07:48:30.000Z</time>
      </trkpt>
      <trkpt lat="47.26528" lon="4.96456">
        <ele>483.8</ele>
        <time>2013-04-13T07:48:33.000Z</time>
      </trkpt>
      <trkpt lat="47.26527" lon="4.96458">
        <ele>483.9</ele>
        <time>2013-04-13T07:48:34.000Z</time>
      </trkpt>
      <trkpt lat="47.26524" lon="4.96462">
        <ele>481.8</ele>
        <time>2013-04-13T07:48:36.000Z</time>
      </trkpt>
      <trkpt lat="47.26523" lon="4.96464">
        <ele>481.7</ele>
        <time>2013-04-13T07:48:37.000Z</time>
      </trkpt>
      <trkpt lat="47.26521" lon="4.96466">
        <ele>481.8</ele>
        <time>2013-04-13T07:48:38.000Z</time>
      </trkpt>
      <trkpt lat="47.26519" lon="4.96468">
        <ele>482.2</ele>
        <time>2013-04-13T07:48:39.000Z</time>
      </trkpt>
      <trkpt lat="47.26517" lon="4.96471">
        <ele>482.3</ele>
        <time>2013-04-13T07:48:40.000Z</time>
      </trkpt>
      <trkpt lat="47.26515" lon="4.96473">
        <ele>482.2</ele>
        <time>2013-04-13T07:48:41.000Z</time>
      </trkpt>
      <trkpt lat="47.26513" lon="4.96475">
        <ele>483.5</ele>
        <time>2013-04-13T07:48:42.000Z</time>
      </trkpt>
      <trkpt lat="47.26512" lon="4.96478">
        <ele>483.3</ele>
        <time>2013-04-13T07:48:43.000Z</time>
      </trkpt>
      <trkpt lat="47.26509" lon="4.96483">
        <ele>481.9</ele>
        <time>2013-04-13T07:48:45.000Z</time>
      </trkpt>
      <trkpt lat="47.26508" lon="4.96484">
        <ele>481.2</ele>
        <time>2013-04-13T07:48:46.000Z</time>
      </trkpt>
      <trkpt lat="47.26506" lon="4.96488">
        <ele>480.3</ele>
        <time>2013-04-13T07:48:48.000Z</time>
      </trkpt>
      <trkpt lat="47.26504" lon="4.9649">
        <ele>482</ele>
        <time>2013-04-13T07:48:49.000Z</time>
      </trkpt>
      <trkpt lat="47.26502" lon="4.96493">
        <ele>481.8</ele>
        <time>2013-04-13T07:48:51.000Z</time>
      </trkpt>
      <trkpt lat="47.265" lon="4.96495">
        <ele>481.8</ele>
        <time>2013-04-13T07:48:52.000Z</time>
      </trkpt>
      <trkpt lat="47.26498" lon="4.96499">
        <ele>481.3</ele>
        <time>2013-04-13T07:48:54.000Z</time>
      </trkpt>
      <trkpt lat="47.26497" lon="4.965">
        <ele>481.4</ele>
        <time>2013-04-13T07:48:55.000Z</time>
      </trkpt>
      <trkpt lat="47.26495" lon="4.96503">
        <ele>480.7</ele>
        <time>2013-04-13T07:48:57.000Z</time>
      </trkpt>
      <trkpt lat="47.26494" lon="4.96505">
        <ele>480.2</ele>
        <time>2013-04-13T07:48:58.000Z</time>
      </trkpt>
      <trkpt lat="47.26491" lon="4.96509">
        <ele>480.4</ele>
        <time>2013-04-13T07:49:00.000Z</time>
      </trkpt>
      <trkpt lat="47.2649" lon="4.9651">
        <ele>480.5</ele>
        <time>2013-04-13T07:49:01.000Z</time>
      </trkpt>
      <trkpt lat="47.26487" lon="4.96513">
        <ele>480</ele>
        <time>2013-04-13T07:49:03.000Z</time>
      </trkpt>
      <trkpt lat="47.26486" lon="4.96515">
        <ele>479.6</ele>
        <time>2013-04-13T07:49:04.000Z</time>
      </trkpt>
      <trkpt lat="47.26482" lon="4.96519">
        <ele>478.9</ele>
        <time>2013-04-13T07:49:07.000Z</time>
      </trkpt>
      <trkpt lat="47.26481" lon="4.9652">
        <ele>478.7</ele>
        <time>2013-04-13T07:49:08.000Z</time>
      </trkpt>
      <trkpt lat="47.26479" lon="4.96523">
        <ele>478.8</ele>
        <time>2013-04-13T07:49:10.000Z</time>
      </trkpt>
      <trkpt lat="47.26477" lon="4.96524">
        <ele>477.9</ele>
        <time>2013-04-13T07:49:11.000Z</time>
      </trkpt>
      <trkpt lat="47.26475" lon="4.96527">
        <ele>478.3</ele>
        <time>2013-04-13T07:49:13.000Z</time>
      </trkpt>
      <trkpt lat="47.26473" lon="4.96529">
        <ele>478.4</ele>
        <time>2013-04-13T07:49:14.000Z</time>
      </trkpt>
      <trkpt lat="47.2647" lon="4.96533">
        <ele>477.2</ele>
        <time>2013-04-13T07:49:16.000Z</time>
      </trkpt>
      <trkpt lat="47.26469" lon="4.96534">
        <ele>476.3</ele>
        <time>2013-04-13T07:49:17.000Z</time>
      </trkpt>
      <trkpt lat="47.26467" lon="4.96538">
        <ele>475.8</ele>
        <time>2013-04-13T07:49:19.000Z</time>
      </trkpt>
      <trkpt lat="47.26466" lon="4.9654">
        <ele>475.8</ele>
        <time>2013-04-13T07:49:20.000Z</time>
      </trkpt>
      <trkpt lat="47.26463" lon="4.96545">
        <ele>475.8</ele>
        <time>2013-04-13T07:49:22.000Z</time>
      </trkpt>
      <trkpt lat="47.26462" lon="4.96547">
        <ele>475.9</ele>
        <time>2013-04-13T07:49:23.000Z</time>
      </trkpt>
      <trkpt lat="47.26459" lon="4.96551">
        <ele>475.6</ele>
        <time>2013-04-13T07:49:25.000Z</time>
      </trkpt>
      <trkpt lat="47.26457" lon="4.96553">
        <ele>475.4</ele>
        <time>2013-04-13T07:49:26.000Z</time>
      </trkpt>
      <trkpt lat="47.26454" lon="4.96558">
        <ele>473.7</ele>
        <time>2013-04-13T07:49:28.000Z</time>
      </trkpt>
      <trkpt lat="47.26453" lon="4.9656">
        <ele>472.9</ele>
        <time>2013-04-13T07:49:29.000Z</time>
      </trkpt>
      <trkpt lat="47.26451" lon="4.96565">
        <ele>474</ele>
        <time>2013-04-13T07:49:31.000Z</time>
      </trkpt>
      <trkpt lat="47.26449" lon="4.96567">
        <ele>473.8</ele>
        <time>2013-04-13T07:49:32.000Z</time>
      </trkpt>
      <trkpt lat="47.26447" lon="4.96571">
        <ele>472.7</ele>
        <time>2013-04-13T07:49:34.000Z</time>
      </trkpt>
      <trkpt lat="47.26446" lon="4.96574">
        <ele>471.9</ele>
        <time>2013-04-13T07:49:35.000Z</time>
      </trkpt>
      <trkpt lat="47.26443" lon="4.96578">
        <ele>471.5</ele>
        <time>2013-04-13T07:49:37.000Z</time>
      </trkpt>
      <trkpt lat="47.26442" lon="4.96581">
        <ele>471.2</ele>
        <time>2013-04-13T07:49:38.000Z</time>
      </trkpt>
      <trkpt lat="47.2644" lon="4.96585">
        <ele>470.7</ele>
        <time>2013-04-13T07:49:40.000Z</time>
      </trkpt>
      <trkpt lat="47.2644" lon="4.96587">
        <ele>471.2</ele>
        <time>2013-04-13T07:49:41.000Z</time>
      </trkpt>
      <trkpt lat="47.26438" lon="4.96591">
        <ele>471</ele>
        <time>2013-04-13T07:49:43.000Z</time>
      </trkpt>
      <trkpt lat="47.26438" lon="4.96593">
        <ele>471</ele>
        <time>2013-04-13T07:49:44.000Z</time>
      </trkpt>
      <trkpt lat="47.26435" lon="4.96597">
        <ele>469.6</ele>
        <time>2013-04-13T07:49:46.000Z</time>
      </trkpt>
      <trkpt lat="47.26434" lon="4.96599">
        <ele>468.8</ele>
        <time>2013-04-13T07:49:47.000Z</time>
      </trkpt>
      <trkpt lat="47.26432" lon="4.96603">
        <ele>468.8</ele>
        <time>2013-04-13T07:49:49.000Z</time>
      </trkpt>
      <trkpt lat="47.26431" lon="4.96604">
        <ele>469.3</ele>
        <time>2013-04-13T07:49:50.000Z</time>
      </trkpt>
      <trkpt lat="47.2643" lon="4.96609">
        <ele>469.8</ele>
        <time>2013-04-13T07:49:52.000Z</time>
      </trkpt>
      <trkpt lat="47.26429" lon="4.96611">
        <ele>469.7</ele>
        <time>2013-04-13T07:49:53.000Z</time>
      </trkpt>
      <trkpt lat="47.26428" lon="4.96615">
        <ele>469.7</ele>
        <time>2013-04-13T07:49:55.000Z</time>
      </trkpt>
      <trkpt lat="47.26427" lon="4.96618">
        <ele>469.7</ele>
        <time>2013-04-13T07:49:56.000Z</time>
      </trkpt>
      <trkpt lat="47.26425" lon="4.96623">
        <ele>469.8</ele>
        <time>2013-04-13T07:49:58.000Z</time>
      </trkpt>
      <trkpt lat="47.26424" lon="4.96624">
        <ele>469.6</ele>
        <time>2013-04-13T07:49:59.000Z</time>
      </trkpt>
      <trkpt lat="47.26421" lon="4.96629">
        <ele>470</ele>
        <time>2013-04-13T07:50:24.000Z</time>
      </trkpt>
      <trkpt lat="47.26421" lon="4.9663">
        <ele>470.3</ele>
        <time>2013-04-13T07:50:25.000Z</time>
      </trkpt>
      <trkpt lat="47.26425" lon="4.96629">
        <ele>469.5</ele>
        <time>2013-04-13T07:50:34.000Z</time>
      </trkpt>
      <trkpt lat="47.26426" lon="4.9663">
        <ele>469.8</ele>
        <time>2013-04-13T07:50:35.000Z</time>
      </trkpt>
      <trkpt lat="47.2643" lon="4.96632">
        <ele>470.5</ele>
        <time>2013-04-13T07:50:37.000Z</time>
      </trkpt>
      <trkpt lat="47.26432" lon="4.96633">
        <ele>470.1</ele>
        <time>2013-04-13T07:50:38.000Z</time>
      </trkpt>
      <trkpt lat="47.26435" lon="4.96634">
        <ele>469.9</ele>
        <time>2013-04-13T07:50:39.000Z</time>
      </trkpt>
      <trkpt lat="47.26437" lon="4.96636">
        <ele>469.3</ele>
        <time>2013-04-13T07:50:40.000Z</time>
      </trkpt>
      <trkpt lat="47.26439" lon="4.96637">
        <ele>470</ele>
        <time>2013-04-13T07:50:41.000Z</time>
      </trkpt>
      <trkpt lat="47.26442" lon="4.96639">
        <ele>470.4</ele>
        <time>2013-04-13T07:50:42.000Z</time>
      </trkpt>
      <trkpt lat="47.26438" lon="4.96638">
        <ele>470.4</ele>
        <time>2013-04-13T07:51:12.000Z</time>
      </trkpt>
      <trkpt lat="47.26437" lon="4.96638">
        <ele>469.8</ele>
        <time>2013-04-13T07:51:13.000Z</time>
      </trkpt>
      <trkpt lat="47.26434" lon="4.96637">
        <ele>468.8</ele>
        <time>2013-04-13T07:51:15.000Z</time>
      </trkpt>
      <trkpt lat="47.26433" lon="4.96637">
        <ele>469.3</ele>
        <time>2013-04-13T07:51:16.000Z</time>
      </trkpt>
      <trkpt lat="47.2643" lon="4.96635">
        <ele>469.7</ele>
        <time>2013-04-13T07:51:18.000Z</time>
      </trkpt>
      <trkpt lat="47.26429" lon="4.96633">
        <ele>470</ele>
        <time>2013-04-13T07:51:19.000Z</time>
      </trkpt>
      <trkpt lat="47.26425" lon="4.96631">
        <ele>469.7</ele>
        <time>2013-04-13T07:51:22.000Z</time>
      </trkpt>
      <trkpt lat="47.26425" lon="4.9663">
        <ele>469.7</ele>
        <time>2013-04-13T07:51:23.000Z</time>
      </trkpt>
      <trkpt lat="47.26421" lon="4.96634">
        <ele>468.5</ele>
        <time>2013-04-13T07:53:45.000Z</time>
      </trkpt>
      <trkpt lat="47.2642" lon="4.96636">
        <ele>468.2</ele>
        <time>2013-04-13T07:53:46.000Z</time>
      </trkpt>
      <trkpt lat="47.26418" lon="4.9664">
        <ele>468.9</ele>
        <time>2013-04-13T07:53:48.000Z</time>
      </trkpt>
      <trkpt lat="47.26418" lon="4.96643">
        <ele>469</ele>
        <time>2013-04-13T07:53:49.000Z</time>
      </trkpt>
      <trkpt lat="47.26416" lon="4.96647">
        <ele>469.6</ele>
        <time>2013-04-13T07:53:51.000Z</time>
      </trkpt>
      <trkpt lat="47.26415" lon="4.9665">
        <ele>469.9</ele>
        <time>2013-04-13T07:53:52.000Z</time>
      </trkpt>
      <trkpt lat="47.26414" lon="4.96655">
        <ele>469.3</ele>
        <time>2013-04-13T07:53:54.000Z</time>
      </trkpt>
      <trkpt lat="47.26413" lon="4.96657">
        <ele>468.8</ele>
        <time>2013-04-13T07:53:55.000Z</time>
      </trkpt>
      <trkpt lat="47.26412" lon="4.96662">
        <ele>468.3</ele>
        <time>2013-04-13T07:53:57.000Z</time>
      </trkpt>
      <trkpt lat="47.26411" lon="4.96664">
        <ele>467.9</ele>
        <time>2013-04-13T07:53:58.000Z</time>
      </trkpt>
      <trkpt lat="47.2641" lon="4.96669">
        <ele>466.8</ele>
        <time>2013-04-13T07:54:00.000Z</time>
      </trkpt>
      <trkpt lat="47.2641" lon="4.96671">
        <ele>466.6</ele>
        <time>2013-04-13T07:54:01.000Z</time>
      </trkpt>
      <trkpt lat="47.26409" lon="4.96677">
        <ele>467.4</ele>
        <time>2013-04-13T07:54:03.000Z</time>
      </trkpt>
      <trkpt lat="47.26408" lon="4.9668">
        <ele>467.3</ele>
        <time>2013-04-13T07:54:04.000Z</time>
      </trkpt>
      <trkpt lat="47.26407" lon="4.96684">
        <ele>466.9</ele>
        <time>2013-04-13T07:54:06.000Z</time>
      </trkpt>
      <trkpt lat="47.26407" lon="4.96686">
        <ele>466.9</ele>
        <time>2013-04-13T07:54:07.000Z</time>
      </trkpt>
      <trkpt lat="47.26405" lon="4.96691">
        <ele>466.9</ele>
        <time>2013-04-13T07:54:10.000Z</time>
      </trkpt>
      <trkpt lat="47.26404" lon="4.96693">
        <ele>466.5</ele>
        <time>2013-04-13T07:54:11.000Z</time>
      </trkpt>
      <trkpt lat="47.26402" lon="4.96697">
        <ele>466.5</ele>
        <time>2013-04-13T07:54:13.000Z</time>
      </trkpt>
      <trkpt lat="47.26402" lon="4.96699">
        <ele>466.5</ele>
        <time>2013-04-13T07:54:14.000Z</time>
      </trkpt>
      <trkpt lat="47.264" lon="4.96703">
        <ele>466.3</ele>
        <time>2013-04-13T07:54:16.000Z</time>
      </trkpt>
      <trkpt lat="47.26399" lon="4.96705">
        <ele>465.4</ele>
        <time>2013-04-13T07:54:17.000Z</time>
      </trkpt>
      <trkpt lat="47.26398" lon="4.96709">
        <ele>465.3</ele>
        <time>2013-04-13T07:54:19.000Z</time>
      </trkpt>
      <trkpt lat="47.26397" lon="4.96711">
        <ele>465.3</ele>
        <time>2013-04-13T07:54:20.000Z</time>
      </trkpt>
      <trkpt lat="47.26396" lon="4.96715">
        <ele>464.8</ele>
        <time>2013-04-13T07:54:22.000Z</time>
      </trkpt>
      <trkpt lat="47.26395" lon="4.96717">
        <ele>464.4</ele>
        <time>2013-04-13T07:54:23.000Z</time>
      </trkpt>
      <trkpt lat="47.26393" lon="4.96721">
        <ele>464.4</ele>
        <time>2013-04-13T07:54:25.000Z</time>
      </trkpt>
      <trkpt lat="47.26392" lon="4.96724">
        <ele>464.3</ele>
        <time>2013-04-13T07:54:26.000Z</time>
      </trkpt>
      <trkpt lat="47.26391" lon="4.96728">
        <ele>463.9</ele>
        <time>2013-04-13T07:54:28.000Z</time>
      </trkpt>
      <trkpt lat="47.2639" lon="4.9673">
        <ele>464</ele>
        <time>2013-04-13T07:54:29.000Z</time>
      </trkpt>
      <trkpt lat="47.26389" lon="4.96736">
        <ele>463.3</ele>
        <time>2013-04-13T07:54:33.000Z</time>
      </trkpt>
      <trkpt lat="47.26389" lon="4.96738">
        <ele>462.5</ele>
        <time>2013-04-13T07:54:34.000Z</time>
      </trkpt>
      <trkpt lat="47.26388" lon="4.96742">
        <ele>461.6</ele>
        <time>2013-04-13T07:54:36.000Z</time>
      </trkpt>
      <trkpt lat="47.26388" lon="4.96745">
        <ele>461.5</ele>
        <time>2013-04-13T07:54:37.000Z</time>
      </trkpt>
      <trkpt lat="47.26388" lon="4.96749">
        <ele>461.1</ele>
        <time>2013-04-13T07:54:39.000Z</time>
      </trkpt>
      <trkpt lat="47.26388" lon="4.96751">
        <ele>461.1</ele>
        <time>2013-04-13T07:54:40.000Z</time>
      </trkpt>
      <trkpt lat="47.26388" lon="4.96756">
        <ele>460.5</ele>
        <time>2013-04-13T07:54:42.000Z</time>
      </trkpt>
      <trkpt lat="47.26388" lon="4.96758">
        <ele>460.2</ele>
        <time>2013-04-13T07:54:43.000Z</time>
      </trkpt>
      <trkpt lat="47.26389" lon="4.96763">
        <ele>459.8</ele>
        <time>2013-04-13T07:54:46.000Z</time>
      </trkpt>
      <trkpt lat="47.2639" lon="4.96765">
        <ele>458.7</ele>
        <time>2013-04-13T07:54:47.000Z</time>
      </trkpt>
      <trkpt lat="47.26391" lon="4.96772">
        <ele>457</ele>
        <time>2013-04-13T07:54:50.000Z</time>
      </trkpt>
      <trkpt lat="47.26391" lon="4.96774">
        <ele>456.9</ele>
        <time>2013-04-13T07:54:51.000Z</time>
      </trkpt>
      <trkpt lat="47.26391" lon="4.96779">
        <ele>456.2</ele>
        <time>2013-04-13T07:54:53.000Z</time>
      </trkpt>
      <trkpt lat="47.26391" lon="4.96781">
        <ele>456</ele>
        <time>2013-04-13T07:54:54.000Z</time>
      </trkpt>
      <trkpt lat="47.26392" lon="4.96787">
        <ele>457</ele>
        <time>2013-04-13T07:54:57.000Z</time>
      </trkpt>
      <trkpt lat="47.26393" lon="4.96789">
        <ele>456.7</ele>
        <time>2013-04-13T07:54:58.000Z</time>
      </trkpt>
      <trkpt lat="47.26393" lon="4.96794">
        <ele>455</ele>
        <time>2013-04-13T07:55:00.000Z</time>
      </trkpt>
      <trkpt lat="47.26393" lon="4.96796">
        <ele>454.7</ele>
        <time>2013-04-13T07:55:01.000Z</time>
      </trkpt>
      <trkpt lat="47.26392" lon="4.96802">
        <ele>455.6</ele>
        <time>2013-04-13T07:55:04.000Z</time>
      </trkpt>
      <trkpt lat="47.26392" lon="4.96804">
        <ele>454.9</ele>
        <time>2013-04-13T07:55:05.000Z</time>
      </trkpt>
      <trkpt lat="47.26391" lon="4.96809">
        <ele>455.4</ele>
        <time>2013-04-13T07:55:08.000Z</time>
      </trkpt>
      <trkpt lat="47.2639" lon="4.96811">
        <ele>454.6</ele>
        <time>2013-04-13T07:55:09.000Z</time>
      </trkpt>
      <trkpt lat="47.26389" lon="4.96816">
        <ele>454.9</ele>
        <time>2013-04-13T07:55:12.000Z</time>
      </trkpt>
      <trkpt lat="47.26389" lon="4.96818">
        <ele>454.7</ele>
        <time>2013-04-13T07:55:13.000Z</time>
      </trkpt>
      <trkpt lat="47.26388" lon="4.96824">
        <ele>454.6</ele>
        <time>2013-04-13T07:55:16.000Z</time>
      </trkpt>
      <trkpt lat="47.26387" lon="4.96826">
        <ele>454.3</ele>
        <time>2013-04-13T07:55:17.000Z</time>
      </trkpt>
      <trkpt lat="47.26386" lon="4.96832">
        <ele>452.8</ele>
        <time>2013-04-13T07:55:20.000Z</time>
      </trkpt>
      <trkpt lat="47.26386" lon="4.96834">
        <ele>451.8</ele>
        <time>2013-04-13T07:55:21.000Z</time>
      </trkpt>
      <trkpt lat="47.26385" lon="4.9684">
        <ele>450.7</ele>
        <time>2013-04-13T07:55:24.000Z</time>
      </trkpt>
      <trkpt lat="47.26385" lon="4.96842">
        <ele>450.3</ele>
        <time>2013-04-13T07:55:25.000Z</time>
      </trkpt>
      <trkpt lat="47.26384" lon="4.96847">
        <ele>450.2</ele>
        <time>2013-04-13T07:55:28.000Z</time>
      </trkpt>
      <trkpt lat="47.26384" lon="4.96849">
        <ele>450</ele>
        <time>2013-04-13T07:55:29.000Z</time>
      </trkpt>
      <trkpt lat="47.26384" lon="4.96854">
        <ele>447.8</ele>
        <time>2013-04-13T07:55:32.000Z</time>
      </trkpt>
      <trkpt lat="47.26384" lon="4.96855">
        <ele>447.6</ele>
        <time>2013-04-13T07:55:33.000Z</time>
      </trkpt>
      <trkpt lat="47.26384" lon="4.96861">
        <ele>447.4</ele>
        <time>2013-04-13T07:55:36.000Z</time>
      </trkpt>
      <trkpt lat="47.26384" lon="4.96863">
        <ele>446.6</ele>
        <time>2013-04-13T07:55:37.000Z</time>
      </trkpt>
      <trkpt lat="47.26384" lon="4.9687">
        <ele>444.6</ele>
        <time>2013-04-13T07:55:40.000Z</time>
      </trkpt>
      <trkpt lat="47.26384" lon="4.96872">
        <ele>444.6</ele>
        <time>2013-04-13T07:55:41.000Z</time>
      </trkpt>
      <trkpt lat="47.26385" lon="4.96876">
        <ele>443.6</ele>
        <time>2013-04-13T07:55:43.000Z</time>
      </trkpt>
      <trkpt lat="47.26385" lon="4.96878">
        <ele>443.2</ele>
        <time>2013-04-13T07:55:44.000Z</time>
      </trkpt>
      <trkpt lat="47.26385" lon="4.96884">
        <ele>442.9</ele>
        <time>2013-04-13T07:55:47.000Z</time>
      </trkpt>
      <trkpt lat="47.26385" lon="4.96886">
        <ele>443</ele>
        <time>2013-04-13T07:55:48.000Z</time>
      </trkpt>
      <trkpt lat="47.26385" lon="4.96892">
        <ele>441.4</ele>
        <time>2013-04-13T07:55:51.000Z</time>
      </trkpt>
      <trkpt lat="47.26385" lon="4.96894">
        <ele>440.3</ele>
        <time>2013-04-13T07:55:52.000Z</time>
      </trkpt>
      <trkpt lat="47.26384" lon="4.96899">
        <ele>438.9</ele>
        <time>2013-04-13T07:55:55.000Z</time>
      </trkpt>
      <trkpt lat="47.26383" lon="4.96902">
        <ele>438.9</ele>
        <time>2013-04-13T07:55:56.000Z</time>
      </trkpt>
      <trkpt lat="47.26382" lon="4.96907">
        <ele>437.4</ele>
        <time>2013-04-13T07:55:59.000Z</time>
      </trkpt>
      <trkpt lat="47.26382" lon="4.96909">
        <ele>436.6</ele>
        <time>2013-04-13T07:56:00.000Z</time>
      </trkpt>
      <trkpt lat="47.26381" lon="4.96914">
        <ele>434.7</ele>
        <time>2013-04-13T07:56:03.000Z</time>
      </trkpt>
      <trkpt lat="47.2638" lon="4.96916">
        <ele>435</ele>
        <time>2013-04-13T07:56:04.000Z</time>
      </trkpt>
      <trkpt lat="47.26379" lon="4.96922">
        <ele>435</ele>
        <time>2013-04-13T07:56:07.000Z</time>
      </trkpt>
      <trkpt lat="47.2638" lon="4.96924">
        <ele>433.2</ele>
        <time>2013-04-13T07:56:08.000Z</time>
      </trkpt>
      <trkpt lat="47.2638" lon="4.9693">
        <ele>431.3</ele>
        <time>2013-04-13T07:56:13.000Z</time>
      </trkpt>
      <trkpt lat="47.2638" lon="4.96931">
        <ele>431.4</ele>
        <time>2013-04-13T07:56:14.000Z</time>
      </trkpt>
      <trkpt lat="47.2638" lon="4.96937">
        <ele>431.8</ele>
        <time>2013-04-13T07:56:18.000Z</time>
      </trkpt>
      <trkpt lat="47.26379" lon="4.96939">
        <ele>430.7</ele>
        <time>2013-04-13T07:56:19.000Z</time>
      </trkpt>
      <trkpt lat="47.26379" lon="4.96944">
        <ele>430</ele>
        <time>2013-04-13T07:56:22.000Z</time>
      </trkpt>
      <trkpt lat="47.26378" lon="4.96945">
        <ele>429.7</ele>
        <time>2013-04-13T07:56:23.000Z</time>
      </trkpt>
      <trkpt lat="47.26378" lon="4.96951">
        <ele>426.3</ele>
        <time>2013-04-13T07:56:28.000Z</time>
      </trkpt>
      <trkpt lat="47.26378" lon="4.96952">
        <ele>425.6</ele>
        <time>2013-04-13T07:56:29.000Z</time>
      </trkpt>
      <trkpt lat="47.26376" lon="4.96957">
        <ele>425.4</ele>
        <time>2013-04-13T07:56:32.000Z</time>
      </trkpt>
      <trkpt lat="47.26375" lon="4.96958">
        <ele>425.3</ele>
        <time>2013-04-13T07:56:33.000Z</time>
      </trkpt>
      <trkpt lat="47.26374" lon="4.96964">
        <ele>425</ele>
        <time>2013-04-13T07:56:37.000Z</time>
      </trkpt>
      <trkpt lat="47.26373" lon="4.96965">
        <ele>425.3</ele>
        <time>2013-04-13T07:56:38.000Z</time>
      </trkpt>
      <trkpt lat="47.26374" lon="4.96971">
        <ele>425.6</ele>
        <time>2013-04-13T07:56:42.000Z</time>
      </trkpt>
      <trkpt lat="47.26374" lon="4.96972">
        <ele>426.2</ele>
        <time>2013-04-13T07:56:43.000Z</time>
      </trkpt>
      <trkpt lat="47.26375" lon="4.96978">
        <ele>426.8</ele>
        <time>2013-04-13T07:56:46.000Z</time>
      </trkpt>
      <trkpt lat="47.26376" lon="4.9698">
        <ele>427.4</ele>
        <time>2013-04-13T07:56:47.000Z</time>
      </trkpt>
      <trkpt lat="47.26377" lon="4.96986">
        <ele>425.7</ele>
        <time>2013-04-13T07:56:50.000Z</time>
      </trkpt>
      <trkpt lat="47.26377" lon="4.96987">
        <ele>425.6</ele>
        <time>2013-04-13T07:56:51.000Z</time>
      </trkpt>
      <trkpt lat="47.26378" lon="4.96992">
        <ele>425.6</ele>
        <time>2013-04-13T07:56:54.000Z</time>
      </trkpt>
      <trkpt lat="47.26378" lon="4.96994">
        <ele>424.7</ele>
        <time>2013-04-13T07:56:55.000Z</time>
      </trkpt>
      <trkpt lat="47.26379" lon="4.96998">
        <ele>422.6</ele>
        <time>2013-04-13T07:56:57.000Z</time>
      </trkpt>
      <trkpt lat="47.26379" lon="4.97001">
        <ele>421.6</ele>
        <time>2013-04-13T07:56:58.000Z</time>
      </trkpt>
      <trkpt lat="47.26379" lon="4.97006">
        <ele>420.7</ele>
        <time>2013-04-13T07:57:01.000Z</time>
      </trkpt>
      <trkpt lat="47.2638" lon="4.97008">
        <ele>420.6</ele>
        <time>2013-04-13T07:57:02.000Z</time>
      </trkpt>
      <trkpt lat="47.26381" lon="4.97012">
        <ele>419.4</ele>
        <time>2013-04-13T07:57:05.000Z</time>
      </trkpt>
      <trkpt lat="47.26382" lon="4.97014">
        <ele>418.8</ele>
        <time>2013-04-13T07:57:06.000Z</time>
      </trkpt>
      <trkpt lat="47.26384" lon="4.97019">
        <ele>418.3</ele>
        <time>2013-04-13T07:57:09.000Z</time>
      </trkpt>
      <trkpt lat="47.26385" lon="4.97021">
        <ele>417.3</ele>
        <time>2013-04-13T07:57:10.000Z</time>
      </trkpt>
      <trkpt lat="47.26387" lon="4.97025">
        <ele>416.9</ele>
        <time>2013-04-13T07:57:12.000Z</time>
      </trkpt>
      <trkpt lat="47.26387" lon="4.97027">
        <ele>416.8</ele>
        <time>2013-04-13T07:57:13.000Z</time>
      </trkpt>
      <trkpt lat="47.26388" lon="4.97033">
        <ele>415.6</ele>
        <time>2013-04-13T07:57:16.000Z</time>
      </trkpt>
      <trkpt lat="47.26388" lon="4.97035">
        <ele>417.1</ele>
        <time>2013-04-13T07:57:17.000Z</time>
      </trkpt>
      <trkpt lat="47.26389" lon="4.97041">
        <ele>413.7</ele>
        <time>2013-04-13T07:57:21.000Z</time>
      </trkpt>
      <trkpt lat="47.26389" lon="4.97042">
        <ele>413.4</ele>
        <time>2013-04-13T07:57:22.000Z</time>
      </trkpt>
      <trkpt lat="47.26388" lon="4.97047">
        <ele>412.9</ele>
        <time>2013-04-13T07:57:24.000Z</time>
      </trkpt>
      <trkpt lat="47.26387" lon="4.97049">
        <ele>412.8</ele>
        <time>2013-04-13T07:57:25.000Z</time>
      </trkpt>
      <trkpt lat="47.26385" lon="4.97054">
        <ele>411.9</ele>
        <time>2013-04-13T07:57:27.000Z</time>
      </trkpt>
      <trkpt lat="47.26385" lon="4.97057">
        <ele>411.5</ele>
        <time>2013-04-13T07:57:28.000Z</time>
      </trkpt>
      <trkpt lat="47.26385" lon="4.97063">
        <ele>411.3</ele>
        <time>2013-04-13T07:57:30.000Z</time>
      </trkpt>
      <trkpt lat="47.26385" lon="4.97065">
        <ele>410.5</ele>
        <time>2013-04-13T07:57:31.000Z</time>
      </trkpt>
      <trkpt lat="47.26386" lon="4.9707">
        <ele>409.4</ele>
        <time>2013-04-13T07:57:33.000Z</time>
      </trkpt>
      <trkpt lat="47.26387" lon="4.97073">
        <ele>409.7</ele>
        <time>2013-04-13T07:57:34.000Z</time>
      </trkpt>
      <trkpt lat="47.26386" lon="4.97078">
        <ele>411.2</ele>
        <time>2013-04-13T07:57:36.000Z</time>
      </trkpt>
      <trkpt lat="47.26385" lon="4.9708">
        <ele>411.1</ele>
        <time>2013-04-13T07:57:37.000Z</time>
      </trkpt>
      <trkpt lat="47.26383" lon="4.97084">
        <ele>410.6</ele>
        <time>2013-04-13T07:57:39.000Z</time>
      </trkpt>
      <trkpt lat="47.26382" lon="4.97086">
        <ele>411.4</ele>
        <time>2013-04-13T07:57:40.000Z</time>
      </trkpt>
      <trkpt lat="47.26379" lon="4.97088">
        <ele>411.4</ele>
        <time>2013-04-13T07:57:42.000Z</time>
      </trkpt>
      <trkpt lat="47.26377" lon="4.97089">
        <ele>411.5</ele>
        <time>2013-04-13T07:57:43.000Z</time>
      </trkpt>
      <trkpt lat="47.26373" lon="4.97089">
        <ele>411.7</ele>
        <time>2013-04-13T07:57:46.000Z</time>
      </trkpt>
      <trkpt lat="47.26372" lon="4.97089">
        <ele>411.9</ele>
        <time>2013-04-13T07:57:47.000Z</time>
      </trkpt>
      <trkpt lat="47.26369" lon="4.9709">
        <ele>412.3</ele>
        <time>2013-04-13T07:57:49.000Z</time>
      </trkpt>
      <trkpt lat="47.26367" lon="4.97091">
        <ele>412.5</ele>
        <time>2013-04-13T07:57:50.000Z</time>
      </trkpt>
      <trkpt lat="47.26364" lon="4.97095">
        <ele>412.4</ele>
        <time>2013-04-13T07:57:53.000Z</time>
      </trkpt>
      <trkpt lat="47.26363" lon="4.97096">
        <ele>411.5</ele>
        <time>2013-04-13T07:57:54.000Z</time>
      </trkpt>
      <trkpt lat="47.26359" lon="4.97099">
        <ele>411.6</ele>
        <time>2013-04-13T07:57:57.000Z</time>
      </trkpt>
      <trkpt lat="47.26358" lon="4.971">
        <ele>411.9</ele>
        <time>2013-04-13T07:57:58.000Z</time>
      </trkpt>
      <trkpt lat="47.26355" lon="4.97103">
        <ele>411</ele>
        <time>2013-04-13T07:58:05.000Z</time>
      </trkpt>
      <trkpt lat="47.26354" lon="4.97104">
        <ele>411</ele>
        <time>2013-04-13T07:58:06.000Z</time>
      </trkpt>
      <trkpt lat="47.26351" lon="4.97106">
        <ele>410.5</ele>
        <time>2013-04-13T07:58:10.000Z</time>
      </trkpt>
      <trkpt lat="47.26349" lon="4.97107">
        <ele>410</ele>
        <time>2013-04-13T07:58:11.000Z</time>
      </trkpt>
      <trkpt lat="47.26346" lon="4.97109">
        <ele>407.2</ele>
        <time>2013-04-13T07:58:15.000Z</time>
      </trkpt>
      <trkpt lat="47.26345" lon="4.97109">
        <ele>406.4</ele>
        <time>2013-04-13T07:58:16.000Z</time>
      </trkpt>
      <trkpt lat="47.26342" lon="4.97112">
        <ele>406.9</ele>
        <time>2013-04-13T07:58:21.000Z</time>
      </trkpt>
      <trkpt lat="47.26341" lon="4.97113">
        <ele>405.7</ele>
        <time>2013-04-13T07:58:22.000Z</time>
      </trkpt>
      <trkpt lat="47.26338" lon="4.97117">
        <ele>404.4</ele>
        <time>2013-04-13T07:58:26.000Z</time>
      </trkpt>
      <trkpt lat="47.26337" lon="4.97117">
        <ele>404.1</ele>
        <time>2013-04-13T07:58:27.000Z</time>
      </trkpt>
      <trkpt lat="47.26335" lon="4.97121">
        <ele>405.1</ele>
        <time>2013-04-13T07:58:30.000Z</time>
      </trkpt>
      <trkpt lat="47.26334" lon="4.97123">
        <ele>404.2</ele>
        <time>2013-04-13T07:58:31.000Z</time>
      </trkpt>
      <trkpt lat="47.26331" lon="4.97128">
        <ele>401.9</ele>
        <time>2013-04-13T07:58:35.000Z</time>
      </trkpt>
      <trkpt lat="47.2633" lon="4.97129">
        <ele>401.1</ele>
        <time>2013-04-13T07:58:36.000Z</time>
      </trkpt>
      <trkpt lat="47.26328" lon="4.97133">
        <ele>398.9</ele>
        <time>2013-04-13T07:58:40.000Z</time>
      </trkpt>
      <trkpt lat="47.26328" lon="4.97134">
        <ele>398.7</ele>
        <time>2013-04-13T07:58:41.000Z</time>
      </trkpt>
      <trkpt lat="47.26325" lon="4.97139">
        <ele>396.7</ele>
        <time>2013-04-13T07:58:45.000Z</time>
      </trkpt>
      <trkpt lat="47.26325" lon="4.9714">
        <ele>396.3</ele>
        <time>2013-04-13T07:58:46.000Z</time>
      </trkpt>
      <trkpt lat="47.26322" lon="4.97143">
        <ele>396.6</ele>
        <time>2013-04-13T07:58:49.000Z</time>
      </trkpt>
      <trkpt lat="47.2632" lon="4.97144">
        <ele>396.5</ele>
        <time>2013-04-13T07:58:50.000Z</time>
      </trkpt>
      <trkpt lat="47.26316" lon="4.97146">
        <ele>397.3</ele>
        <time>2013-04-13T07:58:53.000Z</time>
      </trkpt>
      <trkpt lat="47.26315" lon="4.97147">
        <ele>396.8</ele>
        <time>2013-04-13T07:58:54.000Z</time>
      </trkpt>
      <trkpt lat="47.26311" lon="4.97151">
        <ele>396.2</ele>
        <time>2013-04-13T07:58:57.000Z</time>
      </trkpt>
      <trkpt lat="47.2631" lon="4.97152">
        <ele>395.4</ele>
        <time>2013-04-13T07:58:58.000Z</time>
      </trkpt>
      <trkpt lat="47.26308" lon="4.97157">
        <ele>394.5</ele>
        <time>2013-04-13T07:59:01.000Z</time>
      </trkpt>
      <trkpt lat="47.26307" lon="4.97159">
        <ele>394.5</ele>
        <time>2013-04-13T07:59:02.000Z</time>
      </trkpt>
      <trkpt lat="47.26307" lon="4.97164">
        <ele>391.8</ele>
        <time>2013-04-13T07:59:05.000Z</time>
      </trkpt>
      <trkpt lat="47.26307" lon="4.97165">
        <ele>390.8</ele>
        <time>2013-04-13T07:59:06.000Z</time>
      </trkpt>
      <trkpt lat="47.26305" lon="4.97171">
        <ele>390</ele>
        <time>2013-04-13T07:59:09.000Z</time>
      </trkpt>
      <trkpt lat="47.26305" lon="4.97173">
        <ele>389</ele>
        <time>2013-04-13T07:59:10.000Z</time>
      </trkpt>
      <trkpt lat="47.26303" lon="4.97178">
        <ele>389.4</ele>
        <time>2013-04-13T07:59:13.000Z</time>
      </trkpt>
      <trkpt lat="47.26303" lon="4.9718">
        <ele>389.2</ele>
        <time>2013-04-13T07:59:14.000Z</time>
      </trkpt>
      <trkpt lat="47.26301" lon="4.97185">
        <ele>387.2</ele>
        <time>2013-04-13T07:59:18.000Z</time>
      </trkpt>
      <trkpt lat="47.263" lon="4.97186">
        <ele>387</ele>
        <time>2013-04-13T07:59:19.000Z</time>
      </trkpt>
      <trkpt lat="47.26297" lon="4.97188">
        <ele>385.3</ele>
        <time>2013-04-13T07:59:22.000Z</time>
      </trkpt>
      <trkpt lat="47.26296" lon="4.97188">
        <ele>384.8</ele>
        <time>2013-04-13T07:59:23.000Z</time>
      </trkpt>
      <trkpt lat="47.26293" lon="4.9719">
        <ele>384.1</ele>
        <time>2013-04-13T07:59:26.000Z</time>
      </trkpt>
      <trkpt lat="47.26292" lon="4.97191">
        <ele>383.9</ele>
        <time>2013-04-13T07:59:27.000Z</time>
      </trkpt>
      <trkpt lat="47.26288" lon="4.97193">
        <ele>383.5</ele>
        <time>2013-04-13T07:59:32.000Z</time>
      </trkpt>
      <trkpt lat="47.26287" lon="4.97194">
        <ele>383.7</ele>
        <time>2013-04-13T07:59:33.000Z</time>
      </trkpt>
      <trkpt lat="47.26283" lon="4.97196">
        <ele>385.2</ele>
        <time>2013-04-13T07:59:42.000Z</time>
      </trkpt>
      <trkpt lat="47.26282" lon="4.97197">
        <ele>386</ele>
        <time>2013-04-13T07:59:43.000Z</time>
      </trkpt>
      <trkpt lat="47.26279" lon="4.97199">
        <ele>381.3</ele>
        <time>2013-04-13T07:59:48.000Z</time>
      </trkpt>
      <trkpt lat="47.26278" lon="4.97201">
        <ele>380.8</ele>
        <time>2013-04-13T07:59:49.000Z</time>
      </trkpt>
      <trkpt lat="47.26275" lon="4.97204">
        <ele>379.8</ele>
        <time>2013-04-13T07:59:52.000Z</time>
      </trkpt>
      <trkpt lat="47.26274" lon="4.97205">
        <ele>379.9</ele>
        <time>2013-04-13T07:59:53.000Z</time>
      </trkpt>
      <trkpt lat="47.26272" lon="4.97208">
        <ele>379.7</ele>
        <time>2013-04-13T07:59:55.000Z</time>
      </trkpt>
      <trkpt lat="47.2627" lon="4.9721">
        <ele>380</ele>
        <time>2013-04-13T07:59:56.000Z</time>
      </trkpt>
      <trkpt lat="47.26267" lon="4.97212">
        <ele>379.8</ele>
        <time>2013-04-13T07:59:58.000Z</time>
      </trkpt>
      <trkpt lat="47.26265" lon="4.97213">
        <ele>379.6</ele>
        <time>2013-04-13T07:59:59.000Z</time>
      </trkpt>
      <trkpt lat="47.26262" lon="4.97213">
        <ele>379.1</ele>
        <time>2013-04-13T08:00:01.000Z</time>
      </trkpt>
      <trkpt lat="47.2626" lon="4.97212">
        <ele>379</ele>
        <time>2013-04-13T08:00:02.000Z</time>
      </trkpt>
      <trkpt lat="47.26256" lon="4.9721">
        <ele>379.7</ele>
        <time>2013-04-13T08:00:04.000Z</time>
      </trkpt>
      <trkpt lat="47.26254" lon="4.97209">
        <ele>379.9</ele>
        <time>2013-04-13T08:00:05.000Z</time>
      </trkpt>
      <trkpt lat="47.2625" lon="4.97205">
        <ele>380.5</ele>
        <time>2013-04-13T08:00:07.000Z</time>
      </trkpt>
      <trkpt lat="47.26248" lon="4.97204">
        <ele>380.9</ele>
        <time>2013-04-13T08:00:08.000Z</time>
      </trkpt>
      <trkpt lat="47.26245" lon="4.97201">
        <ele>382</ele>
        <time>2013-04-13T08:00:10.000Z</time>
      </trkpt>
      <trkpt lat="47.26244" lon="4.972">
        <ele>382</ele>
        <time>2013-04-13T08:00:11.000Z</time>
      </trkpt>
      <trkpt lat="47.26242" lon="4.97197">
        <ele>382.8</ele>
        <time>2013-04-13T08:00:13.000Z</time>
      </trkpt>
      <trkpt lat="47.2624" lon="4.97196">
        <ele>382.8</ele>
        <time>2013-04-13T08:00:14.000Z</time>
      </trkpt>
      <trkpt lat="47.26238" lon="4.97193">
        <ele>381.6</ele>
        <time>2013-04-13T08:00:16.000Z</time>
      </trkpt>
      <trkpt lat="47.26237" lon="4.97192">
        <ele>381.5</ele>
        <time>2013-04-13T08:00:17.000Z</time>
      </trkpt>
      <trkpt lat="47.26233" lon="4.97189">
        <ele>380.8</ele>
        <time>2013-04-13T08:00:20.000Z</time>
      </trkpt>
      <trkpt lat="47.26232" lon="4.97188">
        <ele>380.7</ele>
        <time>2013-04-13T08:00:21.000Z</time>
      </trkpt>
      <trkpt lat="47.26228" lon="4.97185">
        <ele>380.4</ele>
        <time>2013-04-13T08:00:25.000Z</time>
      </trkpt>
      <trkpt lat="47.26227" lon="4.97184">
        <ele>380.3</ele>
        <time>2013-04-13T08:00:26.000Z</time>
      </trkpt>
      <trkpt lat="47.26223" lon="4.97183">
        <ele>380.3</ele>
        <time>2013-04-13T08:00:30.000Z</time>
      </trkpt>
      <trkpt lat="47.26221" lon="4.97183">
        <ele>380</ele>
        <time>2013-04-13T08:00:31.000Z</time>
      </trkpt>
      <trkpt lat="47.26217" lon="4.9718">
        <ele>380.5</ele>
        <time>2013-04-13T08:00:35.000Z</time>
      </trkpt>
      <trkpt lat="47.26216" lon="4.9718">
        <ele>381.4</ele>
        <time>2013-04-13T08:00:36.000Z</time>
      </trkpt>
      <trkpt lat="47.26212" lon="4.97179">
        <ele>382.2</ele>
        <time>2013-04-13T08:00:45.000Z</time>
      </trkpt>
      <trkpt lat="47.26211" lon="4.97179">
        <ele>381.5</ele>
        <time>2013-04-13T08:00:46.000Z</time>
      </trkpt>
      <trkpt lat="47.26207" lon="4.97177">
        <ele>380.3</ele>
        <time>2013-04-13T08:00:50.000Z</time>
      </trkpt>
      <trkpt lat="47.26206" lon="4.97176">
        <ele>381.4</ele>
        <time>2013-04-13T08:00:51.000Z</time>
      </trkpt>
      <trkpt lat="47.26201" lon="4.97176">
        <ele>379.8</ele>
        <time>2013-04-13T08:01:06.000Z</time>
      </trkpt>
      <trkpt lat="47.262" lon="4.97176">
        <ele>379.5</ele>
        <time>2013-04-13T08:01:07.000Z</time>
      </trkpt>
      <trkpt lat="47.26196" lon="4.97178">
        <ele>379.1</ele>
        <time>2013-04-13T08:01:10.000Z</time>
      </trkpt>
      <trkpt lat="47.26195" lon="4.97179">
        <ele>380.8</ele>
        <time>2013-04-13T08:01:11.000Z</time>
      </trkpt>
      <trkpt lat="47.26192" lon="4.97182">
        <ele>380.7</ele>
        <time>2013-04-13T08:01:13.000Z</time>
      </trkpt>
      <trkpt lat="47.2619" lon="4.97184">
        <ele>381</ele>
        <time>2013-04-13T08:01:14.000Z</time>
      </trkpt>
      <trkpt lat="47.26187" lon="4.97187">
        <ele>378.7</ele>
        <time>2013-04-13T08:01:17.000Z</time>
      </trkpt>
      <trkpt lat="47.26187" lon="4.97187">
        <ele>378.6</ele>
        <time>2013-04-13T08:01:18.000Z</time>
      </trkpt>
      <trkpt lat="47.26183" lon="4.97191">
        <ele>376.5</ele>
        <time>2013-04-13T08:01:22.000Z</time>
      </trkpt>
      <trkpt lat="47.26181" lon="4.97191">
        <ele>376</ele>
        <time>2013-04-13T08:01:23.000Z</time>
      </trkpt>
      <trkpt lat="47.26179" lon="4.97193">
        <ele>375.2</ele>
        <time>2013-04-13T08:01:25.000Z</time>
      </trkpt>
      <trkpt lat="47.26177" lon="4.97194">
        <ele>374.9</ele>
        <time>2013-04-13T08:01:26.000Z</time>
      </trkpt>
      <trkpt lat="47.26174" lon="4.97196">
        <ele>374.3</ele>
        <time>2013-04-13T08:01:28.000Z</time>
      </trkpt>
      <trkpt lat="47.26172" lon="4.97196">
        <ele>374.1</ele>
        <time>2013-04-13T08:01:29.000Z</time>
      </trkpt>
      <trkpt lat="47.26168" lon="4.97196">
        <ele>373.3</ele>
        <time>2013-04-13T08:01:31.000Z</time>
      </trkpt>
      <trkpt lat="47.26165" lon="4.97196">
        <ele>373.4</ele>
        <time>2013-04-13T08:01:32.000Z</time>
      </trkpt>
      <trkpt lat="47.26161" lon="4.97196">
        <ele>373.5</ele>
        <time>2013-04-13T08:01:34.000Z</time>
      </trkpt>
      <trkpt lat="47.26159" lon="4.97195">
        <ele>370.9</ele>
        <time>2013-04-13T08:01:35.000Z</time>
      </trkpt>
      <trkpt lat="47.26156" lon="4.97194">
        <ele>371.7</ele>
        <time>2013-04-13T08:01:37.000Z</time>
      </trkpt>
      <trkpt lat="47.26153" lon="4.97194">
        <ele>371.4</ele>
        <time>2013-04-13T08:01:38.000Z</time>
      </trkpt>
      <trkpt lat="47.26149" lon="4.97194">
        <ele>370.1</ele>
        <time>2013-04-13T08:01:40.000Z</time>
      </trkpt>
      <trkpt lat="47.26147" lon="4.97194">
        <ele>369.9</ele>
        <time>2013-04-13T08:01:41.000Z</time>
      </trkpt>
      <trkpt lat="47.26144" lon="4.97193">
        <ele>370.1</ele>
        <time>2013-04-13T08:01:43.000Z</time>
      </trkpt>
      <trkpt lat="47.26143" lon="4.97194">
        <ele>370.9</ele>
        <time>2013-04-13T08:01:44.000Z</time>
      </trkpt>
      <trkpt lat="47.26138" lon="4.97195">
        <ele>369.8</ele>
        <time>2013-04-13T08:01:47.000Z</time>
      </trkpt>
      <trkpt lat="47.26136" lon="4.97195">
        <ele>370.8</ele>
        <time>2013-04-13T08:01:48.000Z</time>
      </trkpt>
      <trkpt lat="47.26133" lon="4.97196">
        <ele>369.6</ele>
        <time>2013-04-13T08:01:50.000Z</time>
      </trkpt>
      <trkpt lat="47.26132" lon="4.97196">
        <ele>369.7</ele>
        <time>2013-04-13T08:01:51.000Z</time>
      </trkpt>
      <trkpt lat="47.26128" lon="4.97196">
        <ele>370.8</ele>
        <time>2013-04-13T08:01:54.000Z</time>
      </trkpt>
      <trkpt lat="47.26127" lon="4.97196">
        <ele>369.9</ele>
        <time>2013-04-13T08:01:55.000Z</time>
      </trkpt>
      <trkpt lat="47.26124" lon="4.97198">
        <ele>370.6</ele>
        <time>2013-04-13T08:01:57.000Z</time>
      </trkpt>
      <trkpt lat="47.26122" lon="4.97199">
        <ele>371</ele>
        <time>2013-04-13T08:01:58.000Z</time>
      </trkpt>
      <trkpt lat="47.26119" lon="4.97199">
        <ele>370.6</ele>
        <time>2013-04-13T08:02:00.000Z</time>
      </trkpt>
      <trkpt lat="47.26117" lon="4.97199">
        <ele>371.6</ele>
        <time>2013-04-13T08:02:01.000Z</time>
      </trkpt>
      <trkpt lat="47.26113" lon="4.972">
        <ele>371.7</ele>
        <time>2013-04-13T08:02:04.000Z</time>
      </trkpt>
      <trkpt lat="47.26111" lon="4.972">
        <ele>371.8</ele>
        <time>2013-04-13T08:02:05.000Z</time>
      </trkpt>
      <trkpt lat="47.26107" lon="4.97199">
        <ele>371.7</ele>
        <time>2013-04-13T08:02:08.000Z</time>
      </trkpt>
      <trkpt lat="47.26106" lon="4.97198">
        <ele>371.7</ele>
        <time>2013-04-13T08:02:09.000Z</time>
      </trkpt>
      <trkpt lat="47.26102" lon="4.97195">
        <ele>371.1</ele>
        <time>2013-04-13T08:02:12.000Z</time>
      </trkpt>
      <trkpt lat="47.26101" lon="4.97194">
        <ele>370.9</ele>
        <time>2013-04-13T08:02:13.000Z</time>
      </trkpt>
      <trkpt lat="47.261" lon="4.97188">
        <ele>371.5</ele>
        <time>2013-04-13T08:02:18.000Z</time>
      </trkpt>
      <trkpt lat="47.26099" lon="4.97187">
        <ele>371.6</ele>
        <time>2013-04-13T08:02:19.000Z</time>
      </trkpt>
      <trkpt lat="47.26096" lon="4.97182">
        <ele>371.7</ele>
        <time>2013-04-13T08:02:23.000Z</time>
      </trkpt>
      <trkpt lat="47.26095" lon="4.97181">
        <ele>371.7</ele>
        <time>2013-04-13T08:02:24.000Z</time>
      </trkpt>
      <trkpt lat="47.26093" lon="4.97177">
        <ele>373.3</ele>
        <time>2013-04-13T08:02:27.000Z</time>
      </trkpt>
      <trkpt lat="47.26091" lon="4.97176">
        <ele>375</ele>
        <time>2013-04-13T08:02:28.000Z</time>
      </trkpt>
      <trkpt lat="47.26088" lon="4.97172">
        <ele>376.3</ele>
        <time>2013-04-13T08:02:30.000Z</time>
      </trkpt>
      <trkpt lat="47.26087" lon="4.97171">
        <ele>377</ele>
        <time>2013-04-13T08:02:31.000Z</time>
      </trkpt>
      <trkpt lat="47.26084" lon="4.97166">
        <ele>377.9</ele>
        <time>2013-04-13T08:02:35.000Z</time>
      </trkpt>
      <trkpt lat="47.26083" lon="4.97165">
        <ele>378</ele>
        <time>2013-04-13T08:02:36.000Z</time>
      </trkpt>
      <trkpt lat="47.26081" lon="4.9716">
        <ele>379.7</ele>
        <time>2013-04-13T08:02:40.000Z</time>
      </trkpt>
      <trkpt lat="47.2608" lon="4.97159">
        <ele>380</ele>
        <time>2013-04-13T08:02:41.000Z</time>
      </trkpt>
      <trkpt lat="47.26078" lon="4.97155">
        <ele>380.6</ele>
        <time>2013-04-13T08:02:44.000Z</time>
      </trkpt>
      <trkpt lat="47.26077" lon="4.97154">
        <ele>380.3</ele>
        <time>2013-04-13T08:02:45.000Z</time>
      </trkpt>
      <trkpt lat="47.26075" lon="4.9715">
        <ele>380.2</ele>
        <time>2013-04-13T08:02:48.000Z</time>
      </trkpt>
      <trkpt lat="47.26075" lon="4.97148">
        <ele>380.1</ele>
        <time>2013-04-13T08:02:49.000Z</time>
      </trkpt>
      <trkpt lat="47.26074" lon="4.97143">
        <ele>380.7</ele>
        <time>2013-04-13T08:02:52.000Z</time>
      </trkpt>
      <trkpt lat="47.26074" lon="4.97141">
        <ele>382.5</ele>
        <time>2013-04-13T08:02:53.000Z</time>
      </trkpt>
      <trkpt lat="47.26074" lon="4.97135">
        <ele>382</ele>
        <time>2013-04-13T08:02:56.000Z</time>
      </trkpt>
      <trkpt lat="47.26074" lon="4.97132">
        <ele>382</ele>
        <time>2013-04-13T08:02:57.000Z</time>
      </trkpt>
      <trkpt lat="47.26074" lon="4.97127">
        <ele>382.3</ele>
        <time>2013-04-13T08:02:59.000Z</time>
      </trkpt>
      <trkpt lat="47.26074" lon="4.97124">
        <ele>382.6</ele>
        <time>2013-04-13T08:03:00.000Z</time>
      </trkpt>
      <trkpt lat="47.26074" lon="4.97118">
        <ele>381</ele>
        <time>2013-04-13T08:03:03.000Z</time>
      </trkpt>
      <trkpt lat="47.26074" lon="4.97117">
        <ele>381.7</ele>
        <time>2013-04-13T08:03:04.000Z</time>
      </trkpt>
      <trkpt lat="47.26072" lon="4.97111">
        <ele>383.2</ele>
        <time>2013-04-13T08:03:07.000Z</time>
      </trkpt>
      <trkpt lat="47.26071" lon="4.9711">
        <ele>383.5</ele>
        <time>2013-04-13T08:03:08.000Z</time>
      </trkpt>
      <trkpt lat="47.26069" lon="4.97104">
        <ele>382.3</ele>
        <time>2013-04-13T08:03:12.000Z</time>
      </trkpt>
      <trkpt lat="47.26069" lon="4.97104">
        <ele>382</ele>
        <time>2013-04-13T08:03:13.000Z</time>
      </trkpt>
      <trkpt lat="47.26067" lon="4.97099">
        <ele>382.9</ele>
        <time>2013-04-13T08:03:18.000Z</time>
      </trkpt>
      <trkpt lat="47.26066" lon="4.97098">
        <ele>383.5</ele>
        <time>2013-04-13T08:03:19.000Z</time>
      </trkpt>
      <trkpt lat="47.26063" lon="4.97095">
        <ele>383.3</ele>
        <time>2013-04-13T08:03:22.000Z</time>
      </trkpt>
      <trkpt lat="47.26062" lon="4.97094">
        <ele>383.9</ele>
        <time>2013-04-13T08:03:23.000Z</time>
      </trkpt>
      <trkpt lat="47.26059" lon="4.97092">
        <ele>384.7</ele>
        <time>2013-04-13T08:03:25.000Z</time>
      </trkpt>
      <trkpt lat="47.26058" lon="4.9709">
        <ele>384.5</ele>
        <time>2013-04-13T08:03:26.000Z</time>
      </trkpt>
      <trkpt lat="47.26055" lon="4.97086">
        <ele>384.7</ele>
        <time>2013-04-13T08:03:29.000Z</time>
      </trkpt>
      <trkpt lat="47.26055" lon="4.97086">
        <ele>385</ele>
        <time>2013-04-13T08:03:30.000Z</time>
      </trkpt>
      <trkpt lat="47.26052" lon="4.97081">
        <ele>385.5</ele>
        <time>2013-04-13T08:03:45.000Z</time>
      </trkpt>
      <trkpt lat="47.26051" lon="4.9708">
        <ele>386</ele>
        <time>2013-04-13T08:03:46.000Z</time>
      </trkpt>
      <trkpt lat="47.26048" lon="4.97078">
        <ele>383.6</ele>
        <time>2013-04-13T08:03:48.000Z</time>
      </trkpt>
      <trkpt lat="47.26046" lon="4.97078">
        <ele>383.4</ele>
        <time>2013-04-13T08:03:49.000Z</time>
      </trkpt>
      <trkpt lat="47.26043" lon="4.97077">
        <ele>384.9</ele>
        <time>2013-04-13T08:03:51.000Z</time>
      </trkpt>
      <trkpt lat="47.26041" lon="4.97078">
        <ele>385.3</ele>
        <time>2013-04-13T08:03:52.000Z</time>
      </trkpt>
      <trkpt lat="47.26039" lon="4.97081">
        <ele>386.7</ele>
        <time>2013-04-13T08:03:55.000Z</time>
      </trkpt>
      <trkpt lat="47.26038" lon="4.97082">
        <ele>385.6</ele>
        <time>2013-04-13T08:03:56.000Z</time>
      </trkpt>
      <trkpt lat="47.26036" lon="4.97087">
        <ele>384.4</ele>
        <time>2013-04-13T08:04:00.000Z</time>
      </trkpt>
      <trkpt lat="47.26036" lon="4.97088">
        <ele>384.3</ele>
        <time>2013-04-13T08:04:01.000Z</time>
      </trkpt>
      <trkpt lat="47.26035" lon="4.97093">
        <ele>385.2</ele>
        <time>2013-04-13T08:04:04.000Z</time>
      </trkpt>
      <trkpt lat="47.26034" lon="4.97095">
        <ele>385.9</ele>
        <time>2013-04-13T08:04:05.000Z</time>
      </trkpt>
      <trkpt lat="47.2603" lon="4.97099">
        <ele>386</ele>
        <time>2013-04-13T08:04:07.000Z</time>
      </trkpt>
      <trkpt lat="47.26029" lon="4.971">
        <ele>385.2</ele>
        <time>2013-04-13T08:04:08.000Z</time>
      </trkpt>
      <trkpt lat="47.26025" lon="4.97103">
        <ele>386.3</ele>
        <time>2013-04-13T08:04:11.000Z</time>
      </trkpt>
      <trkpt lat="47.26024" lon="4.97103">
        <ele>385.7</ele>
        <time>2013-04-13T08:04:12.000Z</time>
      </trkpt>
      <trkpt lat="47.26021" lon="4.97105">
        <ele>386.2</ele>
        <time>2013-04-13T08:04:14.000Z</time>
      </trkpt>
      <trkpt lat="47.26019" lon="4.97105">
        <ele>386.4</ele>
        <time>2013-04-13T08:04:15.000Z</time>
      </trkpt>
      <trkpt lat="47.26016" lon="4.97106">
        <ele>386.2</ele>
        <time>2013-04-13T08:04:17.000Z</time>
      </trkpt>
      <trkpt lat="47.26014" lon="4.97107">
        <ele>386.3</ele>
        <time>2013-04-13T08:04:18.000Z</time>
      </trkpt>
      <trkpt lat="47.2601" lon="4.97109">
        <ele>386.2</ele>
        <time>2013-04-13T08:04:23.000Z</time>
      </trkpt>
      <trkpt lat="47.26009" lon="4.9711">
        <ele>385.8</ele>
        <time>2013-04-13T08:04:24.000Z</time>
      </trkpt>
      <trkpt lat="47.26005" lon="4.97112">
        <ele>386.4</ele>
        <time>2013-04-13T08:04:27.000Z</time>
      </trkpt>
      <trkpt lat="47.26004" lon="4.97112">
        <ele>386.5</ele>
        <time>2013-04-13T08:04:28.000Z</time>
      </trkpt>
      <trkpt lat="47.26" lon="4.97113">
        <ele>383.1</ele>
        <time>2013-04-13T08:04:30.000Z</time>
      </trkpt>
      <trkpt lat="47.25998" lon="4.97113">
        <ele>382.7</ele>
        <time>2013-04-13T08:04:31.000Z</time>
      </trkpt>
      <trkpt lat="47.25995" lon="4.97114">
        <ele>382.5</ele>
        <time>2013-04-13T08:04:33.000Z</time>
      </trkpt>
      <trkpt lat="47.25993" lon="4.97115">
        <ele>382.5</ele>
        <time>2013-04-13T08:04:34.000Z</time>
      </trkpt>
      <trkpt lat="47.25989" lon="4.97116">
        <ele>382.3</ele>
        <time>2013-04-13T08:04:37.000Z</time>
      </trkpt>
      <trkpt lat="47.25987" lon="4.97117">
        <ele>382.4</ele>
        <time>2013-04-13T08:04:38.000Z</time>
      </trkpt>
      <trkpt lat="47.25984" lon="4.97119">
        <ele>380.1</ele>
        <time>2013-04-13T08:04:40.000Z</time>
      </trkpt>
      <trkpt lat="47.25982" lon="4.9712">
        <ele>379.1</ele>
        <time>2013-04-13T08:04:41.000Z</time>
      </trkpt>
      <trkpt lat="47.25979" lon="4.97123">
        <ele>378.8</ele>
        <time>2013-04-13T08:04:43.000Z</time>
      </trkpt>
      <trkpt lat="47.25977" lon="4.97124">
        <ele>378.9</ele>
        <time>2013-04-13T08:04:44.000Z</time>
      </trkpt>
      <trkpt lat="47.25974" lon="4.97125">
        <ele>378.9</ele>
        <time>2013-04-13T08:04:46.000Z</time>
      </trkpt>
      <trkpt lat="47.25972" lon="4.97125">
        <ele>379.2</ele>
        <time>2013-04-13T08:04:47.000Z</time>
      </trkpt>
      <trkpt lat="47.25968" lon="4.97126">
        <ele>379.3</ele>
        <time>2013-04-13T08:04:49.000Z</time>
      </trkpt>
      <trkpt lat="47.25966" lon="4.97126">
        <ele>379.4</ele>
        <time>2013-04-13T08:04:50.000Z</time>
      </trkpt>
      <trkpt lat="47.25962" lon="4.97127">
        <ele>380</ele>
        <time>2013-04-13T08:04:52.000Z</time>
      </trkpt>
      <trkpt lat="47.2596" lon="4.97127">
        <ele>379.7</ele>
        <time>2013-04-13T08:04:53.000Z</time>
      </trkpt>
      <trkpt lat="47.25956" lon="4.97128">
        <ele>379.6</ele>
        <time>2013-04-13T08:04:55.000Z</time>
      </trkpt>
      <trkpt lat="47.25955" lon="4.97128">
        <ele>376.6</ele>
        <time>2013-04-13T08:04:56.000Z</time>
      </trkpt>
      <trkpt lat="47.25951" lon="4.9713">
        <ele>375.9</ele>
        <time>2013-04-13T08:04:59.000Z</time>
      </trkpt>
      <trkpt lat="47.25949" lon="4.9713">
        <ele>376</ele>
        <time>2013-04-13T08:05:00.000Z</time>
      </trkpt>
      <trkpt lat="47.25946" lon="4.97132">
        <ele>377.2</ele>
        <time>2013-04-13T08:05:02.000Z</time>
      </trkpt>
      <trkpt lat="47.25944" lon="4.97132">
        <ele>378.2</ele>
        <time>2013-04-13T08:05:03.000Z</time>
      </trkpt>
      <trkpt lat="47.2594" lon="4.97133">
        <ele>377.8</ele>
        <time>2013-04-13T08:05:05.000Z</time>
      </trkpt>
      <trkpt lat="47.25939" lon="4.97134">
        <ele>378.5</ele>
        <time>2013-04-13T08:05:06.000Z</time>
      </trkpt>
      <trkpt lat="47.25936" lon="4.97136">
        <ele>378.3</ele>
        <time>2013-04-13T08:05:08.000Z</time>
      </trkpt>
      <trkpt lat="47.25934" lon="4.97137">
        <ele>378.8</ele>
        <time>2013-04-13T08:05:09.000Z</time>
      </trkpt>
      <trkpt lat="47.2593" lon="4.97138">
        <ele>377.5</ele>
        <time>2013-04-13T08:05:11.000Z</time>
      </trkpt>
      <trkpt lat="47.25928" lon="4.97139">
        <ele>376.8</ele>
        <time>2013-04-13T08:05:12.000Z</time>
      </trkpt>
      <trkpt lat="47.25923" lon="4.97139">
        <ele>375.7</ele>
        <time>2013-04-13T08:05:15.000Z</time>
      </trkpt>
      <trkpt lat="47.25922" lon="4.97139">
        <ele>375.4</ele>
        <time>2013-04-13T08:05:16.000Z</time>
      </trkpt>
      <trkpt lat="47.25917" lon="4.97139">
        <ele>376.7</ele>
        <time>2013-04-13T08:05:19.000Z</time>
      </trkpt>
      <trkpt lat="47.25916" lon="4.9714">
        <ele>378.2</ele>
        <time>2013-04-13T08:05:20.000Z</time>
      </trkpt>
      <trkpt lat="47.25913" lon="4.97139">
        <ele>377.9</ele>
        <time>2013-04-13T08:05:22.000Z</time>
      </trkpt>
      <trkpt lat="47.25911" lon="4.97139">
        <ele>377.5</ele>
        <time>2013-04-13T08:05:23.000Z</time>
      </trkpt>
      <trkpt lat="47.25907" lon="4.97139">
        <ele>377.6</ele>
        <time>2013-04-13T08:05:26.000Z</time>
      </trkpt>
      <trkpt lat="47.25906" lon="4.97139">
        <ele>377.9</ele>
        <time>2013-04-13T08:05:27.000Z</time>
      </trkpt>
      <trkpt lat="47.25902" lon="4.97139">
        <ele>378</ele>
        <time>2013-04-13T08:05:31.000Z</time>
      </trkpt>
      <trkpt lat="47.25901" lon="4.97139">
        <ele>377.9</ele>
        <time>2013-04-13T08:05:32.000Z</time>
      </trkpt>
      <trkpt lat="47.25897" lon="4.97138">
        <ele>378</ele>
        <time>2013-04-13T08:05:37.000Z</time>
      </trkpt>
      <trkpt lat="47.25895" lon="4.97138">
        <ele>378.2</ele>
        <time>2013-04-13T08:05:38.000Z</time>
      </trkpt>
      <trkpt lat="47.25891" lon="4.97137">
        <ele>379</ele>
        <time>2013-04-13T08:05:41.000Z</time>
      </trkpt>
      <trkpt lat="47.2589" lon="4.97137">
        <ele>379.2</ele>
        <time>2013-04-13T08:05:42.000Z</time>
      </trkpt>
      <trkpt lat="47.25885" lon="4.97137">
        <ele>379.8</ele>
        <time>2013-04-13T08:05:45.000Z</time>
      </trkpt>
      <trkpt lat="47.25884" lon="4.97137">
        <ele>380.1</ele>
        <time>2013-04-13T08:05:46.000Z</time>
      </trkpt>
      <trkpt lat="47.25881" lon="4.97136">
        <ele>380.8</ele>
        <time>2013-04-13T08:05:48.000Z</time>
      </trkpt>
      <trkpt lat="47.25879" lon="4.97136">
        <ele>379.5</ele>
        <time>2013-04-13T08:05:49.000Z</time>
      </trkpt>
      <trkpt lat="47.25876" lon="4.97135">
        <ele>379.6</ele>
        <time>2013-04-13T08:05:51.000Z</time>
      </trkpt>
      <trkpt lat="47.25874" lon="4.97135">
        <ele>379.6</ele>
        <time>2013-04-13T08:05:52.000Z</time>
      </trkpt>
      <trkpt lat="47.2587" lon="4.97133">
        <ele>380.4</ele>
        <time>2013-04-13T08:05:55.000Z</time>
      </trkpt>
      <trkpt lat="47.25868" lon="4.97133">
        <ele>380.3</ele>
        <time>2013-04-13T08:05:56.000Z</time>
      </trkpt>
      <trkpt lat="47.25864" lon="4.97132">
        <ele>380.7</ele>
        <time>2013-04-13T08:05:59.000Z</time>
      </trkpt>
      <trkpt lat="47.25863" lon="4.97131">
        <ele>380.9</ele>
        <time>2013-04-13T08:06:00.000Z</time>
      </trkpt>
      <trkpt lat="47.25859" lon="4.97131">
        <ele>382.2</ele>
        <time>2013-04-13T08:06:03.000Z</time>
      </trkpt>
      <trkpt lat="47.25857" lon="4.9713">
        <ele>382.2</ele>
        <time>2013-04-13T08:06:04.000Z</time>
      </trkpt>
      <trkpt lat="47.25854" lon="4.9713">
        <ele>382.5</ele>
        <time>2013-04-13T08:06:05.000Z</time>
      </trkpt>
      <trkpt lat="47.25852" lon="4.9713">
        <ele>382.7</ele>
        <time>2013-04-13T08:06:06.000Z</time>
      </trkpt>
      <trkpt lat="47.25847" lon="4.97129">
        <ele>383.2</ele>
        <time>2013-04-13T08:06:08.000Z</time>
      </trkpt>
      <trkpt lat="47.25845" lon="4.97129">
        <ele>386.3</ele>
        <time>2013-04-13T08:06:09.000Z</time>
      </trkpt>
      <trkpt lat="47.25841" lon="4.97129">
        <ele>388.2</ele>
        <time>2013-04-13T08:06:11.000Z</time>
      </trkpt>
      <trkpt lat="47.25839" lon="4.97128">
        <ele>388.5</ele>
        <time>2013-04-13T08:06:12.000Z</time>
      </trkpt>
      <trkpt lat="47.25836" lon="4.97128">
        <ele>388.5</ele>
        <time>2013-04-13T08:06:14.000Z</time>
      </trkpt>
      <trkpt lat="47.25834" lon="4.97127">
        <ele>388.7</ele>
        <time>2013-04-13T08:06:15.000Z</time>
      </trkpt>
      <trkpt lat="47.25831" lon="4.97126">
        <ele>389.2</ele>
        <time>2013-04-13T08:06:17.000Z</time>
      </trkpt>
      <trkpt lat="47.25829" lon="4.97126">
        <ele>389.4</ele>
        <time>2013-04-13T08:06:18.000Z</time>
      </trkpt>
      <trkpt lat="47.25825" lon="4.97125">
        <ele>389.8</ele>
        <time>2013-04-13T08:06:21.000Z</time>
      </trkpt>
      <trkpt lat="47.25824" lon="4.97125">
        <ele>389.9</ele>
        <time>2013-04-13T08:06:22.000Z</time>
      </trkpt>
      <trkpt lat="47.25821" lon="4.97124">
        <ele>390</ele>
        <time>2013-04-13T08:06:24.000Z</time>
      </trkpt>
      <trkpt lat="47.25819" lon="4.97124">
        <ele>390.2</ele>
        <time>2013-04-13T08:06:25.000Z</time>
      </trkpt>
      <trkpt lat="47.25816" lon="4.97124">
        <ele>390.5</ele>
        <time>2013-04-13T08:06:27.000Z</time>
      </trkpt>
      <trkpt lat="47.25814" lon="4.97124">
        <ele>390.6</ele>
        <time>2013-04-13T08:06:28.000Z</time>
      </trkpt>
      <trkpt lat="47.2581" lon="4.97124">
        <ele>391.7</ele>
        <time>2013-04-13T08:06:31.000Z</time>
      </trkpt>
      <trkpt lat="47.25808" lon="4.97124">
        <ele>391.8</ele>
        <time>2013-04-13T08:06:32.000Z</time>
      </trkpt>
      <trkpt lat="47.25804" lon="4.97123">
        <ele>392</ele>
        <time>2013-04-13T08:06:36.000Z</time>
      </trkpt>
      <trkpt lat="47.25803" lon="4.97123">
        <ele>392</ele>
        <time>2013-04-13T08:06:37.000Z</time>
      </trkpt>
      <trkpt lat="47.25799" lon="4.97123">
        <ele>391.8</ele>
        <time>2013-04-13T08:06:40.000Z</time>
      </trkpt>
      <trkpt lat="47.25798" lon="4.97123">
        <ele>391.7</ele>
        <time>2013-04-13T08:06:41.000Z</time>
      </trkpt>
      <trkpt lat="47.25795" lon="4.97122">
        <ele>392</ele>
        <time>2013-04-13T08:06:43.000Z</time>
      </trkpt>
      <trkpt lat="47.25793" lon="4.97122">
        <ele>392</ele>
        <time>2013-04-13T08:06:44.000Z</time>
      </trkpt>
      <trkpt lat="47.25789" lon="4.97123">
        <ele>392.7</ele>
        <time>2013-04-13T08:06:47.000Z</time>
      </trkpt>
      <trkpt lat="47.25787" lon="4.97124">
        <ele>392.7</ele>
        <time>2013-04-13T08:06:48.000Z</time>
      </trkpt>
      <trkpt lat="47.25784" lon="4.97124">
        <ele>392.7</ele>
        <time>2013-04-13T08:06:50.000Z</time>
      </trkpt>
      <trkpt lat="47.25783" lon="4.97125">
        <ele>392.5</ele>
        <time>2013-04-13T08:06:51.000Z</time>
      </trkpt>
      <trkpt lat="47.2578" lon="4.97125">
        <ele>392.9</ele>
        <time>2013-04-13T08:06:53.000Z</time>
      </trkpt>
      <trkpt lat="47.25778" lon="4.97125">
        <ele>393.1</ele>
        <time>2013-04-13T08:06:54.000Z</time>
      </trkpt>
      <trkpt lat="47.25774" lon="4.97124">
        <ele>393.3</ele>
        <time>2013-04-13T08:06:56.000Z</time>
      </trkpt>
      <trkpt lat="47.25772" lon="4.97123">
        <ele>393.3</ele>
        <time>2013-04-13T08:06:57.000Z</time>
      </trkpt>
      <trkpt lat="47.25769" lon="4.97122">
        <ele>393.2</ele>
        <time>2013-04-13T08:06:58.000Z</time>
      </trkpt>
      <trkpt lat="47.25767" lon="4.97122">
        <ele>393.2</ele>
        <time>2013-04-13T08:06:59.000Z</time>
      </trkpt>
      <trkpt lat="47.25764" lon="4.97121">
        <ele>393.4</ele>
        <time>2013-04-13T08:07:00.000Z</time>
      </trkpt>
      <trkpt lat="47.25762" lon="4.9712">
        <ele>393.3</ele>
        <time>2013-04-13T08:07:01.000Z</time>
      </trkpt>
      <trkpt lat="47.25758" lon="4.97121">
        <ele>393.6</ele>
        <time>2013-04-13T08:07:03.000Z</time>
      </trkpt>
      <trkpt lat="47.25756" lon="4.97121">
        <ele>391.8</ele>
        <time>2013-04-13T08:07:04.000Z</time>
      </trkpt>
      <trkpt lat="47.25752" lon="4.97121">
        <ele>390.5</ele>
        <time>2013-04-13T08:07:08.000Z</time>
      </trkpt>
      <trkpt lat="47.25751" lon="4.97121">
        <ele>390.9</ele>
        <time>2013-04-13T08:07:09.000Z</time>
      </trkpt>
      <trkpt lat="47.25747" lon="4.9712">
        <ele>389.9</ele>
        <time>2013-04-13T08:07:11.000Z</time>
      </trkpt>
      <trkpt lat="47.25745" lon="4.97119">
        <ele>389.1</ele>
        <time>2013-04-13T08:07:12.000Z</time>
      </trkpt>
      <trkpt lat="47.25741" lon="4.97118">
        <ele>388.3</ele>
        <time>2013-04-13T08:07:14.000Z</time>
      </trkpt>
      <trkpt lat="47.2574" lon="4.97118">
        <ele>389.4</ele>
        <time>2013-04-13T08:07:15.000Z</time>
      </trkpt>
      <trkpt lat="47.25736" lon="4.97117">
        <ele>389.2</ele>
        <time>2013-04-13T08:07:17.000Z</time>
      </trkpt>
      <trkpt lat="47.25734" lon="4.97117">
        <ele>391.4</ele>
        <time>2013-04-13T08:07:18.000Z</time>
      </trkpt>
      <trkpt lat="47.2573" lon="4.97116">
        <ele>390.4</ele>
        <time>2013-04-13T08:07:20.000Z</time>
      </trkpt>
      <trkpt lat="47.25728" lon="4.97116">
        <ele>389.6</ele>
        <time>2013-04-13T08:07:21.000Z</time>
      </trkpt>
      <trkpt lat="47.25725" lon="4.97115">
        <ele>390</ele>
        <time>2013-04-13T08:07:23.000Z</time>
      </trkpt>
      <trkpt lat="47.25723" lon="4.97115">
        <ele>389.3</ele>
        <time>2013-04-13T08:07:24.000Z</time>
      </trkpt>
      <trkpt lat="47.25719" lon="4.97114">
        <ele>387.4</ele>
        <time>2013-04-13T08:07:27.000Z</time>
      </trkpt>
      <trkpt lat="47.25718" lon="4.97114">
        <ele>387.2</ele>
        <time>2013-04-13T08:07:28.000Z</time>
      </trkpt>
      <trkpt lat="47.25715" lon="4.97115">
        <ele>388.1</ele>
        <time>2013-04-13T08:07:30.000Z</time>
      </trkpt>
      <trkpt lat="47.25713" lon="4.97115">
        <ele>387.5</ele>
        <time>2013-04-13T08:07:31.000Z</time>
      </trkpt>
      <trkpt lat="47.2571" lon="4.97117">
        <ele>387.3</ele>
        <time>2013-04-13T08:07:33.000Z</time>
      </trkpt>
      <trkpt lat="47.25708" lon="4.97118">
        <ele>387.4</ele>
        <time>2013-04-13T08:07:34.000Z</time>
      </trkpt>
      <trkpt lat="47.25706" lon="4.97121">
        <ele>387.4</ele>
        <time>2013-04-13T08:07:36.000Z</time>
      </trkpt>
      <trkpt lat="47.25704" lon="4.97123">
        <ele>387.3</ele>
        <time>2013-04-13T08:07:37.000Z</time>
      </trkpt>
      <trkpt lat="47.25703" lon="4.97127">
        <ele>386.8</ele>
        <time>2013-04-13T08:07:39.000Z</time>
      </trkpt>
      <trkpt lat="47.25702" lon="4.97129">
        <ele>386.3</ele>
        <time>2013-04-13T08:07:40.000Z</time>
      </trkpt>
      <trkpt lat="47.25701" lon="4.97133">
        <ele>386.7</ele>
        <time>2013-04-13T08:07:42.000Z</time>
      </trkpt>
      <trkpt lat="47.25701" lon="4.97136">
        <ele>387.3</ele>
        <time>2013-04-13T08:07:43.000Z</time>
      </trkpt>
      <trkpt lat="47.257" lon="4.97142">
        <ele>386</ele>
        <time>2013-04-13T08:07:46.000Z</time>
      </trkpt>
      <trkpt lat="47.257" lon="4.97144">
        <ele>384.6</ele>
        <time>2013-04-13T08:07:47.000Z</time>
      </trkpt>
      <trkpt lat="47.257" lon="4.97149">
        <ele>384.9</ele>
        <time>2013-04-13T08:07:49.000Z</time>
      </trkpt>
      <trkpt lat="47.257" lon="4.97151">
        <ele>384.8</ele>
        <time>2013-04-13T08:07:50.000Z</time>
      </trkpt>
      <trkpt lat="47.25699" lon="4.97156">
        <ele>384.8</ele>
        <time>2013-04-13T08:07:52.000Z</time>
      </trkpt>
      <trkpt lat="47.25698" lon="4.97158">
        <ele>384.4</ele>
        <time>2013-04-13T08:07:53.000Z</time>
      </trkpt>
      <trkpt lat="47.25698" lon="4.97163">
        <ele>383.7</ele>
        <time>2013-04-13T08:07:56.000Z</time>
      </trkpt>
      <trkpt lat="47.25697" lon="4.97165">
        <ele>383.4</ele>
        <time>2013-04-13T08:07:57.000Z</time>
      </trkpt>
      <trkpt lat="47.25697" lon="4.9717">
        <ele>383.4</ele>
        <time>2013-04-13T08:07:59.000Z</time>
      </trkpt>
      <trkpt lat="47.25696" lon="4.97172">
        <ele>382.7</ele>
        <time>2013-04-13T08:08:00.000Z</time>
      </trkpt>
      <trkpt lat="47.25695" lon="4.97177">
        <ele>384.2</ele>
        <time>2013-04-13T08:08:02.000Z</time>
      </trkpt>
      <trkpt lat="47.25695" lon="4.97179">
        <ele>382.7</ele>
        <time>2013-04-13T08:08:03.000Z</time>
      </trkpt>
      <trkpt lat="47.25695" lon="4.97184">
        <ele>380.8</ele>
        <time>2013-04-13T08:08:06.000Z</time>
      </trkpt>
      <trkpt lat="47.25695" lon="4.97187">
        <ele>380.7</ele>
        <time>2013-04-13T08:08:07.000Z</time>
      </trkpt>
      <trkpt lat="47.25694" lon="4.97193">
        <ele>380.8</ele>
        <time>2013-04-13T08:08:10.000Z</time>
      </trkpt>
      <trkpt lat="47.25694" lon="4.97195">
        <ele>380.1</ele>
        <time>2013-04-13T08:08:11.000Z</time>
      </trkpt>
      <trkpt lat="47.25693" lon="4.97201">
        <ele>378.7</ele>
        <time>2013-04-13T08:08:14.000Z</time>
      </trkpt>
      <trkpt lat="47.25693" lon="4.97203">
        <ele>378.2</ele>
        <time>2013-04-13T08:08:15.000Z</time>
      </trkpt>
      <trkpt lat="47.25693" lon="4.97209">
        <ele>378.2</ele>
        <time>2013-04-13T08:08:18.000Z</time>
      </trkpt>
      <trkpt lat="47.25693" lon="4.97211">
        <ele>377.8</ele>
        <time>2013-04-13T08:08:19.000Z</time>
      </trkpt>
      <trkpt lat="47.25692" lon="4.97217">
        <ele>376.3</ele>
        <time>2013-04-13T08:08:22.000Z</time>
      </trkpt>
      <trkpt lat="47.25691" lon="4.97219">
        <ele>375.5</ele>
        <time>2013-04-13T08:08:23.000Z</time>
      </trkpt>
      <trkpt lat="47.2569" lon="4.97224">
        <ele>373.8</ele>
        <time>2013-04-13T08:08:26.000Z</time>
      </trkpt>
      <trkpt lat="47.2569" lon="4.97225">
        <ele>373.6</ele>
        <time>2013-04-13T08:08:27.000Z</time>
      </trkpt>
      <trkpt lat="47.25686" lon="4.97228">
        <ele>373.5</ele>
        <time>2013-04-13T08:08:30.000Z</time>
      </trkpt>
      <trkpt lat="47.25685" lon="4.97228">
        <ele>373.4</ele>
        <time>2013-04-13T08:08:31.000Z</time>
      </trkpt>
      <trkpt lat="47.2568" lon="4.97227">
        <ele>374.5</ele>
        <time>2013-04-13T08:08:34.000Z</time>
      </trkpt>
      <trkpt lat="47.25679" lon="4.97226">
        <ele>375.1</ele>
        <time>2013-04-13T08:08:35.000Z</time>
      </trkpt>
      <trkpt lat="47.25675" lon="4.97224">
        <ele>375.1</ele>
        <time>2013-04-13T08:08:37.000Z</time>
      </trkpt>
      <trkpt lat="47.25674" lon="4.97223">
        <ele>375</ele>
        <time>2013-04-13T08:08:38.000Z</time>
      </trkpt>
      <trkpt lat="47.2567" lon="4.97221">
        <ele>373.9</ele>
        <time>2013-04-13T08:08:41.000Z</time>
      </trkpt>
      <trkpt lat="47.25668" lon="4.97221">
        <ele>373.6</ele>
        <time>2013-04-13T08:08:42.000Z</time>
      </trkpt>
      <trkpt lat="47.25665" lon="4.97219">
        <ele>373.4</ele>
        <time>2013-04-13T08:08:44.000Z</time>
      </trkpt>
      <trkpt lat="47.25664" lon="4.97218">
        <ele>373.7</ele>
        <time>2013-04-13T08:08:45.000Z</time>
      </trkpt>
      <trkpt lat="47.25661" lon="4.97216">
        <ele>374.1</ele>
        <time>2013-04-13T08:08:47.000Z</time>
      </trkpt>
      <trkpt lat="47.2566" lon="4.97215">
        <ele>375.1</ele>
        <time>2013-04-13T08:08:48.000Z</time>
      </trkpt>
      <trkpt lat="47.25656" lon="4.97213">
        <ele>375.5</ele>
        <time>2013-04-13T08:08:51.000Z</time>
      </trkpt>
      <trkpt lat="47.25655" lon="4.97212">
        <ele>374.9</ele>
        <time>2013-04-13T08:08:52.000Z</time>
      </trkpt>
      <trkpt lat="47.25652" lon="4.97208">
        <ele>375.9</ele>
        <time>2013-04-13T08:08:55.000Z</time>
      </trkpt>
      <trkpt lat="47.25651" lon="4.97207">
        <ele>375.6</ele>
        <time>2013-04-13T08:08:56.000Z</time>
      </trkpt>
      <trkpt lat="47.25648" lon="4.97204">
        <ele>374.7</ele>
        <time>2013-04-13T08:08:59.000Z</time>
      </trkpt>
      <trkpt lat="47.25647" lon="4.97202">
        <ele>374.6</ele>
        <time>2013-04-13T08:09:00.000Z</time>
      </trkpt>
      <trkpt lat="47.25644" lon="4.97199">
        <ele>375.6</ele>
        <time>2013-04-13T08:09:04.000Z</time>
      </trkpt>
      <trkpt lat="47.25643" lon="4.97198">
        <ele>375.7</ele>
        <time>2013-04-13T08:09:05.000Z</time>
      </trkpt>
      <trkpt lat="47.2564" lon="4.97194">
        <ele>377.1</ele>
        <time>2013-04-13T08:09:08.000Z</time>
      </trkpt>
      <trkpt lat="47.25639" lon="4.97192">
        <ele>377.4</ele>
        <time>2013-04-13T08:09:09.000Z</time>
      </trkpt>
      <trkpt lat="47.25635" lon="4.97189">
        <ele>377.5</ele>
        <time>2013-04-13T08:09:12.000Z</time>
      </trkpt>
      <trkpt lat="47.25634" lon="4.97187">
        <ele>377.5</ele>
        <time>2013-04-13T08:09:13.000Z</time>
      </trkpt>
      <trkpt lat="47.2563" lon="4.97184">
        <ele>376.8</ele>
        <time>2013-04-13T08:09:16.000Z</time>
      </trkpt>
      <trkpt lat="47.25629" lon="4.97182">
        <ele>376.6</ele>
        <time>2013-04-13T08:09:17.000Z</time>
      </trkpt>
      <trkpt lat="47.25627" lon="4.97179">
        <ele>379.8</ele>
        <time>2013-04-13T08:09:19.000Z</time>
      </trkpt>
      <trkpt lat="47.25625" lon="4.97177">
        <ele>379.1</ele>
        <time>2013-04-13T08:09:20.000Z</time>
      </trkpt>
      <trkpt lat="47.25623" lon="4.97174">
        <ele>379.3</ele>
        <time>2013-04-13T08:09:22.000Z</time>
      </trkpt>
      <trkpt lat="47.25622" lon="4.97172">
        <ele>379.2</ele>
        <time>2013-04-13T08:09:23.000Z</time>
      </trkpt>
      <trkpt lat="47.25619" lon="4.97168">
        <ele>379.6</ele>
        <time>2013-04-13T08:09:27.000Z</time>
      </trkpt>
      <trkpt lat="47.25618" lon="4.97167">
        <ele>379.6</ele>
        <time>2013-04-13T08:09:28.000Z</time>
      </trkpt>
      <trkpt lat="47.25615" lon="4.97163">
        <ele>379.5</ele>
        <time>2013-04-13T08:09:31.000Z</time>
      </trkpt>
      <trkpt lat="47.25614" lon="4.97162">
        <ele>379.7</ele>
        <time>2013-04-13T08:09:32.000Z</time>
      </trkpt>
      <trkpt lat="47.25611" lon="4.9716">
        <ele>378.6</ele>
        <time>2013-04-13T08:09:34.000Z</time>
      </trkpt>
      <trkpt lat="47.25609" lon="4.97159">
        <ele>377.5</ele>
        <time>2013-04-13T08:09:35.000Z</time>
      </trkpt>
      <trkpt lat="47.25607" lon="4.97156">
        <ele>378.3</ele>
        <time>2013-04-13T08:09:37.000Z</time>
      </trkpt>
      <trkpt lat="47.25605" lon="4.97155">
        <ele>378.1</ele>
        <time>2013-04-13T08:09:38.000Z</time>
      </trkpt>
      <trkpt lat="47.25602" lon="4.97153">
        <ele>378</ele>
        <time>2013-04-13T08:09:40.000Z</time>
      </trkpt>
      <trkpt lat="47.25601" lon="4.97152">
        <ele>377.4</ele>
        <time>2013-04-13T08:09:41.000Z</time>
      </trkpt>
      <trkpt lat="47.25597" lon="4.9715">
        <ele>378.4</ele>
        <time>2013-04-13T08:09:43.000Z</time>
      </trkpt>
      <trkpt lat="47.25595" lon="4.97149">
        <ele>379.5</ele>
        <time>2013-04-13T08:09:44.000Z</time>
      </trkpt>
      <trkpt lat="47.25592" lon="4.97148">
        <ele>379.3</ele>
        <time>2013-04-13T08:09:46.000Z</time>
      </trkpt>
      <trkpt lat="47.2559" lon="4.97147">
        <ele>379.2</ele>
        <time>2013-04-13T08:09:47.000Z</time>
      </trkpt>
      <trkpt lat="47.25586" lon="4.97144">
        <ele>379.2</ele>
        <time>2013-04-13T08:09:49.000Z</time>
      </trkpt>
      <trkpt lat="47.25584" lon="4.97143">
        <ele>379.3</ele>
        <time>2013-04-13T08:09:50.000Z</time>
      </trkpt>
      <trkpt lat="47.2558" lon="4.97141">
        <ele>379.8</ele>
        <time>2013-04-13T08:09:53.000Z</time>
      </trkpt>
      <trkpt lat="47.25579" lon="4.97141">
        <ele>380.3</ele>
        <time>2013-04-13T08:09:54.000Z</time>
      </trkpt>
      <trkpt lat="47.25575" lon="4.9714">
        <ele>380.6</ele>
        <time>2013-04-13T08:09:57.000Z</time>
      </trkpt>
      <trkpt lat="47.25573" lon="4.97139">
        <ele>381.3</ele>
        <time>2013-04-13T08:09:58.000Z</time>
      </trkpt>
      <trkpt lat="47.2557" lon="4.97137">
        <ele>382.5</ele>
        <time>2013-04-13T08:10:00.000Z</time>
      </trkpt>
      <trkpt lat="47.25568" lon="4.97137">
        <ele>383.2</ele>
        <time>2013-04-13T08:10:01.000Z</time>
      </trkpt>
      <trkpt lat="47.25564" lon="4.97137">
        <ele>385.3</ele>
        <time>2013-04-13T08:10:03.000Z</time>
      </trkpt>
      <trkpt lat="47.25562" lon="4.97136">
        <ele>385.7</ele>
        <time>2013-04-13T08:10:04.000Z</time>
      </trkpt>
      <trkpt lat="47.25558" lon="4.97135">
        <ele>386.2</ele>
        <time>2013-04-13T08:10:06.000Z</time>
      </trkpt>
      <trkpt lat="47.25557" lon="4.97134">
        <ele>386.1</ele>
        <time>2013-04-13T08:10:07.000Z</time>
      </trkpt>
      <trkpt lat="47.25553" lon="4.97132">
        <ele>384.8</ele>
        <time>2013-04-13T08:10:10.000Z</time>
      </trkpt>
      <trkpt lat="47.25552" lon="4.97131">
        <ele>384.6</ele>
        <time>2013-04-13T08:10:11.000Z</time>
      </trkpt>
      <trkpt lat="47.25548" lon="4.97127">
        <ele>384.8</ele>
        <time>2013-04-13T08:10:14.000Z</time>
      </trkpt>
      <trkpt lat="47.25547" lon="4.97125">
        <ele>384.3</ele>
        <time>2013-04-13T08:10:15.000Z</time>
      </trkpt>
      <trkpt lat="47.25544" lon="4.97122">
        <ele>384.1</ele>
        <time>2013-04-13T08:10:17.000Z</time>
      </trkpt>
      <trkpt lat="47.25543" lon="4.97121">
        <ele>383.5</ele>
        <time>2013-04-13T08:10:18.000Z</time>
      </trkpt>
      <trkpt lat="47.25539" lon="4.97117">
        <ele>383</ele>
        <time>2013-04-13T08:10:21.000Z</time>
      </trkpt>
      <trkpt lat="47.25538" lon="4.97116">
        <ele>381.9</ele>
        <time>2013-04-13T08:10:22.000Z</time>
      </trkpt>
      <trkpt lat="47.25535" lon="4.97114">
        <ele>381.3</ele>
        <time>2013-04-13T08:10:24.000Z</time>
      </trkpt>
      <trkpt lat="47.25534" lon="4.97112">
        <ele>381.5</ele>
        <time>2013-04-13T08:10:25.000Z</time>
      </trkpt>
      <trkpt lat="47.25531" lon="4.97109">
        <ele>382.6</ele>
        <time>2013-04-13T08:10:27.000Z</time>
      </trkpt>
      <trkpt lat="47.2553" lon="4.97108">
        <ele>383</ele>
        <time>2013-04-13T08:10:28.000Z</time>
      </trkpt>
      <trkpt lat="47.25527" lon="4.97106">
        <ele>382.6</ele>
        <time>2013-04-13T08:10:30.000Z</time>
      </trkpt>
      <trkpt lat="47.25525" lon="4.97105">
        <ele>382.9</ele>
        <time>2013-04-13T08:10:31.000Z</time>
      </trkpt>
      <trkpt lat="47.25522" lon="4.97102">
        <ele>382.4</ele>
        <time>2013-04-13T08:10:34.000Z</time>
      </trkpt>
      <trkpt lat="47.25521" lon="4.97101">
        <ele>382.6</ele>
        <time>2013-04-13T08:10:35.000Z</time>
      </trkpt>
      <trkpt lat="47.25518" lon="4.97098">
        <ele>382</ele>
        <time>2013-04-13T08:10:37.000Z</time>
      </trkpt>
      <trkpt lat="47.25517" lon="4.97096">
        <ele>382.3</ele>
        <time>2013-04-13T08:10:38.000Z</time>
      </trkpt>
      <trkpt lat="47.25513" lon="4.97094">
        <ele>382.9</ele>
        <time>2013-04-13T08:10:40.000Z</time>
      </trkpt>
      <trkpt lat="47.25513" lon="4.97093">
        <ele>381.2</ele>
        <time>2013-04-13T08:10:41.000Z</time>
      </trkpt>
      <trkpt lat="47.2551" lon="4.97087">
        <ele>378.9</ele>
        <time>2013-04-13T08:10:45.000Z</time>
      </trkpt>
      <trkpt lat="47.2551" lon="4.97086">
        <ele>379.5</ele>
        <time>2013-04-13T08:10:46.000Z</time>
      </trkpt>
      <trkpt lat="47.25508" lon="4.97081">
        <ele>378.9</ele>
        <time>2013-04-13T08:10:49.000Z</time>
      </trkpt>
      <trkpt lat="47.25507" lon="4.9708">
        <ele>378.3</ele>
        <time>2013-04-13T08:10:50.000Z</time>
      </trkpt>
      <trkpt lat="47.25506" lon="4.97074">
        <ele>377.8</ele>
        <time>2013-04-13T08:10:53.000Z</time>
      </trkpt>
      <trkpt lat="47.25506" lon="4.97071">
        <ele>378.2</ele>
        <time>2013-04-13T08:10:54.000Z</time>
      </trkpt>
      <trkpt lat="47.25506" lon="4.97065">
        <ele>377.1</ele>
        <time>2013-04-13T08:10:57.000Z</time>
      </trkpt>
      <trkpt lat="47.25505" lon="4.97063">
        <ele>377</ele>
        <time>2013-04-13T08:10:58.000Z</time>
      </trkpt>
      <trkpt lat="47.25505" lon="4.97058">
        <ele>376.8</ele>
        <time>2013-04-13T08:11:01.000Z</time>
      </trkpt>
      <trkpt lat="47.25505" lon="4.97057">
        <ele>377</ele>
        <time>2013-04-13T08:11:02.000Z</time>
      </trkpt>
      <trkpt lat="47.25504" lon="4.9705">
        <ele>376.5</ele>
        <time>2013-04-13T08:11:05.000Z</time>
      </trkpt>
      <trkpt lat="47.25504" lon="4.97048">
        <ele>376.9</ele>
        <time>2013-04-13T08:11:06.000Z</time>
      </trkpt>
      <trkpt lat="47.25503" lon="4.97041">
        <ele>379.6</ele>
        <time>2013-04-13T08:11:09.000Z</time>
      </trkpt>
      <trkpt lat="47.25502" lon="4.97039">
        <ele>380</ele>
        <time>2013-04-13T08:11:10.000Z</time>
      </trkpt>
      <trkpt lat="47.25501" lon="4.97034">
        <ele>380.1</ele>
        <time>2013-04-13T08:11:12.000Z</time>
      </trkpt>
      <trkpt lat="47.255" lon="4.97032">
        <ele>380.5</ele>
        <time>2013-04-13T08:11:13.000Z</time>
      </trkpt>
      <trkpt lat="47.25499" lon="4.97026">
        <ele>380.4</ele>
        <time>2013-04-13T08:11:16.000Z</time>
      </trkpt>
      <trkpt lat="47.25498" lon="4.97024">
        <ele>381.6</ele>
        <time>2013-04-13T08:11:17.000Z</time>
      </trkpt>
      <trkpt lat="47.25497" lon="4.97018">
        <ele>380.3</ele>
        <time>2013-04-13T08:11:20.000Z</time>
      </trkpt>
      <trkpt lat="47.25497" lon="4.97017">
        <ele>380.8</ele>
        <time>2013-04-13T08:11:21.000Z</time>
      </trkpt>
      <trkpt lat="47.25495" lon="4.97013">
        <ele>380.5</ele>
        <time>2013-04-13T08:11:23.000Z</time>
      </trkpt>
      <trkpt lat="47.25494" lon="4.9701">
        <ele>381.1</ele>
        <time>2013-04-13T08:11:24.000Z</time>
      </trkpt>
      <trkpt lat="47.25492" lon="4.97006">
        <ele>381.2</ele>
        <time>2013-04-13T08:11:26.000Z</time>
      </trkpt>
      <trkpt lat="47.25491" lon="4.97004">
        <ele>381.3</ele>
        <time>2013-04-13T08:11:27.000Z</time>
      </trkpt>
      <trkpt lat="47.2549" lon="4.96999">
        <ele>380.8</ele>
        <time>2013-04-13T08:11:29.000Z</time>
      </trkpt>
      <trkpt lat="47.25489" lon="4.96996">
        <ele>380.8</ele>
        <time>2013-04-13T08:11:30.000Z</time>
      </trkpt>
      <trkpt lat="47.25487" lon="4.96992">
        <ele>381.4</ele>
        <time>2013-04-13T08:11:32.000Z</time>
      </trkpt>
      <trkpt lat="47.25486" lon="4.9699">
        <ele>381.9</ele>
        <time>2013-04-13T08:11:33.000Z</time>
      </trkpt>
      <trkpt lat="47.25484" lon="4.96985">
        <ele>382.6</ele>
        <time>2013-04-13T08:11:36.000Z</time>
      </trkpt>
      <trkpt lat="47.25483" lon="4.96983">
        <ele>382.5</ele>
        <time>2013-04-13T08:11:37.000Z</time>
      </trkpt>
      <trkpt lat="47.25482" lon="4.96978">
        <ele>382.7</ele>
        <time>2013-04-13T08:11:40.000Z</time>
      </trkpt>
      <trkpt lat="47.25481" lon="4.96976">
        <ele>383.8</ele>
        <time>2013-04-13T08:11:41.000Z</time>
      </trkpt>
      <trkpt lat="47.2548" lon="4.9697">
        <ele>385.3</ele>
        <time>2013-04-13T08:11:44.000Z</time>
      </trkpt>
      <trkpt lat="47.25479" lon="4.96968">
        <ele>384.8</ele>
        <time>2013-04-13T08:11:45.000Z</time>
      </trkpt>
      <trkpt lat="47.25478" lon="4.96963">
        <ele>384.6</ele>
        <time>2013-04-13T08:11:47.000Z</time>
      </trkpt>
      <trkpt lat="47.25477" lon="4.9696">
        <ele>383.8</ele>
        <time>2013-04-13T08:11:48.000Z</time>
      </trkpt>
      <trkpt lat="47.25475" lon="4.96956">
        <ele>381.6</ele>
        <time>2013-04-13T08:11:51.000Z</time>
      </trkpt>
      <trkpt lat="47.25474" lon="4.96955">
        <ele>382.3</ele>
        <time>2013-04-13T08:11:52.000Z</time>
      </trkpt>
      <trkpt lat="47.25471" lon="4.9695">
        <ele>381.4</ele>
        <time>2013-04-13T08:11:55.000Z</time>
      </trkpt>
      <trkpt lat="47.2547" lon="4.96948">
        <ele>380.9</ele>
        <time>2013-04-13T08:11:56.000Z</time>
      </trkpt>
      <trkpt lat="47.25468" lon="4.96944">
        <ele>380.8</ele>
        <time>2013-04-13T08:11:58.000Z</time>
      </trkpt>
      <trkpt lat="47.25467" lon="4.96942">
        <ele>380.7</ele>
        <time>2013-04-13T08:11:59.000Z</time>
      </trkpt>
      <trkpt lat="47.25464" lon="4.96939">
        <ele>380.3</ele>
        <time>2013-04-13T08:12:02.000Z</time>
      </trkpt>
      <trkpt lat="47.25463" lon="4.96938">
        <ele>380.1</ele>
        <time>2013-04-13T08:12:03.000Z</time>
      </trkpt>
      <trkpt lat="47.25459" lon="4.96934">
        <ele>378.7</ele>
        <time>2013-04-13T08:12:06.000Z</time>
      </trkpt>
      <trkpt lat="47.25458" lon="4.96932">
        <ele>379.1</ele>
        <time>2013-04-13T08:12:07.000Z</time>
      </trkpt>
      <trkpt lat="47.25456" lon="4.96928">
        <ele>378.4</ele>
        <time>2013-04-13T08:12:10.000Z</time>
      </trkpt>
      <trkpt lat="47.25455" lon="4.96927">
        <ele>379</ele>
        <time>2013-04-13T08:12:11.000Z</time>
      </trkpt>
      <trkpt lat="47.25452" lon="4.96922">
        <ele>378.6</ele>
        <time>2013-04-13T08:12:14.000Z</time>
      </trkpt>
      <trkpt lat="47.25451" lon="4.9692">
        <ele>378.9</ele>
        <time>2013-04-13T08:12:15.000Z</time>
      </trkpt>
      <trkpt lat="47.25448" lon="4.96916">
        <ele>377.2</ele>
        <time>2013-04-13T08:12:18.000Z</time>
      </trkpt>
      <trkpt lat="47.25447" lon="4.96915">
        <ele>377.1</ele>
        <time>2013-04-13T08:12:19.000Z</time>
      </trkpt>
      <trkpt lat="47.25445" lon="4.96912">
        <ele>377.4</ele>
        <time>2013-04-13T08:12:21.000Z</time>
      </trkpt>
      <trkpt lat="47.25444" lon="4.9691">
        <ele>377.4</ele>
        <time>2013-04-13T08:12:22.000Z</time>
      </trkpt>
      <trkpt lat="47.25441" lon="4.96906">
        <ele>377.1</ele>
        <time>2013-04-13T08:12:24.000Z</time>
      </trkpt>
      <trkpt lat="47.2544" lon="4.96904">
        <ele>376.9</ele>
        <time>2013-04-13T08:12:25.000Z</time>
      </trkpt>
      <trkpt lat="47.25438" lon="4.969">
        <ele>377.1</ele>
        <time>2013-04-13T08:12:27.000Z</time>
      </trkpt>
      <trkpt lat="47.25437" lon="4.96898">
        <ele>377.4</ele>
        <time>2013-04-13T08:12:28.000Z</time>
      </trkpt>
      <trkpt lat="47.25435" lon="4.96894">
        <ele>375.3</ele>
        <time>2013-04-13T08:12:30.000Z</time>
      </trkpt>
      <trkpt lat="47.25434" lon="4.96893">
        <ele>375.6</ele>
        <time>2013-04-13T08:12:31.000Z</time>
      </trkpt>
      <trkpt lat="47.25431" lon="4.96888">
        <ele>375.6</ele>
        <time>2013-04-13T08:12:34.000Z</time>
      </trkpt>
      <trkpt lat="47.25431" lon="4.96886">
        <ele>375</ele>
        <time>2013-04-13T08:12:35.000Z</time>
      </trkpt>
      <trkpt lat="47.25429" lon="4.9688">
        <ele>374.3</ele>
        <time>2013-04-13T08:12:38.000Z</time>
      </trkpt>
      <trkpt lat="47.25428" lon="4.96878">
        <ele>374.5</ele>
        <time>2013-04-13T08:12:39.000Z</time>
      </trkpt>
      <trkpt lat="47.25425" lon="4.96874">
        <ele>375</ele>
        <time>2013-04-13T08:12:42.000Z</time>
      </trkpt>
      <trkpt lat="47.25424" lon="4.96872">
        <ele>375.1</ele>
        <time>2013-04-13T08:12:43.000Z</time>
      </trkpt>
      <trkpt lat="47.25421" lon="4.96868">
        <ele>375.5</ele>
        <time>2013-04-13T08:12:46.000Z</time>
      </trkpt>
      <trkpt lat="47.2542" lon="4.96866">
        <ele>375.9</ele>
        <time>2013-04-13T08:12:47.000Z</time>
      </trkpt>
      <trkpt lat="47.25418" lon="4.96862">
        <ele>375.9</ele>
        <time>2013-04-13T08:12:49.000Z</time>
      </trkpt>
      <trkpt lat="47.25417" lon="4.9686">
        <ele>376.6</ele>
        <time>2013-04-13T08:12:50.000Z</time>
      </trkpt>
      <trkpt lat="47.25416" lon="4.96856">
        <ele>375.6</ele>
        <time>2013-04-13T08:12:52.000Z</time>
      </trkpt>
      <trkpt lat="47.25415" lon="4.96854">
        <ele>375.3</ele>
        <time>2013-04-13T08:12:53.000Z</time>
      </trkpt>
      <trkpt lat="47.25414" lon="4.96848">
        <ele>374.6</ele>
        <time>2013-04-13T08:12:56.000Z</time>
      </trkpt>
      <trkpt lat="47.25413" lon="4.96847">
        <ele>374.5</ele>
        <time>2013-04-13T08:12:57.000Z</time>
      </trkpt>
      <trkpt lat="47.25412" lon="4.96841">
        <ele>373.9</ele>
        <time>2013-04-13T08:13:00.000Z</time>
      </trkpt>
      <trkpt lat="47.25412" lon="4.96839">
        <ele>374</ele>
        <time>2013-04-13T08:13:01.000Z</time>
      </trkpt>
      <trkpt lat="47.25411" lon="4.96834">
        <ele>374.2</ele>
        <time>2013-04-13T08:13:03.000Z</time>
      </trkpt>
      <trkpt lat="47.25411" lon="4.96832">
        <ele>374</ele>
        <time>2013-04-13T08:13:04.000Z</time>
      </trkpt>
      <trkpt lat="47.25409" lon="4.96827">
        <ele>374.3</ele>
        <time>2013-04-13T08:13:06.000Z</time>
      </trkpt>
      <trkpt lat="47.25408" lon="4.96825">
        <ele>374.5</ele>
        <time>2013-04-13T08:13:07.000Z</time>
      </trkpt>
      <trkpt lat="47.25407" lon="4.9682">
        <ele>373.3</ele>
        <time>2013-04-13T08:13:10.000Z</time>
      </trkpt>
      <trkpt lat="47.25406" lon="4.96818">
        <ele>373.7</ele>
        <time>2013-04-13T08:13:11.000Z</time>
      </trkpt>
      <trkpt lat="47.25405" lon="4.96815">
        <ele>375</ele>
        <time>2013-04-13T08:13:13.000Z</time>
      </trkpt>
      <trkpt lat="47.25404" lon="4.96812">
        <ele>375.9</ele>
        <time>2013-04-13T08:13:14.000Z</time>
      </trkpt>
      <trkpt lat="47.25402" lon="4.96808">
        <ele>376.8</ele>
        <time>2013-04-13T08:13:16.000Z</time>
      </trkpt>
      <trkpt lat="47.25401" lon="4.96806">
        <ele>377.1</ele>
        <time>2013-04-13T08:13:17.000Z</time>
      </trkpt>
      <trkpt lat="47.25399" lon="4.96802">
        <ele>377.7</ele>
        <time>2013-04-13T08:13:19.000Z</time>
      </trkpt>
      <trkpt lat="47.25399" lon="4.968">
        <ele>378</ele>
        <time>2013-04-13T08:13:20.000Z</time>
      </trkpt>
      <trkpt lat="47.25397" lon="4.96794">
        <ele>378.1</ele>
        <time>2013-04-13T08:13:23.000Z</time>
      </trkpt>
      <trkpt lat="47.25396" lon="4.96791">
        <ele>377.9</ele>
        <time>2013-04-13T08:13:24.000Z</time>
      </trkpt>
      <trkpt lat="47.25395" lon="4.96785">
        <ele>377.2</ele>
        <time>2013-04-13T08:13:27.000Z</time>
      </trkpt>
      <trkpt lat="47.25394" lon="4.96784">
        <ele>376.7</ele>
        <time>2013-04-13T08:13:28.000Z</time>
      </trkpt>
      <trkpt lat="47.25392" lon="4.96778">
        <ele>376.8</ele>
        <time>2013-04-13T08:13:31.000Z</time>
      </trkpt>
      <trkpt lat="47.25391" lon="4.96776">
        <ele>377.3</ele>
        <time>2013-04-13T08:13:32.000Z</time>
      </trkpt>
      <trkpt lat="47.2539" lon="4.96771">
        <ele>377</ele>
        <time>2013-04-13T08:13:34.000Z</time>
      </trkpt>
      <trkpt lat="47.25389" lon="4.96769">
        <ele>376.8</ele>
        <time>2013-04-13T08:13:35.000Z</time>
      </trkpt>
      <trkpt lat="47.25388" lon="4.96763">
        <ele>377.3</ele>
        <time>2013-04-13T08:13:39.000Z</time>
      </trkpt>
      <trkpt lat="47.25387" lon="4.96761">
        <ele>377.6</ele>
        <time>2013-04-13T08:13:40.000Z</time>
      </trkpt>
      <trkpt lat="47.25386" lon="4.96756">
        <ele>376.7</ele>
        <time>2013-04-13T08:13:43.000Z</time>
      </trkpt>
      <trkpt lat="47.25385" lon="4.96754">
        <ele>377.2</ele>
        <time>2013-04-13T08:13:44.000Z</time>
      </trkpt>
      <trkpt lat="47.25385" lon="4.96749">
        <ele>376.8</ele>
        <time>2013-04-13T08:13:46.000Z</time>
      </trkpt>
      <trkpt lat="47.25384" lon="4.96747">
        <ele>376.2</ele>
        <time>2013-04-13T08:13:47.000Z</time>
      </trkpt>
      <trkpt lat="47.25383" lon="4.96741">
        <ele>374.9</ele>
        <time>2013-04-13T08:13:50.000Z</time>
      </trkpt>
      <trkpt lat="47.25382" lon="4.96739">
        <ele>375.2</ele>
        <time>2013-04-13T08:13:51.000Z</time>
      </trkpt>
      <trkpt lat="47.2538" lon="4.96733">
        <ele>374.3</ele>
        <time>2013-04-13T08:13:54.000Z</time>
      </trkpt>
      <trkpt lat="47.2538" lon="4.96731">
        <ele>373.9</ele>
        <time>2013-04-13T08:13:55.000Z</time>
      </trkpt>
      <trkpt lat="47.25378" lon="4.96726">
        <ele>372.2</ele>
        <time>2013-04-13T08:13:58.000Z</time>
      </trkpt>
      <trkpt lat="47.25378" lon="4.96724">
        <ele>372.1</ele>
        <time>2013-04-13T08:13:59.000Z</time>
      </trkpt>
      <trkpt lat="47.25376" lon="4.96718">
        <ele>371.8</ele>
        <time>2013-04-13T08:14:02.000Z</time>
      </trkpt>
      <trkpt lat="47.25376" lon="4.96717">
        <ele>371.3</ele>
        <time>2013-04-13T08:14:03.000Z</time>
      </trkpt>
      <trkpt lat="47.25373" lon="4.96712">
        <ele>371.1</ele>
        <time>2013-04-13T08:14:08.000Z</time>
      </trkpt>
      <trkpt lat="47.25372" lon="4.96711">
        <ele>371</ele>
        <time>2013-04-13T08:14:09.000Z</time>
      </trkpt>
      <trkpt lat="47.25372" lon="4.96705">
        <ele>370.9</ele>
        <time>2013-04-13T08:14:14.000Z</time>
      </trkpt>
      <trkpt lat="47.25372" lon="4.96703">
        <ele>371</ele>
        <time>2013-04-13T08:14:15.000Z</time>
      </trkpt>
      <trkpt lat="47.25372" lon="4.96697">
        <ele>371.2</ele>
        <time>2013-04-13T08:14:19.000Z</time>
      </trkpt>
      <trkpt lat="47.25372" lon="4.96695">
        <ele>371.3</ele>
        <time>2013-04-13T08:14:20.000Z</time>
      </trkpt>
      <trkpt lat="47.25371" lon="4.96689">
        <ele>371.9</ele>
        <time>2013-04-13T08:14:23.000Z</time>
      </trkpt>
      <trkpt lat="47.25371" lon="4.96687">
        <ele>371.7</ele>
        <time>2013-04-13T08:14:24.000Z</time>
      </trkpt>
      <trkpt lat="47.25371" lon="4.96682">
        <ele>371.6</ele>
        <time>2013-04-13T08:14:27.000Z</time>
      </trkpt>
      <trkpt lat="47.2537" lon="4.9668">
        <ele>372</ele>
        <time>2013-04-13T08:14:28.000Z</time>
      </trkpt>
      <trkpt lat="47.2537" lon="4.96675">
        <ele>372.1</ele>
        <time>2013-04-13T08:14:31.000Z</time>
      </trkpt>
      <trkpt lat="47.2537" lon="4.96672">
        <ele>372.1</ele>
        <time>2013-04-13T08:14:32.000Z</time>
      </trkpt>
      <trkpt lat="47.25369" lon="4.96667">
        <ele>372.2</ele>
        <time>2013-04-13T08:14:34.000Z</time>
      </trkpt>
      <trkpt lat="47.25368" lon="4.96665">
        <ele>372.5</ele>
        <time>2013-04-13T08:14:35.000Z</time>
      </trkpt>
      <trkpt lat="47.25367" lon="4.96659">
        <ele>373.6</ele>
        <time>2013-04-13T08:14:37.000Z</time>
      </trkpt>
      <trkpt lat="47.25366" lon="4.96656">
        <ele>373.8</ele>
        <time>2013-04-13T08:14:38.000Z</time>
      </trkpt>
      <trkpt lat="47.25365" lon="4.96651">
        <ele>373.6</ele>
        <time>2013-04-13T08:14:40.000Z</time>
      </trkpt>
      <trkpt lat="47.25365" lon="4.96648">
        <ele>373.7</ele>
        <time>2013-04-13T08:14:41.000Z</time>
      </trkpt>
      <trkpt lat="47.25364" lon="4.96643">
        <ele>373.3</ele>
        <time>2013-04-13T08:14:43.000Z</time>
      </trkpt>
      <trkpt lat="47.25364" lon="4.9664">
        <ele>373.5</ele>
        <time>2013-04-13T08:14:44.000Z</time>
      </trkpt>
      <trkpt lat="47.25364" lon="4.96635">
        <ele>373.7</ele>
        <time>2013-04-13T08:14:46.000Z</time>
      </trkpt>
      <trkpt lat="47.25363" lon="4.96633">
        <ele>373.3</ele>
        <time>2013-04-13T08:14:47.000Z</time>
      </trkpt>
      <trkpt lat="47.25363" lon="4.96629">
        <ele>373.7</ele>
        <time>2013-04-13T08:14:49.000Z</time>
      </trkpt>
      <trkpt lat="47.25362" lon="4.96627">
        <ele>373.5</ele>
        <time>2013-04-13T08:14:50.000Z</time>
      </trkpt>
      <trkpt lat="47.25361" lon="4.96622">
        <ele>373.6</ele>
        <time>2013-04-13T08:14:52.000Z</time>
      </trkpt>
      <trkpt lat="47.25361" lon="4.9662">
        <ele>373.5</ele>
        <time>2013-04-13T08:14:53.000Z</time>
      </trkpt>
      <trkpt lat="47.2536" lon="4.96614">
        <ele>374</ele>
        <time>2013-04-13T08:14:56.000Z</time>
      </trkpt>
      <trkpt lat="47.2536" lon="4.96613">
        <ele>374</ele>
        <time>2013-04-13T08:14:57.000Z</time>
      </trkpt>
      <trkpt lat="47.2536" lon="4.96606">
        <ele>374.3</ele>
        <time>2013-04-13T08:15:00.000Z</time>
      </trkpt>
      <trkpt lat="47.2536" lon="4.96604">
        <ele>374.1</ele>
        <time>2013-04-13T08:15:01.000Z</time>
      </trkpt>
      <trkpt lat="47.2536" lon="4.96599">
        <ele>374.3</ele>
        <time>2013-04-13T08:15:03.000Z</time>
      </trkpt>
      <trkpt lat="47.2536" lon="4.96596">
        <ele>374.5</ele>
        <time>2013-04-13T08:15:04.000Z</time>
      </trkpt>
      <trkpt lat="47.25359" lon="4.96591">
        <ele>375.1</ele>
        <time>2013-04-13T08:15:06.000Z</time>
      </trkpt>
      <trkpt lat="47.25359" lon="4.96588">
        <ele>375.7</ele>
        <time>2013-04-13T08:15:07.000Z</time>
      </trkpt>
      <trkpt lat="47.25359" lon="4.96584">
        <ele>376.3</ele>
        <time>2013-04-13T08:15:09.000Z</time>
      </trkpt>
      <trkpt lat="47.25359" lon="4.96582">
        <ele>376.4</ele>
        <time>2013-04-13T08:15:10.000Z</time>
      </trkpt>
      <trkpt lat="47.25359" lon="4.96577">
        <ele>376.3</ele>
        <time>2013-04-13T08:15:12.000Z</time>
      </trkpt>
      <trkpt lat="47.25358" lon="4.96575">
        <ele>376.7</ele>
        <time>2013-04-13T08:15:13.000Z</time>
      </trkpt>
      <trkpt lat="47.25357" lon="4.96569">
        <ele>376.6</ele>
        <time>2013-04-13T08:15:16.000Z</time>
      </trkpt>
      <trkpt lat="47.25357" lon="4.96567">
        <ele>377.2</ele>
        <time>2013-04-13T08:15:17.000Z</time>
      </trkpt>
      <trkpt lat="47.25355" lon="4.96561">
        <ele>376.9</ele>
        <time>2013-04-13T08:15:20.000Z</time>
      </trkpt>
      <trkpt lat="47.25355" lon="4.96559">
        <ele>376.7</ele>
        <time>2013-04-13T08:15:21.000Z</time>
      </trkpt>
      <trkpt lat="47.25354" lon="4.96553">
        <ele>376.3</ele>
        <time>2013-04-13T08:15:25.000Z</time>
      </trkpt>
      <trkpt lat="47.25354" lon="4.96551">
        <ele>376.6</ele>
        <time>2013-04-13T08:15:26.000Z</time>
      </trkpt>
      <trkpt lat="47.25353" lon="4.96545">
        <ele>376.4</ele>
        <time>2013-04-13T08:15:29.000Z</time>
      </trkpt>
      <trkpt lat="47.25353" lon="4.96543">
        <ele>376.2</ele>
        <time>2013-04-13T08:15:30.000Z</time>
      </trkpt>
      <trkpt lat="47.25352" lon="4.96536">
        <ele>377.2</ele>
        <time>2013-04-13T08:15:33.000Z</time>
      </trkpt>
      <trkpt lat="47.25352" lon="4.96534">
        <ele>376.4</ele>
        <time>2013-04-13T08:15:34.000Z</time>
      </trkpt>
      <trkpt lat="47.2535" lon="4.96528">
        <ele>377</ele>
        <time>2013-04-13T08:15:37.000Z</time>
      </trkpt>
      <trkpt lat="47.25349" lon="4.96527">
        <ele>376.8</ele>
        <time>2013-04-13T08:15:38.000Z</time>
      </trkpt>
      <trkpt lat="47.25346" lon="4.96524">
        <ele>376.3</ele>
        <time>2013-04-13T08:15:40.000Z</time>
      </trkpt>
      <trkpt lat="47.25345" lon="4.96522">
        <ele>376.3</ele>
        <time>2013-04-13T08:15:41.000Z</time>
      </trkpt>
      <trkpt lat="47.25342" lon="4.96517">
        <ele>377</ele>
        <time>2013-04-13T08:15:43.000Z</time>
      </trkpt>
      <trkpt lat="47.25341" lon="4.96515">
        <ele>377.2</ele>
        <time>2013-04-13T08:15:44.000Z</time>
      </trkpt>
      <trkpt lat="47.25339" lon="4.96512">
        <ele>377.7</ele>
        <time>2013-04-13T08:15:45.000Z</time>
      </trkpt>
      <trkpt lat="47.25336" lon="4.9651">
        <ele>378.5</ele>
        <time>2013-04-13T08:15:46.000Z</time>
      </trkpt>
      <trkpt lat="47.25333" lon="4.96508">
        <ele>378.5</ele>
        <time>2013-04-13T08:15:47.000Z</time>
      </trkpt>
      <trkpt lat="47.25331" lon="4.96506">
        <ele>378.9</ele>
        <time>2013-04-13T08:15:48.000Z</time>
      </trkpt>
      <trkpt lat="47.25328" lon="4.96504">
        <ele>378.2</ele>
        <time>2013-04-13T08:15:49.000Z</time>
      </trkpt>
      <trkpt lat="47.25326" lon="4.96503">
        <ele>376.5</ele>
        <time>2013-04-13T08:15:50.000Z</time>
      </trkpt>
      <trkpt lat="47.25323" lon="4.965">
        <ele>375.6</ele>
        <time>2013-04-13T08:15:52.000Z</time>
      </trkpt>
      <trkpt lat="47.25322" lon="4.96499">
        <ele>377.2</ele>
        <time>2013-04-13T08:15:53.000Z</time>
      </trkpt>
      <trkpt lat="47.25319" lon="4.96498">
        <ele>378.6</ele>
        <time>2013-04-13T08:15:56.000Z</time>
      </trkpt>
      <trkpt lat="47.25317" lon="4.96497">
        <ele>379.2</ele>
        <time>2013-04-13T08:15:57.000Z</time>
      </trkpt>
      <trkpt lat="47.25313" lon="4.96496">
        <ele>380.3</ele>
        <time>2013-04-13T08:16:01.000Z</time>
      </trkpt>
      <trkpt lat="47.25312" lon="4.96496">
        <ele>380.2</ele>
        <time>2013-04-13T08:16:02.000Z</time>
      </trkpt>
      <trkpt lat="47.25308" lon="4.96499">
        <ele>381</ele>
        <time>2013-04-13T08:16:06.000Z</time>
      </trkpt>
      <trkpt lat="47.25307" lon="4.96499">
        <ele>380.3</ele>
        <time>2013-04-13T08:16:07.000Z</time>
      </trkpt>
      <trkpt lat="47.25304" lon="4.96501">
        <ele>381.1</ele>
        <time>2013-04-13T08:16:09.000Z</time>
      </trkpt>
      <trkpt lat="47.25302" lon="4.96502">
        <ele>381.3</ele>
        <time>2013-04-13T08:16:10.000Z</time>
      </trkpt>
      <trkpt lat="47.25299" lon="4.96505">
        <ele>372.2</ele>
        <time>2013-04-13T08:16:14.000Z</time>
      </trkpt>
      <trkpt lat="47.25298" lon="4.96506">
        <ele>372.2</ele>
        <time>2013-04-13T08:16:15.000Z</time>
      </trkpt>
      <trkpt lat="47.25297" lon="4.96512">
        <ele>370.6</ele>
        <time>2013-04-13T08:16:20.000Z</time>
      </trkpt>
      <trkpt lat="47.25297" lon="4.96512">
        <ele>370.5</ele>
        <time>2013-04-13T08:16:21.000Z</time>
      </trkpt>
      <trkpt lat="47.25295" lon="4.96517">
        <ele>370.8</ele>
        <time>2013-04-13T08:16:24.000Z</time>
      </trkpt>
      <trkpt lat="47.25294" lon="4.96518">
        <ele>371</ele>
        <time>2013-04-13T08:16:25.000Z</time>
      </trkpt>
      <trkpt lat="47.25292" lon="4.96521">
        <ele>371.3</ele>
        <time>2013-04-13T08:16:27.000Z</time>
      </trkpt>
      <trkpt lat="47.2529" lon="4.96523">
        <ele>371.4</ele>
        <time>2013-04-13T08:16:28.000Z</time>
      </trkpt>
      <trkpt lat="47.25288" lon="4.96526">
        <ele>371.6</ele>
        <time>2013-04-13T08:16:30.000Z</time>
      </trkpt>
      <trkpt lat="47.25286" lon="4.96527">
        <ele>371.7</ele>
        <time>2013-04-13T08:16:31.000Z</time>
      </trkpt>
      <trkpt lat="47.25284" lon="4.9653">
        <ele>371.9</ele>
        <time>2013-04-13T08:16:33.000Z</time>
      </trkpt>
      <trkpt lat="47.25283" lon="4.96533">
        <ele>372.3</ele>
        <time>2013-04-13T08:16:34.000Z</time>
      </trkpt>
      <trkpt lat="47.25282" lon="4.96537">
        <ele>372.6</ele>
        <time>2013-04-13T08:16:36.000Z</time>
      </trkpt>
      <trkpt lat="47.25281" lon="4.96539">
        <ele>372.8</ele>
        <time>2013-04-13T08:16:37.000Z</time>
      </trkpt>
      <trkpt lat="47.2528" lon="4.96545">
        <ele>373.4</ele>
        <time>2013-04-13T08:16:40.000Z</time>
      </trkpt>
      <trkpt lat="47.25279" lon="4.96546">
        <ele>373.4</ele>
        <time>2013-04-13T08:16:41.000Z</time>
      </trkpt>
      <trkpt lat="47.25277" lon="4.96551">
        <ele>373.2</ele>
        <time>2013-04-13T08:16:44.000Z</time>
      </trkpt>
      <trkpt lat="47.25277" lon="4.96553">
        <ele>373.2</ele>
        <time>2013-04-13T08:16:45.000Z</time>
      </trkpt>
      <trkpt lat="47.25276" lon="4.96557">
        <ele>373</ele>
        <time>2013-04-13T08:16:48.000Z</time>
      </trkpt>
      <trkpt lat="47.25275" lon="4.96559">
        <ele>372.9</ele>
        <time>2013-04-13T08:16:49.000Z</time>
      </trkpt>
      <trkpt lat="47.25274" lon="4.96565">
        <ele>374.4</ele>
        <time>2013-04-13T08:16:52.000Z</time>
      </trkpt>
      <trkpt lat="47.25273" lon="4.96567">
        <ele>374.1</ele>
        <time>2013-04-13T08:16:53.000Z</time>
      </trkpt>
      <trkpt lat="47.25272" lon="4.96572">
        <ele>374.3</ele>
        <time>2013-04-13T08:16:55.000Z</time>
      </trkpt>
      <trkpt lat="47.25271" lon="4.96575">
        <ele>374.6</ele>
        <time>2013-04-13T08:16:56.000Z</time>
      </trkpt>
      <trkpt lat="47.25268" lon="4.9658">
        <ele>375.7</ele>
        <time>2013-04-13T08:16:58.000Z</time>
      </trkpt>
      <trkpt lat="47.25267" lon="4.96583">
        <ele>375.4</ele>
        <time>2013-04-13T08:16:59.000Z</time>
      </trkpt>
      <trkpt lat="47.25264" lon="4.96587">
        <ele>375.3</ele>
        <time>2013-04-13T08:17:01.000Z</time>
      </trkpt>
      <trkpt lat="47.25263" lon="4.9659">
        <ele>375.4</ele>
        <time>2013-04-13T08:17:02.000Z</time>
      </trkpt>
      <trkpt lat="47.25261" lon="4.96594">
        <ele>375.3</ele>
        <time>2013-04-13T08:17:04.000Z</time>
      </trkpt>
      <trkpt lat="47.2526" lon="4.96597">
        <ele>375</ele>
        <time>2013-04-13T08:17:05.000Z</time>
      </trkpt>
      <trkpt lat="47.25259" lon="4.96601">
        <ele>375.6</ele>
        <time>2013-04-13T08:17:07.000Z</time>
      </trkpt>
      <trkpt lat="47.25259" lon="4.96604">
        <ele>375.5</ele>
        <time>2013-04-13T08:17:08.000Z</time>
      </trkpt>
      <trkpt lat="47.25258" lon="4.9661">
        <ele>376.4</ele>
        <time>2013-04-13T08:17:11.000Z</time>
      </trkpt>
      <trkpt lat="47.25258" lon="4.96612">
        <ele>376.6</ele>
        <time>2013-04-13T08:17:12.000Z</time>
      </trkpt>
      <trkpt lat="47.25257" lon="4.96617">
        <ele>377.5</ele>
        <time>2013-04-13T08:17:15.000Z</time>
      </trkpt>
      <trkpt lat="47.25256" lon="4.96619">
        <ele>377.8</ele>
        <time>2013-04-13T08:17:16.000Z</time>
      </trkpt>
      <trkpt lat="47.25254" lon="4.96622">
        <ele>377.3</ele>
        <time>2013-04-13T08:17:18.000Z</time>
      </trkpt>
      <trkpt lat="47.25252" lon="4.96623">
        <ele>377.8</ele>
        <time>2013-04-13T08:17:19.000Z</time>
      </trkpt>
      <trkpt lat="47.25249" lon="4.96626">
        <ele>378.4</ele>
        <time>2013-04-13T08:17:21.000Z</time>
      </trkpt>
      <trkpt lat="47.25247" lon="4.96627">
        <ele>378.1</ele>
        <time>2013-04-13T08:17:22.000Z</time>
      </trkpt>
      <trkpt lat="47.25243" lon="4.96631">
        <ele>379.1</ele>
        <time>2013-04-13T08:17:25.000Z</time>
      </trkpt>
      <trkpt lat="47.25243" lon="4.96632">
        <ele>379.1</ele>
        <time>2013-04-13T08:17:26.000Z</time>
      </trkpt>
      <trkpt lat="47.25241" lon="4.96636">
        <ele>378.9</ele>
        <time>2013-04-13T08:17:28.000Z</time>
      </trkpt>
      <trkpt lat="47.2524" lon="4.96639">
        <ele>377.5</ele>
        <time>2013-04-13T08:17:29.000Z</time>
      </trkpt>
      <trkpt lat="47.25239" lon="4.96644">
        <ele>377.5</ele>
        <time>2013-04-13T08:17:31.000Z</time>
      </trkpt>
      <trkpt lat="47.25238" lon="4.96647">
        <ele>377.8</ele>
        <time>2013-04-13T08:17:32.000Z</time>
      </trkpt>
      <trkpt lat="47.25236" lon="4.9665">
        <ele>378.3</ele>
        <time>2013-04-13T08:17:33.000Z</time>
      </trkpt>
      <trkpt lat="47.25234" lon="4.96652">
        <ele>378.5</ele>
        <time>2013-04-13T08:17:34.000Z</time>
      </trkpt>
      <trkpt lat="47.25232" lon="4.96655">
        <ele>379.2</ele>
        <time>2013-04-13T08:17:35.000Z</time>
      </trkpt>
      <trkpt lat="47.25231" lon="4.96657">
        <ele>379.5</ele>
        <time>2013-04-13T08:17:36.000Z</time>
      </trkpt>
      <trkpt lat="47.25227" lon="4.96661">
        <ele>379.9</ele>
        <time>2013-04-13T08:17:38.000Z</time>
      </trkpt>
      <trkpt lat="47.25226" lon="4.96662">
        <ele>380.6</ele>
        <time>2013-04-13T08:17:39.000Z</time>
      </trkpt>
      <trkpt lat="47.25223" lon="4.96665">
        <ele>381.9</ele>
        <time>2013-04-13T08:17:41.000Z</time>
      </trkpt>
      <trkpt lat="47.25221" lon="4.96666">
        <ele>381.6</ele>
        <time>2013-04-13T08:17:42.000Z</time>
      </trkpt>
      <trkpt lat="47.25218" lon="4.96669">
        <ele>381</ele>
        <time>2013-04-13T08:17:44.000Z</time>
      </trkpt>
      <trkpt lat="47.25217" lon="4.96671">
        <ele>381</ele>
        <time>2013-04-13T08:17:45.000Z</time>
      </trkpt>
      <trkpt lat="47.25215" lon="4.96674">
        <ele>381</ele>
        <time>2013-04-13T08:17:47.000Z</time>
      </trkpt>
      <trkpt lat="47.25214" lon="4.96677">
        <ele>381.3</ele>
        <time>2013-04-13T08:17:48.000Z</time>
      </trkpt>
      <trkpt lat="47.25212" lon="4.96681">
        <ele>381.4</ele>
        <time>2013-04-13T08:17:50.000Z</time>
      </trkpt>
      <trkpt lat="47.25212" lon="4.96683">
        <ele>382.1</ele>
        <time>2013-04-13T08:17:51.000Z</time>
      </trkpt>
      <trkpt lat="47.25209" lon="4.96687">
        <ele>381.7</ele>
        <time>2013-04-13T08:17:53.000Z</time>
      </trkpt>
      <trkpt lat="47.25208" lon="4.96689">
        <ele>381.1</ele>
        <time>2013-04-13T08:17:54.000Z</time>
      </trkpt>
      <trkpt lat="47.25206" lon="4.96691">
        <ele>380.9</ele>
        <time>2013-04-13T08:17:55.000Z</time>
      </trkpt>
      <trkpt lat="47.25205" lon="4.96694">
        <ele>380.2</ele>
        <time>2013-04-13T08:17:56.000Z</time>
      </trkpt>
      <trkpt lat="47.25203" lon="4.96699">
        <ele>380</ele>
        <time>2013-04-13T08:17:58.000Z</time>
      </trkpt>
      <trkpt lat="47.25202" lon="4.96702">
        <ele>380.1</ele>
        <time>2013-04-13T08:17:59.000Z</time>
      </trkpt>
      <trkpt lat="47.25201" lon="4.96706">
        <ele>379.8</ele>
        <time>2013-04-13T08:18:01.000Z</time>
      </trkpt>
      <trkpt lat="47.252" lon="4.96708">
        <ele>380</ele>
        <time>2013-04-13T08:18:02.000Z</time>
      </trkpt>
      <trkpt lat="47.25199" lon="4.96712">
        <ele>380.2</ele>
        <time>2013-04-13T08:18:04.000Z</time>
      </trkpt>
      <trkpt lat="47.25198" lon="4.96714">
        <ele>379.3</ele>
        <time>2013-04-13T08:18:05.000Z</time>
      </trkpt>
      <trkpt lat="47.25196" lon="4.96719">
        <ele>377.9</ele>
        <time>2013-04-13T08:18:07.000Z</time>
      </trkpt>
      <trkpt lat="47.25195" lon="4.96721">
        <ele>377.7</ele>
        <time>2013-04-13T08:18:08.000Z</time>
      </trkpt>
      <trkpt lat="47.25193" lon="4.96727">
        <ele>378.1</ele>
        <time>2013-04-13T08:18:10.000Z</time>
      </trkpt>
      <trkpt lat="47.25192" lon="4.96729">
        <ele>377.8</ele>
        <time>2013-04-13T08:18:11.000Z</time>
      </trkpt>
      <trkpt lat="47.25191" lon="4.96734">
        <ele>377.9</ele>
        <time>2013-04-13T08:18:13.000Z</time>
      </trkpt>
      <trkpt lat="47.2519" lon="4.96735">
        <ele>378.5</ele>
        <time>2013-04-13T08:18:14.000Z</time>
      </trkpt>
      <trkpt lat="47.25188" lon="4.96741">
        <ele>378</ele>
        <time>2013-04-13T08:18:17.000Z</time>
      </trkpt>
      <trkpt lat="47.25188" lon="4.96743">
        <ele>377.3</ele>
        <time>2013-04-13T08:18:18.000Z</time>
      </trkpt>
      <trkpt lat="47.25187" lon="4.96748">
        <ele>378.5</ele>
        <time>2013-04-13T08:18:20.000Z</time>
      </trkpt>
      <trkpt lat="47.25187" lon="4.9675">
        <ele>379.4</ele>
        <time>2013-04-13T08:18:21.000Z</time>
      </trkpt>
      <trkpt lat="47.25186" lon="4.96754">
        <ele>378.3</ele>
        <time>2013-04-13T08:18:23.000Z</time>
      </trkpt>
      <trkpt lat="47.25185" lon="4.96757">
        <ele>377.9</ele>
        <time>2013-04-13T08:18:24.000Z</time>
      </trkpt>
      <trkpt lat="47.25185" lon="4.96762">
        <ele>378.8</ele>
        <time>2013-04-13T08:18:26.000Z</time>
      </trkpt>
      <trkpt lat="47.25184" lon="4.96765">
        <ele>379.2</ele>
        <time>2013-04-13T08:18:27.000Z</time>
      </trkpt>
      <trkpt lat="47.25184" lon="4.96771">
        <ele>379.1</ele>
        <time>2013-04-13T08:18:29.000Z</time>
      </trkpt>
      <trkpt lat="47.25183" lon="4.96773">
        <ele>379.4</ele>
        <time>2013-04-13T08:18:30.000Z</time>
      </trkpt>
      <trkpt lat="47.25181" lon="4.96777">
        <ele>379.6</ele>
        <time>2013-04-13T08:18:32.000Z</time>
      </trkpt>
      <trkpt lat="47.25181" lon="4.96778">
        <ele>379.7</ele>
        <time>2013-04-13T08:18:33.000Z</time>
      </trkpt>
      <trkpt lat="47.25178" lon="4.96783">
        <ele>380.1</ele>
        <time>2013-04-13T08:18:36.000Z</time>
      </trkpt>
      <trkpt lat="47.25176" lon="4.96784">
        <ele>380</ele>
        <time>2013-04-13T08:18:37.000Z</time>
      </trkpt>
      <trkpt lat="47.25174" lon="4.96788">
        <ele>380.4</ele>
        <time>2013-04-13T08:18:39.000Z</time>
      </trkpt>
      <trkpt lat="47.25173" lon="4.96791">
        <ele>380.4</ele>
        <time>2013-04-13T08:18:40.000Z</time>
      </trkpt>
      <trkpt lat="47.25172" lon="4.96795">
        <ele>375.6</ele>
        <time>2013-04-13T08:18:42.000Z</time>
      </trkpt>
      <trkpt lat="47.25171" lon="4.96797">
        <ele>374.6</ele>
        <time>2013-04-13T08:18:43.000Z</time>
      </trkpt>
      <trkpt lat="47.2517" lon="4.968">
        <ele>375.2</ele>
        <time>2013-04-13T08:18:44.000Z</time>
      </trkpt>
      <trkpt lat="47.25168" lon="4.96802">
        <ele>374.6</ele>
        <time>2013-04-13T08:18:45.000Z</time>
      </trkpt>
      <trkpt lat="47.25166" lon="4.96808">
        <ele>372.4</ele>
        <time>2013-04-13T08:18:47.000Z</time>
      </trkpt>
      <trkpt lat="47.25166" lon="4.96811">
        <ele>371.3</ele>
        <time>2013-04-13T08:18:48.000Z</time>
      </trkpt>
      <trkpt lat="47.25167" lon="4.96816">
        <ele>369.9</ele>
        <time>2013-04-13T08:18:50.000Z</time>
      </trkpt>
      <trkpt lat="47.25167" lon="4.96819">
        <ele>370.4</ele>
        <time>2013-04-13T08:18:51.000Z</time>
      </trkpt>
      <trkpt lat="47.25166" lon="4.96823">
        <ele>370.9</ele>
        <time>2013-04-13T08:18:53.000Z</time>
      </trkpt>
      <trkpt lat="47.25166" lon="4.96826">
        <ele>370.7</ele>
        <time>2013-04-13T08:18:54.000Z</time>
      </trkpt>
      <trkpt lat="47.25165" lon="4.96831">
        <ele>372.2</ele>
        <time>2013-04-13T08:18:56.000Z</time>
      </trkpt>
      <trkpt lat="47.25164" lon="4.96833">
        <ele>372.4</ele>
        <time>2013-04-13T08:18:57.000Z</time>
      </trkpt>
      <trkpt lat="47.25163" lon="4.96838">
        <ele>370.7</ele>
        <time>2013-04-13T08:19:00.000Z</time>
      </trkpt>
      <trkpt lat="47.25162" lon="4.9684">
        <ele>370.8</ele>
        <time>2013-04-13T08:19:01.000Z</time>
      </trkpt>
      <trkpt lat="47.2516" lon="4.96845">
        <ele>372.7</ele>
        <time>2013-04-13T08:19:04.000Z</time>
      </trkpt>
      <trkpt lat="47.25159" lon="4.96847">
        <ele>372.2</ele>
        <time>2013-04-13T08:19:05.000Z</time>
      </trkpt>
      <trkpt lat="47.25158" lon="4.96852">
        <ele>372.5</ele>
        <time>2013-04-13T08:19:07.000Z</time>
      </trkpt>
      <trkpt lat="47.25157" lon="4.96854">
        <ele>372.9</ele>
        <time>2013-04-13T08:19:08.000Z</time>
      </trkpt>
      <trkpt lat="47.25155" lon="4.96858">
        <ele>373.7</ele>
        <time>2013-04-13T08:19:10.000Z</time>
      </trkpt>
      <trkpt lat="47.25154" lon="4.96859">
        <ele>373</ele>
        <time>2013-04-13T08:19:11.000Z</time>
      </trkpt>
      <trkpt lat="47.25152" lon="4.96863">
        <ele>373.1</ele>
        <time>2013-04-13T08:19:13.000Z</time>
      </trkpt>
      <trkpt lat="47.25152" lon="4.96866">
        <ele>373</ele>
        <time>2013-04-13T08:19:14.000Z</time>
      </trkpt>
      <trkpt lat="47.2515" lon="4.9687">
        <ele>373</ele>
        <time>2013-04-13T08:19:16.000Z</time>
      </trkpt>
      <trkpt lat="47.2515" lon="4.96872">
        <ele>372.8</ele>
        <time>2013-04-13T08:19:17.000Z</time>
      </trkpt>
      <trkpt lat="47.25149" lon="4.96876">
        <ele>373</ele>
        <time>2013-04-13T08:19:19.000Z</time>
      </trkpt>
      <trkpt lat="47.25148" lon="4.96879">
        <ele>373.1</ele>
        <time>2013-04-13T08:19:20.000Z</time>
      </trkpt>
      <trkpt lat="47.25146" lon="4.96884">
        <ele>373.8</ele>
        <time>2013-04-13T08:19:22.000Z</time>
      </trkpt>
      <trkpt lat="47.25146" lon="4.96886">
        <ele>373.8</ele>
        <time>2013-04-13T08:19:23.000Z</time>
      </trkpt>
      <trkpt lat="47.25144" lon="4.96891">
        <ele>373.9</ele>
        <time>2013-04-13T08:19:25.000Z</time>
      </trkpt>
      <trkpt lat="47.25144" lon="4.96893">
        <ele>373.9</ele>
        <time>2013-04-13T08:19:26.000Z</time>
      </trkpt>
      <trkpt lat="47.25142" lon="4.96897">
        <ele>373.5</ele>
        <time>2013-04-13T08:19:28.000Z</time>
      </trkpt>
      <trkpt lat="47.25142" lon="4.96899">
        <ele>373.6</ele>
        <time>2013-04-13T08:19:29.000Z</time>
      </trkpt>
      <trkpt lat="47.2514" lon="4.96905">
        <ele>375</ele>
        <time>2013-04-13T08:19:32.000Z</time>
      </trkpt>
      <trkpt lat="47.2514" lon="4.96907">
        <ele>375</ele>
        <time>2013-04-13T08:19:33.000Z</time>
      </trkpt>
      <trkpt lat="47.25139" lon="4.96913">
        <ele>375</ele>
        <time>2013-04-13T08:19:36.000Z</time>
      </trkpt>
      <trkpt lat="47.25138" lon="4.96915">
        <ele>374.7</ele>
        <time>2013-04-13T08:19:37.000Z</time>
      </trkpt>
      <trkpt lat="47.25136" lon="4.96919">
        <ele>375.2</ele>
        <time>2013-04-13T08:19:39.000Z</time>
      </trkpt>
      <trkpt lat="47.25135" lon="4.96921">
        <ele>375.1</ele>
        <time>2013-04-13T08:19:40.000Z</time>
      </trkpt>
      <trkpt lat="47.25133" lon="4.96925">
        <ele>375</ele>
        <time>2013-04-13T08:19:42.000Z</time>
      </trkpt>
      <trkpt lat="47.25132" lon="4.96927">
        <ele>375.2</ele>
        <time>2013-04-13T08:19:43.000Z</time>
      </trkpt>
      <trkpt lat="47.2513" lon="4.9693">
        <ele>374.9</ele>
        <time>2013-04-13T08:19:45.000Z</time>
      </trkpt>
      <trkpt lat="47.25128" lon="4.96933">
        <ele>374.6</ele>
        <time>2013-04-13T08:19:46.000Z</time>
      </trkpt>
      <trkpt lat="47.25126" lon="4.96937">
        <ele>373.6</ele>
        <time>2013-04-13T08:19:48.000Z</time>
      </trkpt>
      <trkpt lat="47.25125" lon="4.96939">
        <ele>373.4</ele>
        <time>2013-04-13T08:19:49.000Z</time>
      </trkpt>
      <trkpt lat="47.25124" lon="4.96944">
        <ele>374.2</ele>
        <time>2013-04-13T08:19:51.000Z</time>
      </trkpt>
      <trkpt lat="47.25123" lon="4.96946">
        <ele>372.9</ele>
        <time>2013-04-13T08:19:52.000Z</time>
      </trkpt>
      <trkpt lat="47.2512" lon="4.96951">
        <ele>373</ele>
        <time>2013-04-13T08:19:55.000Z</time>
      </trkpt>
      <trkpt lat="47.2512" lon="4.96952">
        <ele>373</ele>
        <time>2013-04-13T08:19:56.000Z</time>
      </trkpt>
      <trkpt lat="47.25118" lon="4.96957">
        <ele>373.5</ele>
        <time>2013-04-13T08:19:59.000Z</time>
      </trkpt>
      <trkpt lat="47.25118" lon="4.96959">
        <ele>372.4</ele>
        <time>2013-04-13T08:20:00.000Z</time>
      </trkpt>
      <trkpt lat="47.25115" lon="4.96964">
        <ele>372.9</ele>
        <time>2013-04-13T08:20:03.000Z</time>
      </trkpt>
      <trkpt lat="47.25114" lon="4.96966">
        <ele>371.8</ele>
        <time>2013-04-13T08:20:04.000Z</time>
      </trkpt>
      <trkpt lat="47.25112" lon="4.9697">
        <ele>371.5</ele>
        <time>2013-04-13T08:20:06.000Z</time>
      </trkpt>
      <trkpt lat="47.25111" lon="4.96972">
        <ele>372.1</ele>
        <time>2013-04-13T08:20:07.000Z</time>
      </trkpt>
      <trkpt lat="47.25109" lon="4.96976">
        <ele>370.5</ele>
        <time>2013-04-13T08:20:09.000Z</time>
      </trkpt>
      <trkpt lat="47.25108" lon="4.96978">
        <ele>370</ele>
        <time>2013-04-13T08:20:10.000Z</time>
      </trkpt>
      <trkpt lat="47.25106" lon="4.96982">
        <ele>369.2</ele>
        <time>2013-04-13T08:20:12.000Z</time>
      </trkpt>
      <trkpt lat="47.25105" lon="4.96983">
        <ele>368.8</ele>
        <time>2013-04-13T08:20:13.000Z</time>
      </trkpt>
      <trkpt lat="47.25102" lon="4.96987">
        <ele>369.4</ele>
        <time>2013-04-13T08:20:15.000Z</time>
      </trkpt>
      <trkpt lat="47.251" lon="4.96989">
        <ele>369.4</ele>
        <time>2013-04-13T08:20:16.000Z</time>
      </trkpt>
      <trkpt lat="47.25097" lon="4.96993">
        <ele>369.3</ele>
        <time>2013-04-13T08:20:18.000Z</time>
      </trkpt>
      <trkpt lat="47.25096" lon="4.96994">
        <ele>368.1</ele>
        <time>2013-04-13T08:20:19.000Z</time>
      </trkpt>
      <trkpt lat="47.25094" lon="4.96998">
        <ele>368.5</ele>
        <time>2013-04-13T08:20:22.000Z</time>
      </trkpt>
      <trkpt lat="47.25093" lon="4.97">
        <ele>368.3</ele>
        <time>2013-04-13T08:20:23.000Z</time>
      </trkpt>
      <trkpt lat="47.25091" lon="4.97005">
        <ele>367.6</ele>
        <time>2013-04-13T08:20:26.000Z</time>
      </trkpt>
      <trkpt lat="47.2509" lon="4.97006">
        <ele>367.6</ele>
        <time>2013-04-13T08:20:27.000Z</time>
      </trkpt>
      <trkpt lat="47.25088" lon="4.9701">
        <ele>367.8</ele>
        <time>2013-04-13T08:20:30.000Z</time>
      </trkpt>
      <trkpt lat="47.25087" lon="4.97011">
        <ele>367</ele>
        <time>2013-04-13T08:20:31.000Z</time>
      </trkpt>
      <trkpt lat="47.25084" lon="4.97015">
        <ele>364.3</ele>
        <time>2013-04-13T08:20:33.000Z</time>
      </trkpt>
      <trkpt lat="47.25083" lon="4.97017">
        <ele>364.9</ele>
        <time>2013-04-13T08:20:34.000Z</time>
      </trkpt>
      <trkpt lat="47.2508" lon="4.97021">
        <ele>365.5</ele>
        <time>2013-04-13T08:20:36.000Z</time>
      </trkpt>
      <trkpt lat="47.25078" lon="4.97022">
        <ele>364.5</ele>
        <time>2013-04-13T08:20:37.000Z</time>
      </trkpt>
      <trkpt lat="47.25074" lon="4.97021">
        <ele>364</ele>
        <time>2013-04-13T08:20:40.000Z</time>
      </trkpt>
      <trkpt lat="47.25073" lon="4.97021">
        <ele>364</ele>
        <time>2013-04-13T08:20:41.000Z</time>
      </trkpt>
      <trkpt lat="47.25069" lon="4.97018">
        <ele>363.6</ele>
        <time>2013-04-13T08:20:44.000Z</time>
      </trkpt>
      <trkpt lat="47.25068" lon="4.97016">
        <ele>363.4</ele>
        <time>2013-04-13T08:20:45.000Z</time>
      </trkpt>
      <trkpt lat="47.25064" lon="4.97012">
        <ele>363.5</ele>
        <time>2013-04-13T08:20:48.000Z</time>
      </trkpt>
      <trkpt lat="47.25063" lon="4.97011">
        <ele>363.4</ele>
        <time>2013-04-13T08:20:49.000Z</time>
      </trkpt>
      <trkpt lat="47.25061" lon="4.97007">
        <ele>366.4</ele>
        <time>2013-04-13T08:20:53.000Z</time>
      </trkpt>
      <trkpt lat="47.2506" lon="4.97005">
        <ele>367.2</ele>
        <time>2013-04-13T08:20:54.000Z</time>
      </trkpt>
      <trkpt lat="47.25059" lon="4.97">
        <ele>366.6</ele>
        <time>2013-04-13T08:20:57.000Z</time>
      </trkpt>
      <trkpt lat="47.25059" lon="4.96999">
        <ele>365.9</ele>
        <time>2013-04-13T08:20:58.000Z</time>
      </trkpt>
      <trkpt lat="47.25056" lon="4.96994">
        <ele>366.7</ele>
        <time>2013-04-13T08:21:01.000Z</time>
      </trkpt>
      <trkpt lat="47.25055" lon="4.96993">
        <ele>367.2</ele>
        <time>2013-04-13T08:21:02.000Z</time>
      </trkpt>
      <trkpt lat="47.25052" lon="4.96989">
        <ele>368.2</ele>
        <time>2013-04-13T08:21:05.000Z</time>
      </trkpt>
      <trkpt lat="47.2505" lon="4.96988">
        <ele>368.2</ele>
        <time>2013-04-13T08:21:06.000Z</time>
      </trkpt>
      <trkpt lat="47.25047" lon="4.96985">
        <ele>367.1</ele>
        <time>2013-04-13T08:21:09.000Z</time>
      </trkpt>
      <trkpt lat="47.25046" lon="4.96984">
        <ele>364.7</ele>
        <time>2013-04-13T08:21:10.000Z</time>
      </trkpt>
      <trkpt lat="47.25043" lon="4.9698">
        <ele>365.3</ele>
        <time>2013-04-13T08:21:14.000Z</time>
      </trkpt>
      <trkpt lat="47.25042" lon="4.96979">
        <ele>365</ele>
        <time>2013-04-13T08:21:15.000Z</time>
      </trkpt>
      <trkpt lat="47.25039" lon="4.96976">
        <ele>367.3</ele>
        <time>2013-04-13T08:21:18.000Z</time>
      </trkpt>
      <trkpt lat="47.25038" lon="4.96975">
        <ele>366.2</ele>
        <time>2013-04-13T08:21:19.000Z</time>
      </trkpt>
      <trkpt lat="47.25034" lon="4.96972">
        <ele>365.5</ele>
        <time>2013-04-13T08:21:22.000Z</time>
      </trkpt>
      <trkpt lat="47.25033" lon="4.96971">
        <ele>365.5</ele>
        <time>2013-04-13T08:21:23.000Z</time>
      </trkpt>
      <trkpt lat="47.25029" lon="4.96967">
        <ele>365.3</ele>
        <time>2013-04-13T08:21:26.000Z</time>
      </trkpt>
      <trkpt lat="47.25028" lon="4.96966">
        <ele>365.2</ele>
        <time>2013-04-13T08:21:27.000Z</time>
      </trkpt>
      <trkpt lat="47.25026" lon="4.96963">
        <ele>365.2</ele>
        <time>2013-04-13T08:21:29.000Z</time>
      </trkpt>
      <trkpt lat="47.25024" lon="4.96962">
        <ele>364.7</ele>
        <time>2013-04-13T08:21:30.000Z</time>
      </trkpt>
      <trkpt lat="47.25021" lon="4.96959">
        <ele>365.3</ele>
        <time>2013-04-13T08:21:33.000Z</time>
      </trkpt>
      <trkpt lat="47.2502" lon="4.96959">
        <ele>365.4</ele>
        <time>2013-04-13T08:21:34.000Z</time>
      </trkpt>
      <trkpt lat="47.25016" lon="4.96956">
        <ele>366.5</ele>
        <time>2013-04-13T08:21:37.000Z</time>
      </trkpt>
      <trkpt lat="47.25015" lon="4.96956">
        <ele>366.7</ele>
        <time>2013-04-13T08:21:38.000Z</time>
      </trkpt>
      <trkpt lat="47.25011" lon="4.96955">
        <ele>366.4</ele>
        <time>2013-04-13T08:21:40.000Z</time>
      </trkpt>
      <trkpt lat="47.2501" lon="4.96954">
        <ele>366.4</ele>
        <time>2013-04-13T08:21:41.000Z</time>
      </trkpt>
      <trkpt lat="47.25006" lon="4.96951">
        <ele>367.1</ele>
        <time>2013-04-13T08:21:44.000Z</time>
      </trkpt>
      <trkpt lat="47.25005" lon="4.9695">
        <ele>367.9</ele>
        <time>2013-04-13T08:21:45.000Z</time>
      </trkpt>
      <trkpt lat="47.25003" lon="4.96944">
        <ele>368.6</ele>
        <time>2013-04-13T08:21:49.000Z</time>
      </trkpt>
      <trkpt lat="47.25003" lon="4.96943">
        <ele>369.2</ele>
        <time>2013-04-13T08:21:50.000Z</time>
      </trkpt>
      <trkpt lat="47.25004" lon="4.96936">
        <ele>368.6</ele>
        <time>2013-04-13T08:21:54.000Z</time>
      </trkpt>
      <trkpt lat="47.25004" lon="4.96935">
        <ele>368.5</ele>
        <time>2013-04-13T08:21:55.000Z</time>
      </trkpt>
      <trkpt lat="47.25004" lon="4.96929">
        <ele>367.2</ele>
        <time>2013-04-13T08:22:14.000Z</time>
      </trkpt>
      <trkpt lat="47.25003" lon="4.96928">
        <ele>367.5</ele>
        <time>2013-04-13T08:22:15.000Z</time>
      </trkpt>
      <trkpt lat="47.25003" lon="4.96924">
        <ele>366.8</ele>
        <time>2013-04-13T08:22:18.000Z</time>
      </trkpt>
      <trkpt lat="47.25002" lon="4.96921">
        <ele>366.5</ele>
        <time>2013-04-13T08:22:19.000Z</time>
      </trkpt>
      <trkpt lat="47.25001" lon="4.96919">
        <ele>367.4</ele>
        <time>2013-04-13T08:22:36.000Z</time>
      </trkpt>
    </trkseg>
  </trk>
</gpx>